<?xml version="1.0" encoding="UTF-8" standalone="no" ?><gpx xmlns="http://www.topografix.com/GPX/1/1" xmlns:gpxx="http://www.garmin.com/xmlschemas/GpxExtensions/v3" xmlns:wptx1="http://www.garmin.com/xmlschemas/WaypointExtension/v1" xmlns:gpxtpx="http://www.garmin.com/xmlschemas/TrackPointExtension/v1" creator="GuideVTT.com" version="1.1" xmlns:xsi="http://www.w3.org/2001/XMLSchema-instance" xsi:schemaLocation="http://www.topografix.com/GPX/1/1 http://www.topografix.com/GPX/1/1/gpx.xsd http://www.garmin.com/xmlschemas/GpxExtensions/v3 http://www8.garmin.com/xmlschemas/GpxExtensionsv3.xsd http://www.garmin.com/xmlschemas/WaypointExtension/v1 http://www8.garmin.com/xmlschemas/WaypointExtensionv1.xsd http://www.garmin.com/xmlschemas/TrackPointExtension/v1 http://www.garmin.com/xmlschemas/TrackPointExtensionv1.xsd">
<metadata><link href="http://www.garmin.com"><text>Garmin International</text></link><time>2013-06-22T15:13:50Z</time></metadata>
<trk><name>montegeneroso2008.gpx</name><extensions><gpxx:TrackExtension><gpxx:DisplayColor>Cyan</gpxx:DisplayColor></gpxx:TrackExtension></extensions><trkseg>
<trkpt lat="45.85846510" lon="8.97496910"><ele>347.173004</ele><time>2008-06-01T05:29:33Z</time></trkpt>
<trkpt lat="45.85843169" lon="8.97501393"><ele>347.173218</ele><time>2008-06-01T05:29:53Z</time></trkpt>
<trkpt lat="45.85830336" lon="8.97515944"><ele>347.173218</ele><time>2008-06-01T05:30:18Z</time></trkpt>
<trkpt lat="45.85786952" lon="8.97573863"><ele>347.653931</ele><time>2008-06-01T05:30:27Z</time></trkpt>
<trkpt lat="45.85771286" lon="8.97632654"><ele>348.134644</ele><time>2008-06-01T05:30:32Z</time></trkpt>
<trkpt lat="45.85775628" lon="8.97883088"><ele>346.692627</ele><time>2008-06-01T05:30:49Z</time></trkpt>
<trkpt lat="45.85766559" lon="8.97959665"><ele>345.25061</ele><time>2008-06-01T05:30:54Z</time></trkpt>
<trkpt lat="45.85758135" lon="8.98017744"><ele>343.808594</ele><time>2008-06-01T05:30:58Z</time></trkpt>
<trkpt lat="45.85735059" lon="8.98195976"><ele>343.327881</ele><time>2008-06-01T05:31:11Z</time></trkpt>
<trkpt lat="45.85733425" lon="8.98209253"><ele>343.327881</ele><time>2008-06-01T05:31:12Z</time></trkpt>
<trkpt lat="45.85717734" lon="8.98297188"><ele>344.289429</ele><time>2008-06-01T05:31:22Z</time></trkpt>
<trkpt lat="45.85696226" lon="8.98442295"><ele>347.653931</ele><time>2008-06-01T05:31:36Z</time></trkpt>
<trkpt lat="45.85667535" lon="8.98636797"><ele>350.537842</ele><time>2008-06-01T05:31:54Z</time></trkpt>
<trkpt lat="45.85650838" lon="8.98754094"><ele>353.421875</ele><time>2008-06-01T05:32:07Z</time></trkpt>
<trkpt lat="45.85644619" lon="8.98801066"><ele>354.383179</ele><time>2008-06-01T05:32:12Z</time></trkpt>
<trkpt lat="45.85653629" lon="8.98839757"><ele>355.825195</ele><time>2008-06-01T05:32:17Z</time></trkpt>
<trkpt lat="45.85658222" lon="8.98885245"><ele>356.786377</ele><time>2008-06-01T05:32:23Z</time></trkpt>
<trkpt lat="45.85630428" lon="8.99027704"><ele>355.825195</ele><time>2008-06-01T05:32:35Z</time></trkpt>
<trkpt lat="45.85613354" lon="8.99130802"><ele>353.902588</ele><time>2008-06-01T05:32:43Z</time></trkpt>
<trkpt lat="45.85627335" lon="8.99160264"><ele>354.86377</ele><time>2008-06-01T05:32:49Z</time></trkpt>
<trkpt lat="45.85685916" lon="8.99171672"><ele>358.228394</ele><time>2008-06-01T05:33:00Z</time></trkpt>
<trkpt lat="45.85697408" lon="8.99174966"><ele>358.708984</ele><time>2008-06-01T05:33:02Z</time></trkpt>
<trkpt lat="45.85708053" lon="8.99181269"><ele>359.67041</ele><time>2008-06-01T05:33:04Z</time></trkpt>
<trkpt lat="45.85715907" lon="8.99203188"><ele>360.151123</ele><time>2008-06-01T05:33:07Z</time></trkpt>
<trkpt lat="45.85737037" lon="8.99342109"><ele>360.631714</ele><time>2008-06-01T05:33:22Z</time></trkpt>
<trkpt lat="45.85754053" lon="8.99366166"><ele>361.59314</ele><time>2008-06-01T05:33:26Z</time></trkpt>
<trkpt lat="45.85798083" lon="8.99408109"><ele>364.476929</ele><time>2008-06-01T05:33:35Z</time></trkpt>
<trkpt lat="45.85806264" lon="8.99417756"><ele>365.918945</ele><time>2008-06-01T05:33:37Z</time></trkpt>
<trkpt lat="45.85810103" lon="8.99422735"><ele>365.918945</ele><time>2008-06-01T05:33:38Z</time></trkpt>
<trkpt lat="45.85841669" lon="8.99492715"><ele>369.764282</ele><time>2008-06-01T05:33:50Z</time></trkpt>
<trkpt lat="45.85873059" lon="8.99538388"><ele>373.609497</ele><time>2008-06-01T05:34:00Z</time></trkpt>
<trkpt lat="45.85876177" lon="8.99542789"><ele>373.609497</ele><time>2008-06-01T05:34:01Z</time></trkpt>
<trkpt lat="45.85917307" lon="8.99605536"><ele>376.49353</ele><time>2008-06-01T05:34:16Z</time></trkpt>
<trkpt lat="45.85926988" lon="8.99665039"><ele>379.858032</ele><time>2008-06-01T05:34:27Z</time></trkpt>
<trkpt lat="45.85924733" lon="8.99735137"><ele>382.742065</ele><time>2008-06-01T05:34:40Z</time></trkpt>
<trkpt lat="45.85935957" lon="8.99812385"><ele>386.106689</ele><time>2008-06-01T05:34:55Z</time></trkpt>
<trkpt lat="45.85938907" lon="8.99822175"><ele>387.067993</ele><time>2008-06-01T05:34:57Z</time></trkpt>
<trkpt lat="45.85948588" lon="8.99874603"><ele>389.951904</ele><time>2008-06-01T05:35:07Z</time></trkpt>
<trkpt lat="45.85953064" lon="8.99943603"><ele>393.316528</ele><time>2008-06-01T05:35:20Z</time></trkpt>
<trkpt lat="45.85959057" lon="9.00011974"><ele>396.681152</ele><time>2008-06-01T05:35:33Z</time></trkpt>
<trkpt lat="45.85971446" lon="9.00073229"><ele>400.045898</ele><time>2008-06-01T05:35:46Z</time></trkpt>
<trkpt lat="45.85972309" lon="9.00140896"><ele>402.929688</ele><time>2008-06-01T05:35:59Z</time></trkpt>
<trkpt lat="45.85975452" lon="9.00154425"><ele>403.4104</ele><time>2008-06-01T05:36:02Z</time></trkpt>
<trkpt lat="45.86002224" lon="9.00188246"><ele>402.449097</ele><time>2008-06-01T05:36:09Z</time></trkpt>
<trkpt lat="45.86008318" lon="9.00223450"><ele>400.526489</ele><time>2008-06-01T05:36:13Z</time></trkpt>
<trkpt lat="45.86004177" lon="9.00275024"><ele>400.526489</ele><time>2008-06-01T05:36:18Z</time></trkpt>
<trkpt lat="45.86008385" lon="9.00308149"><ele>402.449097</ele><time>2008-06-01T05:36:22Z</time></trkpt>
<trkpt lat="45.86005770" lon="9.00342255"><ele>403.891113</ele><time>2008-06-01T05:36:27Z</time></trkpt>
<trkpt lat="45.86000464" lon="9.00355624"><ele>403.4104</ele><time>2008-06-01T05:36:29Z</time></trkpt>
<trkpt lat="45.85989408" lon="9.00433919"><ele>404.371704</ele><time>2008-06-01T05:36:38Z</time></trkpt>
<trkpt lat="45.86008393" lon="9.00550612"><ele>407.255615</ele><time>2008-06-01T05:36:51Z</time></trkpt>
<trkpt lat="45.86008846" lon="9.00557628"><ele>408.697632</ele><time>2008-06-01T05:36:52Z</time></trkpt>
<trkpt lat="45.86008133" lon="9.00577133"><ele>411.100952</ele><time>2008-06-01T05:36:55Z</time></trkpt>
<trkpt lat="45.86001285" lon="9.00600216"><ele>412.062256</ele><time>2008-06-01T05:36:59Z</time></trkpt>
<trkpt lat="45.85985117" lon="9.00657197"><ele>412.062256</ele><time>2008-06-01T05:37:07Z</time></trkpt>
<trkpt lat="45.85954313" lon="9.00735106"><ele>408.697632</ele><time>2008-06-01T05:37:14Z</time></trkpt>
<trkpt lat="45.85928489" lon="9.00825237"><ele>406.774902</ele><time>2008-06-01T05:37:21Z</time></trkpt>
<trkpt lat="45.85922889" lon="9.00875269"><ele>408.217041</ele><time>2008-06-01T05:37:25Z</time></trkpt>
<trkpt lat="45.85925354" lon="9.00905703"><ele>409.659058</ele><time>2008-06-01T05:37:28Z</time></trkpt>
<trkpt lat="45.85931447" lon="9.00949473"><ele>413.504272</ele><time>2008-06-01T05:37:34Z</time></trkpt>
<trkpt lat="45.85938119" lon="9.00981526"><ele>415.907471</ele><time>2008-06-01T05:37:40Z</time></trkpt>
<trkpt lat="45.85952796" lon="9.01021608"><ele>419.752808</ele><time>2008-06-01T05:37:50Z</time></trkpt>
<trkpt lat="45.85987489" lon="9.01022706"><ele>423.117432</ele><time>2008-06-01T05:38:03Z</time></trkpt>
<trkpt lat="45.86009097" lon="9.01033108"><ele>426.001343</ele><time>2008-06-01T05:38:12Z</time></trkpt>
<trkpt lat="45.86029004" lon="9.01058036"><ele>428.885376</ele><time>2008-06-01T05:38:22Z</time></trkpt>
<trkpt lat="45.86037160" lon="9.01105427"><ele>432.25</ele><time>2008-06-01T05:38:37Z</time></trkpt>
<trkpt lat="45.86038057" lon="9.01114144"><ele>433.211304</ele><time>2008-06-01T05:38:40Z</time></trkpt>
<trkpt lat="45.86042583" lon="9.01118947"><ele>434.65332</ele><time>2008-06-01T05:38:43Z</time></trkpt>
<trkpt lat="45.86049045" lon="9.01113524"><ele>436.095215</ele><time>2008-06-01T05:38:47Z</time></trkpt>
<trkpt lat="45.86066027" lon="9.01095629"><ele>438.979126</ele><time>2008-06-01T05:38:58Z</time></trkpt>
<trkpt lat="45.86080528" lon="9.01080005"><ele>441.863159</ele><time>2008-06-01T05:39:08Z</time></trkpt>
<trkpt lat="45.86085398" lon="9.01072629"><ele>442.824463</ele><time>2008-06-01T05:39:12Z</time></trkpt>
<trkpt lat="45.86100653" lon="9.01025372"><ele>444.266479</ele><time>2008-06-01T05:39:26Z</time></trkpt>
<trkpt lat="45.86117869" lon="9.00994367"><ele>447.150269</ele><time>2008-06-01T05:39:35Z</time></trkpt>
<trkpt lat="45.86138866" lon="9.00974334"><ele>449.553711</ele><time>2008-06-01T05:39:46Z</time></trkpt>
<trkpt lat="45.86142495" lon="9.00980302"><ele>451.476318</ele><time>2008-06-01T05:39:49Z</time></trkpt>
<trkpt lat="45.86142018" lon="9.00984979"><ele>450.995605</ele><time>2008-06-01T05:39:50Z</time></trkpt>
<trkpt lat="45.86135480" lon="9.01040484"><ele>451.957031</ele><time>2008-06-01T05:39:59Z</time></trkpt>
<trkpt lat="45.86155772" lon="9.01136692"><ele>453.879639</ele><time>2008-06-01T05:40:12Z</time></trkpt>
<trkpt lat="45.86165302" lon="9.01173346"><ele>453.879639</ele><time>2008-06-01T05:40:16Z</time></trkpt>
<trkpt lat="45.86156158" lon="9.01297314"><ele>453.879639</ele><time>2008-06-01T05:40:27Z</time></trkpt>
<trkpt lat="45.86128347" lon="9.01386917"><ele>452.437622</ele><time>2008-06-01T05:40:35Z</time></trkpt>
<trkpt lat="45.86138204" lon="9.01462538"><ele>450.034424</ele><time>2008-06-01T05:40:41Z</time></trkpt>
<trkpt lat="45.86144549" lon="9.01473887"><ele>449.553711</ele><time>2008-06-01T05:40:42Z</time></trkpt>
<trkpt lat="45.86176325" lon="9.01537087"><ele>447.630981</ele><time>2008-06-01T05:40:47Z</time></trkpt>
<trkpt lat="45.86207572" lon="9.01583388"><ele>445.708374</ele><time>2008-06-01T05:40:51Z</time></trkpt>
<trkpt lat="45.86250530" lon="9.01644065"><ele>444.74707</ele><time>2008-06-01T05:40:56Z</time></trkpt>
<trkpt lat="45.86273069" lon="9.01702529"><ele>442.343872</ele><time>2008-06-01T05:41:00Z</time></trkpt>
<trkpt lat="45.86271442" lon="9.01799968"><ele>441.863159</ele><time>2008-06-01T05:41:06Z</time></trkpt>
<trkpt lat="45.86245459" lon="9.01880032"><ele>442.343872</ele><time>2008-06-01T05:41:12Z</time></trkpt>
<trkpt lat="45.86208452" lon="9.01892614"><ele>443.785767</ele><time>2008-06-01T05:41:18Z</time></trkpt>
<trkpt lat="45.86169502" lon="9.01880368"><ele>447.150269</ele><time>2008-06-01T05:41:24Z</time></trkpt>
<trkpt lat="45.86164976" lon="9.01883553"><ele>447.630981</ele><time>2008-06-01T05:41:25Z</time></trkpt>
<trkpt lat="45.86156929" lon="9.01890510"><ele>448.592407</ele><time>2008-06-01T05:41:27Z</time></trkpt>
<trkpt lat="45.86125623" lon="9.01921774"><ele>450.515015</ele><time>2008-06-01T05:41:36Z</time></trkpt>
<trkpt lat="45.86115782" lon="9.01946685"><ele>452.918213</ele><time>2008-06-01T05:41:41Z</time></trkpt>
<trkpt lat="45.86112027" lon="9.01987463"><ele>454.84082</ele><time>2008-06-01T05:41:48Z</time></trkpt>
<trkpt lat="45.86075096" lon="9.02069413"><ele>455.802246</ele><time>2008-06-01T05:42:01Z</time></trkpt>
<trkpt lat="45.86054544" lon="9.02102983"><ele>454.360229</ele><time>2008-06-01T05:42:05Z</time></trkpt>
<trkpt lat="45.86032148" lon="9.02169568"><ele>454.84082</ele><time>2008-06-01T05:42:12Z</time></trkpt>
<trkpt lat="45.86027068" lon="9.02174757"><ele>455.321533</ele><time>2008-06-01T05:42:13Z</time></trkpt>
<trkpt lat="45.85972175" lon="9.02227923"><ele>459.16687</ele><time>2008-06-01T05:42:26Z</time></trkpt>
<trkpt lat="45.85946443" lon="9.02258777"><ele>460.128174</ele><time>2008-06-01T05:42:33Z</time></trkpt>
<trkpt lat="45.85932478" lon="9.02319764"><ele>462.050781</ele><time>2008-06-01T05:42:43Z</time></trkpt>
<trkpt lat="45.85948379" lon="9.02365252"><ele>464.454102</ele><time>2008-06-01T05:42:52Z</time></trkpt>
<trkpt lat="45.85988495" lon="9.02390214"><ele>468.299316</ele><time>2008-06-01T05:43:04Z</time></trkpt>
<trkpt lat="45.86037562" lon="9.02399803"><ele>471.66394</ele><time>2008-06-01T05:43:18Z</time></trkpt>
<trkpt lat="45.86083093" lon="9.02374280"><ele>474.547974</ele><time>2008-06-01T05:43:33Z</time></trkpt>
<trkpt lat="45.86114927" lon="9.02347424"><ele>477.912476</ele><time>2008-06-01T05:43:44Z</time></trkpt>
<trkpt lat="45.86150525" lon="9.02312237"><ele>481.277222</ele><time>2008-06-01T05:43:57Z</time></trkpt>
<trkpt lat="45.86180306" lon="9.02273554"><ele>484.161133</ele><time>2008-06-01T05:44:09Z</time></trkpt>
<trkpt lat="45.86222006" lon="9.02221813"><ele>487.525635</ele><time>2008-06-01T05:44:25Z</time></trkpt>
<trkpt lat="45.86237630" lon="9.02232005"><ele>488.487183</ele><time>2008-06-01T05:44:30Z</time></trkpt>
<trkpt lat="45.86236322" lon="9.02248425"><ele>488.487183</ele><time>2008-06-01T05:44:33Z</time></trkpt>
<trkpt lat="45.86189358" lon="9.02320728"><ele>491.370972</ele><time>2008-06-01T05:44:49Z</time></trkpt>
<trkpt lat="45.86149687" lon="9.02381446"><ele>494.735596</ele><time>2008-06-01T05:45:03Z</time></trkpt>
<trkpt lat="45.86141967" lon="9.02393684"><ele>496.177734</ele><time>2008-06-01T05:45:06Z</time></trkpt>
<trkpt lat="45.86104542" lon="9.02450245"><ele>499.542236</ele><time>2008-06-01T05:45:21Z</time></trkpt>
<trkpt lat="45.86083076" lon="9.02483672"><ele>502.906738</ele><time>2008-06-01T05:45:30Z</time></trkpt>
<trkpt lat="45.86035852" lon="9.02552948"><ele>506.271484</ele><time>2008-06-01T05:45:50Z</time></trkpt>
<trkpt lat="45.86029340" lon="9.02557198"><ele>506.752075</ele><time>2008-06-01T05:45:52Z</time></trkpt>
<trkpt lat="45.85987044" lon="9.02564038"><ele>510.116699</ele><time>2008-06-01T05:46:04Z</time></trkpt>
<trkpt lat="45.85946107" lon="9.02574264"><ele>512.039429</ele><time>2008-06-01T05:46:18Z</time></trkpt>
<trkpt lat="45.85956727" lon="9.02589083"><ele>513.481445</ele><time>2008-06-01T05:46:23Z</time></trkpt>
<trkpt lat="45.85980456" lon="9.02594137"><ele>516.365234</ele><time>2008-06-01T05:46:31Z</time></trkpt>
<trkpt lat="45.86023439" lon="9.02589175"><ele>519.729858</ele><time>2008-06-01T05:46:46Z</time></trkpt>
<trkpt lat="45.86067888" lon="9.02576946"><ele>522.613892</ele><time>2008-06-01T05:47:01Z</time></trkpt>
<trkpt lat="45.86098549" lon="9.02567952"><ele>525.978394</ele><time>2008-06-01T05:47:11Z</time></trkpt>
<trkpt lat="45.86143124" lon="9.02551104"><ele>529.34314</ele><time>2008-06-01T05:47:26Z</time></trkpt>
<trkpt lat="45.86183567" lon="9.02525087"><ele>532.227051</ele><time>2008-06-01T05:47:40Z</time></trkpt>
<trkpt lat="45.86223666" lon="9.02498173"><ele>535.591553</ele><time>2008-06-01T05:47:54Z</time></trkpt>
<trkpt lat="45.86261669" lon="9.02478064"><ele>538.956299</ele><time>2008-06-01T05:48:07Z</time></trkpt>
<trkpt lat="45.86298156" lon="9.02510142"><ele>540.878906</ele><time>2008-06-01T05:48:21Z</time></trkpt>
<trkpt lat="45.86306982" lon="9.02547944"><ele>544.243652</ele><time>2008-06-01T05:48:30Z</time></trkpt>
<trkpt lat="45.86309027" lon="9.02590457"><ele>547.127441</ele><time>2008-06-01T05:48:40Z</time></trkpt>
<trkpt lat="45.86323930" lon="9.02649759"><ele>550.011475</ele><time>2008-06-01T05:48:55Z</time></trkpt>
<trkpt lat="45.86331943" lon="9.02667504"><ele>551.453369</ele><time>2008-06-01T05:49:00Z</time></trkpt>
<trkpt lat="45.86339068" lon="9.02691266"><ele>553.375977</ele><time>2008-06-01T05:49:06Z</time></trkpt>
<trkpt lat="45.86339973" lon="9.02738499"><ele>556.740723</ele><time>2008-06-01T05:49:17Z</time></trkpt>
<trkpt lat="45.86341708" lon="9.02792268"><ele>559.624756</ele><time>2008-06-01T05:49:29Z</time></trkpt>
<trkpt lat="45.86377708" lon="9.02860506"><ele>561.547363</ele><time>2008-06-01T05:49:45Z</time></trkpt>
<trkpt lat="45.86446172" lon="9.02933068"><ele>560.585938</ele><time>2008-06-01T05:49:59Z</time></trkpt>
<trkpt lat="45.86452274" lon="9.02938206"><ele>561.06665</ele><time>2008-06-01T05:50:00Z</time></trkpt>
<trkpt lat="45.86479800" lon="9.02949764"><ele>560.585938</ele><time>2008-06-01T05:50:04Z</time></trkpt>
<trkpt lat="45.86630875" lon="9.02961574"><ele>560.105225</ele><time>2008-06-01T05:50:24Z</time></trkpt>
<trkpt lat="45.86644663" lon="9.02968406"><ele>560.105225</ele><time>2008-06-01T05:50:26Z</time></trkpt>
<trkpt lat="45.86679297" lon="9.03032955"><ele>559.624756</ele><time>2008-06-01T05:50:34Z</time></trkpt>
<trkpt lat="45.86676992" lon="9.03059215"><ele>558.66333</ele><time>2008-06-01T05:50:36Z</time></trkpt>
<trkpt lat="45.86672324" lon="9.03087169"><ele>557.221436</ele><time>2008-06-01T05:50:38Z</time></trkpt>
<trkpt lat="45.86658536" lon="9.03160938"><ele>552.895264</ele><time>2008-06-01T05:50:44Z</time></trkpt>
<trkpt lat="45.86665518" lon="9.03165045"><ele>552.895264</ele><time>2008-06-01T05:50:45Z</time></trkpt>
<trkpt lat="45.86697176" lon="9.03160175"><ele>551.453369</ele><time>2008-06-01T05:50:48Z</time></trkpt>
<trkpt lat="45.86728935" lon="9.03151114"><ele>550.011475</ele><time>2008-06-01T05:50:51Z</time></trkpt>
<trkpt lat="45.86790475" lon="9.03193166"><ele>549.530762</ele><time>2008-06-01T05:50:58Z</time></trkpt>
<trkpt lat="45.86797968" lon="9.03217969"><ele>549.530762</ele><time>2008-06-01T05:51:00Z</time></trkpt>
<trkpt lat="45.86839350" lon="9.03259836"><ele>551.453369</ele><time>2008-06-01T05:51:07Z</time></trkpt>
<trkpt lat="45.86860523" lon="9.03251303"><ele>551.453369</ele><time>2008-06-01T05:51:10Z</time></trkpt>
<trkpt lat="45.86907889" lon="9.03288402"><ele>552.895264</ele><time>2008-06-01T05:51:17Z</time></trkpt>
<trkpt lat="45.86936756" lon="9.03285116"><ele>554.337402</ele><time>2008-06-01T05:51:24Z</time></trkpt>
<trkpt lat="45.86944560" lon="9.03223014"><ele>558.182861</ele><time>2008-06-01T05:51:33Z</time></trkpt>
<trkpt lat="45.86954014" lon="9.03198858"><ele>558.66333</ele><time>2008-06-01T05:51:38Z</time></trkpt>
<trkpt lat="45.86990518" lon="9.03200610"><ele>559.144043</ele><time>2008-06-01T05:51:45Z</time></trkpt>
<trkpt lat="45.87076348" lon="9.03254773"><ele>558.182861</ele><time>2008-06-01T05:51:58Z</time></trkpt>
<trkpt lat="45.87105257" lon="9.03292174"><ele>557.702148</ele><time>2008-06-01T05:52:03Z</time></trkpt>
<trkpt lat="45.87146094" lon="9.03297178"><ele>559.144043</ele><time>2008-06-01T05:52:10Z</time></trkpt>
<trkpt lat="45.87155012" lon="9.03282459"><ele>560.105225</ele><time>2008-06-01T05:52:12Z</time></trkpt>
<trkpt lat="45.87213853" lon="9.03167032"><ele>561.06665</ele><time>2008-06-01T05:52:28Z</time></trkpt>
<trkpt lat="45.87226292" lon="9.03135926"><ele>560.585938</ele><time>2008-06-01T05:52:31Z</time></trkpt>
<trkpt lat="45.87234138" lon="9.03090597"><ele>560.585938</ele><time>2008-06-01T05:52:35Z</time></trkpt>
<trkpt lat="45.87238597" lon="9.03028236"><ele>561.547363</ele><time>2008-06-01T05:52:41Z</time></trkpt>
<trkpt lat="45.87235998" lon="9.02952815"><ele>562.508545</ele><time>2008-06-01T05:52:50Z</time></trkpt>
<trkpt lat="45.87269417" lon="9.02936404"><ele>562.508545</ele><time>2008-06-01T05:52:57Z</time></trkpt>
<trkpt lat="45.87390988" lon="9.02984273"><ele>561.06665</ele><time>2008-06-01T05:53:12Z</time></trkpt>
<trkpt lat="45.87483658" lon="9.02970560"><ele>563.469971</ele><time>2008-06-01T05:53:24Z</time></trkpt>
<trkpt lat="45.87505644" lon="9.02975815"><ele>564.911865</ele><time>2008-06-01T05:53:27Z</time></trkpt>
<trkpt lat="45.87522978" lon="9.02992269"><ele>566.35376</ele><time>2008-06-01T05:53:30Z</time></trkpt>
<trkpt lat="45.87526725" lon="9.02998933"><ele>566.834473</ele><time>2008-06-01T05:53:31Z</time></trkpt>
<trkpt lat="45.87538837" lon="9.03016250"><ele>567.795654</ele><time>2008-06-01T05:53:34Z</time></trkpt>
<trkpt lat="45.87550596" lon="9.03027104"><ele>569.237793</ele><time>2008-06-01T05:53:37Z</time></trkpt>
<trkpt lat="45.87554544" lon="9.03029937"><ele>569.718506</ele><time>2008-06-01T05:53:38Z</time></trkpt>
<trkpt lat="45.87585096" lon="9.03057665"><ele>573.083252</ele><time>2008-06-01T05:53:48Z</time></trkpt>
<trkpt lat="45.87595339" lon="9.03067706"><ele>573.083252</ele><time>2008-06-01T05:53:51Z</time></trkpt>
<trkpt lat="45.87605909" lon="9.03103547"><ele>573.563965</ele><time>2008-06-01T05:53:57Z</time></trkpt>
<trkpt lat="45.87606294" lon="9.03118207"><ele>573.563965</ele><time>2008-06-01T05:53:59Z</time></trkpt>
<trkpt lat="45.87604324" lon="9.03141375"><ele>573.563965</ele><time>2008-06-01T05:54:02Z</time></trkpt>
<trkpt lat="45.87605473" lon="9.03164232"><ele>573.563965</ele><time>2008-06-01T05:54:05Z</time></trkpt>
<trkpt lat="45.87604106" lon="9.03197894"><ele>573.563965</ele><time>2008-06-01T05:54:09Z</time></trkpt>
<trkpt lat="45.87564594" lon="9.03324368"><ele>574.044434</ele><time>2008-06-01T05:54:22Z</time></trkpt>
<trkpt lat="45.87560303" lon="9.03369178"><ele>573.563965</ele><time>2008-06-01T05:54:26Z</time></trkpt>
<trkpt lat="45.87568022" lon="9.03448538"><ele>573.083252</ele><time>2008-06-01T05:54:33Z</time></trkpt>
<trkpt lat="45.87593922" lon="9.03438035"><ele>574.525146</ele><time>2008-06-01T05:54:39Z</time></trkpt>
<trkpt lat="45.87624734" lon="9.03444179"><ele>575.005859</ele><time>2008-06-01T05:54:43Z</time></trkpt>
<trkpt lat="45.87742098" lon="9.03528585"><ele>576.447754</ele><time>2008-06-01T05:55:00Z</time></trkpt>
<trkpt lat="45.87754972" lon="9.03538526"><ele>576.447754</ele><time>2008-06-01T05:55:02Z</time></trkpt>
<trkpt lat="45.87859092" lon="9.03567636"><ele>576.928467</ele><time>2008-06-01T05:55:16Z</time></trkpt>
<trkpt lat="45.87890365" lon="9.03621197"><ele>578.370361</ele><time>2008-06-01T05:55:23Z</time></trkpt>
<trkpt lat="45.87896886" lon="9.03701328"><ele>579.812256</ele><time>2008-06-01T05:55:31Z</time></trkpt>
<trkpt lat="45.87898856" lon="9.03722266"><ele>580.292969</ele><time>2008-06-01T05:55:33Z</time></trkpt>
<trkpt lat="45.87899719" lon="9.03764133"><ele>581.254395</ele><time>2008-06-01T05:55:37Z</time></trkpt>
<trkpt lat="45.87898144" lon="9.03795364"><ele>580.773682</ele><time>2008-06-01T05:55:40Z</time></trkpt>
<trkpt lat="45.87898948" lon="9.03816143"><ele>581.254395</ele><time>2008-06-01T05:55:42Z</time></trkpt>
<trkpt lat="45.87903818" lon="9.03865445"><ele>582.215576</ele><time>2008-06-01T05:55:48Z</time></trkpt>
<trkpt lat="45.87937715" lon="9.03813092"><ele>582.215576</ele><time>2008-06-01T05:55:53Z</time></trkpt>
<trkpt lat="45.87993387" lon="9.03663333"><ele>583.657471</ele><time>2008-06-01T05:56:08Z</time></trkpt>
<trkpt lat="45.88007829" lon="9.03626184"><ele>583.176758</ele><time>2008-06-01T05:56:12Z</time></trkpt>
<trkpt lat="45.88043033" lon="9.03597635"><ele>584.138184</ele><time>2008-06-01T05:56:18Z</time></trkpt>
<trkpt lat="45.88071506" lon="9.03603243"><ele>586.541504</ele><time>2008-06-01T05:56:23Z</time></trkpt>
<trkpt lat="45.88091472" lon="9.03609294"><ele>588.464355</ele><time>2008-06-01T05:56:27Z</time></trkpt>
<trkpt lat="45.88113684" lon="9.03574719"><ele>591.348145</ele><time>2008-06-01T05:56:35Z</time></trkpt>
<trkpt lat="45.88122083" lon="9.03534679"><ele>592.790283</ele><time>2008-06-01T05:56:42Z</time></trkpt>
<trkpt lat="45.88124706" lon="9.03523732"><ele>593.270752</ele><time>2008-06-01T05:56:44Z</time></trkpt>
<trkpt lat="45.88155694" lon="9.03506583"><ele>594.712646</ele><time>2008-06-01T05:56:53Z</time></trkpt>
<trkpt lat="45.88187328" lon="9.03525677"><ele>593.751465</ele><time>2008-06-01T05:56:57Z</time></trkpt>
<trkpt lat="45.88211627" lon="9.03558835"><ele>592.30957</ele><time>2008-06-01T05:57:01Z</time></trkpt>
<trkpt lat="45.88239203" lon="9.03591475"><ele>590.386963</ele><time>2008-06-01T05:57:05Z</time></trkpt>
<trkpt lat="45.88328177" lon="9.03653174"><ele>587.983398</ele><time>2008-06-01T05:57:15Z</time></trkpt>
<trkpt lat="45.88337447" lon="9.03658287"><ele>587.502686</ele><time>2008-06-01T05:57:16Z</time></trkpt>
<trkpt lat="45.88374512" lon="9.03687598"><ele>586.060791</ele><time>2008-06-01T05:57:20Z</time></trkpt>
<trkpt lat="45.88390597" lon="9.03737873"><ele>584.618896</ele><time>2008-06-01T05:57:24Z</time></trkpt>
<trkpt lat="45.88405115" lon="9.03775910"><ele>584.138184</ele><time>2008-06-01T05:57:27Z</time></trkpt>
<trkpt lat="45.88436513" lon="9.03792439"><ele>583.176758</ele><time>2008-06-01T05:57:32Z</time></trkpt>
<trkpt lat="45.88481792" lon="9.03777368"><ele>581.734863</ele><time>2008-06-01T05:57:37Z</time></trkpt>
<trkpt lat="45.88513057" lon="9.03783009"><ele>580.292969</ele><time>2008-06-01T05:57:40Z</time></trkpt>
<trkpt lat="45.88552888" lon="9.03769942"><ele>579.812256</ele><time>2008-06-01T05:57:44Z</time></trkpt>
<trkpt lat="45.88581604" lon="9.03751887"><ele>578.370361</ele><time>2008-06-01T05:57:47Z</time></trkpt>
<trkpt lat="45.88613003" lon="9.03750203"><ele>577.40918</ele><time>2008-06-01T05:57:50Z</time></trkpt>
<trkpt lat="45.88635692" lon="9.03756456"><ele>576.928467</ele><time>2008-06-01T05:57:52Z</time></trkpt>
<trkpt lat="45.88655298" lon="9.03760236"><ele>575.967041</ele><time>2008-06-01T05:57:54Z</time></trkpt>
<trkpt lat="45.88715186" lon="9.03824382"><ele>574.044434</ele><time>2008-06-01T05:58:01Z</time></trkpt>
<trkpt lat="45.88754850" lon="9.03891228"><ele>572.602539</ele><time>2008-06-01T05:58:07Z</time></trkpt>
<trkpt lat="45.88778939" lon="9.03917874"><ele>572.121826</ele><time>2008-06-01T05:58:10Z</time></trkpt>
<trkpt lat="45.88798377" lon="9.03969976"><ele>571.1604</ele><time>2008-06-01T05:58:14Z</time></trkpt>
<trkpt lat="45.88798393" lon="9.04002557"><ele>569.718506</ele><time>2008-06-01T05:58:16Z</time></trkpt>
<trkpt lat="45.88796172" lon="9.04062806"><ele>568.276367</ele><time>2008-06-01T05:58:20Z</time></trkpt>
<trkpt lat="45.88776726" lon="9.04108386"><ele>567.795654</ele><time>2008-06-01T05:58:24Z</time></trkpt>
<trkpt lat="45.88780666" lon="9.04120389"><ele>566.35376</ele><time>2008-06-01T05:58:26Z</time></trkpt>
<trkpt lat="45.88787355" lon="9.04134303"><ele>565.873291</ele><time>2008-06-01T05:58:28Z</time></trkpt>
<trkpt lat="45.88768537" lon="9.04173874"><ele>564.911865</ele><time>2008-06-01T05:58:32Z</time></trkpt>
<trkpt lat="45.88736007" lon="9.04235138"><ele>564.431152</ele><time>2008-06-01T05:58:36Z</time></trkpt>
<trkpt lat="45.88735823" lon="9.04294909"><ele>564.431152</ele><time>2008-06-01T05:58:40Z</time></trkpt>
<trkpt lat="45.88763399" lon="9.04320113"><ele>565.392578</ele><time>2008-06-01T05:58:47Z</time></trkpt>
<trkpt lat="45.88772309" lon="9.04316518"><ele>565.392578</ele><time>2008-06-01T05:58:48Z</time></trkpt>
<trkpt lat="45.88858609" lon="9.04284482"><ele>569.237793</ele><time>2008-06-01T05:59:00Z</time></trkpt>
<trkpt lat="45.88876538" lon="9.04279503"><ele>570.679688</ele><time>2008-06-01T05:59:03Z</time></trkpt>
<trkpt lat="45.88907568" lon="9.04276527"><ele>573.563965</ele><time>2008-06-01T05:59:09Z</time></trkpt>
<trkpt lat="45.88950173" lon="9.04269554"><ele>575.486328</ele><time>2008-06-01T05:59:19Z</time></trkpt>
<trkpt lat="45.88963743" lon="9.04252740"><ele>575.967041</ele><time>2008-06-01T05:59:23Z</time></trkpt>
<trkpt lat="45.88989425" lon="9.04236269"><ele>578.370361</ele><time>2008-06-01T05:59:31Z</time></trkpt>
<trkpt lat="45.89036473" lon="9.04273569"><ele>582.215576</ele><time>2008-06-01T05:59:45Z</time></trkpt>
<trkpt lat="45.89078014" lon="9.04286334"><ele>585.580078</ele><time>2008-06-01T05:59:57Z</time></trkpt>
<trkpt lat="45.89131339" lon="9.04294582"><ele>588.464355</ele><time>2008-06-01T06:00:13Z</time></trkpt>
<trkpt lat="45.89137408" lon="9.04298136"><ele>589.425537</ele><time>2008-06-01T06:00:15Z</time></trkpt>
<trkpt lat="45.89174473" lon="9.04318647"><ele>592.790283</ele><time>2008-06-01T06:00:27Z</time></trkpt>
<trkpt lat="45.89227974" lon="9.04342937"><ele>596.154785</ele><time>2008-06-01T06:00:44Z</time></trkpt>
<trkpt lat="45.89259708" lon="9.04354865"><ele>599.038574</ele><time>2008-06-01T06:00:55Z</time></trkpt>
<trkpt lat="45.89300662" lon="9.04366926"><ele>602.403076</ele><time>2008-06-01T06:01:06Z</time></trkpt>
<trkpt lat="45.89327736" lon="9.04383816"><ele>605.768066</ele><time>2008-06-01T06:01:15Z</time></trkpt>
<trkpt lat="45.89373576" lon="9.04418458"><ele>608.651855</ele><time>2008-06-01T06:01:30Z</time></trkpt>
<trkpt lat="45.89401388" lon="9.04460602"><ele>611.055176</ele><time>2008-06-01T06:01:43Z</time></trkpt>
<trkpt lat="45.89417447" lon="9.04479009"><ele>614.419678</ele><time>2008-06-01T06:01:54Z</time></trkpt>
<trkpt lat="45.89423818" lon="9.04487592"><ele>617.303711</ele><time>2008-06-01T06:01:59Z</time></trkpt>
<trkpt lat="45.89447035" lon="9.04510617"><ele>620.187744</ele><time>2008-06-01T06:02:13Z</time></trkpt>
<trkpt lat="45.89470698" lon="9.04516535"><ele>623.55249</ele><time>2008-06-01T06:02:28Z</time></trkpt>
<trkpt lat="45.89472634" lon="9.04516644"><ele>624.032959</ele><time>2008-06-01T06:02:29Z</time></trkpt>
<trkpt lat="45.89495072" lon="9.04523249"><ele>627.397705</ele><time>2008-06-01T06:02:43Z</time></trkpt>
<trkpt lat="45.89511928" lon="9.04526115"><ele>630.281494</ele><time>2008-06-01T06:02:53Z</time></trkpt>
<trkpt lat="45.89531098" lon="9.04525998"><ele>633.645996</ele><time>2008-06-01T06:03:04Z</time></trkpt>
<trkpt lat="45.89559688" lon="9.04527993"><ele>636.530273</ele><time>2008-06-01T06:03:19Z</time></trkpt>
<trkpt lat="45.89580660" lon="9.04550599"><ele>639.894775</ele><time>2008-06-01T06:03:31Z</time></trkpt>
<trkpt lat="45.89581967" lon="9.04553239"><ele>639.414063</ele><time>2008-06-01T06:03:32Z</time></trkpt>
<trkpt lat="45.89609410" lon="9.04562828"><ele>643.259277</ele><time>2008-06-01T06:03:46Z</time></trkpt>
<trkpt lat="45.89630398" lon="9.04570959"><ele>646.143311</ele><time>2008-06-01T06:03:58Z</time></trkpt>
<trkpt lat="45.89658628" lon="9.04570422"><ele>649.507813</ele><time>2008-06-01T06:04:14Z</time></trkpt>
<trkpt lat="45.89677890" lon="9.04567463"><ele>653.353271</ele><time>2008-06-01T06:04:26Z</time></trkpt>
<trkpt lat="45.89679566" lon="9.04567488"><ele>653.353271</ele><time>2008-06-01T06:04:27Z</time></trkpt>
<trkpt lat="45.89696464" lon="9.04569567"><ele>656.237061</ele><time>2008-06-01T06:04:38Z</time></trkpt>
<trkpt lat="45.89704058" lon="9.04573004"><ele>658.159912</ele><time>2008-06-01T06:04:44Z</time></trkpt>
<trkpt lat="45.89706950" lon="9.04578695"><ele>659.601807</ele><time>2008-06-01T06:04:48Z</time></trkpt>
<trkpt lat="45.89709624" lon="9.04581612"><ele>660.082275</ele><time>2008-06-01T06:04:52Z</time></trkpt>
<trkpt lat="45.89714494" lon="9.04584956"><ele>661.043701</ele><time>2008-06-01T06:04:56Z</time></trkpt>
<trkpt lat="45.89737477" lon="9.04595249"><ele>663.447021</ele><time>2008-06-01T06:05:10Z</time></trkpt>
<trkpt lat="45.89761005" lon="9.04608828"><ele>665.850342</ele><time>2008-06-01T06:05:22Z</time></trkpt>
<trkpt lat="45.89778389" lon="9.04609934"><ele>668.253662</ele><time>2008-06-01T06:05:30Z</time></trkpt>
<trkpt lat="45.89787768" lon="9.04605769"><ele>668.734375</ele><time>2008-06-01T06:05:35Z</time></trkpt>
<trkpt lat="45.89793325" lon="9.04607998"><ele>670.17627</ele><time>2008-06-01T06:05:39Z</time></trkpt>
<trkpt lat="45.89810089" lon="9.04629674"><ele>670.656982</ele><time>2008-06-01T06:05:46Z</time></trkpt>
<trkpt lat="45.89844472" lon="9.04663126"><ele>672.57959</ele><time>2008-06-01T06:05:57Z</time></trkpt>
<trkpt lat="45.89861847" lon="9.04697894"><ele>675.944092</ele><time>2008-06-01T06:06:08Z</time></trkpt>
<trkpt lat="45.89871042" lon="9.04718614"><ele>677.866699</ele><time>2008-06-01T06:06:16Z</time></trkpt>
<trkpt lat="45.89879768" lon="9.04756157"><ele>681.231445</ele><time>2008-06-01T06:06:28Z</time></trkpt>
<trkpt lat="45.89888485" lon="9.04779442"><ele>684.115479</ele><time>2008-06-01T06:06:38Z</time></trkpt>
<trkpt lat="45.89894537" lon="9.04792945"><ele>686.518799</ele><time>2008-06-01T06:06:47Z</time></trkpt>
<trkpt lat="45.89895727" lon="9.04797144"><ele>686.999268</ele><time>2008-06-01T06:06:50Z</time></trkpt>
<trkpt lat="45.89897295" lon="9.04807563"><ele>688.922119</ele><time>2008-06-01T06:06:56Z</time></trkpt>
<trkpt lat="45.89900496" lon="9.04818409"><ele>690.364014</ele><time>2008-06-01T06:07:02Z</time></trkpt>
<trkpt lat="45.89907839" lon="9.04844846"><ele>693.728516</ele><time>2008-06-01T06:07:15Z</time></trkpt>
<trkpt lat="45.89912768" lon="9.04856974"><ele>695.17041</ele><time>2008-06-01T06:07:22Z</time></trkpt>
<trkpt lat="45.89919389" lon="9.04880796"><ele>698.534912</ele><time>2008-06-01T06:07:36Z</time></trkpt>
<trkpt lat="45.89925575" lon="9.04898238"><ele>701.899902</ele><time>2008-06-01T06:07:46Z</time></trkpt>
<trkpt lat="45.89927218" lon="9.04901063"><ele>702.861084</ele><time>2008-06-01T06:07:48Z</time></trkpt>
<trkpt lat="45.89936656" lon="9.04922655"><ele>705.745117</ele><time>2008-06-01T06:08:00Z</time></trkpt>
<trkpt lat="45.89955213" lon="9.04942419"><ele>708.148438</ele><time>2008-06-01T06:08:16Z</time></trkpt>
<trkpt lat="45.89969563" lon="9.04956417"><ele>710.551514</ele><time>2008-06-01T06:08:27Z</time></trkpt>
<trkpt lat="45.89980644" lon="9.04975310"><ele>713.435547</ele><time>2008-06-01T06:08:38Z</time></trkpt>
<trkpt lat="45.89998540" lon="9.04988922"><ele>716.800293</ele><time>2008-06-01T06:08:50Z</time></trkpt>
<trkpt lat="45.90017826" lon="9.04999274"><ele>720.645508</ele><time>2008-06-01T06:09:04Z</time></trkpt>
<trkpt lat="45.90034079" lon="9.05007949"><ele>724.01001</ele><time>2008-06-01T06:09:16Z</time></trkpt>
<trkpt lat="45.90035789" lon="9.05008318"><ele>724.01001</ele><time>2008-06-01T06:09:17Z</time></trkpt>
<trkpt lat="45.90062678" lon="9.05030195"><ele>727.374756</ele><time>2008-06-01T06:09:35Z</time></trkpt>
<trkpt lat="45.90090246" lon="9.05038887"><ele>730.739258</ele><time>2008-06-01T06:09:51Z</time></trkpt>
<trkpt lat="45.90103489" lon="9.05040915"><ele>733.623291</ele><time>2008-06-01T06:10:01Z</time></trkpt>
<trkpt lat="45.90104814" lon="9.05041125"><ele>734.104004</ele><time>2008-06-01T06:10:02Z</time></trkpt>
<trkpt lat="45.90118736" lon="9.05045768"><ele>736.987793</ele><time>2008-06-01T06:10:13Z</time></trkpt>
<trkpt lat="45.90142507" lon="9.05079346"><ele>739.391113</ele><time>2008-06-01T06:10:29Z</time></trkpt>
<trkpt lat="45.90154183" lon="9.05093025"><ele>740.352539</ele><time>2008-06-01T06:10:34Z</time></trkpt>
<trkpt lat="45.90176487" lon="9.05077485"><ele>742.275146</ele><time>2008-06-01T06:10:45Z</time></trkpt>
<trkpt lat="45.90177527" lon="9.05077745"><ele>742.755859</ele><time>2008-06-01T06:10:46Z</time></trkpt>
<trkpt lat="45.90186512" lon="9.05079179"><ele>743.717041</ele><time>2008-06-01T06:10:50Z</time></trkpt>
<trkpt lat="45.90232638" lon="9.05106872"><ele>745.639648</ele><time>2008-06-01T06:11:03Z</time></trkpt>
<trkpt lat="45.90255302" lon="9.05128623"><ele>749.004395</ele><time>2008-06-01T06:11:15Z</time></trkpt>
<trkpt lat="45.90271982" lon="9.05149813"><ele>751.888428</ele><time>2008-06-01T06:11:26Z</time></trkpt>
<trkpt lat="45.90287229" lon="9.05178135"><ele>755.733643</ele><time>2008-06-01T06:11:39Z</time></trkpt>
<trkpt lat="45.90313096" lon="9.05210079"><ele>757.65625</ele><time>2008-06-01T06:11:53Z</time></trkpt>
<trkpt lat="45.90332039" lon="9.05239709"><ele>760.059326</ele><time>2008-06-01T06:12:06Z</time></trkpt>
<trkpt lat="45.90344804" lon="9.05263086"><ele>761.982178</ele><time>2008-06-01T06:12:17Z</time></trkpt>
<trkpt lat="45.90345819" lon="9.05273588"><ele>764.866211</ele><time>2008-06-01T06:12:23Z</time></trkpt>
<trkpt lat="45.90337479" lon="9.05299187"><ele>766.308105</ele><time>2008-06-01T06:12:32Z</time></trkpt>
<trkpt lat="45.90348819" lon="9.05301265"><ele>766.788818</ele><time>2008-06-01T06:12:36Z</time></trkpt>
<trkpt lat="45.90390075" lon="9.05323905"><ele>769.192139</ele><time>2008-06-01T06:12:49Z</time></trkpt>
<trkpt lat="45.90412354" lon="9.05323234"><ele>772.556641</ele><time>2008-06-01T06:12:57Z</time></trkpt>
<trkpt lat="45.90430208" lon="9.05332597"><ele>775.44043</ele><time>2008-06-01T06:13:07Z</time></trkpt>
<trkpt lat="45.90431892" lon="9.05333586"><ele>775.921143</ele><time>2008-06-01T06:13:08Z</time></trkpt>
<trkpt lat="45.90442630" lon="9.05337827"><ele>777.363281</ele><time>2008-06-01T06:13:15Z</time></trkpt>
<trkpt lat="45.90459972" lon="9.05346134"><ele>780.728027</ele><time>2008-06-01T06:13:26Z</time></trkpt>
<trkpt lat="45.90460978" lon="9.05350015"><ele>782.169922</ele><time>2008-06-01T06:13:31Z</time></trkpt>
<trkpt lat="45.90460902" lon="9.05350643"><ele>782.169922</ele><time>2008-06-01T06:13:32Z</time></trkpt>
<trkpt lat="45.90460835" lon="9.05359578"><ele>786.49585</ele><time>2008-06-01T06:13:42Z</time></trkpt>
<trkpt lat="45.90464364" lon="9.05368354"><ele>786.976318</ele><time>2008-06-01T06:13:49Z</time></trkpt>
<trkpt lat="45.90474254" lon="9.05373492"><ele>787.937744</ele><time>2008-06-01T06:13:54Z</time></trkpt>
<trkpt lat="45.90483868" lon="9.05387549"><ele>789.860352</ele><time>2008-06-01T06:14:05Z</time></trkpt>
<trkpt lat="45.90489468" lon="9.05389669"><ele>790.821533</ele><time>2008-06-01T06:14:09Z</time></trkpt>
<trkpt lat="45.90507916" lon="9.05411789"><ele>792.263672</ele><time>2008-06-01T06:14:21Z</time></trkpt>
<trkpt lat="45.90533875" lon="9.05429383"><ele>794.186279</ele><time>2008-06-01T06:14:33Z</time></trkpt>
<trkpt lat="45.90536205" lon="9.05430104"><ele>794.666748</ele><time>2008-06-01T06:14:34Z</time></trkpt>
<trkpt lat="45.90559264" lon="9.05450245"><ele>798.031738</ele><time>2008-06-01T06:14:49Z</time></trkpt>
<trkpt lat="45.90561787" lon="9.05459248"><ele>799.954346</ele><time>2008-06-01T06:14:54Z</time></trkpt>
<trkpt lat="45.90565500" lon="9.05463195"><ele>800.915527</ele><time>2008-06-01T06:14:58Z</time></trkpt>
<trkpt lat="45.90571602" lon="9.05465098"><ele>801.876953</ele><time>2008-06-01T06:15:01Z</time></trkpt>
<trkpt lat="45.90592372" lon="9.05484494"><ele>804.280273</ele><time>2008-06-01T06:15:15Z</time></trkpt>
<trkpt lat="45.90600109" lon="9.05498584"><ele>805.722168</ele><time>2008-06-01T06:15:22Z</time></trkpt>
<trkpt lat="45.90610787" lon="9.05510218"><ele>806.202637</ele><time>2008-06-01T06:15:29Z</time></trkpt>
<trkpt lat="45.90611609" lon="9.05516538"><ele>806.68335</ele><time>2008-06-01T06:15:32Z</time></trkpt>
<trkpt lat="45.90603579" lon="9.05533553"><ele>810.528564</ele><time>2008-06-01T06:15:43Z</time></trkpt>
<trkpt lat="45.90602724" lon="9.05535297"><ele>811.48999</ele><time>2008-06-01T06:15:45Z</time></trkpt>
<trkpt lat="45.90595272" lon="9.05558263"><ele>811.009277</ele><time>2008-06-01T06:15:51Z</time></trkpt>
<trkpt lat="45.90596312" lon="9.05565614"><ele>811.970703</ele><time>2008-06-01T06:15:57Z</time></trkpt>
<trkpt lat="45.90603026" lon="9.05572655"><ele>812.451416</ele><time>2008-06-01T06:16:01Z</time></trkpt>
<trkpt lat="45.90631608" lon="9.05584322"><ele>815.816162</ele><time>2008-06-01T06:16:10Z</time></trkpt>
<trkpt lat="45.90635723" lon="9.05584767"><ele>815.816162</ele><time>2008-06-01T06:16:11Z</time></trkpt>
<trkpt lat="45.90643343" lon="9.05582772"><ele>815.816162</ele><time>2008-06-01T06:16:12Z</time></trkpt>
<trkpt lat="45.90694020" lon="9.05579084"><ele>819.180664</ele><time>2008-06-01T06:16:24Z</time></trkpt>
<trkpt lat="45.90684724" lon="9.05609309"><ele>822.064453</ele><time>2008-06-01T06:16:36Z</time></trkpt>
<trkpt lat="45.90689720" lon="9.05622426"><ele>824.467773</ele><time>2008-06-01T06:16:49Z</time></trkpt>
<trkpt lat="45.90697448" lon="9.05628596"><ele>825.428955</ele><time>2008-06-01T06:16:53Z</time></trkpt>
<trkpt lat="45.90734228" lon="9.05664814"><ele>827.351807</ele><time>2008-06-01T06:17:08Z</time></trkpt>
<trkpt lat="45.90741134" lon="9.05675417"><ele>828.793945</ele><time>2008-06-01T06:17:14Z</time></trkpt>
<trkpt lat="45.90745099" lon="9.05680982"><ele>829.755127</ele><time>2008-06-01T06:17:17Z</time></trkpt>
<trkpt lat="45.90750623" lon="9.05705642"><ele>833.119629</ele><time>2008-06-01T06:17:28Z</time></trkpt>
<trkpt lat="45.90750212" lon="9.05711543"><ele>834.561768</ele><time>2008-06-01T06:17:33Z</time></trkpt>
<trkpt lat="45.90747387" lon="9.05725339"><ele>836.484375</ele><time>2008-06-01T06:17:39Z</time></trkpt>
<trkpt lat="45.90749172" lon="9.05727762"><ele>836.964844</ele><time>2008-06-01T06:17:42Z</time></trkpt>
<trkpt lat="45.90764863" lon="9.05758624"><ele>838.406982</ele><time>2008-06-01T06:17:51Z</time></trkpt>
<trkpt lat="45.90773078" lon="9.05770183"><ele>838.406982</ele><time>2008-06-01T06:17:54Z</time></trkpt>
<trkpt lat="45.90801484" lon="9.05793778"><ele>837.92627</ele><time>2008-06-01T06:18:01Z</time></trkpt>
<trkpt lat="45.90815088" lon="9.05746504"><ele>840.810059</ele><time>2008-06-01T06:18:14Z</time></trkpt>
<trkpt lat="45.90814794" lon="9.05739597"><ele>841.771484</ele><time>2008-06-01T06:18:17Z</time></trkpt>
<trkpt lat="45.90813219" lon="9.05734987"><ele>842.252197</ele><time>2008-06-01T06:18:19Z</time></trkpt>
<trkpt lat="45.90812297" lon="9.05721542"><ele>843.694092</ele><time>2008-06-01T06:18:24Z</time></trkpt>
<trkpt lat="45.90809514" lon="9.05709967"><ele>844.655518</ele><time>2008-06-01T06:18:28Z</time></trkpt>
<trkpt lat="45.90808013" lon="9.05703572"><ele>845.616943</ele><time>2008-06-01T06:18:30Z</time></trkpt>
<trkpt lat="45.90794116" lon="9.05646482"><ele>847.058838</ele><time>2008-06-01T06:18:44Z</time></trkpt>
<trkpt lat="45.90782055" lon="9.05599192"><ele>848.500732</ele><time>2008-06-01T06:18:56Z</time></trkpt>
<trkpt lat="45.90769926" lon="9.05551658"><ele>850.904053</ele><time>2008-06-01T06:19:09Z</time></trkpt>
<trkpt lat="45.90766322" lon="9.05534358"><ele>853.307373</ele><time>2008-06-01T06:19:16Z</time></trkpt>
<trkpt lat="45.90762097" lon="9.05507628"><ele>856.191162</ele><time>2008-06-01T06:19:28Z</time></trkpt>
<trkpt lat="45.90762919" lon="9.05495826"><ele>857.152588</ele><time>2008-06-01T06:19:33Z</time></trkpt>
<trkpt lat="45.90760002" lon="9.05478786"><ele>859.075195</ele><time>2008-06-01T06:19:41Z</time></trkpt>
<trkpt lat="45.90760672" lon="9.05464679"><ele>860.517334</ele><time>2008-06-01T06:19:47Z</time></trkpt>
<trkpt lat="45.90757026" lon="9.05427950"><ele>864.362549</ele><time>2008-06-01T06:20:03Z</time></trkpt>
<trkpt lat="45.90757588" lon="9.05409006"><ele>865.323975</ele><time>2008-06-01T06:20:12Z</time></trkpt>
<trkpt lat="45.90759147" lon="9.05407967"><ele>866.765869</ele><time>2008-06-01T06:20:15Z</time></trkpt>
<trkpt lat="45.90759457" lon="9.05416843"><ele>867.246582</ele><time>2008-06-01T06:20:19Z</time></trkpt>
<trkpt lat="45.90758946" lon="9.05421806"><ele>868.207764</ele><time>2008-06-01T06:20:21Z</time></trkpt>
<trkpt lat="45.90758493" lon="9.05455576"><ele>871.091797</ele><time>2008-06-01T06:20:35Z</time></trkpt>
<trkpt lat="45.90760396" lon="9.05459977"><ele>871.091797</ele><time>2008-06-01T06:20:37Z</time></trkpt>
<trkpt lat="45.90783773" lon="9.05489984"><ele>874.456299</ele><time>2008-06-01T06:20:53Z</time></trkpt>
<trkpt lat="45.90790152" lon="9.05518323"><ele>877.340576</ele><time>2008-06-01T06:21:08Z</time></trkpt>
<trkpt lat="45.90802213" lon="9.05552270"><ele>879.743652</ele><time>2008-06-01T06:21:24Z</time></trkpt>
<trkpt lat="45.90806136" lon="9.05557006"><ele>881.185791</ele><time>2008-06-01T06:21:27Z</time></trkpt>
<trkpt lat="45.90829354" lon="9.05587424"><ele>884.06958</ele><time>2008-06-01T06:21:45Z</time></trkpt>
<trkpt lat="45.90844098" lon="9.05617489"><ele>886.4729</ele><time>2008-06-01T06:22:00Z</time></trkpt>
<trkpt lat="45.90855405" lon="9.05648142"><ele>889.837402</ele><time>2008-06-01T06:22:15Z</time></trkpt>
<trkpt lat="45.90859529" lon="9.05649316"><ele>890.798584</ele><time>2008-06-01T06:22:18Z</time></trkpt>
<trkpt lat="45.90861658" lon="9.05664898"><ele>892.240967</ele><time>2008-06-01T06:22:26Z</time></trkpt>
<trkpt lat="45.90857232" lon="9.05712959"><ele>894.644043</ele><time>2008-06-01T06:22:40Z</time></trkpt>
<trkpt lat="45.90871884" lon="9.05742413"><ele>897.528076</ele><time>2008-06-01T06:22:49Z</time></trkpt>
<trkpt lat="45.90908764" lon="9.05787466"><ele>900.412109</ele><time>2008-06-01T06:23:06Z</time></trkpt>
<trkpt lat="45.90924195" lon="9.05816744"><ele>904.257324</ele><time>2008-06-01T06:23:20Z</time></trkpt>
<trkpt lat="45.90938704" lon="9.05829309"><ele>905.218506</ele><time>2008-06-01T06:23:29Z</time></trkpt>
<trkpt lat="45.90953825" lon="9.05830029"><ele>906.179688</ele><time>2008-06-01T06:23:36Z</time></trkpt>
<trkpt lat="45.90966926" lon="9.05831697"><ele>908.102783</ele><time>2008-06-01T06:23:48Z</time></trkpt>
<trkpt lat="45.90973346" lon="9.05835603"><ele>909.544678</ele><time>2008-06-01T06:23:56Z</time></trkpt>
<trkpt lat="45.90986162" lon="9.05842535"><ele>909.544678</ele><time>2008-06-01T06:24:06Z</time></trkpt>
<trkpt lat="45.90990555" lon="9.05844698"><ele>910.025146</ele><time>2008-06-01T06:24:09Z</time></trkpt>
<trkpt lat="45.90977806" lon="9.05865460"><ele>912.428467</ele><time>2008-06-01T06:24:18Z</time></trkpt>
<trkpt lat="45.90979323" lon="9.05882835"><ele>915.3125</ele><time>2008-06-01T06:24:27Z</time></trkpt>
<trkpt lat="45.90982089" lon="9.05892827"><ele>916.754395</ele><time>2008-06-01T06:24:32Z</time></trkpt>
<trkpt lat="45.90991443" lon="9.05911686"><ele>918.196289</ele><time>2008-06-01T06:24:39Z</time></trkpt>
<trkpt lat="45.91014929" lon="9.05947946"><ele>921.560791</ele><time>2008-06-01T06:24:53Z</time></trkpt>
<trkpt lat="45.91018072" lon="9.05952305"><ele>922.041504</ele><time>2008-06-01T06:24:55Z</time></trkpt>
<trkpt lat="45.91034149" lon="9.05981725"><ele>923.483643</ele><time>2008-06-01T06:25:07Z</time></trkpt>
<trkpt lat="45.91044626" lon="9.05998849"><ele>924.445068</ele><time>2008-06-01T06:25:16Z</time></trkpt>
<trkpt lat="45.91044559" lon="9.05996536"><ele>926.367676</ele><time>2008-06-01T06:25:24Z</time></trkpt>
<trkpt lat="45.91034124" lon="9.05972974"><ele>929.251465</ele><time>2008-06-01T06:25:36Z</time></trkpt>
<trkpt lat="45.91025549" lon="9.05940520"><ele>931.654785</ele><time>2008-06-01T06:25:46Z</time></trkpt>
<trkpt lat="45.91017913" lon="9.05931962"><ele>932.616211</ele><time>2008-06-01T06:25:50Z</time></trkpt>
<trkpt lat="45.91021777" lon="9.05900178"><ele>935.019531</ele><time>2008-06-01T06:26:01Z</time></trkpt>
<trkpt lat="45.91022800" lon="9.05894780"><ele>935.019531</ele><time>2008-06-01T06:26:04Z</time></trkpt>
<trkpt lat="45.91028902" lon="9.05875367"><ele>938.384033</ele><time>2008-06-01T06:26:16Z</time></trkpt>
<trkpt lat="45.91037937" lon="9.05862442"><ele>941.268066</ele><time>2008-06-01T06:26:26Z</time></trkpt>
<trkpt lat="45.91055824" lon="9.05837657"><ele>944.1521</ele><time>2008-06-01T06:26:39Z</time></trkpt>
<trkpt lat="45.91075388" lon="9.05813903"><ele>947.035889</ele><time>2008-06-01T06:26:50Z</time></trkpt>
<trkpt lat="45.91094649" lon="9.05791255"><ele>948.958496</ele><time>2008-06-01T06:27:02Z</time></trkpt>
<trkpt lat="45.91101799" lon="9.05783292"><ele>949.919922</ele><time>2008-06-01T06:27:08Z</time></trkpt>
<trkpt lat="45.91106543" lon="9.05788229"><ele>950.400635</ele><time>2008-06-01T06:27:12Z</time></trkpt>
<trkpt lat="45.91098698" lon="9.05793233"><ele>951.361816</ele><time>2008-06-01T06:27:18Z</time></trkpt>
<trkpt lat="45.91090232" lon="9.05812168"><ele>953.284424</ele><time>2008-06-01T06:27:28Z</time></trkpt>
<trkpt lat="45.91078623" lon="9.05842912"><ele>956.168457</ele><time>2008-06-01T06:27:41Z</time></trkpt>
<trkpt lat="45.91079813" lon="9.05862316"><ele>958.571777</ele><time>2008-06-01T06:27:53Z</time></trkpt>
<trkpt lat="45.91075019" lon="9.05892064"><ele>961.455811</ele><time>2008-06-01T06:28:06Z</time></trkpt>
<trkpt lat="45.91074977" lon="9.05895014"><ele>961.455811</ele><time>2008-06-01T06:28:07Z</time></trkpt>
<trkpt lat="45.91079696" lon="9.05925558"><ele>962.897705</ele><time>2008-06-01T06:28:21Z</time></trkpt>
<trkpt lat="45.91085773" lon="9.05952439"><ele>966.262207</ele><time>2008-06-01T06:28:35Z</time></trkpt>
<trkpt lat="45.91089738" lon="9.05979856"><ele>968.665527</ele><time>2008-06-01T06:28:47Z</time></trkpt>
<trkpt lat="45.91100969" lon="9.06010056"><ele>971.549316</ele><time>2008-06-01T06:29:02Z</time></trkpt>
<trkpt lat="45.91108236" lon="9.06017323"><ele>972.510986</ele><time>2008-06-01T06:29:07Z</time></trkpt>
<trkpt lat="45.91121103" lon="9.06023693"><ele>973.472412</ele><time>2008-06-01T06:29:12Z</time></trkpt>
<trkpt lat="45.91140842" lon="9.06037683"><ele>976.356201</ele><time>2008-06-01T06:29:23Z</time></trkpt>
<trkpt lat="45.91155678" lon="9.06057087"><ele>978.278809</ele><time>2008-06-01T06:29:35Z</time></trkpt>
<trkpt lat="45.91172836" lon="9.06076139"><ele>981.162842</ele><time>2008-06-01T06:29:48Z</time></trkpt>
<trkpt lat="45.91180933" lon="9.06086097"><ele>982.124023</ele><time>2008-06-01T06:29:54Z</time></trkpt>
<trkpt lat="45.91184998" lon="9.06096959"><ele>983.565918</ele><time>2008-06-01T06:29:59Z</time></trkpt>
<trkpt lat="45.91197009" lon="9.06122357"><ele>985.008057</ele><time>2008-06-01T06:30:12Z</time></trkpt>
<trkpt lat="45.91201670" lon="9.06122969"><ele>985.969238</ele><time>2008-06-01T06:30:16Z</time></trkpt>
<trkpt lat="45.91199214" lon="9.06120068"><ele>985.969238</ele><time>2008-06-01T06:30:19Z</time></trkpt>
<trkpt lat="45.91190153" lon="9.06108845"><ele>987.411133</ele><time>2008-06-01T06:30:25Z</time></trkpt>
<trkpt lat="45.91184177" lon="9.06079165"><ele>990.775879</ele><time>2008-06-01T06:30:38Z</time></trkpt>
<trkpt lat="45.91179575" lon="9.06054430"><ele>993.179199</ele><time>2008-06-01T06:30:49Z</time></trkpt>
<trkpt lat="45.91179927" lon="9.06047858"><ele>993.179199</ele><time>2008-06-01T06:30:51Z</time></trkpt>
<trkpt lat="45.91171956" lon="9.06015186"><ele>996.063232</ele><time>2008-06-01T06:31:05Z</time></trkpt>
<trkpt lat="45.91165384" lon="9.05994466"><ele>997.505127</ele><time>2008-06-01T06:31:15Z</time></trkpt>
<trkpt lat="45.91149719" lon="9.05970443"><ele>999.908447</ele><time>2008-06-01T06:31:27Z</time></trkpt>
<trkpt lat="45.91151604" lon="9.05957686"><ele>1001.350342</ele><time>2008-06-01T06:31:31Z</time></trkpt>
<trkpt lat="45.91149098" lon="9.05931727"><ele>1004.234619</ele><time>2008-06-01T06:31:42Z</time></trkpt>
<trkpt lat="45.91149232" lon="9.05911258"><ele>1005.676514</ele><time>2008-06-01T06:31:52Z</time></trkpt>
<trkpt lat="45.91154228" lon="9.05873733"><ele>1010.002197</ele><time>2008-06-01T06:32:08Z</time></trkpt>
<trkpt lat="45.91166097" lon="9.05858268"><ele>1011.925049</ele><time>2008-06-01T06:32:19Z</time></trkpt>
<trkpt lat="45.91173003" lon="9.05847045"><ele>1012.88623</ele><time>2008-06-01T06:32:27Z</time></trkpt>
<trkpt lat="45.91180623" lon="9.05837355"><ele>1014.328125</ele><time>2008-06-01T06:32:34Z</time></trkpt>
<trkpt lat="45.91181922" lon="9.05834002"><ele>1014.808838</ele><time>2008-06-01T06:32:36Z</time></trkpt>
<trkpt lat="45.91197244" lon="9.05816317"><ele>1016.731445</ele><time>2008-06-01T06:32:50Z</time></trkpt>
<trkpt lat="45.91208383" lon="9.05807356"><ele>1019.615479</ele><time>2008-06-01T06:33:00Z</time></trkpt>
<trkpt lat="45.91220537" lon="9.05789285"><ele>1022.018799</ele><time>2008-06-01T06:33:13Z</time></trkpt>
<trkpt lat="45.91220965" lon="9.05788329"><ele>1022.018799</ele><time>2008-06-01T06:33:15Z</time></trkpt>
<trkpt lat="45.91230889" lon="9.05775002"><ele>1025.383301</ele><time>2008-06-01T06:33:29Z</time></trkpt>
<trkpt lat="45.91231434" lon="9.05773049"><ele>1025.383301</ele><time>2008-06-01T06:33:30Z</time></trkpt>
<trkpt lat="45.91236220" lon="9.05756973"><ele>1028.267334</ele><time>2008-06-01T06:33:45Z</time></trkpt>
<trkpt lat="45.91238692" lon="9.05751659"><ele>1028.748047</ele><time>2008-06-01T06:33:50Z</time></trkpt>
<trkpt lat="45.91237242" lon="9.05743352"><ele>1029.228516</ele><time>2008-06-01T06:33:54Z</time></trkpt>
<trkpt lat="45.91232414" lon="9.05735347"><ele>1030.670654</ele><time>2008-06-01T06:33:59Z</time></trkpt>
<trkpt lat="45.91231392" lon="9.05714627"><ele>1032.593262</ele><time>2008-06-01T06:34:08Z</time></trkpt>
<trkpt lat="45.91240469" lon="9.05691225"><ele>1034.035156</ele><time>2008-06-01T06:34:16Z</time></trkpt>
<trkpt lat="45.91237603" lon="9.05656834"><ele>1036.919189</ele><time>2008-06-01T06:34:30Z</time></trkpt>
<trkpt lat="45.91231182" lon="9.05643054"><ele>1038.361328</ele><time>2008-06-01T06:34:37Z</time></trkpt>
<trkpt lat="45.91224879" lon="9.05642199"><ele>1039.803223</ele><time>2008-06-01T06:34:41Z</time></trkpt>
<trkpt lat="45.91211619" lon="9.05630238"><ele>1042.206543</ele><time>2008-06-01T06:34:53Z</time></trkpt>
<trkpt lat="45.91206917" lon="9.05625989"><ele>1043.167725</ele><time>2008-06-01T06:34:57Z</time></trkpt>
<trkpt lat="45.91202977" lon="9.05625159"><ele>1043.648438</ele><time>2008-06-01T06:34:59Z</time></trkpt>
<trkpt lat="45.91199876" lon="9.05622602"><ele>1043.648438</ele><time>2008-06-01T06:35:01Z</time></trkpt>
<trkpt lat="45.91197789" lon="9.05614975"><ele>1044.609619</ele><time>2008-06-01T06:35:04Z</time></trkpt>
<trkpt lat="45.91196079" lon="9.05606006"><ele>1045.090332</ele><time>2008-06-01T06:35:08Z</time></trkpt>
<trkpt lat="45.91186373" lon="9.05592947"><ele>1047.012939</ele><time>2008-06-01T06:35:16Z</time></trkpt>
<trkpt lat="45.91179944" lon="9.05586510"><ele>1047.012939</ele><time>2008-06-01T06:35:20Z</time></trkpt>
<trkpt lat="45.91179818" lon="9.05584155"><ele>1047.974365</ele><time>2008-06-01T06:35:22Z</time></trkpt>
<trkpt lat="45.91180849" lon="9.05585957"><ele>1047.974365</ele><time>2008-06-01T06:35:24Z</time></trkpt>
<trkpt lat="45.91189608" lon="9.05602754"><ele>1049.41626</ele><time>2008-06-01T06:35:35Z</time></trkpt>
<trkpt lat="45.91195098" lon="9.05601807"><ele>1050.377686</ele><time>2008-06-01T06:35:38Z</time></trkpt>
<trkpt lat="45.91203229" lon="9.05602084"><ele>1051.338867</ele><time>2008-06-01T06:35:43Z</time></trkpt>
<trkpt lat="45.91211929" lon="9.05610113"><ele>1052.781006</ele><time>2008-06-01T06:35:51Z</time></trkpt>
<trkpt lat="45.91221954" lon="9.05621077"><ele>1054.223145</ele><time>2008-06-01T06:36:01Z</time></trkpt>
<trkpt lat="45.91240847" lon="9.05638327"><ele>1055.184326</ele><time>2008-06-01T06:36:15Z</time></trkpt>
<trkpt lat="45.91257753" lon="9.05648662"><ele>1059.510254</ele><time>2008-06-01T06:36:26Z</time></trkpt>
<trkpt lat="45.91272564" lon="9.05664428"><ele>1061.432861</ele><time>2008-06-01T06:36:38Z</time></trkpt>
<trkpt lat="45.91290560" lon="9.05680857"><ele>1063.355469</ele><time>2008-06-01T06:36:51Z</time></trkpt>
<trkpt lat="45.91310366" lon="9.05692373"><ele>1066.239258</ele><time>2008-06-01T06:37:05Z</time></trkpt>
<trkpt lat="45.91327633" lon="9.05706078"><ele>1068.642822</ele><time>2008-06-01T06:37:17Z</time></trkpt>
<trkpt lat="45.91345184" lon="9.05725507"><ele>1070.084717</ele><time>2008-06-01T06:37:30Z</time></trkpt>
<trkpt lat="45.91363658" lon="9.05735674"><ele>1072.488037</ele><time>2008-06-01T06:37:42Z</time></trkpt>
<trkpt lat="45.91376172" lon="9.05746797"><ele>1073.449463</ele><time>2008-06-01T06:37:50Z</time></trkpt>
<trkpt lat="45.91382727" lon="9.05747836"><ele>1074.891357</ele><time>2008-06-01T06:37:55Z</time></trkpt>
<trkpt lat="45.91386532" lon="9.05749706"><ele>1075.371826</ele><time>2008-06-01T06:37:59Z</time></trkpt>
<trkpt lat="45.91393246" lon="9.05754995"><ele>1076.333252</ele><time>2008-06-01T06:38:03Z</time></trkpt>
<trkpt lat="45.91408510" lon="9.05775664"><ele>1079.217041</ele><time>2008-06-01T06:38:15Z</time></trkpt>
<trkpt lat="45.91427042" lon="9.05798907"><ele>1082.101074</ele><time>2008-06-01T06:38:30Z</time></trkpt>
<trkpt lat="45.91447662" lon="9.05818638"><ele>1084.985352</ele><time>2008-06-01T06:38:45Z</time></trkpt>
<trkpt lat="45.91474308" lon="9.05842158"><ele>1088.830566</ele><time>2008-06-01T06:39:04Z</time></trkpt>
<trkpt lat="45.91493812" lon="9.05880815"><ele>1091.233643</ele><time>2008-06-01T06:39:25Z</time></trkpt>
<trkpt lat="45.91502018" lon="9.05903874"><ele>1094.598145</ele><time>2008-06-01T06:39:36Z</time></trkpt>
<trkpt lat="45.91507978" lon="9.05891905"><ele>1096.040283</ele><time>2008-06-01T06:39:46Z</time></trkpt>
<trkpt lat="45.91507525" lon="9.05889256"><ele>1096.040283</ele><time>2008-06-01T06:39:47Z</time></trkpt>
<trkpt lat="45.91510526" lon="9.05843885"><ele>1098.924072</ele><time>2008-06-01T06:40:06Z</time></trkpt>
<trkpt lat="45.91515203" lon="9.05821748"><ele>1100.846924</ele><time>2008-06-01T06:40:18Z</time></trkpt>
<trkpt lat="45.91521255" lon="9.05835419"><ele>1101.80835</ele><time>2008-06-01T06:40:26Z</time></trkpt>
<trkpt lat="45.91519997" lon="9.05850984"><ele>1101.80835</ele><time>2008-06-01T06:40:41Z</time></trkpt>
<trkpt lat="45.91520844" lon="9.05864546"><ele>1102.288818</ele><time>2008-06-01T06:40:57Z</time></trkpt>
<trkpt lat="45.91526217" lon="9.05927268"><ele>1101.327637</ele><time>2008-06-01T06:41:11Z</time></trkpt>
<trkpt lat="45.91529310" lon="9.05971767"><ele>1103.250244</ele><time>2008-06-01T06:41:20Z</time></trkpt>
<trkpt lat="45.91532847" lon="9.05994248"><ele>1103.730957</ele><time>2008-06-01T06:41:25Z</time></trkpt>
<trkpt lat="45.91539066" lon="9.06028479"><ele>1102.288818</ele><time>2008-06-01T06:41:33Z</time></trkpt>
<trkpt lat="45.91528715" lon="9.06035839"><ele>1103.250244</ele><time>2008-06-01T06:41:40Z</time></trkpt>
<trkpt lat="45.91515915" lon="9.06043106"><ele>1105.653564</ele><time>2008-06-01T06:41:47Z</time></trkpt>
<trkpt lat="45.91488079" lon="9.06055653"><ele>1108.056885</ele><time>2008-06-01T06:42:02Z</time></trkpt>
<trkpt lat="45.91457192" lon="9.06055972"><ele>1111.421387</ele><time>2008-06-01T06:42:18Z</time></trkpt>
<trkpt lat="45.91430998" lon="9.06066583"><ele>1113.343994</ele><time>2008-06-01T06:42:34Z</time></trkpt>
<trkpt lat="45.91422005" lon="9.06126497"><ele>1111.421387</ele><time>2008-06-01T06:42:45Z</time></trkpt>
<trkpt lat="45.91415777" lon="9.06156982"><ele>1109.979248</ele><time>2008-06-01T06:42:50Z</time></trkpt>
<trkpt lat="45.91413329" lon="9.06207148"><ele>1109.018066</ele><time>2008-06-01T06:43:00Z</time></trkpt>
<trkpt lat="45.91407764" lon="9.06246342"><ele>1107.095459</ele><time>2008-06-01T06:43:10Z</time></trkpt>
<trkpt lat="45.91403162" lon="9.06291872"><ele>1106.614746</ele><time>2008-06-01T06:43:20Z</time></trkpt>
<trkpt lat="45.91398099" lon="9.06302618"><ele>1107.095459</ele><time>2008-06-01T06:43:24Z</time></trkpt>
<trkpt lat="45.91374865" lon="9.06321075"><ele>1108.056885</ele><time>2008-06-01T06:43:36Z</time></trkpt>
<trkpt lat="45.91368595" lon="9.06327822"><ele>1108.537354</ele><time>2008-06-01T06:43:40Z</time></trkpt>
<trkpt lat="45.91342117" lon="9.06358936"><ele>1110.459961</ele><time>2008-06-01T06:43:56Z</time></trkpt>
<trkpt lat="45.91329703" lon="9.06392212"><ele>1111.9021</ele><time>2008-06-01T06:44:08Z</time></trkpt>
<trkpt lat="45.91318044" lon="9.06431372"><ele>1113.343994</ele><time>2008-06-01T06:44:24Z</time></trkpt>
<trkpt lat="45.91306879" lon="9.06462318"><ele>1116.70874</ele><time>2008-06-01T06:44:38Z</time></trkpt>
<trkpt lat="45.91295932" lon="9.06489694"><ele>1119.112061</ele><time>2008-06-01T06:44:52Z</time></trkpt>
<trkpt lat="45.91292932" lon="9.06512098"><ele>1122.476563</ele><time>2008-06-01T06:45:03Z</time></trkpt>
<trkpt lat="45.91277023" lon="9.06540697"><ele>1124.39917</ele><time>2008-06-01T06:45:17Z</time></trkpt>
<trkpt lat="45.91266286" lon="9.06536775"><ele>1124.39917</ele><time>2008-06-01T06:45:22Z</time></trkpt>
<trkpt lat="45.91220504" lon="9.06517387"><ele>1125.360352</ele><time>2008-06-01T06:45:42Z</time></trkpt>
<trkpt lat="45.91175250" lon="9.06514387"><ele>1126.321777</ele><time>2008-06-01T06:46:00Z</time></trkpt>
<trkpt lat="45.91124229" lon="9.06507354"><ele>1129.205566</ele><time>2008-06-01T06:46:18Z</time></trkpt>
<trkpt lat="45.91069629" lon="9.06522660"><ele>1130.647705</ele><time>2008-06-01T06:46:36Z</time></trkpt>
<trkpt lat="45.91037845" lon="9.06563823"><ele>1131.608887</ele><time>2008-06-01T06:46:52Z</time></trkpt>
<trkpt lat="45.90989876" lon="9.06564762"><ele>1133.531738</ele><time>2008-06-01T06:47:08Z</time></trkpt>
<trkpt lat="45.90944186" lon="9.06557034"><ele>1136.415771</ele><time>2008-06-01T06:47:27Z</time></trkpt>
<trkpt lat="45.90936734" lon="9.06554930"><ele>1137.376953</ele><time>2008-06-01T06:47:31Z</time></trkpt>
<trkpt lat="45.90902628" lon="9.06545458"><ele>1140.741455</ele><time>2008-06-01T06:47:47Z</time></trkpt>
<trkpt lat="45.90872940" lon="9.06537579"><ele>1142.664307</ele><time>2008-06-01T06:48:01Z</time></trkpt>
<trkpt lat="45.90839295" lon="9.06525769"><ele>1145.548096</ele><time>2008-06-01T06:48:19Z</time></trkpt>
<trkpt lat="45.90807544" lon="9.06508176"><ele>1148.432129</ele><time>2008-06-01T06:48:38Z</time></trkpt>
<trkpt lat="45.90778677" lon="9.06490305"><ele>1152.277344</ele><time>2008-06-01T06:48:55Z</time></trkpt>
<trkpt lat="45.90775215" lon="9.06487782"><ele>1152.758057</ele><time>2008-06-01T06:48:57Z</time></trkpt>
<trkpt lat="45.90739793" lon="9.06478772"><ele>1153.719482</ele><time>2008-06-01T06:49:12Z</time></trkpt>
<trkpt lat="45.90715108" lon="9.06472234"><ele>1150.35498</ele><time>2008-06-01T06:49:18Z</time></trkpt>
<trkpt lat="45.90711144" lon="9.06470792"><ele>1150.35498</ele><time>2008-06-01T06:49:19Z</time></trkpt>
<trkpt lat="45.90677943" lon="9.06459888"><ele>1148.912842</ele><time>2008-06-01T06:49:29Z</time></trkpt>
<trkpt lat="45.90680969" lon="9.06467750"><ele>1150.35498</ele><time>2008-06-01T06:49:38Z</time></trkpt>
<trkpt lat="45.90684716" lon="9.06469929"><ele>1151.796875</ele><time>2008-06-01T06:49:41Z</time></trkpt>
<trkpt lat="45.90686912" lon="9.06471153"><ele>1151.796875</ele><time>2008-06-01T06:49:43Z</time></trkpt>
<trkpt lat="45.90689083" lon="9.06473240"><ele>1153.23877</ele><time>2008-06-01T06:49:45Z</time></trkpt>
<trkpt lat="45.90711035" lon="9.06486659"><ele>1156.122559</ele><time>2008-06-01T06:50:02Z</time></trkpt>
<trkpt lat="45.90716433" lon="9.06489652"><ele>1157.083984</ele><time>2008-06-01T06:50:06Z</time></trkpt>
<trkpt lat="45.90741956" lon="9.06499308"><ele>1160.448486</ele><time>2008-06-01T06:50:24Z</time></trkpt>
<trkpt lat="45.90773815" lon="9.06517496"><ele>1160.929199</ele><time>2008-06-01T06:50:40Z</time></trkpt>
<trkpt lat="45.90810168" lon="9.06546540"><ele>1159.006592</ele><time>2008-06-01T06:50:49Z</time></trkpt>
<trkpt lat="45.90831072" lon="9.06565290"><ele>1159.487305</ele><time>2008-06-01T06:51:01Z</time></trkpt>
<trkpt lat="45.90840150" lon="9.06574669"><ele>1161.890625</ele><time>2008-06-01T06:51:14Z</time></trkpt>
<trkpt lat="45.90848909" lon="9.06588533"><ele>1162.371094</ele><time>2008-06-01T06:51:28Z</time></trkpt>
<trkpt lat="45.90849856" lon="9.06589396"><ele>1162.851807</ele><time>2008-06-01T06:51:29Z</time></trkpt>
<trkpt lat="45.90870903" lon="9.06599748"><ele>1165.736084</ele><time>2008-06-01T06:51:49Z</time></trkpt>
<trkpt lat="45.90882629" lon="9.06608306"><ele>1169.100586</ele><time>2008-06-01T06:52:03Z</time></trkpt>
<trkpt lat="45.90896443" lon="9.06618146"><ele>1172.945801</ele><time>2008-06-01T06:52:21Z</time></trkpt>
<trkpt lat="45.90906484" lon="9.06635078"><ele>1175.82959</ele><time>2008-06-01T06:52:42Z</time></trkpt>
<trkpt lat="45.90912712" lon="9.06640467"><ele>1177.271729</ele><time>2008-06-01T06:52:56Z</time></trkpt>
<trkpt lat="45.90918588" lon="9.06649034"><ele>1179.194092</ele><time>2008-06-01T06:53:08Z</time></trkpt>
<trkpt lat="45.90925519" lon="9.06655379"><ele>1182.559082</ele><time>2008-06-01T06:53:19Z</time></trkpt>
<trkpt lat="45.90933256" lon="9.06662394"><ele>1184.962402</ele><time>2008-06-01T06:53:33Z</time></trkpt>
<trkpt lat="45.90941093" lon="9.06674213"><ele>1188.326904</ele><time>2008-06-01T06:53:48Z</time></trkpt>
<trkpt lat="45.90947824" lon="9.06681170"><ele>1191.210693</ele><time>2008-06-01T06:54:00Z</time></trkpt>
<trkpt lat="45.90958117" lon="9.06686115"><ele>1194.094727</ele><time>2008-06-01T06:54:16Z</time></trkpt>
<trkpt lat="45.90967705" lon="9.06693843"><ele>1196.97876</ele><time>2008-06-01T06:54:33Z</time></trkpt>
<trkpt lat="45.90974897" lon="9.06700063"><ele>1198.901367</ele><time>2008-06-01T06:54:50Z</time></trkpt>
<trkpt lat="45.90981024" lon="9.06706466"><ele>1202.265869</ele><time>2008-06-01T06:55:04Z</time></trkpt>
<trkpt lat="45.90989658" lon="9.06715100"><ele>1205.630615</ele><time>2008-06-01T06:55:24Z</time></trkpt>
<trkpt lat="45.90994628" lon="9.06720355"><ele>1208.995117</ele><time>2008-06-01T06:55:37Z</time></trkpt>
<trkpt lat="45.90997755" lon="9.06723272"><ele>1210.917725</ele><time>2008-06-01T06:55:46Z</time></trkpt>
<trkpt lat="45.91004360" lon="9.06728444"><ele>1214.282471</ele><time>2008-06-01T06:56:01Z</time></trkpt>
<trkpt lat="45.91012398" lon="9.06734420"><ele>1216.685791</ele><time>2008-06-01T06:56:19Z</time></trkpt>
<trkpt lat="45.91017997" lon="9.06740254"><ele>1218.127686</ele><time>2008-06-01T06:56:34Z</time></trkpt>
<trkpt lat="45.91022749" lon="9.06744855"><ele>1221.011719</ele><time>2008-06-01T06:56:48Z</time></trkpt>
<trkpt lat="45.91027888" lon="9.06749549"><ele>1223.415039</ele><time>2008-06-01T06:57:04Z</time></trkpt>
<trkpt lat="45.91033378" lon="9.06754914"><ele>1225.818115</ele><time>2008-06-01T06:57:20Z</time></trkpt>
<trkpt lat="45.91040326" lon="9.06762030"><ele>1228.22168</ele><time>2008-06-01T06:57:37Z</time></trkpt>
<trkpt lat="45.91044232" lon="9.06766816"><ele>1231.105713</ele><time>2008-06-01T06:57:47Z</time></trkpt>
<trkpt lat="45.91052187" lon="9.06773446"><ele>1234.470215</ele><time>2008-06-01T06:58:07Z</time></trkpt>
<trkpt lat="45.91058976" lon="9.06777218"><ele>1237.834717</ele><time>2008-06-01T06:58:20Z</time></trkpt>
<trkpt lat="45.91066444" lon="9.06781702"><ele>1241.199219</ele><time>2008-06-01T06:58:32Z</time></trkpt>
<trkpt lat="45.91067785" lon="9.06783178"><ele>1240.718506</ele><time>2008-06-01T06:58:34Z</time></trkpt>
<trkpt lat="45.91081356" lon="9.06780839"><ele>1243.602539</ele><time>2008-06-01T06:58:48Z</time></trkpt>
<trkpt lat="45.91102017" lon="9.06777293"><ele>1246.967285</ele><time>2008-06-01T06:59:08Z</time></trkpt>
<trkpt lat="45.91121145" lon="9.06776975"><ele>1248.40918</ele><time>2008-06-01T06:59:24Z</time></trkpt>
<trkpt lat="45.91150138" lon="9.06785399"><ele>1251.773926</ele><time>2008-06-01T06:59:43Z</time></trkpt>
<trkpt lat="45.91164839" lon="9.06790487"><ele>1252.735107</ele><time>2008-06-01T06:59:53Z</time></trkpt>
<trkpt lat="45.91192433" lon="9.06797242"><ele>1255.619141</ele><time>2008-06-01T07:00:09Z</time></trkpt>
<trkpt lat="45.91226212" lon="9.06818038"><ele>1257.061035</ele><time>2008-06-01T07:00:29Z</time></trkpt>
<trkpt lat="45.91227285" lon="9.06818482"><ele>1257.061035</ele><time>2008-06-01T07:00:30Z</time></trkpt>
<trkpt lat="45.91233118" lon="9.06820318"><ele>1258.50293</ele><time>2008-06-01T07:00:35Z</time></trkpt>
<trkpt lat="45.91234376" lon="9.06820938"><ele>1258.50293</ele><time>2008-06-01T07:00:36Z</time></trkpt>
<trkpt lat="45.91240654" lon="9.06826068"><ele>1258.983643</ele><time>2008-06-01T07:00:42Z</time></trkpt>
<trkpt lat="45.91246655" lon="9.06829856"><ele>1260.906494</ele><time>2008-06-01T07:00:47Z</time></trkpt>
<trkpt lat="45.91249798" lon="9.06832187"><ele>1261.387207</ele><time>2008-06-01T07:00:50Z</time></trkpt>
<trkpt lat="45.91259136" lon="9.06837358"><ele>1263.309814</ele><time>2008-06-01T07:00:59Z</time></trkpt>
<trkpt lat="45.91267082" lon="9.06839588"><ele>1263.309814</ele><time>2008-06-01T07:01:05Z</time></trkpt>
<trkpt lat="45.91279135" lon="9.06848447"><ele>1259.944824</ele><time>2008-06-01T07:01:11Z</time></trkpt>
<trkpt lat="45.91284667" lon="9.06862764"><ele>1256.580322</ele><time>2008-06-01T07:01:15Z</time></trkpt>
<trkpt lat="45.91284298" lon="9.06865924"><ele>1255.619141</ele><time>2008-06-01T07:01:16Z</time></trkpt>
<trkpt lat="45.91282882" lon="9.06884624"><ele>1250.332031</ele><time>2008-06-01T07:01:24Z</time></trkpt>
<trkpt lat="45.91282966" lon="9.06886065"><ele>1250.332031</ele><time>2008-06-01T07:01:25Z</time></trkpt>
<trkpt lat="45.91283544" lon="9.06892268"><ele>1248.40918</ele><time>2008-06-01T07:01:31Z</time></trkpt>
<trkpt lat="45.91288766" lon="9.06899778"><ele>1245.044678</ele><time>2008-06-01T07:01:42Z</time></trkpt>
<trkpt lat="45.91290124" lon="9.06904782"><ele>1245.044678</ele><time>2008-06-01T07:01:46Z</time></trkpt>
<trkpt lat="45.91291272" lon="9.06943012"><ele>1241.679932</ele><time>2008-06-01T07:01:54Z</time></trkpt>
<trkpt lat="45.91291180" lon="9.06948636"><ele>1241.199219</ele><time>2008-06-01T07:01:55Z</time></trkpt>
<trkpt lat="45.91294373" lon="9.06983480"><ele>1238.31543</ele><time>2008-06-01T07:02:02Z</time></trkpt>
<trkpt lat="45.91304993" lon="9.07016790"><ele>1235.431396</ele><time>2008-06-01T07:02:07Z</time></trkpt>
<trkpt lat="45.91316309" lon="9.07038817"><ele>1234.470215</ele><time>2008-06-01T07:02:11Z</time></trkpt>
<trkpt lat="45.91320072" lon="9.07051776"><ele>1233.508789</ele><time>2008-06-01T07:02:13Z</time></trkpt>
<trkpt lat="45.91320114" lon="9.07069067"><ele>1231.586182</ele><time>2008-06-01T07:02:16Z</time></trkpt>
<trkpt lat="45.91320106" lon="9.07083116"><ele>1230.144287</ele><time>2008-06-01T07:02:19Z</time></trkpt>
<trkpt lat="45.91321816" lon="9.07097004"><ele>1229.182861</ele><time>2008-06-01T07:02:21Z</time></trkpt>
<trkpt lat="45.91325286" lon="9.07119468"><ele>1227.740723</ele><time>2008-06-01T07:02:24Z</time></trkpt>
<trkpt lat="45.91336828" lon="9.07174109"><ele>1226.298828</ele><time>2008-06-01T07:02:34Z</time></trkpt>
<trkpt lat="45.91340549" lon="9.07196254"><ele>1222.453613</ele><time>2008-06-01T07:02:40Z</time></trkpt>
<trkpt lat="45.91341102" lon="9.07202667"><ele>1221.492188</ele><time>2008-06-01T07:02:42Z</time></trkpt>
<trkpt lat="45.91342167" lon="9.07216094"><ele>1217.646973</ele><time>2008-06-01T07:02:46Z</time></trkpt>
<trkpt lat="45.91342343" lon="9.07219590"><ele>1216.205078</ele><time>2008-06-01T07:02:47Z</time></trkpt>
<trkpt lat="45.91338705" lon="9.07230939"><ele>1215.243896</ele><time>2008-06-01T07:02:50Z</time></trkpt>
<trkpt lat="45.91329318" lon="9.07243595"><ele>1213.801758</ele><time>2008-06-01T07:02:54Z</time></trkpt>
<trkpt lat="45.91319494" lon="9.07266889"><ele>1209.47583</ele><time>2008-06-01T07:02:58Z</time></trkpt>
<trkpt lat="45.91317189" lon="9.07273066"><ele>1209.47583</ele><time>2008-06-01T07:02:59Z</time></trkpt>
<trkpt lat="45.91313375" lon="9.07285455"><ele>1208.514404</ele><time>2008-06-01T07:03:01Z</time></trkpt>
<trkpt lat="45.91309369" lon="9.07297323"><ele>1208.033936</ele><time>2008-06-01T07:03:03Z</time></trkpt>
<trkpt lat="45.91307567" lon="9.07343038"><ele>1205.149902</ele><time>2008-06-01T07:03:09Z</time></trkpt>
<trkpt lat="45.91309503" lon="9.07357648"><ele>1204.669189</ele><time>2008-06-01T07:03:11Z</time></trkpt>
<trkpt lat="45.91311179" lon="9.07372409"><ele>1204.188721</ele><time>2008-06-01T07:03:13Z</time></trkpt>
<trkpt lat="45.91307315" lon="9.07426204"><ele>1205.630615</ele><time>2008-06-01T07:03:24Z</time></trkpt>
<trkpt lat="45.91312168" lon="9.07459069"><ele>1204.669189</ele><time>2008-06-01T07:03:30Z</time></trkpt>
<trkpt lat="45.91320215" lon="9.07543123"><ele>1200.343506</ele><time>2008-06-01T07:03:42Z</time></trkpt>
<trkpt lat="45.91323199" lon="9.07568729"><ele>1199.38208</ele><time>2008-06-01T07:03:45Z</time></trkpt>
<trkpt lat="45.91327893" lon="9.07602198"><ele>1197.459473</ele><time>2008-06-01T07:03:49Z</time></trkpt>
<trkpt lat="45.91328823" lon="9.07618334"><ele>1195.536621</ele><time>2008-06-01T07:03:51Z</time></trkpt>
<trkpt lat="45.91340943" lon="9.07659547"><ele>1192.652832</ele><time>2008-06-01T07:03:56Z</time></trkpt>
<trkpt lat="45.91367866" lon="9.07694014"><ele>1187.846191</ele><time>2008-06-01T07:04:03Z</time></trkpt>
<trkpt lat="45.91373473" lon="9.07705698"><ele>1187.365479</ele><time>2008-06-01T07:04:05Z</time></trkpt>
<trkpt lat="45.91383037" lon="9.07723292"><ele>1185.923584</ele><time>2008-06-01T07:04:08Z</time></trkpt>
<trkpt lat="45.91410605" lon="9.07745252"><ele>1182.078369</ele><time>2008-06-01T07:04:14Z</time></trkpt>
<trkpt lat="45.91427612" lon="9.07801168"><ele>1178.713623</ele><time>2008-06-01T07:04:21Z</time></trkpt>
<trkpt lat="45.91428123" lon="9.07829449"><ele>1177.271729</ele><time>2008-06-01T07:04:24Z</time></trkpt>
<trkpt lat="45.91429917" lon="9.07858148"><ele>1176.310303</ele><time>2008-06-01T07:04:27Z</time></trkpt>
<trkpt lat="45.91430755" lon="9.07897107"><ele>1174.868408</ele><time>2008-06-01T07:04:31Z</time></trkpt>
<trkpt lat="45.91453630" lon="9.07982326"><ele>1171.503662</ele><time>2008-06-01T07:04:40Z</time></trkpt>
<trkpt lat="45.91459044" lon="9.08001202"><ele>1171.023193</ele><time>2008-06-01T07:04:42Z</time></trkpt>
<trkpt lat="45.91469052" lon="9.08027689"><ele>1168.619873</ele><time>2008-06-01T07:04:45Z</time></trkpt>
<trkpt lat="45.91485732" lon="9.08061166"><ele>1166.697266</ele><time>2008-06-01T07:04:49Z</time></trkpt>
<trkpt lat="45.91513476" lon="9.08099446"><ele>1165.255371</ele><time>2008-06-01T07:04:55Z</time></trkpt>
<trkpt lat="45.91529402" lon="9.08137727"><ele>1162.851807</ele><time>2008-06-01T07:05:00Z</time></trkpt>
<trkpt lat="45.91522604" lon="9.08177239"><ele>1161.890625</ele><time>2008-06-01T07:05:08Z</time></trkpt>
<trkpt lat="45.91516896" lon="9.08175034"><ele>1163.33252</ele><time>2008-06-01T07:05:11Z</time></trkpt>
<trkpt lat="45.91509545" lon="9.08174942"><ele>1164.293945</ele><time>2008-06-01T07:05:15Z</time></trkpt>
<trkpt lat="45.91486009" lon="9.08183492"><ele>1166.697266</ele><time>2008-06-01T07:05:30Z</time></trkpt>
<trkpt lat="45.91484693" lon="9.08184447"><ele>1166.697266</ele><time>2008-06-01T07:05:31Z</time></trkpt>
<trkpt lat="45.91464979" lon="9.08196584"><ele>1168.13916</ele><time>2008-06-01T07:05:44Z</time></trkpt>
<trkpt lat="45.91446958" lon="9.08202955"><ele>1170.061768</ele><time>2008-06-01T07:05:55Z</time></trkpt>
<trkpt lat="45.91434100" lon="9.08210532"><ele>1172.945801</ele><time>2008-06-01T07:06:04Z</time></trkpt>
<trkpt lat="45.91424628" lon="9.08216248"><ele>1174.868408</ele><time>2008-06-01T07:06:12Z</time></trkpt>
<trkpt lat="45.91405719" lon="9.08229366"><ele>1177.752197</ele><time>2008-06-01T07:06:27Z</time></trkpt>
<trkpt lat="45.91404595" lon="9.08231939"><ele>1177.752197</ele><time>2008-06-01T07:06:28Z</time></trkpt>
<trkpt lat="45.91397856" lon="9.08241402"><ele>1178.713623</ele><time>2008-06-01T07:06:35Z</time></trkpt>
<trkpt lat="45.91382786" lon="9.08260387"><ele>1182.078369</ele><time>2008-06-01T07:06:49Z</time></trkpt>
<trkpt lat="45.91375192" lon="9.08277109"><ele>1184.962402</ele><time>2008-06-01T07:07:00Z</time></trkpt>
<trkpt lat="45.91371529" lon="9.08281116"><ele>1185.442871</ele><time>2008-06-01T07:07:04Z</time></trkpt>
<trkpt lat="45.91366726" lon="9.08292457"><ele>1186.884766</ele><time>2008-06-01T07:07:11Z</time></trkpt>
<trkpt lat="45.91366667" lon="9.08297427"><ele>1187.365479</ele><time>2008-06-01T07:07:14Z</time></trkpt>
<trkpt lat="45.91360180" lon="9.08302473"><ele>1188.326904</ele><time>2008-06-01T07:07:18Z</time></trkpt>
<trkpt lat="45.91346132" lon="9.08311383"><ele>1189.288086</ele><time>2008-06-01T07:07:28Z</time></trkpt>
<trkpt lat="45.91330709" lon="9.08330569"><ele>1191.210693</ele><time>2008-06-01T07:07:41Z</time></trkpt>
<trkpt lat="45.91311783" lon="9.08349889"><ele>1192.652832</ele><time>2008-06-01T07:07:53Z</time></trkpt>
<trkpt lat="45.91300786" lon="9.08360643"><ele>1193.614014</ele><time>2008-06-01T07:08:01Z</time></trkpt>
<trkpt lat="45.91278339" lon="9.08379922"><ele>1195.536621</ele><time>2008-06-01T07:08:14Z</time></trkpt>
<trkpt lat="45.91275305" lon="9.08385538"><ele>1195.536621</ele><time>2008-06-01T07:08:17Z</time></trkpt>
<trkpt lat="45.91269387" lon="9.08396820"><ele>1196.498291</ele><time>2008-06-01T07:08:23Z</time></trkpt>
<trkpt lat="45.91264467" lon="9.08403257"><ele>1196.97876</ele><time>2008-06-01T07:08:27Z</time></trkpt>
<trkpt lat="45.91262447" lon="9.08434924"><ele>1198.901367</ele><time>2008-06-01T07:08:40Z</time></trkpt>
<trkpt lat="45.91259354" lon="9.08445938"><ele>1200.823975</ele><time>2008-06-01T07:08:46Z</time></trkpt>
<trkpt lat="45.91255045" lon="9.08452953"><ele>1201.7854</ele><time>2008-06-01T07:08:50Z</time></trkpt>
<trkpt lat="45.91252338" lon="9.08464269"><ele>1202.265869</ele><time>2008-06-01T07:08:55Z</time></trkpt>
<trkpt lat="45.91248072" lon="9.08483975"><ele>1204.188721</ele><time>2008-06-01T07:09:04Z</time></trkpt>
<trkpt lat="45.91239857" lon="9.08496447"><ele>1205.630615</ele><time>2008-06-01T07:09:11Z</time></trkpt>
<trkpt lat="45.91237678" lon="9.08499355"><ele>1206.111084</ele><time>2008-06-01T07:09:13Z</time></trkpt>
<trkpt lat="45.91235558" lon="9.08521257"><ele>1207.07251</ele><time>2008-06-01T07:09:21Z</time></trkpt>
<trkpt lat="45.91233118" lon="9.08547912"><ele>1208.514404</ele><time>2008-06-01T07:09:31Z</time></trkpt>
<trkpt lat="45.91235214" lon="9.08583107"><ele>1211.87915</ele><time>2008-06-01T07:09:44Z</time></trkpt>
<trkpt lat="45.91238827" lon="9.08613710"><ele>1213.801758</ele><time>2008-06-01T07:09:56Z</time></trkpt>
<trkpt lat="45.91249195" lon="9.08649987"><ele>1216.685791</ele><time>2008-06-01T07:10:10Z</time></trkpt>
<trkpt lat="45.91249480" lon="9.08659425"><ele>1215.724609</ele><time>2008-06-01T07:10:13Z</time></trkpt>
<trkpt lat="45.91223949" lon="9.08687722"><ele>1214.763184</ele><time>2008-06-01T07:10:23Z</time></trkpt>
<trkpt lat="45.91213396" lon="9.08704352"><ele>1213.801758</ele><time>2008-06-01T07:10:27Z</time></trkpt>
<trkpt lat="45.91206162" lon="9.08719607"><ele>1213.801758</ele><time>2008-06-01T07:10:30Z</time></trkpt>
<trkpt lat="45.91179726" lon="9.08776243"><ele>1208.995117</ele><time>2008-06-01T07:10:39Z</time></trkpt>
<trkpt lat="45.91176574" lon="9.08782488"><ele>1208.995117</ele><time>2008-06-01T07:10:40Z</time></trkpt>
<trkpt lat="45.91165552" lon="9.08826686"><ele>1205.149902</ele><time>2008-06-01T07:10:46Z</time></trkpt>
<trkpt lat="45.91163817" lon="9.08872325"><ele>1202.265869</ele><time>2008-06-01T07:10:53Z</time></trkpt>
<trkpt lat="45.91166658" lon="9.08922348"><ele>1198.420654</ele><time>2008-06-01T07:10:59Z</time></trkpt>
<trkpt lat="45.91166424" lon="9.08929615"><ele>1198.901367</ele><time>2008-06-01T07:11:00Z</time></trkpt>
<trkpt lat="45.91161847" lon="9.08963118"><ele>1196.498291</ele><time>2008-06-01T07:11:06Z</time></trkpt>
<trkpt lat="45.91146039" lon="9.08985103"><ele>1194.575195</ele><time>2008-06-01T07:11:11Z</time></trkpt>
<trkpt lat="45.91121237" lon="9.09013728"><ele>1189.768799</ele><time>2008-06-01T07:11:17Z</time></trkpt>
<trkpt lat="45.91115956" lon="9.09017860"><ele>1189.768799</ele><time>2008-06-01T07:11:18Z</time></trkpt>
<trkpt lat="45.91111572" lon="9.09021506"><ele>1188.807617</ele><time>2008-06-01T07:11:19Z</time></trkpt>
<trkpt lat="45.91101883" lon="9.09030282"><ele>1185.923584</ele><time>2008-06-01T07:11:22Z</time></trkpt>
<trkpt lat="45.91093526" lon="9.09035395"><ele>1184.000977</ele><time>2008-06-01T07:11:25Z</time></trkpt>
<trkpt lat="45.91076578" lon="9.09044087"><ele>1181.117188</ele><time>2008-06-01T07:11:29Z</time></trkpt>
<trkpt lat="45.91069219" lon="9.09047096"><ele>1180.155762</ele><time>2008-06-01T07:11:31Z</time></trkpt>
<trkpt lat="45.91062052" lon="9.09049912"><ele>1178.713623</ele><time>2008-06-01T07:11:33Z</time></trkpt>
<trkpt lat="45.91033378" lon="9.09060616"><ele>1175.82959</ele><time>2008-06-01T07:11:41Z</time></trkpt>
<trkpt lat="45.91016790" lon="9.09076223"><ele>1172.465088</ele><time>2008-06-01T07:11:45Z</time></trkpt>
<trkpt lat="45.91005759" lon="9.09087572"><ele>1170.061768</ele><time>2008-06-01T07:11:48Z</time></trkpt>
<trkpt lat="45.90993698" lon="9.09099315"><ele>1167.177979</ele><time>2008-06-01T07:11:51Z</time></trkpt>
<trkpt lat="45.90983438" lon="9.09108980"><ele>1165.255371</ele><time>2008-06-01T07:11:54Z</time></trkpt>
<trkpt lat="45.90967789" lon="9.09132633"><ele>1162.371094</ele><time>2008-06-01T07:12:00Z</time></trkpt>
<trkpt lat="45.90959969" lon="9.09145810"><ele>1160.929199</ele><time>2008-06-01T07:12:03Z</time></trkpt>
<trkpt lat="45.90944353" lon="9.09174518"><ele>1156.122559</ele><time>2008-06-01T07:12:09Z</time></trkpt>
<trkpt lat="45.90931437" lon="9.09206193"><ele>1152.758057</ele><time>2008-06-01T07:12:15Z</time></trkpt>
<trkpt lat="45.90922628" lon="9.09224516"><ele>1149.393555</ele><time>2008-06-01T07:12:18Z</time></trkpt>
<trkpt lat="45.90906224" lon="9.09255646"><ele>1146.028809</ele><time>2008-06-01T07:12:23Z</time></trkpt>
<trkpt lat="45.90893970" lon="9.09281085"><ele>1142.183594</ele><time>2008-06-01T07:12:27Z</time></trkpt>
<trkpt lat="45.90886175" lon="9.09296810"><ele>1140.260986</ele><time>2008-06-01T07:12:30Z</time></trkpt>
<trkpt lat="45.90878983" lon="9.09319365"><ele>1136.89624</ele><time>2008-06-01T07:12:34Z</time></trkpt>
<trkpt lat="45.90869335" lon="9.09335040"><ele>1135.935059</ele><time>2008-06-01T07:12:37Z</time></trkpt>
<trkpt lat="45.90854726" lon="9.09342240"><ele>1134.493164</ele><time>2008-06-01T07:12:41Z</time></trkpt>
<trkpt lat="45.90842664" lon="9.09352323"><ele>1133.051025</ele><time>2008-06-01T07:12:45Z</time></trkpt>
<trkpt lat="45.90826797" lon="9.09369833"><ele>1131.128418</ele><time>2008-06-01T07:12:49Z</time></trkpt>
<trkpt lat="45.90819295" lon="9.09381517"><ele>1130.166992</ele><time>2008-06-01T07:12:51Z</time></trkpt>
<trkpt lat="45.90795784" lon="9.09409429"><ele>1130.166992</ele><time>2008-06-01T07:12:57Z</time></trkpt>
<trkpt lat="45.90767328" lon="9.09440903"><ele>1128.725098</ele><time>2008-06-01T07:13:04Z</time></trkpt>
<trkpt lat="45.90752928" lon="9.09451003"><ele>1127.763672</ele><time>2008-06-01T07:13:08Z</time></trkpt>
<trkpt lat="45.90736608" lon="9.09467616"><ele>1128.244385</ele><time>2008-06-01T07:13:19Z</time></trkpt>
<trkpt lat="45.90709040" lon="9.09487976"><ele>1125.360352</ele><time>2008-06-01T07:13:30Z</time></trkpt>
<trkpt lat="45.90694799" lon="9.09505670"><ele>1124.879883</ele><time>2008-06-01T07:13:36Z</time></trkpt>
<trkpt lat="45.90678848" lon="9.09554645"><ele>1123.918457</ele><time>2008-06-01T07:13:43Z</time></trkpt>
<trkpt lat="45.90665488" lon="9.09607460"><ele>1122.476563</ele><time>2008-06-01T07:13:51Z</time></trkpt>
<trkpt lat="45.90669058" lon="9.09646260"><ele>1123.918457</ele><time>2008-06-01T07:13:59Z</time></trkpt>
<trkpt lat="45.90671858" lon="9.09658397"><ele>1124.39917</ele><time>2008-06-01T07:14:02Z</time></trkpt>
<trkpt lat="45.90687188" lon="9.09714036"><ele>1126.321777</ele><time>2008-06-01T07:14:18Z</time></trkpt>
<trkpt lat="45.90691153" lon="9.09729903"><ele>1129.205566</ele><time>2008-06-01T07:14:25Z</time></trkpt>
<trkpt lat="45.90694212" lon="9.09747848"><ele>1130.166992</ele><time>2008-06-01T07:14:34Z</time></trkpt>
<trkpt lat="45.90701714" lon="9.09761838"><ele>1132.570557</ele><time>2008-06-01T07:14:47Z</time></trkpt>
<trkpt lat="45.90702779" lon="9.09763883"><ele>1133.051025</ele><time>2008-06-01T07:14:49Z</time></trkpt>
<trkpt lat="45.90704774" lon="9.09789079"><ele>1135.935059</ele><time>2008-06-01T07:15:06Z</time></trkpt>
<trkpt lat="45.90708738" lon="9.09803839"><ele>1139.299561</ele><time>2008-06-01T07:15:20Z</time></trkpt>
<trkpt lat="45.90707104" lon="9.09811215"><ele>1139.299561</ele><time>2008-06-01T07:15:24Z</time></trkpt>
<trkpt lat="45.90705545" lon="9.09821584"><ele>1140.741455</ele><time>2008-06-01T07:15:29Z</time></trkpt>
<trkpt lat="45.90694305" lon="9.09882998"><ele>1141.702881</ele><time>2008-06-01T07:15:48Z</time></trkpt>
<trkpt lat="45.90695897" lon="9.09922753"><ele>1144.58667</ele><time>2008-06-01T07:16:04Z</time></trkpt>
<trkpt lat="45.90687834" lon="9.09962400"><ele>1147.470703</ele><time>2008-06-01T07:16:20Z</time></trkpt>
<trkpt lat="45.90663903" lon="9.10039497"><ele>1148.432129</ele><time>2008-06-01T07:16:40Z</time></trkpt>
<trkpt lat="45.90644784" lon="9.10075489"><ele>1151.796875</ele><time>2008-06-01T07:16:53Z</time></trkpt>
<trkpt lat="45.90632136" lon="9.10100156"><ele>1155.161377</ele><time>2008-06-01T07:17:07Z</time></trkpt>
<trkpt lat="45.90627928" lon="9.10107264"><ele>1156.603271</ele><time>2008-06-01T07:17:12Z</time></trkpt>
<trkpt lat="45.90621768" lon="9.10118379"><ele>1156.603271</ele><time>2008-06-01T07:17:17Z</time></trkpt>
<trkpt lat="45.90579548" lon="9.10159090"><ele>1159.006592</ele><time>2008-06-01T07:17:37Z</time></trkpt>
<trkpt lat="45.90565148" lon="9.10176734"><ele>1161.890625</ele><time>2008-06-01T07:17:48Z</time></trkpt>
<trkpt lat="45.90553958" lon="9.10194344"><ele>1165.255371</ele><time>2008-06-01T07:18:01Z</time></trkpt>
<trkpt lat="45.90552927" lon="9.10196473"><ele>1165.255371</ele><time>2008-06-01T07:18:03Z</time></trkpt>
<trkpt lat="45.90551267" lon="9.10199239"><ele>1166.216553</ele><time>2008-06-01T07:18:06Z</time></trkpt>
<trkpt lat="45.90526239" lon="9.10226824"><ele>1169.100586</ele><time>2008-06-01T07:18:21Z</time></trkpt>
<trkpt lat="45.90518938" lon="9.10238659"><ele>1169.100586</ele><time>2008-06-01T07:18:26Z</time></trkpt>
<trkpt lat="45.90508813" lon="9.10264526"><ele>1171.503662</ele><time>2008-06-01T07:18:37Z</time></trkpt>
<trkpt lat="45.90502208" lon="9.10275456"><ele>1173.426514</ele><time>2008-06-01T07:18:43Z</time></trkpt>
<trkpt lat="45.90488437" lon="9.10292957"><ele>1175.348877</ele><time>2008-06-01T07:18:57Z</time></trkpt>
<trkpt lat="45.90465722" lon="9.10308120"><ele>1176.791016</ele><time>2008-06-01T07:19:11Z</time></trkpt>
<trkpt lat="45.90442806" lon="9.10322227"><ele>1178.713623</ele><time>2008-06-01T07:19:24Z</time></trkpt>
<trkpt lat="45.90424835" lon="9.10328119"><ele>1181.597656</ele><time>2008-06-01T07:19:36Z</time></trkpt>
<trkpt lat="45.90421876" lon="9.10327675"><ele>1183.039551</ele><time>2008-06-01T07:19:38Z</time></trkpt>
<trkpt lat="45.90407065" lon="9.10329787"><ele>1185.442871</ele><time>2008-06-01T07:19:50Z</time></trkpt>
<trkpt lat="45.90393377" lon="9.10329728"><ele>1186.404297</ele><time>2008-06-01T07:19:59Z</time></trkpt>
<trkpt lat="45.90384459" lon="9.10328697"><ele>1187.365479</ele><time>2008-06-01T07:20:05Z</time></trkpt>
<trkpt lat="45.90359456" lon="9.10326602"><ele>1190.72998</ele><time>2008-06-01T07:20:20Z</time></trkpt>
<trkpt lat="45.90338878" lon="9.10311498"><ele>1193.133301</ele><time>2008-06-01T07:20:33Z</time></trkpt>
<trkpt lat="45.90330413" lon="9.10291985"><ele>1194.094727</ele><time>2008-06-01T07:20:42Z</time></trkpt>
<trkpt lat="45.90318779" lon="9.10264920"><ele>1197.940186</ele><time>2008-06-01T07:20:56Z</time></trkpt>
<trkpt lat="45.90304563" lon="9.10236773"><ele>1200.343506</ele><time>2008-06-01T07:21:13Z</time></trkpt>
<trkpt lat="45.90300657" lon="9.10230839"><ele>1201.304688</ele><time>2008-06-01T07:21:17Z</time></trkpt>
<trkpt lat="45.90295888" lon="9.10225399"><ele>1202.265869</ele><time>2008-06-01T07:21:21Z</time></trkpt>
<trkpt lat="45.90275972" lon="9.10201619"><ele>1205.149902</ele><time>2008-06-01T07:21:38Z</time></trkpt>
<trkpt lat="45.90262184" lon="9.10200999"><ele>1205.630615</ele><time>2008-06-01T07:21:46Z</time></trkpt>
<trkpt lat="45.90254984" lon="9.10215165"><ele>1206.111084</ele><time>2008-06-01T07:21:53Z</time></trkpt>
<trkpt lat="45.90230442" lon="9.10249120"><ele>1206.591797</ele><time>2008-06-01T07:22:05Z</time></trkpt>
<trkpt lat="45.90201734" lon="9.10277593"><ele>1207.553223</ele><time>2008-06-01T07:22:16Z</time></trkpt>
<trkpt lat="45.90173176" lon="9.10307634"><ele>1209.47583</ele><time>2008-06-01T07:22:28Z</time></trkpt>
<trkpt lat="45.90147779" lon="9.10337867"><ele>1210.917725</ele><time>2008-06-01T07:22:40Z</time></trkpt>
<trkpt lat="45.90130915" lon="9.10376013"><ele>1211.87915</ele><time>2008-06-01T07:22:50Z</time></trkpt>
<trkpt lat="45.90108770" lon="9.10417059"><ele>1214.282471</ele><time>2008-06-01T07:23:01Z</time></trkpt>
<trkpt lat="45.90086667" lon="9.10446337"><ele>1216.685791</ele><time>2008-06-01T07:23:13Z</time></trkpt>
<trkpt lat="45.90066902" lon="9.10457779"><ele>1219.089111</ele><time>2008-06-01T07:23:26Z</time></trkpt>
<trkpt lat="45.90063483" lon="9.10458952"><ele>1219.569824</ele><time>2008-06-01T07:23:29Z</time></trkpt>
<trkpt lat="45.90053039" lon="9.10463437"><ele>1223.415039</ele><time>2008-06-01T07:23:40Z</time></trkpt>
<trkpt lat="45.90044087" lon="9.10466496"><ele>1225.818115</ele><time>2008-06-01T07:23:48Z</time></trkpt>
<trkpt lat="45.90032830" lon="9.10468776"><ele>1228.22168</ele><time>2008-06-01T07:23:57Z</time></trkpt>
<trkpt lat="45.90030139" lon="9.10468474"><ele>1228.22168</ele><time>2008-06-01T07:23:59Z</time></trkpt>
<trkpt lat="45.90026359" lon="9.10469689"><ele>1228.702393</ele><time>2008-06-01T07:24:03Z</time></trkpt>
<trkpt lat="45.90016603" lon="9.10470494"><ele>1230.625</ele><time>2008-06-01T07:24:14Z</time></trkpt>
<trkpt lat="45.90014557" lon="9.10472087"><ele>1231.586182</ele><time>2008-06-01T07:24:16Z</time></trkpt>
<trkpt lat="45.90012512" lon="9.10473034"><ele>1232.066895</ele><time>2008-06-01T07:24:18Z</time></trkpt>
<trkpt lat="45.90001339" lon="9.10480678"><ele>1234.950928</ele><time>2008-06-01T07:24:31Z</time></trkpt>
<trkpt lat="45.89993544" lon="9.10484157"><ele>1236.392822</ele><time>2008-06-01T07:24:38Z</time></trkpt>
<trkpt lat="45.89990837" lon="9.10486822"><ele>1237.354004</ele><time>2008-06-01T07:24:41Z</time></trkpt>
<trkpt lat="45.89989655" lon="9.10490368"><ele>1237.834717</ele><time>2008-06-01T07:24:43Z</time></trkpt>
<trkpt lat="45.89987073" lon="9.10493469"><ele>1237.834717</ele><time>2008-06-01T07:24:46Z</time></trkpt>
<trkpt lat="45.89967862" lon="9.10515362"><ele>1240.718506</ele><time>2008-06-01T07:25:04Z</time></trkpt>
<trkpt lat="45.89950159" lon="9.10532663"><ele>1242.641357</ele><time>2008-06-01T07:25:19Z</time></trkpt>
<trkpt lat="45.89933739" lon="9.10549887"><ele>1245.525391</ele><time>2008-06-01T07:25:31Z</time></trkpt>
<trkpt lat="45.89928375" lon="9.10555537"><ele>1246.006104</ele><time>2008-06-01T07:25:35Z</time></trkpt>
<trkpt lat="45.89904075" lon="9.10567816"><ele>1248.889893</ele><time>2008-06-01T07:25:51Z</time></trkpt>
<trkpt lat="45.89881972" lon="9.10574589"><ele>1250.332031</ele><time>2008-06-01T07:26:00Z</time></trkpt>
<trkpt lat="45.89859819" lon="9.10578872"><ele>1252.735107</ele><time>2008-06-01T07:26:11Z</time></trkpt>
<trkpt lat="45.89856307" lon="9.10579442"><ele>1253.21582</ele><time>2008-06-01T07:26:13Z</time></trkpt>
<trkpt lat="45.89832754" lon="9.10579610"><ele>1255.619141</ele><time>2008-06-01T07:26:28Z</time></trkpt>
<trkpt lat="45.89816174" lon="9.10577917"><ele>1258.50293</ele><time>2008-06-01T07:26:41Z</time></trkpt>
<trkpt lat="45.89802864" lon="9.10575075"><ele>1261.86792</ele><time>2008-06-01T07:26:55Z</time></trkpt>
<trkpt lat="45.89790962" lon="9.10573759"><ele>1263.790283</ele><time>2008-06-01T07:27:04Z</time></trkpt>
<trkpt lat="45.89783795" lon="9.10572468"><ele>1266.193604</ele><time>2008-06-01T07:27:10Z</time></trkpt>
<trkpt lat="45.89775438" lon="9.10570373"><ele>1266.674316</ele><time>2008-06-01T07:27:15Z</time></trkpt>
<trkpt lat="45.89750226" lon="9.10562024"><ele>1268.116211</ele><time>2008-06-01T07:27:29Z</time></trkpt>
<trkpt lat="45.89725767" lon="9.10544892"><ele>1269.077637</ele><time>2008-06-01T07:27:41Z</time></trkpt>
<trkpt lat="45.89707444" lon="9.10518816"><ele>1271.480713</ele><time>2008-06-01T07:27:53Z</time></trkpt>
<trkpt lat="45.89706288" lon="9.10517106"><ele>1271.961426</ele><time>2008-06-01T07:27:54Z</time></trkpt>
<trkpt lat="45.89697839" lon="9.10508749"><ele>1272.442139</ele><time>2008-06-01T07:28:00Z</time></trkpt>
<trkpt lat="45.89682894" lon="9.10477384"><ele>1275.325928</ele><time>2008-06-01T07:28:14Z</time></trkpt>
<trkpt lat="45.89681519" lon="9.10473210"><ele>1275.325928</ele><time>2008-06-01T07:28:16Z</time></trkpt>
<trkpt lat="45.89672735" lon="9.10427093"><ele>1277.729492</ele><time>2008-06-01T07:28:32Z</time></trkpt>
<trkpt lat="45.89662978" lon="9.10390732"><ele>1280.132813</ele><time>2008-06-01T07:28:46Z</time></trkpt>
<trkpt lat="45.89659969" lon="9.10385904"><ele>1280.613525</ele><time>2008-06-01T07:28:49Z</time></trkpt>
<trkpt lat="45.89657295" lon="9.10377908"><ele>1281.574707</ele><time>2008-06-01T07:28:53Z</time></trkpt>
<trkpt lat="45.89652585" lon="9.10355746"><ele>1283.978027</ele><time>2008-06-01T07:29:03Z</time></trkpt>
<trkpt lat="45.89639350" lon="9.10340508"><ele>1286.861816</ele><time>2008-06-01T07:29:17Z</time></trkpt>
<trkpt lat="45.89619200" lon="9.10365125"><ele>1283.497314</ele><time>2008-06-01T07:29:23Z</time></trkpt>
<trkpt lat="45.89607725" lon="9.10378888"><ele>1279.6521</ele><time>2008-06-01T07:29:25Z</time></trkpt>
<trkpt lat="45.89593870" lon="9.10395250"><ele>1275.325928</ele><time>2008-06-01T07:29:27Z</time></trkpt>
<trkpt lat="45.89578288" lon="9.10415593"><ele>1271.961426</ele><time>2008-06-01T07:29:29Z</time></trkpt>
<trkpt lat="45.89562052" lon="9.10436832"><ele>1267.635498</ele><time>2008-06-01T07:29:31Z</time></trkpt>
<trkpt lat="45.89544215" lon="9.10457527"><ele>1263.790283</ele><time>2008-06-01T07:29:33Z</time></trkpt>
<trkpt lat="45.89534568" lon="9.10468063"><ele>1258.983643</ele><time>2008-06-01T07:29:34Z</time></trkpt>
<trkpt lat="45.89514392" lon="9.10490334"><ele>1254.657715</ele><time>2008-06-01T07:29:36Z</time></trkpt>
<trkpt lat="45.89495374" lon="9.10512177"><ele>1251.293213</ele><time>2008-06-01T07:29:38Z</time></trkpt>
<trkpt lat="45.89478962" lon="9.10531699"><ele>1247.928711</ele><time>2008-06-01T07:29:40Z</time></trkpt>
<trkpt lat="45.89466942" lon="9.10548303"><ele>1243.602539</ele><time>2008-06-01T07:29:42Z</time></trkpt>
<trkpt lat="45.89454378" lon="9.10572904"><ele>1240.238037</ele><time>2008-06-01T07:29:45Z</time></trkpt>
<trkpt lat="45.89449734" lon="9.10633053"><ele>1236.873291</ele><time>2008-06-01T07:29:51Z</time></trkpt>
<trkpt lat="45.89450254" lon="9.10643882"><ele>1235.431396</ele><time>2008-06-01T07:29:52Z</time></trkpt>
<trkpt lat="45.89435125" lon="9.10680679"><ele>1233.028076</ele><time>2008-06-01T07:29:57Z</time></trkpt>
<trkpt lat="45.89412292" lon="9.10703134"><ele>1233.028076</ele><time>2008-06-01T07:30:01Z</time></trkpt>
<trkpt lat="45.89386753" lon="9.10733669"><ele>1231.586182</ele><time>2008-06-01T07:30:06Z</time></trkpt>
<trkpt lat="45.89343175" lon="9.10777305"><ele>1229.663574</ele><time>2008-06-01T07:30:13Z</time></trkpt>
<trkpt lat="45.89314459" lon="9.10790993"><ele>1229.182861</ele><time>2008-06-01T07:30:17Z</time></trkpt>
<trkpt lat="45.89280915" lon="9.10785536"><ele>1229.182861</ele><time>2008-06-01T07:30:22Z</time></trkpt>
<trkpt lat="45.89249876" lon="9.10778060"><ele>1230.144287</ele><time>2008-06-01T07:30:27Z</time></trkpt>
<trkpt lat="45.89206332" lon="9.10765328"><ele>1226.298828</ele><time>2008-06-01T07:30:35Z</time></trkpt>
<trkpt lat="45.89181807" lon="9.10769812"><ele>1221.492188</ele><time>2008-06-01T07:30:39Z</time></trkpt>
<trkpt lat="45.89174657" lon="9.10773567"><ele>1220.531006</ele><time>2008-06-01T07:30:40Z</time></trkpt>
<trkpt lat="45.89148162" lon="9.10789652"><ele>1215.243896</ele><time>2008-06-01T07:30:44Z</time></trkpt>
<trkpt lat="45.89123578" lon="9.10804697"><ele>1211.398438</ele><time>2008-06-01T07:30:48Z</time></trkpt>
<trkpt lat="45.89116587" lon="9.10807740"><ele>1211.398438</ele><time>2008-06-01T07:30:49Z</time></trkpt>
<trkpt lat="45.89080486" lon="9.10806793"><ele>1207.553223</ele><time>2008-06-01T07:30:54Z</time></trkpt>
<trkpt lat="45.89067905" lon="9.10792485"><ele>1206.111084</ele><time>2008-06-01T07:30:56Z</time></trkpt>
<trkpt lat="45.89034839" lon="9.10753040"><ele>1201.304688</ele><time>2008-06-01T07:31:01Z</time></trkpt>
<trkpt lat="45.89014512" lon="9.10740207"><ele>1197.940186</ele><time>2008-06-01T07:31:04Z</time></trkpt>
<trkpt lat="45.89003893" lon="9.10735706"><ele>1198.901367</ele><time>2008-06-01T07:31:06Z</time></trkpt>
<trkpt lat="45.88959469" lon="9.10689983"><ele>1200.343506</ele><time>2008-06-01T07:31:20Z</time></trkpt>
<trkpt lat="45.88920618" lon="9.10662155"><ele>1203.227295</ele><time>2008-06-01T07:31:36Z</time></trkpt>
<trkpt lat="45.88888658" lon="9.10620740"><ele>1205.149902</ele><time>2008-06-01T07:31:53Z</time></trkpt>
<trkpt lat="45.88863404" lon="9.10588126"><ele>1208.033936</ele><time>2008-06-01T07:32:08Z</time></trkpt>
<trkpt lat="45.88842600" lon="9.10546619"><ele>1209.47583</ele><time>2008-06-01T07:32:22Z</time></trkpt>
<trkpt lat="45.88825383" lon="9.10497626"><ele>1208.514404</ele><time>2008-06-01T07:32:34Z</time></trkpt>
<trkpt lat="45.88819508" lon="9.10475833"><ele>1207.07251</ele><time>2008-06-01T07:32:38Z</time></trkpt>
<trkpt lat="45.88810346" lon="9.10453496"><ele>1205.630615</ele><time>2008-06-01T07:32:41Z</time></trkpt>
<trkpt lat="45.88806918" lon="9.10446069"><ele>1205.149902</ele><time>2008-06-01T07:32:42Z</time></trkpt>
<trkpt lat="45.88796876" lon="9.10423958"><ele>1203.708008</ele><time>2008-06-01T07:32:45Z</time></trkpt>
<trkpt lat="45.88787916" lon="9.10409155"><ele>1202.746582</ele><time>2008-06-01T07:32:47Z</time></trkpt>
<trkpt lat="45.88783097" lon="9.10401603"><ele>1202.265869</ele><time>2008-06-01T07:32:48Z</time></trkpt>
<trkpt lat="45.88770482" lon="9.10378142"><ele>1202.265869</ele><time>2008-06-01T07:32:51Z</time></trkpt>
<trkpt lat="45.88757297" lon="9.10354556"><ele>1201.7854</ele><time>2008-06-01T07:32:55Z</time></trkpt>
<trkpt lat="45.88752536" lon="9.10336132"><ele>1200.823975</ele><time>2008-06-01T07:32:58Z</time></trkpt>
<trkpt lat="45.88745562" lon="9.10314532"><ele>1199.38208</ele><time>2008-06-01T07:33:01Z</time></trkpt>
<trkpt lat="45.88742964" lon="9.10299947"><ele>1197.459473</ele><time>2008-06-01T07:33:03Z</time></trkpt>
<trkpt lat="45.88740785" lon="9.10285472"><ele>1196.017578</ele><time>2008-06-01T07:33:05Z</time></trkpt>
<trkpt lat="45.88740257" lon="9.10242557"><ele>1192.652832</ele><time>2008-06-01T07:33:11Z</time></trkpt>
<trkpt lat="45.88732512" lon="9.10208275"><ele>1189.768799</ele><time>2008-06-01T07:33:16Z</time></trkpt>
<trkpt lat="45.88730316" lon="9.10202508"><ele>1189.288086</ele><time>2008-06-01T07:33:17Z</time></trkpt>
<trkpt lat="45.88702203" lon="9.10154278"><ele>1186.404297</ele><time>2008-06-01T07:33:28Z</time></trkpt>
<trkpt lat="45.88687233" lon="9.10155787"><ele>1184.000977</ele><time>2008-06-01T07:33:32Z</time></trkpt>
<trkpt lat="45.88652465" lon="9.10167907"><ele>1180.636475</ele><time>2008-06-01T07:33:41Z</time></trkpt>
<trkpt lat="45.88649950" lon="9.10168083"><ele>1180.636475</ele><time>2008-06-01T07:33:42Z</time></trkpt>
<trkpt lat="45.88629104" lon="9.10180564"><ele>1180.155762</ele><time>2008-06-01T07:33:48Z</time></trkpt>
<trkpt lat="45.88610496" lon="9.10182123"><ele>1179.194092</ele><time>2008-06-01T07:33:52Z</time></trkpt>
<trkpt lat="45.88599826" lon="9.10176407"><ele>1177.752197</ele><time>2008-06-01T07:33:54Z</time></trkpt>
<trkpt lat="45.88567975" lon="9.10166474"><ele>1177.752197</ele><time>2008-06-01T07:33:59Z</time></trkpt>
<trkpt lat="45.88534699" lon="9.10160355"><ele>1174.387695</ele><time>2008-06-01T07:34:04Z</time></trkpt>
<trkpt lat="45.88511540" lon="9.10142468"><ele>1172.465088</ele><time>2008-06-01T07:34:09Z</time></trkpt>
<trkpt lat="45.88508639" lon="9.10139367"><ele>1171.984375</ele><time>2008-06-01T07:34:10Z</time></trkpt>
<trkpt lat="45.88494248" lon="9.10127448"><ele>1170.54248</ele><time>2008-06-01T07:34:14Z</time></trkpt>
<trkpt lat="45.88458097" lon="9.10096929"><ele>1171.503662</ele><time>2008-06-01T07:34:26Z</time></trkpt>
<trkpt lat="45.88439363" lon="9.10082663"><ele>1173.906982</ele><time>2008-06-01T07:34:35Z</time></trkpt>
<trkpt lat="45.88431015" lon="9.10074198"><ele>1174.868408</ele><time>2008-06-01T07:34:39Z</time></trkpt>
<trkpt lat="45.88396959" lon="9.10034015"><ele>1173.906982</ele><time>2008-06-01T07:34:52Z</time></trkpt>
<trkpt lat="45.88390656" lon="9.10026865"><ele>1172.945801</ele><time>2008-06-01T07:34:54Z</time></trkpt>
<trkpt lat="45.88365946" lon="9.10002566"><ele>1171.503662</ele><time>2008-06-01T07:35:00Z</time></trkpt>
<trkpt lat="45.88356944" lon="9.09995986"><ele>1171.023193</ele><time>2008-06-01T07:35:02Z</time></trkpt>
<trkpt lat="45.88338730" lon="9.09973104"><ele>1169.581299</ele><time>2008-06-01T07:35:07Z</time></trkpt>
<trkpt lat="45.88328605" lon="9.09964328"><ele>1169.581299</ele><time>2008-06-01T07:35:09Z</time></trkpt>
<trkpt lat="45.88304255" lon="9.09930247"><ele>1170.061768</ele><time>2008-06-01T07:35:16Z</time></trkpt>
<trkpt lat="45.88260778" lon="9.09878187"><ele>1171.503662</ele><time>2008-06-01T07:35:29Z</time></trkpt>
<trkpt lat="45.88257367" lon="9.09876393"><ele>1171.023193</ele><time>2008-06-01T07:35:30Z</time></trkpt>
<trkpt lat="45.88237887" lon="9.09861985"><ele>1171.503662</ele><time>2008-06-01T07:35:36Z</time></trkpt>
<trkpt lat="45.88229002" lon="9.09855966"><ele>1171.023193</ele><time>2008-06-01T07:35:38Z</time></trkpt>
<trkpt lat="45.88217963" lon="9.09850728"><ele>1171.023193</ele><time>2008-06-01T07:35:40Z</time></trkpt>
<trkpt lat="45.88197822" lon="9.09836386"><ele>1166.697266</ele><time>2008-06-01T07:35:44Z</time></trkpt>
<trkpt lat="45.88192457" lon="9.09832237"><ele>1166.697266</ele><time>2008-06-01T07:35:45Z</time></trkpt>
<trkpt lat="45.88152652" lon="9.09810754"><ele>1166.697266</ele><time>2008-06-01T07:35:52Z</time></trkpt>
<trkpt lat="45.88120826" lon="9.09790026"><ele>1171.023193</ele><time>2008-06-01T07:36:03Z</time></trkpt>
<trkpt lat="45.88112310" lon="9.09786908"><ele>1171.503662</ele><time>2008-06-01T07:36:08Z</time></trkpt>
<trkpt lat="45.88106208" lon="9.09781309"><ele>1172.945801</ele><time>2008-06-01T07:36:12Z</time></trkpt>
<trkpt lat="45.88083744" lon="9.09759675"><ele>1175.348877</ele><time>2008-06-01T07:36:26Z</time></trkpt>
<trkpt lat="45.88057282" lon="9.09724454"><ele>1175.348877</ele><time>2008-06-01T07:36:37Z</time></trkpt>
<trkpt lat="45.88026336" lon="9.09682176"><ele>1175.82959</ele><time>2008-06-01T07:36:48Z</time></trkpt>
<trkpt lat="45.88008558" lon="9.09655647"><ele>1176.791016</ele><time>2008-06-01T07:36:56Z</time></trkpt>
<trkpt lat="45.87987939" lon="9.09612824"><ele>1177.752197</ele><time>2008-06-01T07:37:08Z</time></trkpt>
<trkpt lat="45.87975416" lon="9.09567805"><ele>1178.23291</ele><time>2008-06-01T07:37:18Z</time></trkpt>
<trkpt lat="45.87969884" lon="9.09530564"><ele>1181.597656</ele><time>2008-06-01T07:37:27Z</time></trkpt>
<trkpt lat="45.87972893" lon="9.09509744"><ele>1179.674805</ele><time>2008-06-01T07:37:31Z</time></trkpt>
<trkpt lat="45.87986774" lon="9.09469527"><ele>1177.271729</ele><time>2008-06-01T07:37:36Z</time></trkpt>
<trkpt lat="45.88016463" lon="9.09427064"><ele>1172.465088</ele><time>2008-06-01T07:37:41Z</time></trkpt>
<trkpt lat="45.88051516" lon="9.09380469"><ele>1169.581299</ele><time>2008-06-01T07:37:46Z</time></trkpt>
<trkpt lat="45.88071825" lon="9.09356782"><ele>1166.216553</ele><time>2008-06-01T07:37:49Z</time></trkpt>
<trkpt lat="45.88078296" lon="9.09348736"><ele>1165.736084</ele><time>2008-06-01T07:37:50Z</time></trkpt>
<trkpt lat="45.88090483" lon="9.09332835"><ele>1165.255371</ele><time>2008-06-01T07:37:52Z</time></trkpt>
<trkpt lat="45.88101145" lon="9.09317672"><ele>1164.774658</ele><time>2008-06-01T07:37:54Z</time></trkpt>
<trkpt lat="45.88103886" lon="9.09239762"><ele>1161.890625</ele><time>2008-06-01T07:38:02Z</time></trkpt>
<trkpt lat="45.88098102" lon="9.09219596"><ele>1160.929199</ele><time>2008-06-01T07:38:04Z</time></trkpt>
<trkpt lat="45.88078036" lon="9.09150763"><ele>1160.448486</ele><time>2008-06-01T07:38:11Z</time></trkpt>
<trkpt lat="45.88064860" lon="9.09119323"><ele>1160.929199</ele><time>2008-06-01T07:38:15Z</time></trkpt>
<trkpt lat="45.88052203" lon="9.09100137"><ele>1159.006592</ele><time>2008-06-01T07:38:18Z</time></trkpt>
<trkpt lat="45.88025532" lon="9.09091218"><ele>1155.64209</ele><time>2008-06-01T07:38:22Z</time></trkpt>
<trkpt lat="45.87995566" lon="9.09080003"><ele>1151.796875</ele><time>2008-06-01T07:38:25Z</time></trkpt>
<trkpt lat="45.87966766" lon="9.09070113"><ele>1146.509521</ele><time>2008-06-01T07:38:28Z</time></trkpt>
<trkpt lat="45.87958016" lon="9.09064949"><ele>1146.028809</ele><time>2008-06-01T07:38:29Z</time></trkpt>
<trkpt lat="45.87920180" lon="9.09015329"><ele>1140.741455</ele><time>2008-06-01T07:38:34Z</time></trkpt>
<trkpt lat="45.87913466" lon="9.09002638"><ele>1140.741455</ele><time>2008-06-01T07:38:35Z</time></trkpt>
<trkpt lat="45.87902796" lon="9.08974718"><ele>1139.299561</ele><time>2008-06-01T07:38:37Z</time></trkpt>
<trkpt lat="45.87888655" lon="9.08934753"><ele>1137.857666</ele><time>2008-06-01T07:38:40Z</time></trkpt>
<trkpt lat="45.87846939" lon="9.08807709"><ele>1135.935059</ele><time>2008-06-01T07:38:51Z</time></trkpt>
<trkpt lat="45.87838557" lon="9.08739086"><ele>1135.935059</ele><time>2008-06-01T07:38:58Z</time></trkpt>
<trkpt lat="45.87840568" lon="9.08716606"><ele>1136.415771</ele><time>2008-06-01T07:39:01Z</time></trkpt>
<trkpt lat="45.87833804" lon="9.08692986"><ele>1134.973877</ele><time>2008-06-01T07:39:05Z</time></trkpt>
<trkpt lat="45.87798500" lon="9.08682785"><ele>1131.608887</ele><time>2008-06-01T07:39:09Z</time></trkpt>
<trkpt lat="45.87788592" lon="9.08682483"><ele>1131.128418</ele><time>2008-06-01T07:39:10Z</time></trkpt>
<trkpt lat="45.87736105" lon="9.08678653"><ele>1128.725098</ele><time>2008-06-01T07:39:16Z</time></trkpt>
<trkpt lat="45.87701345" lon="9.08691796"><ele>1128.244385</ele><time>2008-06-01T07:39:21Z</time></trkpt>
<trkpt lat="45.87674632" lon="9.08709892"><ele>1127.283203</ele><time>2008-06-01T07:39:25Z</time></trkpt>
<trkpt lat="45.87638196" lon="9.08721099"><ele>1127.283203</ele><time>2008-06-01T07:39:30Z</time></trkpt>
<trkpt lat="45.87610133" lon="9.08712960"><ele>1123.918457</ele><time>2008-06-01T07:39:34Z</time></trkpt>
<trkpt lat="45.87593336" lon="9.08708635"><ele>1122.957275</ele><time>2008-06-01T07:39:36Z</time></trkpt>
<trkpt lat="45.87553949" lon="9.08702164"><ele>1121.515137</ele><time>2008-06-01T07:39:41Z</time></trkpt>
<trkpt lat="45.87521218" lon="9.08698954"><ele>1119.112061</ele><time>2008-06-01T07:39:46Z</time></trkpt>
<trkpt lat="45.87515912" lon="9.08698208"><ele>1119.112061</ele><time>2008-06-01T07:39:47Z</time></trkpt>
<trkpt lat="45.87473793" lon="9.08665879"><ele>1119.592773</ele><time>2008-06-01T07:39:55Z</time></trkpt>
<trkpt lat="45.87461866" lon="9.08631127"><ele>1119.592773</ele><time>2008-06-01T07:40:00Z</time></trkpt>
<trkpt lat="45.87456132" lon="9.08616618"><ele>1119.112061</ele><time>2008-06-01T07:40:02Z</time></trkpt>
<trkpt lat="45.87436058" lon="9.08548012"><ele>1117.189453</ele><time>2008-06-01T07:40:10Z</time></trkpt>
<trkpt lat="45.87424985" lon="9.08510872"><ele>1116.70874</ele><time>2008-06-01T07:40:14Z</time></trkpt>
<trkpt lat="45.87401566" lon="9.08456767"><ele>1116.228027</ele><time>2008-06-01T07:40:21Z</time></trkpt>
<trkpt lat="45.87392086" lon="9.08435100"><ele>1116.70874</ele><time>2008-06-01T07:40:25Z</time></trkpt>
<trkpt lat="45.87385934" lon="9.08369964"><ele>1119.592773</ele><time>2008-06-01T07:40:39Z</time></trkpt>
<trkpt lat="45.87399580" lon="9.08311517"><ele>1120.553955</ele><time>2008-06-01T07:40:53Z</time></trkpt>
<trkpt lat="45.87417299" lon="9.08249533"><ele>1122.476563</ele><time>2008-06-01T07:41:06Z</time></trkpt>
<trkpt lat="45.87432403" lon="9.08188303"><ele>1124.39917</ele><time>2008-06-01T07:41:20Z</time></trkpt>
<trkpt lat="45.87448463" lon="9.08157550"><ele>1124.879883</ele><time>2008-06-01T07:41:31Z</time></trkpt>
<trkpt lat="45.87451640" lon="9.08155245"><ele>1124.39917</ele><time>2008-06-01T07:41:32Z</time></trkpt>
<trkpt lat="45.87464615" lon="9.08140484"><ele>1123.918457</ele><time>2008-06-01T07:41:35Z</time></trkpt>
<trkpt lat="45.87490800" lon="9.08114743"><ele>1122.476563</ele><time>2008-06-01T07:41:40Z</time></trkpt>
<trkpt lat="45.87506675" lon="9.08066707"><ele>1124.39917</ele><time>2008-06-01T07:41:50Z</time></trkpt>
<trkpt lat="45.87503314" lon="9.08048258"><ele>1126.321777</ele><time>2008-06-01T07:42:00Z</time></trkpt>
<trkpt lat="45.87491630" lon="9.08030463"><ele>1129.686279</ele><time>2008-06-01T07:42:12Z</time></trkpt>
<trkpt lat="45.87486274" lon="9.08024563"><ele>1131.128418</ele><time>2008-06-01T07:42:17Z</time></trkpt>
<trkpt lat="45.87472913" lon="9.08004572"><ele>1134.493164</ele><time>2008-06-01T07:42:31Z</time></trkpt>
<trkpt lat="45.87467716" lon="9.07998688"><ele>1135.935059</ele><time>2008-06-01T07:42:36Z</time></trkpt>
<trkpt lat="45.87466945" lon="9.07997573"><ele>1135.454346</ele><time>2008-06-01T07:42:37Z</time></trkpt>
<trkpt lat="45.87465428" lon="9.07994673"><ele>1135.935059</ele><time>2008-06-01T07:42:39Z</time></trkpt>
<trkpt lat="45.87457105" lon="9.07981605"><ele>1138.338379</ele><time>2008-06-01T07:42:49Z</time></trkpt>
<trkpt lat="45.87454389" lon="9.07975822"><ele>1138.819092</ele><time>2008-06-01T07:42:53Z</time></trkpt>
<trkpt lat="45.87444347" lon="9.07964909"><ele>1140.741455</ele><time>2008-06-01T07:43:02Z</time></trkpt>
<trkpt lat="45.87431389" lon="9.07943769"><ele>1143.144775</ele><time>2008-06-01T07:43:17Z</time></trkpt>
<trkpt lat="45.87420928" lon="9.07925757"><ele>1145.548096</ele><time>2008-06-01T07:43:30Z</time></trkpt>
<trkpt lat="45.87413586" lon="9.07917366"><ele>1146.98999</ele><time>2008-06-01T07:43:37Z</time></trkpt>
<trkpt lat="45.87406134" lon="9.07903218"><ele>1150.35498</ele><time>2008-06-01T07:43:48Z</time></trkpt>
<trkpt lat="45.87396956" lon="9.07873982"><ele>1152.758057</ele><time>2008-06-01T07:44:05Z</time></trkpt>
<trkpt lat="45.87387904" lon="9.07854804"><ele>1156.122559</ele><time>2008-06-01T07:44:18Z</time></trkpt>
<trkpt lat="45.87379153" lon="9.07828602"><ele>1159.487305</ele><time>2008-06-01T07:44:35Z</time></trkpt>
<trkpt lat="45.87376529" lon="9.07821955"><ele>1160.929199</ele><time>2008-06-01T07:44:40Z</time></trkpt>
<trkpt lat="45.87369095" lon="9.07799735"><ele>1163.812988</ele><time>2008-06-01T07:44:56Z</time></trkpt>
<trkpt lat="45.87362825" lon="9.07781479"><ele>1167.177979</ele><time>2008-06-01T07:45:09Z</time></trkpt>
<trkpt lat="45.87356145" lon="9.07753165"><ele>1170.54248</ele><time>2008-06-01T07:45:27Z</time></trkpt>
<trkpt lat="45.87352096" lon="9.07728204"><ele>1173.426514</ele><time>2008-06-01T07:45:41Z</time></trkpt>
<trkpt lat="45.87349649" lon="9.07698129"><ele>1175.348877</ele><time>2008-06-01T07:45:58Z</time></trkpt>
<trkpt lat="45.87348618" lon="9.07683210"><ele>1178.23291</ele><time>2008-06-01T07:46:07Z</time></trkpt>
<trkpt lat="45.87348886" lon="9.07664342"><ele>1181.597656</ele><time>2008-06-01T07:46:18Z</time></trkpt>
<trkpt lat="45.87351694" lon="9.07635734"><ele>1184.481689</ele><time>2008-06-01T07:46:34Z</time></trkpt>
<trkpt lat="45.87353169" lon="9.07617764"><ele>1187.365479</ele><time>2008-06-01T07:46:45Z</time></trkpt>
<trkpt lat="45.87353119" lon="9.07616246"><ele>1187.365479</ele><time>2008-06-01T07:46:46Z</time></trkpt>
<trkpt lat="45.87355365" lon="9.07597664"><ele>1190.72998</ele><time>2008-06-01T07:46:58Z</time></trkpt>
<trkpt lat="45.87355524" lon="9.07590472"><ele>1192.172119</ele><time>2008-06-01T07:47:03Z</time></trkpt>
<trkpt lat="45.87354502" lon="9.07587882"><ele>1191.691406</ele><time>2008-06-01T07:47:05Z</time></trkpt>
<trkpt lat="45.87350713" lon="9.07590355"><ele>1192.172119</ele><time>2008-06-01T07:47:09Z</time></trkpt>
<trkpt lat="45.87342457" lon="9.07603464"><ele>1192.652832</ele><time>2008-06-01T07:47:23Z</time></trkpt>
<trkpt lat="45.87341250" lon="9.07604503"><ele>1192.172119</ele><time>2008-06-01T07:47:41Z</time></trkpt>
<trkpt lat="45.87338476" lon="9.07611167"><ele>1192.652832</ele><time>2008-06-01T07:47:57Z</time></trkpt>
<trkpt lat="45.87339565" lon="9.07614654"><ele>1192.652832</ele><time>2008-06-01T07:48:56Z</time></trkpt>
<trkpt lat="45.87336229" lon="9.07614838"><ele>1192.652832</ele><time>2008-06-01T07:49:05Z</time></trkpt>
<trkpt lat="45.87327143" lon="9.07595267"><ele>1193.133301</ele><time>2008-06-01T07:49:16Z</time></trkpt>
<trkpt lat="45.87335869" lon="9.07572946"><ele>1193.133301</ele><time>2008-06-01T07:49:21Z</time></trkpt>
<trkpt lat="45.87345365" lon="9.07549946"><ele>1192.652832</ele><time>2008-06-01T07:49:25Z</time></trkpt>
<trkpt lat="45.87364200" lon="9.07496176"><ele>1192.652832</ele><time>2008-06-01T07:49:33Z</time></trkpt>
<trkpt lat="45.87370008" lon="9.07451835"><ele>1196.017578</ele><time>2008-06-01T07:49:43Z</time></trkpt>
<trkpt lat="45.87371215" lon="9.07443839"><ele>1197.459473</ele><time>2008-06-01T07:49:46Z</time></trkpt>
<trkpt lat="45.87372188" lon="9.07436086"><ele>1198.901367</ele><time>2008-06-01T07:49:49Z</time></trkpt>
<trkpt lat="45.87374895" lon="9.07412038"><ele>1201.304688</ele><time>2008-06-01T07:49:58Z</time></trkpt>
<trkpt lat="45.87379606" lon="9.07379969"><ele>1203.708008</ele><time>2008-06-01T07:50:13Z</time></trkpt>
<trkpt lat="45.87383872" lon="9.07359727"><ele>1205.630615</ele><time>2008-06-01T07:50:24Z</time></trkpt>
<trkpt lat="45.87387702" lon="9.07350599"><ele>1207.07251</ele><time>2008-06-01T07:50:30Z</time></trkpt>
<trkpt lat="45.87395665" lon="9.07309989"><ele>1208.995117</ele><time>2008-06-01T07:50:47Z</time></trkpt>
<trkpt lat="45.87398674" lon="9.07285396"><ele>1211.87915</ele><time>2008-06-01T07:50:58Z</time></trkpt>
<trkpt lat="45.87401809" lon="9.07294004"><ele>1212.840576</ele><time>2008-06-01T07:51:06Z</time></trkpt>
<trkpt lat="45.87405958" lon="9.07331706"><ele>1214.763184</ele><time>2008-06-01T07:51:19Z</time></trkpt>
<trkpt lat="45.87408406" lon="9.07385719"><ele>1217.646973</ele><time>2008-06-01T07:51:36Z</time></trkpt>
<trkpt lat="45.87408909" lon="9.07398895"><ele>1218.608398</ele><time>2008-06-01T07:51:40Z</time></trkpt>
<trkpt lat="45.87416628" lon="9.07395886"><ele>1219.089111</ele><time>2008-06-01T07:51:46Z</time></trkpt>
<trkpt lat="45.87417467" lon="9.07343835"><ele>1221.9729</ele><time>2008-06-01T07:52:00Z</time></trkpt>
<trkpt lat="45.87419956" lon="9.07293082"><ele>1223.895508</ele><time>2008-06-01T07:52:14Z</time></trkpt>
<trkpt lat="45.87422437" lon="9.07254685"><ele>1225.337402</ele><time>2008-06-01T07:52:24Z</time></trkpt>
<trkpt lat="45.87423166" lon="9.07228190"><ele>1228.702393</ele><time>2008-06-01T07:52:32Z</time></trkpt>
<trkpt lat="45.87429352" lon="9.07165702"><ele>1231.105713</ele><time>2008-06-01T07:52:48Z</time></trkpt>
<trkpt lat="45.87428254" lon="9.07152518"><ele>1231.586182</ele><time>2008-06-01T07:52:52Z</time></trkpt>
<trkpt lat="45.87408749" lon="9.07130792"><ele>1233.028076</ele><time>2008-06-01T07:53:02Z</time></trkpt>
<trkpt lat="45.87400267" lon="9.07123659"><ele>1233.989502</ele><time>2008-06-01T07:53:06Z</time></trkpt>
<trkpt lat="45.87375490" lon="9.07100684"><ele>1236.873291</ele><time>2008-06-01T07:53:17Z</time></trkpt>
<trkpt lat="45.87353513" lon="9.07062035"><ele>1237.834717</ele><time>2008-06-01T07:53:29Z</time></trkpt>
<trkpt lat="45.87335919" lon="9.07030268"><ele>1241.199219</ele><time>2008-06-01T07:53:40Z</time></trkpt>
<trkpt lat="45.87330152" lon="9.07007963"><ele>1242.160645</ele><time>2008-06-01T07:53:46Z</time></trkpt>
<trkpt lat="45.87325324" lon="9.07002524"><ele>1242.160645</ele><time>2008-06-01T07:53:49Z</time></trkpt>
<trkpt lat="45.87322558" lon="9.06986774"><ele>1243.602539</ele><time>2008-06-01T07:53:53Z</time></trkpt>
<trkpt lat="45.87317747" lon="9.06947723"><ele>1246.006104</ele><time>2008-06-01T07:54:05Z</time></trkpt>
<trkpt lat="45.87313958" lon="9.06927799"><ele>1246.967285</ele><time>2008-06-01T07:54:11Z</time></trkpt>
<trkpt lat="45.87306549" lon="9.06909820"><ele>1247.447998</ele><time>2008-06-01T07:54:18Z</time></trkpt>
<trkpt lat="45.87300522" lon="9.06899527"><ele>1248.889893</ele><time>2008-06-01T07:54:22Z</time></trkpt>
<trkpt lat="45.87300313" lon="9.06842697"><ele>1251.293213</ele><time>2008-06-01T07:54:37Z</time></trkpt>
<trkpt lat="45.87296113" lon="9.06815582"><ele>1253.21582</ele><time>2008-06-01T07:54:47Z</time></trkpt>
<trkpt lat="45.87284043" lon="9.06783588"><ele>1254.177246</ele><time>2008-06-01T07:54:57Z</time></trkpt>
<trkpt lat="45.87275284" lon="9.06756523"><ele>1255.619141</ele><time>2008-06-01T07:55:04Z</time></trkpt>
<trkpt lat="45.87255889" lon="9.06721545"><ele>1258.50293</ele><time>2008-06-01T07:55:18Z</time></trkpt>
<trkpt lat="45.87248152" lon="9.06707673"><ele>1259.464355</ele><time>2008-06-01T07:55:23Z</time></trkpt>
<trkpt lat="45.87223845" lon="9.06669603"><ele>1262.348389</ele><time>2008-06-01T07:55:37Z</time></trkpt>
<trkpt lat="45.87210182" lon="9.06643292"><ele>1263.309814</ele><time>2008-06-01T07:55:46Z</time></trkpt>
<trkpt lat="45.87202496" lon="9.06634172"><ele>1264.270996</ele><time>2008-06-01T07:55:50Z</time></trkpt>
<trkpt lat="45.87181298" lon="9.06620108"><ele>1266.674316</ele><time>2008-06-01T07:55:59Z</time></trkpt>
<trkpt lat="45.87155364" lon="9.06597577"><ele>1268.116211</ele><time>2008-06-01T07:56:11Z</time></trkpt>
<trkpt lat="45.87156546" lon="9.06582213"><ele>1269.077637</ele><time>2008-06-01T07:56:16Z</time></trkpt>
<trkpt lat="45.87149866" lon="9.06577402"><ele>1268.116211</ele><time>2008-06-01T07:56:26Z</time></trkpt>
<trkpt lat="45.87133228" lon="9.06589354"><ele>1264.270996</ele><time>2008-06-01T07:56:35Z</time></trkpt>
<trkpt lat="45.87129724" lon="9.06589924"><ele>1264.270996</ele><time>2008-06-01T07:56:36Z</time></trkpt>
<trkpt lat="45.87126053" lon="9.06589665"><ele>1263.790283</ele><time>2008-06-01T07:56:37Z</time></trkpt>
<trkpt lat="45.87115517" lon="9.06584795"><ele>1262.348389</ele><time>2008-06-01T07:56:40Z</time></trkpt>
<trkpt lat="45.87119037" lon="9.06566304"><ele>1258.022461</ele><time>2008-06-01T07:56:45Z</time></trkpt>
<trkpt lat="45.87123387" lon="9.06561133"><ele>1257.541748</ele><time>2008-06-01T07:56:46Z</time></trkpt>
<trkpt lat="45.87137528" lon="9.06544788"><ele>1255.138428</ele><time>2008-06-01T07:56:49Z</time></trkpt>
<trkpt lat="45.87148114" lon="9.06527965"><ele>1252.254395</ele><time>2008-06-01T07:56:53Z</time></trkpt>
<trkpt lat="45.87157049" lon="9.06527756"><ele>1255.138428</ele><time>2008-06-01T07:57:05Z</time></trkpt>
<trkpt lat="45.87165037" lon="9.06522417"><ele>1256.580322</ele><time>2008-06-01T07:57:16Z</time></trkpt>
<trkpt lat="45.87176990" lon="9.06512367"><ele>1258.022461</ele><time>2008-06-01T07:57:28Z</time></trkpt>
<trkpt lat="45.87188347" lon="9.06505032"><ele>1258.50293</ele><time>2008-06-01T07:57:35Z</time></trkpt>
<trkpt lat="45.87198280" lon="9.06493968"><ele>1259.464355</ele><time>2008-06-01T07:57:41Z</time></trkpt>
<trkpt lat="45.87234817" lon="9.06462536"><ele>1258.022461</ele><time>2008-06-01T07:57:54Z</time></trkpt>
<trkpt lat="45.87257925" lon="9.06442403"><ele>1257.061035</ele><time>2008-06-01T07:58:01Z</time></trkpt>
<trkpt lat="45.87306138" lon="9.06436695"><ele>1256.580322</ele><time>2008-06-01T07:58:14Z</time></trkpt>
<trkpt lat="45.87329515" lon="9.06434926"><ele>1253.696533</ele><time>2008-06-01T07:58:21Z</time></trkpt>
<trkpt lat="45.87350638" lon="9.06434817"><ele>1253.21582</ele><time>2008-06-01T07:58:29Z</time></trkpt>
<trkpt lat="45.87387267" lon="9.06441883"><ele>1249.370605</ele><time>2008-06-01T07:58:39Z</time></trkpt>
<trkpt lat="45.87409479" lon="9.06445194"><ele>1245.044678</ele><time>2008-06-01T07:58:46Z</time></trkpt>
<trkpt lat="45.87424415" lon="9.06449519"><ele>1242.160645</ele><time>2008-06-01T07:58:50Z</time></trkpt>
<trkpt lat="45.87437415" lon="9.06450072"><ele>1238.796143</ele><time>2008-06-01T07:58:54Z</time></trkpt>
<trkpt lat="45.87448572" lon="9.06451036"><ele>1234.470215</ele><time>2008-06-01T07:58:58Z</time></trkpt>
<trkpt lat="45.87452972" lon="9.06450332"><ele>1233.989502</ele><time>2008-06-01T07:59:00Z</time></trkpt>
<trkpt lat="45.87465679" lon="9.06450768"><ele>1230.144287</ele><time>2008-06-01T07:59:04Z</time></trkpt>
<trkpt lat="45.87469845" lon="9.06448497"><ele>1228.22168</ele><time>2008-06-01T07:59:06Z</time></trkpt>
<trkpt lat="45.87468403" lon="9.06438380"><ele>1223.895508</ele><time>2008-06-01T07:59:10Z</time></trkpt>
<trkpt lat="45.87463642" lon="9.06421758"><ele>1219.569824</ele><time>2008-06-01T07:59:14Z</time></trkpt>
<trkpt lat="45.87459720" lon="9.06406696"><ele>1215.724609</ele><time>2008-06-01T07:59:18Z</time></trkpt>
<trkpt lat="45.87454556" lon="9.06396026"><ele>1213.321289</ele><time>2008-06-01T07:59:21Z</time></trkpt>
<trkpt lat="45.87452956" lon="9.06387183"><ele>1211.398438</ele><time>2008-06-01T07:59:23Z</time></trkpt>
<trkpt lat="45.87448672" lon="9.06378835"><ele>1209.956299</ele><time>2008-06-01T07:59:26Z</time></trkpt>
<trkpt lat="45.87444364" lon="9.06369229"><ele>1207.553223</ele><time>2008-06-01T07:59:29Z</time></trkpt>
<trkpt lat="45.87446862" lon="9.06365616"><ele>1205.630615</ele><time>2008-06-01T07:59:32Z</time></trkpt>
<trkpt lat="45.87453769" lon="9.06371777"><ele>1205.630615</ele><time>2008-06-01T07:59:35Z</time></trkpt>
<trkpt lat="45.87478973" lon="9.06404793"><ele>1207.07251</ele><time>2008-06-01T07:59:46Z</time></trkpt>
<trkpt lat="45.87494823" lon="9.06422596"><ele>1210.437012</ele><time>2008-06-01T07:59:55Z</time></trkpt>
<trkpt lat="45.87536339" lon="9.06450223"><ele>1211.398438</ele><time>2008-06-01T08:00:12Z</time></trkpt>
<trkpt lat="45.87545492" lon="9.06455143"><ele>1213.801758</ele><time>2008-06-01T08:00:18Z</time></trkpt>
<trkpt lat="45.87575407" lon="9.06458773"><ele>1214.763184</ele><time>2008-06-01T08:00:30Z</time></trkpt>
<trkpt lat="45.87602539" lon="9.06429813"><ele>1213.801758</ele><time>2008-06-01T08:00:40Z</time></trkpt>
<trkpt lat="45.87616964" lon="9.06404592"><ele>1212.359863</ele><time>2008-06-01T08:00:45Z</time></trkpt>
<trkpt lat="45.87642336" lon="9.06349724"><ele>1208.995117</ele><time>2008-06-01T08:00:52Z</time></trkpt>
<trkpt lat="45.87665563" lon="9.06298008"><ele>1205.630615</ele><time>2008-06-01T08:00:58Z</time></trkpt>
<trkpt lat="45.87669410" lon="9.06289970"><ele>1205.630615</ele><time>2008-06-01T08:00:59Z</time></trkpt>
<trkpt lat="45.87684330" lon="9.06241816"><ele>1203.708008</ele><time>2008-06-01T08:01:05Z</time></trkpt>
<trkpt lat="45.87685268" lon="9.06184173"><ele>1199.862793</ele><time>2008-06-01T08:01:12Z</time></trkpt>
<trkpt lat="45.87684045" lon="9.06176655"><ele>1199.38208</ele><time>2008-06-01T08:01:13Z</time></trkpt>
<trkpt lat="45.87682888" lon="9.06142993"><ele>1198.420654</ele><time>2008-06-01T08:01:17Z</time></trkpt>
<trkpt lat="45.87687506" lon="9.06108174"><ele>1194.575195</ele><time>2008-06-01T08:01:22Z</time></trkpt>
<trkpt lat="45.87688822" lon="9.06095007"><ele>1191.210693</ele><time>2008-06-01T08:01:25Z</time></trkpt>
<trkpt lat="45.87689317" lon="9.06090925"><ele>1191.210693</ele><time>2008-06-01T08:01:26Z</time></trkpt>
<trkpt lat="45.87691018" lon="9.06075728"><ele>1188.326904</ele><time>2008-06-01T08:01:30Z</time></trkpt>
<trkpt lat="45.87693734" lon="9.06056919"><ele>1184.962402</ele><time>2008-06-01T08:01:34Z</time></trkpt>
<trkpt lat="45.87696835" lon="9.06047313"><ele>1184.000977</ele><time>2008-06-01T08:01:36Z</time></trkpt>
<trkpt lat="45.87714085" lon="9.06009964"><ele>1182.078369</ele><time>2008-06-01T08:01:42Z</time></trkpt>
<trkpt lat="45.87738309" lon="9.05924024"><ele>1179.194092</ele><time>2008-06-01T08:01:53Z</time></trkpt>
<trkpt lat="45.87748703" lon="9.05851755"><ele>1175.82959</ele><time>2008-06-01T08:02:02Z</time></trkpt>
<trkpt lat="45.87750295" lon="9.05843424"><ele>1175.82959</ele><time>2008-06-01T08:02:03Z</time></trkpt>
<trkpt lat="45.87750228" lon="9.05796493"><ele>1171.023193</ele><time>2008-06-01T08:02:08Z</time></trkpt>
<trkpt lat="45.87740329" lon="9.05776109"><ele>1170.54248</ele><time>2008-06-01T08:02:11Z</time></trkpt>
<trkpt lat="45.87728284" lon="9.05762086"><ele>1171.023193</ele><time>2008-06-01T08:02:14Z</time></trkpt>
<trkpt lat="45.87710674" lon="9.05735523"><ele>1171.023193</ele><time>2008-06-01T08:02:19Z</time></trkpt>
<trkpt lat="45.87697783" lon="9.05702650"><ele>1171.503662</ele><time>2008-06-01T08:02:24Z</time></trkpt>
<trkpt lat="45.87689602" lon="9.05632770"><ele>1168.619873</ele><time>2008-06-01T08:02:32Z</time></trkpt>
<trkpt lat="45.87684078" lon="9.05583325"><ele>1167.177979</ele><time>2008-06-01T08:02:37Z</time></trkpt>
<trkpt lat="45.87679594" lon="9.05567248"><ele>1165.736084</ele><time>2008-06-01T08:02:39Z</time></trkpt>
<trkpt lat="45.87674540" lon="9.05551784"><ele>1165.736084</ele><time>2008-06-01T08:02:41Z</time></trkpt>
<trkpt lat="45.87665068" lon="9.05531072"><ele>1166.216553</ele><time>2008-06-01T08:02:44Z</time></trkpt>
<trkpt lat="45.87651573" lon="9.05506044"><ele>1161.890625</ele><time>2008-06-01T08:02:48Z</time></trkpt>
<trkpt lat="45.87636402" lon="9.05481124"><ele>1159.967773</ele><time>2008-06-01T08:02:52Z</time></trkpt>
<trkpt lat="45.87621038" lon="9.05461125"><ele>1154.680664</ele><time>2008-06-01T08:02:55Z</time></trkpt>
<trkpt lat="45.87607736" lon="9.05442953"><ele>1151.316162</ele><time>2008-06-01T08:02:58Z</time></trkpt>
<trkpt lat="45.87598155" lon="9.05430187"><ele>1149.874268</ele><time>2008-06-01T08:03:00Z</time></trkpt>
<trkpt lat="45.87575566" lon="9.05407607"><ele>1146.98999</ele><time>2008-06-01T08:03:04Z</time></trkpt>
<trkpt lat="45.87557486" lon="9.05389217"><ele>1143.144775</ele><time>2008-06-01T08:03:07Z</time></trkpt>
<trkpt lat="45.87537093" lon="9.05361188"><ele>1138.819092</ele><time>2008-06-01T08:03:11Z</time></trkpt>
<trkpt lat="45.87531762" lon="9.05354474"><ele>1138.819092</ele><time>2008-06-01T08:03:12Z</time></trkpt>
<trkpt lat="45.87514093" lon="9.05333578"><ele>1136.89624</ele><time>2008-06-01T08:03:15Z</time></trkpt>
<trkpt lat="45.87484522" lon="9.05300193"><ele>1134.973877</ele><time>2008-06-01T08:03:20Z</time></trkpt>
<trkpt lat="45.87472988" lon="9.05289195"><ele>1133.051025</ele><time>2008-06-01T08:03:22Z</time></trkpt>
<trkpt lat="45.87467054" lon="9.05283898"><ele>1132.089844</ele><time>2008-06-01T08:03:23Z</time></trkpt>
<trkpt lat="45.87434172" lon="9.05254385"><ele>1134.012451</ele><time>2008-06-01T08:03:32Z</time></trkpt>
<trkpt lat="45.87429595" lon="9.05243983"><ele>1134.973877</ele><time>2008-06-01T08:03:45Z</time></trkpt>
<trkpt lat="45.87411817" lon="9.05219072"><ele>1137.376953</ele><time>2008-06-01T08:03:59Z</time></trkpt>
<trkpt lat="45.87397576" lon="9.05196844"><ele>1139.299561</ele><time>2008-06-01T08:04:12Z</time></trkpt>
<trkpt lat="45.87361786" lon="9.05169074"><ele>1138.819092</ele><time>2008-06-01T08:04:25Z</time></trkpt>
<trkpt lat="45.87318359" lon="9.05157088"><ele>1139.299561</ele><time>2008-06-01T08:04:37Z</time></trkpt>
<trkpt lat="45.87292476" lon="9.05150156"><ele>1137.857666</ele><time>2008-06-01T08:04:43Z</time></trkpt>
<trkpt lat="45.87257146" lon="9.05154222"><ele>1137.376953</ele><time>2008-06-01T08:04:51Z</time></trkpt>
<trkpt lat="45.87241262" lon="9.05160114"><ele>1133.531738</ele><time>2008-06-01T08:04:55Z</time></trkpt>
<trkpt lat="45.87225672" lon="9.05168052"><ele>1129.205566</ele><time>2008-06-01T08:04:59Z</time></trkpt>
<trkpt lat="45.87202605" lon="9.05181505"><ele>1126.321777</ele><time>2008-06-01T08:05:03Z</time></trkpt>
<trkpt lat="45.87182547" lon="9.05190465"><ele>1124.39917</ele><time>2008-06-01T08:05:06Z</time></trkpt>
<trkpt lat="45.87142456" lon="9.05212157"><ele>1120.073242</ele><time>2008-06-01T08:05:14Z</time></trkpt>
<trkpt lat="45.87128886" lon="9.05211478"><ele>1119.592773</ele><time>2008-06-01T08:05:17Z</time></trkpt>
<trkpt lat="45.87117026" lon="9.05207774"><ele>1116.70874</ele><time>2008-06-01T08:05:20Z</time></trkpt>
<trkpt lat="45.87106146" lon="9.05199442"><ele>1114.305176</ele><time>2008-06-01T08:05:23Z</time></trkpt>
<trkpt lat="45.87094495" lon="9.05187733"><ele>1111.9021</ele><time>2008-06-01T08:05:26Z</time></trkpt>
<trkpt lat="45.87080137" lon="9.05173324"><ele>1109.018066</ele><time>2008-06-01T08:05:29Z</time></trkpt>
<trkpt lat="45.87055746" lon="9.05156552"><ele>1104.21167</ele><time>2008-06-01T08:05:33Z</time></trkpt>
<trkpt lat="45.87035168" lon="9.05143292"><ele>1100.846924</ele><time>2008-06-01T08:05:36Z</time></trkpt>
<trkpt lat="45.87028513" lon="9.05138623"><ele>1100.846924</ele><time>2008-06-01T08:05:37Z</time></trkpt>
<trkpt lat="45.86965749" lon="9.05098348"><ele>1097.482178</ele><time>2008-06-01T08:05:47Z</time></trkpt>
<trkpt lat="45.86955012" lon="9.05094199"><ele>1097.482178</ele><time>2008-06-01T08:05:49Z</time></trkpt>
<trkpt lat="45.86943763" lon="9.05092489"><ele>1096.520996</ele><time>2008-06-01T08:05:51Z</time></trkpt>
<trkpt lat="45.86922733" lon="9.05091005"><ele>1091.714355</ele><time>2008-06-01T08:05:55Z</time></trkpt>
<trkpt lat="45.86917679" lon="9.05091156"><ele>1092.195068</ele><time>2008-06-01T08:05:56Z</time></trkpt>
<trkpt lat="45.86895517" lon="9.05088759"><ele>1087.869141</ele><time>2008-06-01T08:06:00Z</time></trkpt>
<trkpt lat="45.86881285" lon="9.05083110"><ele>1085.46582</ele><time>2008-06-01T08:06:03Z</time></trkpt>
<trkpt lat="45.86869852" lon="9.05075122"><ele>1081.620361</ele><time>2008-06-01T08:06:06Z</time></trkpt>
<trkpt lat="45.86857262" lon="9.05066564"><ele>1078.736572</ele><time>2008-06-01T08:06:10Z</time></trkpt>
<trkpt lat="45.86834975" lon="9.05044444"><ele>1074.410645</ele><time>2008-06-01T08:06:15Z</time></trkpt>
<trkpt lat="45.86831127" lon="9.05040253"><ele>1074.410645</ele><time>2008-06-01T08:06:16Z</time></trkpt>
<trkpt lat="45.86816442" lon="9.05026582"><ele>1072.007324</ele><time>2008-06-01T08:06:20Z</time></trkpt>
<trkpt lat="45.86794255" lon="9.04979157"><ele>1068.642822</ele><time>2008-06-01T08:06:28Z</time></trkpt>
<trkpt lat="45.86784138" lon="9.04959946"><ele>1065.278076</ele><time>2008-06-01T08:06:31Z</time></trkpt>
<trkpt lat="45.86771088" lon="9.04935773"><ele>1064.31665</ele><time>2008-06-01T08:06:35Z</time></trkpt>
<trkpt lat="45.86751315" lon="9.04905958"><ele>1059.510254</ele><time>2008-06-01T08:06:41Z</time></trkpt>
<trkpt lat="45.86745665" lon="9.04901859"><ele>1058.548828</ele><time>2008-06-01T08:06:43Z</time></trkpt>
<trkpt lat="45.86737074" lon="9.04901499"><ele>1056.626221</ele><time>2008-06-01T08:06:46Z</time></trkpt>
<trkpt lat="45.86733554" lon="9.04902706"><ele>1056.145508</ele><time>2008-06-01T08:06:47Z</time></trkpt>
<trkpt lat="45.86715348" lon="9.04907936"><ele>1051.81958</ele><time>2008-06-01T08:06:51Z</time></trkpt>
<trkpt lat="45.86704955" lon="9.04911314"><ele>1049.896973</ele><time>2008-06-01T08:06:53Z</time></trkpt>
<trkpt lat="45.86694083" lon="9.04913795"><ele>1047.012939</ele><time>2008-06-01T08:06:55Z</time></trkpt>
<trkpt lat="45.86664587" lon="9.04928455"><ele>1042.687256</ele><time>2008-06-01T08:07:00Z</time></trkpt>
<trkpt lat="45.86643104" lon="9.04930609"><ele>1041.245117</ele><time>2008-06-01T08:07:04Z</time></trkpt>
<trkpt lat="45.86627715" lon="9.04926997"><ele>1038.842041</ele><time>2008-06-01T08:07:07Z</time></trkpt>
<trkpt lat="45.86610574" lon="9.04912295"><ele>1034.515869</ele><time>2008-06-01T08:07:11Z</time></trkpt>
<trkpt lat="45.86596283" lon="9.04899672"><ele>1033.07373</ele><time>2008-06-01T08:07:14Z</time></trkpt>
<trkpt lat="45.86585982" lon="9.04890737"><ele>1031.151367</ele><time>2008-06-01T08:07:16Z</time></trkpt>
<trkpt lat="45.86571515" lon="9.04880729"><ele>1026.344727</ele><time>2008-06-01T08:07:19Z</time></trkpt>
<trkpt lat="45.86567366" lon="9.04877812"><ele>1025.864014</ele><time>2008-06-01T08:07:20Z</time></trkpt>
<trkpt lat="45.86556268" lon="9.04864929"><ele>1023.941406</ele><time>2008-06-01T08:07:23Z</time></trkpt>
<trkpt lat="45.86553577" lon="9.04859229"><ele>1023.460938</ele><time>2008-06-01T08:07:24Z</time></trkpt>
<trkpt lat="45.86545187" lon="9.04840889"><ele>1021.057617</ele><time>2008-06-01T08:07:27Z</time></trkpt>
<trkpt lat="45.86528465" lon="9.04813380"><ele>1017.212158</ele><time>2008-06-01T08:07:33Z</time></trkpt>
<trkpt lat="45.86521374" lon="9.04799558"><ele>1014.328125</ele><time>2008-06-01T08:07:36Z</time></trkpt>
<trkpt lat="45.86505004" lon="9.04779559"><ele>1007.599121</ele><time>2008-06-01T08:07:41Z</time></trkpt>
<trkpt lat="45.86496287" lon="9.04764882"><ele>1004.234619</ele><time>2008-06-01T08:07:44Z</time></trkpt>
<trkpt lat="45.86485667" lon="9.04755344"><ele>1001.831055</ele><time>2008-06-01T08:07:47Z</time></trkpt>
<trkpt lat="45.86473346" lon="9.04741857"><ele>997.505127</ele><time>2008-06-01T08:07:51Z</time></trkpt>
<trkpt lat="45.86456255" lon="9.04723870"><ele>993.179199</ele><time>2008-06-01T08:07:56Z</time></trkpt>
<trkpt lat="45.86452056" lon="9.04720659"><ele>992.218018</ele><time>2008-06-01T08:07:57Z</time></trkpt>
<trkpt lat="45.86437027" lon="9.04704457"><ele>987.411133</ele><time>2008-06-01T08:08:01Z</time></trkpt>
<trkpt lat="45.86433238" lon="9.04701205"><ele>986.449951</ele><time>2008-06-01T08:08:02Z</time></trkpt>
<trkpt lat="45.86418872" lon="9.04682396"><ele>981.643311</ele><time>2008-06-01T08:08:06Z</time></trkpt>
<trkpt lat="45.86415905" lon="9.04678012"><ele>981.162842</ele><time>2008-06-01T08:08:07Z</time></trkpt>
<trkpt lat="45.86398864" lon="9.04652649"><ele>977.317627</ele><time>2008-06-01T08:08:11Z</time></trkpt>
<trkpt lat="45.86394866" lon="9.04646664"><ele>975.875488</ele><time>2008-06-01T08:08:12Z</time></trkpt>
<trkpt lat="45.86382645" lon="9.04623664"><ele>972.510986</ele><time>2008-06-01T08:08:16Z</time></trkpt>
<trkpt lat="45.86371900" lon="9.04604260"><ele>968.184814</ele><time>2008-06-01T08:08:20Z</time></trkpt>
<trkpt lat="45.86370106" lon="9.04599147"><ele>968.184814</ele><time>2008-06-01T08:08:21Z</time></trkpt>
<trkpt lat="45.86365747" lon="9.04586599"><ele>966.262207</ele><time>2008-06-01T08:08:23Z</time></trkpt>
<trkpt lat="45.86361590" lon="9.04573138"><ele>964.3396</ele><time>2008-06-01T08:08:25Z</time></trkpt>
<trkpt lat="45.86352764" lon="9.04550146"><ele>960.494385</ele><time>2008-06-01T08:08:29Z</time></trkpt>
<trkpt lat="45.86350735" lon="9.04529024"><ele>956.64917</ele><time>2008-06-01T08:08:33Z</time></trkpt>
<trkpt lat="45.86351825" lon="9.04513685"><ele>954.24585</ele><time>2008-06-01T08:08:35Z</time></trkpt>
<trkpt lat="45.86348992" lon="9.04471457"><ele>949.919922</ele><time>2008-06-01T08:08:40Z</time></trkpt>
<trkpt lat="45.86344290" lon="9.04450066"><ele>946.074707</ele><time>2008-06-01T08:08:44Z</time></trkpt>
<trkpt lat="45.86341926" lon="9.04447158"><ele>946.074707</ele><time>2008-06-01T08:08:45Z</time></trkpt>
<trkpt lat="45.86337014" lon="9.04440293"><ele>944.1521</ele><time>2008-06-01T08:08:47Z</time></trkpt>
<trkpt lat="45.86322606" lon="9.04421375"><ele>940.787354</ele><time>2008-06-01T08:08:52Z</time></trkpt>
<trkpt lat="45.86318197" lon="9.04411342"><ele>938.864746</ele><time>2008-06-01T08:08:54Z</time></trkpt>
<trkpt lat="45.86309949" lon="9.04364546"><ele>935.5</ele><time>2008-06-01T08:09:01Z</time></trkpt>
<trkpt lat="45.86302388" lon="9.04334145"><ele>934.058105</ele><time>2008-06-01T08:09:05Z</time></trkpt>
<trkpt lat="45.86299304" lon="9.04307859"><ele>932.616211</ele><time>2008-06-01T08:09:09Z</time></trkpt>
<trkpt lat="45.86294166" lon="9.04265312"><ele>929.251465</ele><time>2008-06-01T08:09:19Z</time></trkpt>
<trkpt lat="45.86291718" lon="9.04261759"><ele>928.770996</ele><time>2008-06-01T08:09:20Z</time></trkpt>
<trkpt lat="45.86288022" lon="9.04251256"><ele>927.80957</ele><time>2008-06-01T08:09:22Z</time></trkpt>
<trkpt lat="45.86279732" lon="9.04230578"><ele>925.886963</ele><time>2008-06-01T08:09:25Z</time></trkpt>
<trkpt lat="45.86274334" lon="9.04181384"><ele>924.925781</ele><time>2008-06-01T08:09:35Z</time></trkpt>
<trkpt lat="45.86270185" lon="9.04161285"><ele>923.483643</ele><time>2008-06-01T08:09:39Z</time></trkpt>
<trkpt lat="45.86259096" lon="9.04129970"><ele>920.599609</ele><time>2008-06-01T08:09:46Z</time></trkpt>
<trkpt lat="45.86257084" lon="9.04127053"><ele>919.638428</ele><time>2008-06-01T08:09:47Z</time></trkpt>
<trkpt lat="45.86253564" lon="9.04124103"><ele>918.677002</ele><time>2008-06-01T08:09:49Z</time></trkpt>
<trkpt lat="45.86245609" lon="9.04115075"><ele>914.831787</ele><time>2008-06-01T08:09:53Z</time></trkpt>
<trkpt lat="45.86235492" lon="9.04102326"><ele>910.505859</ele><time>2008-06-01T08:09:58Z</time></trkpt>
<trkpt lat="45.86231025" lon="9.04099686"><ele>908.583252</ele><time>2008-06-01T08:10:00Z</time></trkpt>
<trkpt lat="45.86224278" lon="9.04100524"><ele>908.102783</ele><time>2008-06-01T08:10:03Z</time></trkpt>
<trkpt lat="45.86216030" lon="9.04093358"><ele>905.218506</ele><time>2008-06-01T08:10:07Z</time></trkpt>
<trkpt lat="45.86204429" lon="9.04086770"><ele>900.892578</ele><time>2008-06-01T08:10:11Z</time></trkpt>
<trkpt lat="45.86201118" lon="9.04082939"><ele>900.412109</ele><time>2008-06-01T08:10:13Z</time></trkpt>
<trkpt lat="45.86195603" lon="9.04078513"><ele>898.489258</ele><time>2008-06-01T08:10:16Z</time></trkpt>
<trkpt lat="45.86186525" lon="9.04067055"><ele>895.605469</ele><time>2008-06-01T08:10:22Z</time></trkpt>
<trkpt lat="45.86184774" lon="9.04065857"><ele>894.644043</ele><time>2008-06-01T08:10:23Z</time></trkpt>
<trkpt lat="45.86178680" lon="9.04053745"><ele>891.279297</ele><time>2008-06-01T08:10:27Z</time></trkpt>
<trkpt lat="45.86176283" lon="9.04047274"><ele>888.876221</ele><time>2008-06-01T08:10:29Z</time></trkpt>
<trkpt lat="45.86169066" lon="9.04041817"><ele>885.031006</ele><time>2008-06-01T08:10:33Z</time></trkpt>
<trkpt lat="45.86168094" lon="9.04038574"><ele>885.031006</ele><time>2008-06-01T08:10:34Z</time></trkpt>
<trkpt lat="45.86167105" lon="9.04035766"><ele>885.511475</ele><time>2008-06-01T08:10:35Z</time></trkpt>
<trkpt lat="45.86157625" lon="9.04025104"><ele>880.705078</ele><time>2008-06-01T08:10:40Z</time></trkpt>
<trkpt lat="45.86149846" lon="9.04017837"><ele>877.821045</ele><time>2008-06-01T08:10:43Z</time></trkpt>
<trkpt lat="45.86143744" lon="9.04012179"><ele>875.898193</ele><time>2008-06-01T08:10:45Z</time></trkpt>
<trkpt lat="45.86137994" lon="9.04005448"><ele>874.456299</ele><time>2008-06-01T08:10:48Z</time></trkpt>
<trkpt lat="45.86120669" lon="9.03990638"><ele>870.611084</ele><time>2008-06-01T08:10:56Z</time></trkpt>
<trkpt lat="45.86112748" lon="9.03982239"><ele>870.130371</ele><time>2008-06-01T08:11:12Z</time></trkpt>
<trkpt lat="45.86101633" lon="9.03967964"><ele>868.688477</ele><time>2008-06-01T08:11:18Z</time></trkpt>
<trkpt lat="45.86095624" lon="9.03955182"><ele>865.323975</ele><time>2008-06-01T08:11:22Z</time></trkpt>
<trkpt lat="45.86095892" lon="9.03944990"><ele>862.920654</ele><time>2008-06-01T08:11:26Z</time></trkpt>
<trkpt lat="45.86095414" lon="9.03932040"><ele>859.555908</ele><time>2008-06-01T08:11:30Z</time></trkpt>
<trkpt lat="45.86090896" lon="9.03916776"><ele>855.710693</ele><time>2008-06-01T08:11:34Z</time></trkpt>
<trkpt lat="45.86084275" lon="9.03904958"><ele>853.307373</ele><time>2008-06-01T08:11:38Z</time></trkpt>
<trkpt lat="45.86082866" lon="9.03900155"><ele>853.307373</ele><time>2008-06-01T08:11:39Z</time></trkpt>
<trkpt lat="45.86081224" lon="9.03878840"><ele>848.020264</ele><time>2008-06-01T08:11:44Z</time></trkpt>
<trkpt lat="45.86080545" lon="9.03876116"><ele>847.539551</ele><time>2008-06-01T08:11:45Z</time></trkpt>
<trkpt lat="45.86075398" lon="9.03866728"><ele>845.13623</ele><time>2008-06-01T08:11:48Z</time></trkpt>
<trkpt lat="45.86069212" lon="9.03846729"><ele>843.213379</ele><time>2008-06-01T08:11:52Z</time></trkpt>
<trkpt lat="45.86066807" lon="9.03839168"><ele>841.771484</ele><time>2008-06-01T08:11:54Z</time></trkpt>
<trkpt lat="45.86055047" lon="9.03833846"><ele>839.368164</ele><time>2008-06-01T08:12:02Z</time></trkpt>
<trkpt lat="45.86048442" lon="9.03812882"><ele>836.003662</ele><time>2008-06-01T08:12:09Z</time></trkpt>
<trkpt lat="45.86042776" lon="9.03802020"><ele>834.081055</ele><time>2008-06-01T08:12:13Z</time></trkpt>
<trkpt lat="45.86040689" lon="9.03797938"><ele>831.677734</ele><time>2008-06-01T08:12:15Z</time></trkpt>
<trkpt lat="45.86036230" lon="9.03796697"><ele>830.23584</ele><time>2008-06-01T08:12:18Z</time></trkpt>
<trkpt lat="45.86027705" lon="9.03786974"><ele>826.871094</ele><time>2008-06-01T08:12:22Z</time></trkpt>
<trkpt lat="45.86013783" lon="9.03769196"><ele>823.025879</ele><time>2008-06-01T08:12:27Z</time></trkpt>
<trkpt lat="45.85997513" lon="9.03756782"><ele>819.661377</ele><time>2008-06-01T08:12:33Z</time></trkpt>
<trkpt lat="45.85989350" lon="9.03743422"><ele>816.296631</ele><time>2008-06-01T08:12:37Z</time></trkpt>
<trkpt lat="45.85983834" lon="9.03732433"><ele>814.854736</ele><time>2008-06-01T08:12:39Z</time></trkpt>
<trkpt lat="45.85974849" lon="9.03723883"><ele>811.48999</ele><time>2008-06-01T08:12:43Z</time></trkpt>
<trkpt lat="45.85972385" lon="9.03722685"><ele>811.009277</ele><time>2008-06-01T08:12:44Z</time></trkpt>
<trkpt lat="45.85965444" lon="9.03716859"><ele>809.08667</ele><time>2008-06-01T08:12:46Z</time></trkpt>
<trkpt lat="45.85956769" lon="9.03708922"><ele>808.125488</ele><time>2008-06-01T08:12:48Z</time></trkpt>
<trkpt lat="45.85945747" lon="9.03696952"><ele>807.644775</ele><time>2008-06-01T08:12:50Z</time></trkpt>
<trkpt lat="45.85933803" lon="9.03681052"><ele>805.722168</ele><time>2008-06-01T08:12:53Z</time></trkpt>
<trkpt lat="45.85929067" lon="9.03676635"><ele>805.241455</ele><time>2008-06-01T08:12:55Z</time></trkpt>
<trkpt lat="45.85916092" lon="9.03672695"><ele>800.915527</ele><time>2008-06-01T08:13:00Z</time></trkpt>
<trkpt lat="45.85912194" lon="9.03670206"><ele>797.551025</ele><time>2008-06-01T08:13:02Z</time></trkpt>
<trkpt lat="45.85911565" lon="9.03667733"><ele>797.551025</ele><time>2008-06-01T08:13:03Z</time></trkpt>
<trkpt lat="45.85917693" lon="9.03636703"><ele>793.705566</ele><time>2008-06-01T08:13:11Z</time></trkpt>
<trkpt lat="45.85924482" lon="9.03628187"><ele>793.224854</ele><time>2008-06-01T08:13:14Z</time></trkpt>
<trkpt lat="45.85935018" lon="9.03616746"><ele>790.821533</ele><time>2008-06-01T08:13:18Z</time></trkpt>
<trkpt lat="45.85937189" lon="9.03614433"><ele>790.341064</ele><time>2008-06-01T08:13:19Z</time></trkpt>
<trkpt lat="45.85937968" lon="9.03603519"><ele>787.457031</ele><time>2008-06-01T08:13:23Z</time></trkpt>
<trkpt lat="45.85936552" lon="9.03601617"><ele>786.49585</ele><time>2008-06-01T08:13:24Z</time></trkpt>
<trkpt lat="45.85934188" lon="9.03599119"><ele>782.650635</ele><time>2008-06-01T08:13:26Z</time></trkpt>
<trkpt lat="45.85941380" lon="9.03591097"><ele>780.728027</ele><time>2008-06-01T08:13:31Z</time></trkpt>
<trkpt lat="45.85946308" lon="9.03579614"><ele>777.363281</ele><time>2008-06-01T08:13:36Z</time></trkpt>
<trkpt lat="45.85944297" lon="9.03572179"><ele>773.998535</ele><time>2008-06-01T08:13:39Z</time></trkpt>
<trkpt lat="45.85943400" lon="9.03569866"><ele>773.998535</ele><time>2008-06-01T08:13:40Z</time></trkpt>
<trkpt lat="45.85937348" lon="9.03556329"><ele>771.114746</ele><time>2008-06-01T08:13:45Z</time></trkpt>
<trkpt lat="45.85933627" lon="9.03552985"><ele>771.114746</ele><time>2008-06-01T08:13:46Z</time></trkpt>
<trkpt lat="45.85928606" lon="9.03545433"><ele>766.788818</ele><time>2008-06-01T08:13:49Z</time></trkpt>
<trkpt lat="45.85923107" lon="9.03534972"><ele>763.424072</ele><time>2008-06-01T08:13:53Z</time></trkpt>
<trkpt lat="45.85917072" lon="9.03533028"><ele>763.424072</ele><time>2008-06-01T08:13:55Z</time></trkpt>
<trkpt lat="45.85904785" lon="9.03526875"><ele>760.059326</ele><time>2008-06-01T08:13:59Z</time></trkpt>
<trkpt lat="45.85900862" lon="9.03525434"><ele>758.136963</ele><time>2008-06-01T08:14:02Z</time></trkpt>
<trkpt lat="45.85900107" lon="9.03524637"><ele>757.175537</ele><time>2008-06-01T08:14:03Z</time></trkpt>
<trkpt lat="45.85902899" lon="9.03509893"><ele>755.25293</ele><time>2008-06-01T08:14:08Z</time></trkpt>
<trkpt lat="45.85907886" lon="9.03499978"><ele>752.368896</ele><time>2008-06-01T08:14:12Z</time></trkpt>
<trkpt lat="45.85905195" lon="9.03497673"><ele>751.407715</ele><time>2008-06-01T08:14:23Z</time></trkpt>
<trkpt lat="45.85903779" lon="9.03496097"><ele>750.927002</ele><time>2008-06-01T08:14:38Z</time></trkpt>
<trkpt lat="45.85902530" lon="9.03495477"><ele>750.927002</ele><time>2008-06-01T08:14:43Z</time></trkpt>
<trkpt lat="45.85902882" lon="9.03498444"><ele>750.446533</ele><time>2008-06-01T08:14:58Z</time></trkpt>
<trkpt lat="45.85901742" lon="9.03499148"><ele>750.446533</ele><time>2008-06-01T08:15:02Z</time></trkpt>
<trkpt lat="45.85904902" lon="9.03496466"><ele>750.927002</ele><time>2008-06-01T08:15:14Z</time></trkpt>
<trkpt lat="45.85911507" lon="9.03495485"><ele>751.407715</ele><time>2008-06-01T08:15:19Z</time></trkpt>
<trkpt lat="45.85910442" lon="9.03486642"><ele>749.96582</ele><time>2008-06-01T08:15:23Z</time></trkpt>
<trkpt lat="45.85904307" lon="9.03481998"><ele>747.081543</ele><time>2008-06-01T08:15:25Z</time></trkpt>
<trkpt lat="45.85897668" lon="9.03480758"><ele>747.081543</ele><time>2008-06-01T08:15:27Z</time></trkpt>
<trkpt lat="45.85892513" lon="9.03461454"><ele>743.717041</ele><time>2008-06-01T08:15:32Z</time></trkpt>
<trkpt lat="45.85895967" lon="9.03446627"><ele>740.352539</ele><time>2008-06-01T08:15:35Z</time></trkpt>
<trkpt lat="45.85898917" lon="9.03432889"><ele>736.507324</ele><time>2008-06-01T08:15:39Z</time></trkpt>
<trkpt lat="45.85899688" lon="9.03428740"><ele>736.507324</ele><time>2008-06-01T08:15:40Z</time></trkpt>
<trkpt lat="45.85900619" lon="9.03422076"><ele>735.06543</ele><time>2008-06-01T08:15:42Z</time></trkpt>
<trkpt lat="45.85900853" lon="9.03401574"><ele>730.258545</ele><time>2008-06-01T08:15:48Z</time></trkpt>
<trkpt lat="45.85900568" lon="9.03396755"><ele>730.258545</ele><time>2008-06-01T08:15:49Z</time></trkpt>
<trkpt lat="45.85899814" lon="9.03386076"><ele>728.81665</ele><time>2008-06-01T08:15:51Z</time></trkpt>
<trkpt lat="45.85901306" lon="9.03350998"><ele>728.335938</ele><time>2008-06-01T08:15:58Z</time></trkpt>
<trkpt lat="45.85905950" lon="9.03330537"><ele>731.219971</ele><time>2008-06-01T08:16:07Z</time></trkpt>
<trkpt lat="45.85909009" lon="9.03317965"><ele>732.662109</ele><time>2008-06-01T08:16:12Z</time></trkpt>
<trkpt lat="45.85908213" lon="9.03310647"><ele>733.623291</ele><time>2008-06-01T08:16:15Z</time></trkpt>
<trkpt lat="45.85905933" lon="9.03308376"><ele>733.623291</ele><time>2008-06-01T08:16:17Z</time></trkpt>
<trkpt lat="45.85892648" lon="9.03272987"><ele>732.181396</ele><time>2008-06-01T08:16:26Z</time></trkpt>
<trkpt lat="45.85877669" lon="9.03232369"><ele>734.584717</ele><time>2008-06-01T08:16:36Z</time></trkpt>
<trkpt lat="45.85872020" lon="9.03221908"><ele>735.545898</ele><time>2008-06-01T08:16:40Z</time></trkpt>
<trkpt lat="45.85866890" lon="9.03209067"><ele>736.026611</ele><time>2008-06-01T08:16:45Z</time></trkpt>
<trkpt lat="45.85838743" lon="9.03180099"><ele>739.871826</ele><time>2008-06-01T08:17:00Z</time></trkpt>
<trkpt lat="45.85830588" lon="9.03165942"><ele>740.833008</ele><time>2008-06-01T08:17:08Z</time></trkpt>
<trkpt lat="45.85809834" lon="9.03124007"><ele>740.833008</ele><time>2008-06-01T08:17:19Z</time></trkpt>
<trkpt lat="45.85804847" lon="9.03095107"><ele>740.352539</ele><time>2008-06-01T08:17:23Z</time></trkpt>
<trkpt lat="45.85801109" lon="9.03068435"><ele>739.871826</ele><time>2008-06-01T08:17:27Z</time></trkpt>
<trkpt lat="45.85808753" lon="9.03009955"><ele>739.871826</ele><time>2008-06-01T08:17:38Z</time></trkpt>
<trkpt lat="45.85833195" lon="9.03016694"><ele>741.794434</ele><time>2008-06-01T08:17:47Z</time></trkpt>
<trkpt lat="45.85840227" lon="9.03059576"><ele>743.717041</ele><time>2008-06-01T08:17:58Z</time></trkpt>
<trkpt lat="45.85840344" lon="9.03062493"><ele>743.236328</ele><time>2008-06-01T08:17:59Z</time></trkpt>
<trkpt lat="45.85849020" lon="9.03086456"><ele>741.313721</ele><time>2008-06-01T08:18:06Z</time></trkpt>
<trkpt lat="45.85859095" lon="9.03117964"><ele>738.910645</ele><time>2008-06-01T08:18:10Z</time></trkpt>
<trkpt lat="45.85870293" lon="9.03149740"><ele>734.584717</ele><time>2008-06-01T08:18:14Z</time></trkpt>
<trkpt lat="45.85875104" lon="9.03164165"><ele>733.623291</ele><time>2008-06-01T08:18:16Z</time></trkpt>
<trkpt lat="45.85883746" lon="9.03192387"><ele>731.219971</ele><time>2008-06-01T08:18:19Z</time></trkpt>
<trkpt lat="45.85892404" lon="9.03212914"><ele>728.81665</ele><time>2008-06-01T08:18:23Z</time></trkpt>
<trkpt lat="45.85899395" lon="9.03222822"><ele>727.855225</ele><time>2008-06-01T08:18:25Z</time></trkpt>
<trkpt lat="45.85908883" lon="9.03240583"><ele>725.451904</ele><time>2008-06-01T08:18:28Z</time></trkpt>
<trkpt lat="45.85916293" lon="9.03251186"><ele>724.971436</ele><time>2008-06-01T08:18:30Z</time></trkpt>
<trkpt lat="45.85923795" lon="9.03260708"><ele>722.568115</ele><time>2008-06-01T08:18:32Z</time></trkpt>
<trkpt lat="45.85941338" lon="9.03281109"><ele>718.7229</ele><time>2008-06-01T08:18:37Z</time></trkpt>
<trkpt lat="45.85952645" lon="9.03288175"><ele>715.358154</ele><time>2008-06-01T08:18:44Z</time></trkpt>
<trkpt lat="45.85952855" lon="9.03287949"><ele>715.838867</ele><time>2008-06-01T08:18:45Z</time></trkpt>
<trkpt lat="45.85952888" lon="9.03284923"><ele>714.877441</ele><time>2008-06-01T08:18:48Z</time></trkpt>
<trkpt lat="45.85949728" lon="9.03260733"><ele>713.435547</ele><time>2008-06-01T08:18:54Z</time></trkpt>
<trkpt lat="45.85938706" lon="9.03237750"><ele>711.993652</ele><time>2008-06-01T08:18:58Z</time></trkpt>
<trkpt lat="45.85927525" lon="9.03196268"><ele>706.225586</ele><time>2008-06-01T08:19:04Z</time></trkpt>
<trkpt lat="45.85919612" lon="9.03163746"><ele>703.341797</ele><time>2008-06-01T08:19:09Z</time></trkpt>
<trkpt lat="45.85921045" lon="9.03132968"><ele>700.458008</ele><time>2008-06-01T08:19:13Z</time></trkpt>
<trkpt lat="45.85920199" lon="9.03106414"><ele>697.093018</ele><time>2008-06-01T08:19:16Z</time></trkpt>
<trkpt lat="45.85917936" lon="9.03088049"><ele>696.131836</ele><time>2008-06-01T08:19:18Z</time></trkpt>
<trkpt lat="45.85917265" lon="9.03042493"><ele>693.728516</ele><time>2008-06-01T08:19:23Z</time></trkpt>
<trkpt lat="45.85915949" lon="9.03017599"><ele>689.402588</ele><time>2008-06-01T08:19:26Z</time></trkpt>
<trkpt lat="45.85913284" lon="9.03003006"><ele>687.960693</ele><time>2008-06-01T08:19:28Z</time></trkpt>
<trkpt lat="45.85901423" lon="9.02972077"><ele>683.153809</ele><time>2008-06-01T08:19:33Z</time></trkpt>
<trkpt lat="45.85896637" lon="9.02960166"><ele>682.192627</ele><time>2008-06-01T08:19:35Z</time></trkpt>
<trkpt lat="45.85893796" lon="9.02954307"><ele>682.192627</ele><time>2008-06-01T08:19:36Z</time></trkpt>
<trkpt lat="45.85885313" lon="9.02943553"><ele>678.347412</ele><time>2008-06-01T08:19:42Z</time></trkpt>
<trkpt lat="45.85892287" lon="9.02932297"><ele>678.828125</ele><time>2008-06-01T08:19:59Z</time></trkpt>
<trkpt lat="45.85913049" lon="9.02954274"><ele>676.905518</ele><time>2008-06-01T08:20:07Z</time></trkpt>
<trkpt lat="45.85924834" lon="9.02968666"><ele>674.021484</ele><time>2008-06-01T08:20:10Z</time></trkpt>
<trkpt lat="45.85936024" lon="9.02990249"><ele>671.137695</ele><time>2008-06-01T08:20:14Z</time></trkpt>
<trkpt lat="45.85948018" lon="9.03012964"><ele>667.772705</ele><time>2008-06-01T08:20:18Z</time></trkpt>
<trkpt lat="45.85956166" lon="9.03033868"><ele>665.850342</ele><time>2008-06-01T08:20:21Z</time></trkpt>
<trkpt lat="45.85962653" lon="9.03057849"><ele>663.92749</ele><time>2008-06-01T08:20:24Z</time></trkpt>
<trkpt lat="45.85967909" lon="9.03070196"><ele>661.524414</ele><time>2008-06-01T08:20:26Z</time></trkpt>
<trkpt lat="45.85976249" lon="9.03089717"><ele>659.121094</ele><time>2008-06-01T08:20:30Z</time></trkpt>
<trkpt lat="45.85986810" lon="9.03113706"><ele>658.159912</ele><time>2008-06-01T08:20:38Z</time></trkpt>
<trkpt lat="45.85984572" lon="9.03112952"><ele>655.275879</ele><time>2008-06-01T08:20:41Z</time></trkpt>
<trkpt lat="45.85990255" lon="9.03098644"><ele>653.833984</ele><time>2008-06-01T08:20:44Z</time></trkpt>
<trkpt lat="45.85991537" lon="9.03094503"><ele>653.833984</ele><time>2008-06-01T08:20:45Z</time></trkpt>
<trkpt lat="45.85995309" lon="9.03079768"><ele>649.507813</ele><time>2008-06-01T08:20:49Z</time></trkpt>
<trkpt lat="45.85995686" lon="9.03077848"><ele>649.0271</ele><time>2008-06-01T08:20:50Z</time></trkpt>
<trkpt lat="45.85999559" lon="9.03056332"><ele>645.181885</ele><time>2008-06-01T08:20:56Z</time></trkpt>
<trkpt lat="45.86001470" lon="9.03037372"><ele>642.778809</ele><time>2008-06-01T08:21:00Z</time></trkpt>
<trkpt lat="45.85987346" lon="9.02998304"><ele>638.933594</ele><time>2008-06-01T08:21:10Z</time></trkpt>
<trkpt lat="45.85985133" lon="9.02987047"><ele>636.530273</ele><time>2008-06-01T08:21:13Z</time></trkpt>
<trkpt lat="45.85996885" lon="9.02977467"><ele>632.204102</ele><time>2008-06-01T08:21:18Z</time></trkpt>
<trkpt lat="45.86001587" lon="9.02977115"><ele>632.204102</ele><time>2008-06-01T08:21:19Z</time></trkpt>
<trkpt lat="45.86009240" lon="9.02977265"><ele>631.24292</ele><time>2008-06-01T08:21:22Z</time></trkpt>
<trkpt lat="45.86018368" lon="9.02972739"><ele>626.916992</ele><time>2008-06-01T08:21:25Z</time></trkpt>
<trkpt lat="45.86022533" lon="9.02972789"><ele>625.955566</ele><time>2008-06-01T08:21:26Z</time></trkpt>
<trkpt lat="45.86036825" lon="9.02981666"><ele>624.994385</ele><time>2008-06-01T08:21:29Z</time></trkpt>
<trkpt lat="45.86052138" lon="9.03010567"><ele>626.436279</ele><time>2008-06-01T08:21:36Z</time></trkpt>
<trkpt lat="45.86072599" lon="9.03051713"><ele>625.955566</ele><time>2008-06-01T08:21:45Z</time></trkpt>
<trkpt lat="45.86081936" lon="9.03065317"><ele>624.994385</ele><time>2008-06-01T08:21:48Z</time></trkpt>
<trkpt lat="45.86085498" lon="9.03078217"><ele>624.513672</ele><time>2008-06-01T08:21:50Z</time></trkpt>
<trkpt lat="45.86084409" lon="9.03125013"><ele>627.397705</ele><time>2008-06-01T08:21:59Z</time></trkpt>
<trkpt lat="45.86083948" lon="9.03128777"><ele>627.878174</ele><time>2008-06-01T08:22:00Z</time></trkpt>
<trkpt lat="45.86086546" lon="9.03142079"><ele>628.8396</ele><time>2008-06-01T08:22:04Z</time></trkpt>
<trkpt lat="45.86089346" lon="9.03166973"><ele>631.24292</ele><time>2008-06-01T08:22:13Z</time></trkpt>
<trkpt lat="45.86092925" lon="9.03185774"><ele>633.165283</ele><time>2008-06-01T08:22:19Z</time></trkpt>
<trkpt lat="45.86094920" lon="9.03206946"><ele>634.607422</ele><time>2008-06-01T08:22:27Z</time></trkpt>
<trkpt lat="45.86099027" lon="9.03229829"><ele>636.049561</ele><time>2008-06-01T08:22:37Z</time></trkpt>
<trkpt lat="45.86091357" lon="9.03249585"><ele>637.491455</ele><time>2008-06-01T08:22:45Z</time></trkpt>
<trkpt lat="45.86089019" lon="9.03256475"><ele>637.972168</ele><time>2008-06-01T08:22:49Z</time></trkpt>
<trkpt lat="45.86085876" lon="9.03270414"><ele>639.894775</ele><time>2008-06-01T08:22:56Z</time></trkpt>
<trkpt lat="45.86082104" lon="9.03281026"><ele>640.855957</ele><time>2008-06-01T08:23:03Z</time></trkpt>
<trkpt lat="45.86111533" lon="9.03283197"><ele>644.220703</ele><time>2008-06-01T08:23:18Z</time></trkpt>
<trkpt lat="45.86145404" lon="9.03294789"><ele>647.104492</ele><time>2008-06-01T08:23:33Z</time></trkpt>
<trkpt lat="45.86159913" lon="9.03301997"><ele>649.0271</ele><time>2008-06-01T08:23:40Z</time></trkpt>
<trkpt lat="45.86168798" lon="9.03313866"><ele>649.988525</ele><time>2008-06-01T08:23:45Z</time></trkpt>
<trkpt lat="45.86175344" lon="9.03320923"><ele>650.469238</ele><time>2008-06-01T08:23:49Z</time></trkpt>
<trkpt lat="45.86177800" lon="9.03330328"><ele>651.43042</ele><time>2008-06-01T08:23:53Z</time></trkpt>
<trkpt lat="45.86178596" lon="9.03346312"><ele>651.911133</ele><time>2008-06-01T08:23:59Z</time></trkpt>
<trkpt lat="45.86182603" lon="9.03354744"><ele>652.391846</ele><time>2008-06-01T08:24:03Z</time></trkpt>
<trkpt lat="45.86184002" lon="9.03361718"><ele>652.872559</ele><time>2008-06-01T08:24:06Z</time></trkpt>
<trkpt lat="45.86177272" lon="9.03393779"><ele>655.275879</ele><time>2008-06-01T08:24:19Z</time></trkpt>
<trkpt lat="45.86178320" lon="9.03401013"><ele>655.756592</ele><time>2008-06-01T08:24:23Z</time></trkpt>
<trkpt lat="45.86186215" lon="9.03407383"><ele>656.717773</ele><time>2008-06-01T08:24:28Z</time></trkpt>
<trkpt lat="45.86201889" lon="9.03430735"><ele>659.601807</ele><time>2008-06-01T08:24:40Z</time></trkpt>
<trkpt lat="45.86210062" lon="9.03445772"><ele>661.043701</ele><time>2008-06-01T08:24:48Z</time></trkpt>
<trkpt lat="45.86213406" lon="9.03453525"><ele>661.043701</ele><time>2008-06-01T08:24:52Z</time></trkpt>
<trkpt lat="45.86221947" lon="9.03473784"><ele>662.485596</ele><time>2008-06-01T08:25:04Z</time></trkpt>
<trkpt lat="45.86226189" lon="9.03476609"><ele>662.485596</ele><time>2008-06-01T08:25:07Z</time></trkpt>
<trkpt lat="45.86229256" lon="9.03486248"><ele>664.408203</ele><time>2008-06-01T08:25:13Z</time></trkpt>
<trkpt lat="45.86231863" lon="9.03488570"><ele>664.408203</ele><time>2008-06-01T08:25:16Z</time></trkpt>
<trkpt lat="45.86232274" lon="9.03492375"><ele>664.888916</ele><time>2008-06-01T08:25:18Z</time></trkpt>
<trkpt lat="45.86235099" lon="9.03496424"><ele>665.369629</ele><time>2008-06-01T08:25:21Z</time></trkpt>
<trkpt lat="45.86236339" lon="9.03518108"><ele>668.734375</ele><time>2008-06-01T08:25:33Z</time></trkpt>
<trkpt lat="45.86241603" lon="9.03525073"><ele>669.695801</ele><time>2008-06-01T08:25:39Z</time></trkpt>
<trkpt lat="45.86250965" lon="9.03536657"><ele>672.098877</ele><time>2008-06-01T08:25:52Z</time></trkpt>
<trkpt lat="45.86270898" lon="9.03536087"><ele>675.463379</ele><time>2008-06-01T08:26:06Z</time></trkpt>
<trkpt lat="45.86291165" lon="9.03529515"><ele>677.38623</ele><time>2008-06-01T08:26:21Z</time></trkpt>
<trkpt lat="45.86301877" lon="9.03521008"><ele>679.789307</ele><time>2008-06-01T08:26:30Z</time></trkpt>
<trkpt lat="45.86313302" lon="9.03512492"><ele>682.192627</ele><time>2008-06-01T08:26:40Z</time></trkpt>
<trkpt lat="45.86318649" lon="9.03506775"><ele>682.67334</ele><time>2008-06-01T08:26:44Z</time></trkpt>
<trkpt lat="45.86324005" lon="9.03503976"><ele>683.153809</ele><time>2008-06-01T08:26:47Z</time></trkpt>
<trkpt lat="45.86343166" lon="9.03497153"><ele>685.557373</ele><time>2008-06-01T08:27:00Z</time></trkpt>
<trkpt lat="45.86359260" lon="9.03494144"><ele>684.115479</ele><time>2008-06-01T08:27:06Z</time></trkpt>
<trkpt lat="45.86378018" lon="9.03496273"><ele>682.192627</ele><time>2008-06-01T08:27:10Z</time></trkpt>
<trkpt lat="45.86387322" lon="9.03500833"><ele>680.750732</ele><time>2008-06-01T08:27:12Z</time></trkpt>
<trkpt lat="45.86402426" lon="9.03517353"><ele>677.38623</ele><time>2008-06-01T08:27:17Z</time></trkpt>
<trkpt lat="45.86407590" lon="9.03522835"><ele>674.98291</ele><time>2008-06-01T08:27:23Z</time></trkpt>
<trkpt lat="45.86406710" lon="9.03519658"><ele>674.502197</ele><time>2008-06-01T08:27:25Z</time></trkpt>
<trkpt lat="45.86404924" lon="9.03512592"><ele>672.57959</ele><time>2008-06-01T08:27:27Z</time></trkpt>
<trkpt lat="45.86399493" lon="9.03492878"><ele>670.17627</ele><time>2008-06-01T08:27:30Z</time></trkpt>
<trkpt lat="45.86396442" lon="9.03457557"><ele>666.330811</ele><time>2008-06-01T08:27:34Z</time></trkpt>
<trkpt lat="45.86394707" lon="9.03447574"><ele>663.447021</ele><time>2008-06-01T08:27:38Z</time></trkpt>
<trkpt lat="45.86408059" lon="9.03452259"><ele>662.485596</ele><time>2008-06-01T08:27:42Z</time></trkpt>
<trkpt lat="45.86431478" lon="9.03471563"><ele>657.679199</ele><time>2008-06-01T08:27:47Z</time></trkpt>
<trkpt lat="45.86435619" lon="9.03473943"><ele>657.679199</ele><time>2008-06-01T08:27:48Z</time></trkpt>
<trkpt lat="45.86436189" lon="9.03481219"><ele>655.275879</ele><time>2008-06-01T08:27:56Z</time></trkpt>
<trkpt lat="45.86434395" lon="9.03479375"><ele>654.314697</ele><time>2008-06-01T08:27:58Z</time></trkpt>
<trkpt lat="45.86436826" lon="9.03453064"><ele>650.469238</ele><time>2008-06-01T08:28:03Z</time></trkpt>
<trkpt lat="45.86439349" lon="9.03446157"><ele>648.546387</ele><time>2008-06-01T08:28:05Z</time></trkpt>
<trkpt lat="45.86436432" lon="9.03446359"><ele>647.104492</ele><time>2008-06-01T08:28:08Z</time></trkpt>
<trkpt lat="45.86436323" lon="9.03446157"><ele>646.143311</ele><time>2008-06-01T08:28:09Z</time></trkpt>
<trkpt lat="45.86443137" lon="9.03453609"><ele>644.701172</ele><time>2008-06-01T08:28:13Z</time></trkpt>
<trkpt lat="45.86446264" lon="9.03459996"><ele>644.220703</ele><time>2008-06-01T08:28:15Z</time></trkpt>
<trkpt lat="45.86451737" lon="9.03452176"><ele>640.375488</ele><time>2008-06-01T08:28:21Z</time></trkpt>
<trkpt lat="45.86451184" lon="9.03447993"><ele>640.375488</ele><time>2008-06-01T08:28:22Z</time></trkpt>
<trkpt lat="45.86450765" lon="9.03443534"><ele>639.414063</ele><time>2008-06-01T08:28:24Z</time></trkpt>
<trkpt lat="45.86454478" lon="9.03438957"><ele>637.010742</ele><time>2008-06-01T08:28:28Z</time></trkpt>
<trkpt lat="45.86472642" lon="9.03450994"><ele>634.607422</ele><time>2008-06-01T08:28:35Z</time></trkpt>
<trkpt lat="45.86486195" lon="9.03447255"><ele>633.165283</ele><time>2008-06-01T08:28:39Z</time></trkpt>
<trkpt lat="45.86492859" lon="9.03435739"><ele>631.723389</ele><time>2008-06-01T08:28:41Z</time></trkpt>
<trkpt lat="45.86503269" lon="9.03400258"><ele>626.916992</ele><time>2008-06-01T08:28:44Z</time></trkpt>
<trkpt lat="45.86511693" lon="9.03378054"><ele>622.591064</ele><time>2008-06-01T08:28:46Z</time></trkpt>
<trkpt lat="45.86527987" lon="9.03348542"><ele>618.264893</ele><time>2008-06-01T08:28:49Z</time></trkpt>
<trkpt lat="45.86537459" lon="9.03329649"><ele>615.861816</ele><time>2008-06-01T08:28:51Z</time></trkpt>
<trkpt lat="45.86555623" lon="9.03304252"><ele>612.977783</ele><time>2008-06-01T08:28:54Z</time></trkpt>
<trkpt lat="45.86608303" lon="9.03290229"><ele>610.574463</ele><time>2008-06-01T08:29:01Z</time></trkpt>
<trkpt lat="45.86615285" lon="9.03294596"><ele>610.574463</ele><time>2008-06-01T08:29:02Z</time></trkpt>
<trkpt lat="45.86627288" lon="9.03303875"><ele>609.613281</ele><time>2008-06-01T08:29:04Z</time></trkpt>
<trkpt lat="45.86653012" lon="9.03312072"><ele>605.768066</ele><time>2008-06-01T08:29:08Z</time></trkpt>
<trkpt lat="45.86661033" lon="9.03313589"><ele>605.768066</ele><time>2008-06-01T08:29:09Z</time></trkpt>
<trkpt lat="45.86669968" lon="9.03316280"><ele>603.845215</ele><time>2008-06-01T08:29:10Z</time></trkpt>
<trkpt lat="45.86696313" lon="9.03335013"><ele>601.922607</ele><time>2008-06-01T08:29:14Z</time></trkpt>
<trkpt lat="45.86725666" lon="9.03367468"><ele>599.519287</ele><time>2008-06-01T08:29:19Z</time></trkpt>
<trkpt lat="45.86750158" lon="9.03419830"><ele>595.193359</ele><time>2008-06-01T08:29:27Z</time></trkpt>
<trkpt lat="45.86751315" lon="9.03429176"><ele>595.193359</ele><time>2008-06-01T08:29:28Z</time></trkpt>
<trkpt lat="45.86753419" lon="9.03454280"><ele>594.232178</ele><time>2008-06-01T08:29:30Z</time></trkpt>
<trkpt lat="45.86757383" lon="9.03513464"><ele>592.790283</ele><time>2008-06-01T08:29:38Z</time></trkpt>
<trkpt lat="45.86768447" lon="9.03509919"><ele>595.193359</ele><time>2008-06-01T08:29:42Z</time></trkpt>
<trkpt lat="45.86771616" lon="9.03507144"><ele>595.193359</ele><time>2008-06-01T08:29:44Z</time></trkpt>
<trkpt lat="45.86809024" lon="9.03455042"><ele>599.038574</ele><time>2008-06-01T08:30:01Z</time></trkpt>
<trkpt lat="45.86849836" lon="9.03398749"><ele>599.519287</ele><time>2008-06-01T08:30:16Z</time></trkpt>
<trkpt lat="45.86864848" lon="9.03383503"><ele>599.519287</ele><time>2008-06-01T08:30:21Z</time></trkpt>
<trkpt lat="45.86878535" lon="9.03374886"><ele>598.557861</ele><time>2008-06-01T08:30:24Z</time></trkpt>
<trkpt lat="45.86897705" lon="9.03372464"><ele>595.674072</ele><time>2008-06-01T08:30:27Z</time></trkpt>
<trkpt lat="45.86912029" lon="9.03374802"><ele>594.232178</ele><time>2008-06-01T08:30:29Z</time></trkpt>
<trkpt lat="45.86933110" lon="9.03381986"><ele>591.348145</ele><time>2008-06-01T08:30:32Z</time></trkpt>
<trkpt lat="45.86966093" lon="9.03423870"><ele>588.464355</ele><time>2008-06-01T08:30:39Z</time></trkpt>
<trkpt lat="45.86983904" lon="9.03454296"><ele>587.021973</ele><time>2008-06-01T08:30:45Z</time></trkpt>
<trkpt lat="45.86989705" lon="9.03447507"><ele>586.541504</ele><time>2008-06-01T08:30:49Z</time></trkpt>
<trkpt lat="45.86991766" lon="9.03435378"><ele>587.502686</ele><time>2008-06-01T08:30:52Z</time></trkpt>
<trkpt lat="45.86991289" lon="9.03411725"><ele>588.464355</ele><time>2008-06-01T08:30:56Z</time></trkpt>
<trkpt lat="45.87000878" lon="9.03349129"><ele>590.867432</ele><time>2008-06-01T08:31:08Z</time></trkpt>
<trkpt lat="45.87029485" lon="9.03316825"><ele>590.867432</ele><time>2008-06-01T08:31:16Z</time></trkpt>
<trkpt lat="45.87034925" lon="9.03319482"><ele>590.386963</ele><time>2008-06-01T08:31:17Z</time></trkpt>
<trkpt lat="45.87053038" lon="9.03329875"><ele>589.425537</ele><time>2008-06-01T08:31:20Z</time></trkpt>
<trkpt lat="45.87066860" lon="9.03335483"><ele>588.464355</ele><time>2008-06-01T08:31:22Z</time></trkpt>
<trkpt lat="45.87081176" lon="9.03344636"><ele>586.541504</ele><time>2008-06-01T08:31:24Z</time></trkpt>
<trkpt lat="45.87093942" lon="9.03357435"><ele>585.580078</ele><time>2008-06-01T08:31:26Z</time></trkpt>
<trkpt lat="45.87106850" lon="9.03368784"><ele>584.138184</ele><time>2008-06-01T08:31:28Z</time></trkpt>
<trkpt lat="45.87137503" lon="9.03390317"><ele>581.734863</ele><time>2008-06-01T08:31:32Z</time></trkpt>
<trkpt lat="45.87155398" lon="9.03378826"><ele>581.734863</ele><time>2008-06-01T08:31:37Z</time></trkpt>
<trkpt lat="45.87154526" lon="9.03351073"><ele>580.773682</ele><time>2008-06-01T08:31:40Z</time></trkpt>
<trkpt lat="45.87162707" lon="9.03280984"><ele>576.928467</ele><time>2008-06-01T08:31:46Z</time></trkpt>
<trkpt lat="45.87168876" lon="9.03260699"><ele>575.486328</ele><time>2008-06-01T08:31:48Z</time></trkpt>
<trkpt lat="45.87179789" lon="9.03238697"><ele>575.005859</ele><time>2008-06-01T08:31:52Z</time></trkpt>
<trkpt lat="45.87166185" lon="9.03253416"><ele>575.005859</ele><time>2008-06-01T08:31:57Z</time></trkpt>
<trkpt lat="45.87142297" lon="9.03289835"><ele>572.121826</ele><time>2008-06-01T08:32:02Z</time></trkpt>
<trkpt lat="45.87122189" lon="9.03300187"><ele>571.1604</ele><time>2008-06-01T08:32:05Z</time></trkpt>
<trkpt lat="45.87095593" lon="9.03269014"><ele>570.198975</ele><time>2008-06-01T08:32:10Z</time></trkpt>
<trkpt lat="45.87088192" lon="9.03231489"><ele>568.75708</ele><time>2008-06-01T08:32:14Z</time></trkpt>
<trkpt lat="45.87072434" lon="9.03191624"><ele>563.469971</ele><time>2008-06-01T08:32:18Z</time></trkpt>
<trkpt lat="45.87062485" lon="9.03175883"><ele>561.547363</ele><time>2008-06-01T08:32:20Z</time></trkpt>
<trkpt lat="45.87052275" lon="9.03158222"><ele>556.26001</ele><time>2008-06-01T08:32:24Z</time></trkpt>
<trkpt lat="45.87050783" lon="9.03133026"><ele>552.895264</ele><time>2008-06-01T08:32:28Z</time></trkpt>
<trkpt lat="45.87045612" lon="9.03117780"><ele>550.492188</ele><time>2008-06-01T08:32:30Z</time></trkpt>
<trkpt lat="45.87037942" lon="9.03096439"><ele>546.646851</ele><time>2008-06-01T08:32:33Z</time></trkpt>
<trkpt lat="45.87033198" lon="9.03091905"><ele>546.646851</ele><time>2008-06-01T08:32:34Z</time></trkpt>
<trkpt lat="45.86993527" lon="9.03074554"><ele>543.762817</ele><time>2008-06-01T08:32:41Z</time></trkpt>
<trkpt lat="45.86963452" lon="9.03043826"><ele>543.282104</ele><time>2008-06-01T08:32:48Z</time></trkpt>
<trkpt lat="45.86947787" lon="9.03028378"><ele>539.917603</ele><time>2008-06-01T08:32:52Z</time></trkpt>
<trkpt lat="45.86933278" lon="9.03016174"><ele>537.033691</ele><time>2008-06-01T08:32:57Z</time></trkpt>
<trkpt lat="45.86917955" lon="9.03014699"><ele>534.630371</ele><time>2008-06-01T08:33:01Z</time></trkpt>
<trkpt lat="45.86895299" lon="9.03017147"><ele>535.110962</ele><time>2008-06-01T08:33:07Z</time></trkpt>
<trkpt lat="45.86880849" lon="9.03013140"><ele>532.707764</ele><time>2008-06-01T08:33:11Z</time></trkpt>
<trkpt lat="45.86878443" lon="9.03022075"><ele>531.265747</ele><time>2008-06-01T08:33:14Z</time></trkpt>
<trkpt lat="45.86877907" lon="9.03025269"><ele>530.304443</ele><time>2008-06-01T08:33:15Z</time></trkpt>
<trkpt lat="45.86874420" lon="9.03035134"><ele>526.459106</ele><time>2008-06-01T08:33:19Z</time></trkpt>
<trkpt lat="45.86873146" lon="9.03039568"><ele>524.536499</ele><time>2008-06-01T08:33:24Z</time></trkpt>
<trkpt lat="45.86870187" lon="9.03045293"><ele>521.171997</ele><time>2008-06-01T08:33:32Z</time></trkpt>
<trkpt lat="45.86863523" lon="9.03037917"><ele>516.845947</ele><time>2008-06-01T08:33:42Z</time></trkpt>
<trkpt lat="45.86860824" lon="9.03029082"><ele>516.365234</ele><time>2008-06-01T08:33:50Z</time></trkpt>
<trkpt lat="45.86845444" lon="9.03028244"><ele>515.404053</ele><time>2008-06-01T08:34:00Z</time></trkpt>
<trkpt lat="45.86843398" lon="9.03021832"><ele>518.287842</ele><time>2008-06-01T08:34:06Z</time></trkpt>
<trkpt lat="45.86844446" lon="9.03010885"><ele>519.249268</ele><time>2008-06-01T08:34:13Z</time></trkpt>
<trkpt lat="45.86841487" lon="9.03000953"><ele>520.691284</ele><time>2008-06-01T08:34:23Z</time></trkpt>
<trkpt lat="45.86841705" lon="9.02996519"><ele>520.210571</ele><time>2008-06-01T08:34:25Z</time></trkpt>
<trkpt lat="45.86842099" lon="9.02992822"><ele>518.768555</ele><time>2008-06-01T08:34:27Z</time></trkpt>
<trkpt lat="45.86839920" lon="9.02977777"><ele>517.32666</ele><time>2008-06-01T08:34:31Z</time></trkpt>
<trkpt lat="45.86831345" lon="9.02951726"><ele>514.442627</ele><time>2008-06-01T08:34:37Z</time></trkpt>
<trkpt lat="45.86840297" lon="9.02930478"><ele>513.962036</ele><time>2008-06-01T08:34:43Z</time></trkpt>
<trkpt lat="45.86861855" lon="9.02903220"><ele>512.52002</ele><time>2008-06-01T08:34:48Z</time></trkpt>
<trkpt lat="45.86868418" lon="9.02870748"><ele>512.039429</ele><time>2008-06-01T08:34:52Z</time></trkpt>
<trkpt lat="45.86861076" lon="9.02828369"><ele>509.636108</ele><time>2008-06-01T08:34:57Z</time></trkpt>
<trkpt lat="45.86805370" lon="9.02798739"><ele>505.790894</ele><time>2008-06-01T08:35:07Z</time></trkpt>
<trkpt lat="45.86782814" lon="9.02780492"><ele>507.232788</ele><time>2008-06-01T08:35:12Z</time></trkpt>
<trkpt lat="45.86762806" lon="9.02740066"><ele>510.59729</ele><time>2008-06-01T08:35:23Z</time></trkpt>
<trkpt lat="45.86756662" lon="9.02729672"><ele>506.752075</ele><time>2008-06-01T08:35:29Z</time></trkpt>
<trkpt lat="45.86750016" lon="9.02728532"><ele>505.790894</ele><time>2008-06-01T08:35:31Z</time></trkpt>
<trkpt lat="45.86724023" lon="9.02712255"><ele>503.868164</ele><time>2008-06-01T08:35:35Z</time></trkpt>
<trkpt lat="45.86678962" lon="9.02699137"><ele>503.387451</ele><time>2008-06-01T08:35:41Z</time></trkpt>
<trkpt lat="45.86656474" lon="9.02692515"><ele>505.790894</ele><time>2008-06-01T08:35:49Z</time></trkpt>
<trkpt lat="45.86642845" lon="9.02712825"><ele>505.310181</ele><time>2008-06-01T08:35:55Z</time></trkpt>
<trkpt lat="45.86630414" lon="9.02728918"><ele>504.829468</ele><time>2008-06-01T08:35:59Z</time></trkpt>
<trkpt lat="45.86622083" lon="9.02737007"><ele>505.310181</ele><time>2008-06-01T08:36:01Z</time></trkpt>
<trkpt lat="45.86599133" lon="9.02718432"><ele>506.752075</ele><time>2008-06-01T08:36:08Z</time></trkpt>
<trkpt lat="45.86591782" lon="9.02671309"><ele>507.713501</ele><time>2008-06-01T08:36:18Z</time></trkpt>
<trkpt lat="45.86564256" lon="9.02655224"><ele>506.271484</ele><time>2008-06-01T08:36:25Z</time></trkpt>
<trkpt lat="45.86548054" lon="9.02668250"><ele>505.790894</ele><time>2008-06-01T08:36:29Z</time></trkpt>
<trkpt lat="45.86514115" lon="9.02697318"><ele>503.868164</ele><time>2008-06-01T08:36:36Z</time></trkpt>
<trkpt lat="45.86473404" lon="9.02676472"><ele>500.022949</ele><time>2008-06-01T08:36:45Z</time></trkpt>
<trkpt lat="45.86479397" lon="9.02649592"><ele>499.542236</ele><time>2008-06-01T08:36:48Z</time></trkpt>
<trkpt lat="45.86477729" lon="9.02631135"><ele>499.542236</ele><time>2008-06-01T08:36:50Z</time></trkpt>
<trkpt lat="45.86478207" lon="9.02600390"><ele>500.50354</ele><time>2008-06-01T08:36:54Z</time></trkpt>
<trkpt lat="45.86477042" lon="9.02585554"><ele>501.464844</ele><time>2008-06-01T08:36:56Z</time></trkpt>
<trkpt lat="45.86473237" lon="9.02571263"><ele>501.464844</ele><time>2008-06-01T08:36:58Z</time></trkpt>
<trkpt lat="45.86442517" lon="9.02560894"><ele>501.464844</ele><time>2008-06-01T08:37:04Z</time></trkpt>
<trkpt lat="45.86420850" lon="9.02557659"><ele>501.464844</ele><time>2008-06-01T08:37:08Z</time></trkpt>
<trkpt lat="45.86415838" lon="9.02520225"><ele>502.906738</ele><time>2008-06-01T08:37:16Z</time></trkpt>
<trkpt lat="45.86421344" lon="9.02501316"><ele>503.387451</ele><time>2008-06-01T08:37:20Z</time></trkpt>
<trkpt lat="45.86433976" lon="9.02452583"><ele>504.829468</ele><time>2008-06-01T08:37:31Z</time></trkpt>
<trkpt lat="45.86422007" lon="9.02411336"><ele>504.829468</ele><time>2008-06-01T08:37:39Z</time></trkpt>
<trkpt lat="45.86419274" lon="9.02401898"><ele>505.310181</ele><time>2008-06-01T08:37:41Z</time></trkpt>
<trkpt lat="45.86394279" lon="9.02384514"><ele>504.348877</ele><time>2008-06-01T08:37:51Z</time></trkpt>
<trkpt lat="45.86391496" lon="9.02384950"><ele>504.348877</ele><time>2008-06-01T08:37:52Z</time></trkpt>
<trkpt lat="45.86362923" lon="9.02357139"><ele>503.387451</ele><time>2008-06-01T08:38:01Z</time></trkpt>
<trkpt lat="45.86351892" lon="9.02327400"><ele>504.348877</ele><time>2008-06-01T08:38:10Z</time></trkpt>
<trkpt lat="45.86351112" lon="9.02282707"><ele>504.829468</ele><time>2008-06-01T08:38:19Z</time></trkpt>
<trkpt lat="45.86347357" lon="9.02269213"><ele>504.829468</ele><time>2008-06-01T08:38:22Z</time></trkpt>
<trkpt lat="45.86324693" lon="9.02261619"><ele>504.829468</ele><time>2008-06-01T08:38:28Z</time></trkpt>
<trkpt lat="45.86315707" lon="9.02257696"><ele>504.829468</ele><time>2008-06-01T08:38:30Z</time></trkpt>
<trkpt lat="45.86270403" lon="9.02242768"><ele>503.387451</ele><time>2008-06-01T08:38:39Z</time></trkpt>
<trkpt lat="45.86245584" lon="9.02201319"><ele>498.580933</ele><time>2008-06-01T08:38:44Z</time></trkpt>
<trkpt lat="45.86236867" lon="9.02157524"><ele>495.696899</ele><time>2008-06-01T08:38:48Z</time></trkpt>
<trkpt lat="45.86233598" lon="9.02125455"><ele>492.332397</ele><time>2008-06-01T08:38:51Z</time></trkpt>
<trkpt lat="45.86235115" lon="9.02113762"><ele>490.890381</ele><time>2008-06-01T08:38:52Z</time></trkpt>
<trkpt lat="45.86220028" lon="9.02068525"><ele>486.08374</ele><time>2008-06-01T08:38:57Z</time></trkpt>
<trkpt lat="45.86208729" lon="9.02060252"><ele>484.641846</ele><time>2008-06-01T08:39:00Z</time></trkpt>
<trkpt lat="45.86199827" lon="9.02051333"><ele>483.199829</ele><time>2008-06-01T08:39:02Z</time></trkpt>
<trkpt lat="45.86172603" lon="9.02024805"><ele>479.354492</ele><time>2008-06-01T08:39:10Z</time></trkpt>
<trkpt lat="45.86167356" lon="9.02020086"><ele>478.873901</ele><time>2008-06-01T08:39:11Z</time></trkpt>
<trkpt lat="45.86144758" lon="9.02008619"><ele>475.989868</ele><time>2008-06-01T08:39:14Z</time></trkpt>
<trkpt lat="45.86131138" lon="9.02015476"><ele>474.547974</ele><time>2008-06-01T08:39:16Z</time></trkpt>
<trkpt lat="45.86112815" lon="9.02032055"><ele>473.106079</ele><time>2008-06-01T08:39:19Z</time></trkpt>
<trkpt lat="45.86109806" lon="9.02008728"><ele>471.66394</ele><time>2008-06-01T08:39:23Z</time></trkpt>
<trkpt lat="45.86112899" lon="9.02000656"><ele>471.66394</ele><time>2008-06-01T08:39:24Z</time></trkpt>
<trkpt lat="45.86117769" lon="9.01971638"><ele>471.66394</ele><time>2008-06-01T08:39:27Z</time></trkpt>
<trkpt lat="45.86119202" lon="9.01948663"><ele>469.741333</ele><time>2008-06-01T08:39:29Z</time></trkpt>
<trkpt lat="45.86147508" lon="9.01899168"><ele>467.818726</ele><time>2008-06-01T08:39:34Z</time></trkpt>
<trkpt lat="45.86164850" lon="9.01885372"><ele>467.818726</ele><time>2008-06-01T08:39:36Z</time></trkpt>
<trkpt lat="45.86182586" lon="9.01876596"><ele>463.492798</ele><time>2008-06-01T08:39:38Z</time></trkpt>
<trkpt lat="45.86201227" lon="9.01879219"><ele>460.128174</ele><time>2008-06-01T08:39:40Z</time></trkpt>
<trkpt lat="45.86219014" lon="9.01885355"><ele>459.16687</ele><time>2008-06-01T08:39:42Z</time></trkpt>
<trkpt lat="45.86226792" lon="9.01889303"><ele>458.686157</ele><time>2008-06-01T08:39:43Z</time></trkpt>
<trkpt lat="45.86247043" lon="9.01871977"><ele>457.724976</ele><time>2008-06-01T08:39:48Z</time></trkpt>
<trkpt lat="45.86280193" lon="9.01756835"><ele>456.76355</ele><time>2008-06-01T08:40:00Z</time></trkpt>
<trkpt lat="45.86267226" lon="9.01673519"><ele>457.244263</ele><time>2008-06-01T08:40:08Z</time></trkpt>
<trkpt lat="45.86259892" lon="9.01646546"><ele>457.724976</ele><time>2008-06-01T08:40:11Z</time></trkpt>
<trkpt lat="45.86239608" lon="9.01613027"><ele>458.205566</ele><time>2008-06-01T08:40:16Z</time></trkpt>
<trkpt lat="45.86225627" lon="9.01597009"><ele>458.686157</ele><time>2008-06-01T08:40:19Z</time></trkpt>
<trkpt lat="45.86210883" lon="9.01573095"><ele>459.647583</ele><time>2008-06-01T08:40:23Z</time></trkpt>
<trkpt lat="45.86186785" lon="9.01544798"><ele>461.089478</ele><time>2008-06-01T08:40:29Z</time></trkpt>
<trkpt lat="45.86174816" lon="9.01522310"><ele>462.050781</ele><time>2008-06-01T08:40:33Z</time></trkpt>
<trkpt lat="45.86164188" lon="9.01492654"><ele>462.531372</ele><time>2008-06-01T08:40:38Z</time></trkpt>
<trkpt lat="45.86145655" lon="9.01463955"><ele>463.012085</ele><time>2008-06-01T08:40:44Z</time></trkpt>
<trkpt lat="45.86132144" lon="9.01437837"><ele>463.973389</ele><time>2008-06-01T08:40:49Z</time></trkpt>
<trkpt lat="45.86130308" lon="9.01377772"><ele>465.896118</ele><time>2008-06-01T08:40:59Z</time></trkpt>
<trkpt lat="45.86162687" lon="9.01254290"><ele>468.780029</ele><time>2008-06-01T08:41:20Z</time></trkpt>
<trkpt lat="45.86174439" lon="9.01160656"><ele>469.741333</ele><time>2008-06-01T08:41:33Z</time></trkpt>
<trkpt lat="45.86169887" lon="9.01144059"><ele>470.221924</ele><time>2008-06-01T08:41:37Z</time></trkpt>
<trkpt lat="45.86167088" lon="9.01115234"><ele>469.741333</ele><time>2008-06-01T08:41:43Z</time></trkpt>
<trkpt lat="45.86169183" lon="9.01111554"><ele>468.780029</ele><time>2008-06-01T08:41:54Z</time></trkpt>
<trkpt lat="45.86167959" lon="9.01113809"><ele>467.338135</ele><time>2008-06-01T08:42:12Z</time></trkpt>
<trkpt lat="45.86159695" lon="9.01084095"><ele>467.818726</ele><time>2008-06-01T08:42:22Z</time></trkpt>
<trkpt lat="45.86144658" lon="9.01088714"><ele>465.896118</ele><time>2008-06-01T08:42:30Z</time></trkpt>
<trkpt lat="45.86142386" lon="9.01082519"><ele>465.896118</ele><time>2008-06-01T08:42:32Z</time></trkpt>
<trkpt lat="45.86136050" lon="9.01057994"><ele>465.415527</ele><time>2008-06-01T08:42:37Z</time></trkpt>
<trkpt lat="45.86135278" lon="9.01033812"><ele>465.415527</ele><time>2008-06-01T08:42:41Z</time></trkpt>
<trkpt lat="45.86163140" lon="9.00943958"><ele>463.973389</ele><time>2008-06-01T08:42:54Z</time></trkpt>
<trkpt lat="45.86186098" lon="9.00949054"><ele>464.934814</ele><time>2008-06-01T08:42:59Z</time></trkpt>
<trkpt lat="45.86195888" lon="9.00966589"><ele>467.338135</ele><time>2008-06-01T08:43:05Z</time></trkpt>
<trkpt lat="45.86203247" lon="9.00973530"><ele>468.780029</ele><time>2008-06-01T08:43:09Z</time></trkpt>
<trkpt lat="45.86207245" lon="9.00987737"><ele>470.221924</ele><time>2008-06-01T08:43:14Z</time></trkpt>
<trkpt lat="45.86209182" lon="9.01020627"><ele>473.58667</ele><time>2008-06-01T08:43:25Z</time></trkpt>
<trkpt lat="45.86209458" lon="9.01023427"><ele>474.067261</ele><time>2008-06-01T08:43:26Z</time></trkpt>
<trkpt lat="45.86217346" lon="9.01065948"><ele>476.951294</ele><time>2008-06-01T08:43:42Z</time></trkpt>
<trkpt lat="45.86233347" lon="9.01103055"><ele>480.315918</ele><time>2008-06-01T08:43:59Z</time></trkpt>
<trkpt lat="45.86250245" lon="9.01126659"><ele>483.68042</ele><time>2008-06-01T08:44:12Z</time></trkpt>
<trkpt lat="45.86273018" lon="9.01156842"><ele>487.045044</ele><time>2008-06-01T08:44:29Z</time></trkpt>
<trkpt lat="45.86290302" lon="9.01180110"><ele>489.929077</ele><time>2008-06-01T08:44:42Z</time></trkpt>
<trkpt lat="45.86313277" lon="9.01210276"><ele>492.812988</ele><time>2008-06-01T08:44:58Z</time></trkpt>
<trkpt lat="45.86319152" lon="9.01217896"><ele>493.774292</ele><time>2008-06-01T08:45:02Z</time></trkpt>
<trkpt lat="45.86351255" lon="9.01222330"><ele>496.177734</ele><time>2008-06-01T08:45:20Z</time></trkpt>
<trkpt lat="45.86369108" lon="9.01224308"><ele>499.542236</ele><time>2008-06-01T08:45:31Z</time></trkpt>
<trkpt lat="45.86384925" lon="9.01215247"><ele>501.945557</ele><time>2008-06-01T08:45:42Z</time></trkpt>
<trkpt lat="45.86397674" lon="9.01204267"><ele>504.829468</ele><time>2008-06-01T08:45:53Z</time></trkpt>
<trkpt lat="45.86408093" lon="9.01199162"><ele>506.752075</ele><time>2008-06-01T08:46:02Z</time></trkpt>
<trkpt lat="45.86411764" lon="9.01200905"><ele>507.232788</ele><time>2008-06-01T08:46:06Z</time></trkpt>
<trkpt lat="45.86418084" lon="9.01197880"><ele>509.155396</ele><time>2008-06-01T08:46:12Z</time></trkpt>
<trkpt lat="45.86428712" lon="9.01187972"><ele>510.116699</ele><time>2008-06-01T08:46:19Z</time></trkpt>
<trkpt lat="45.86433180" lon="9.01185097"><ele>511.078003</ele><time>2008-06-01T08:46:22Z</time></trkpt>
<trkpt lat="45.86435074" lon="9.01153363"><ele>512.52002</ele><time>2008-06-01T08:46:34Z</time></trkpt>
<trkpt lat="45.86438896" lon="9.01115318"><ele>514.442627</ele><time>2008-06-01T08:46:46Z</time></trkpt>
<trkpt lat="45.86444168" lon="9.01114035"><ele>515.404053</ele><time>2008-06-01T08:46:50Z</time></trkpt>
<trkpt lat="45.86468434" lon="9.01140262"><ele>517.807251</ele><time>2008-06-01T08:47:08Z</time></trkpt>
<trkpt lat="45.86489456" lon="9.01156892"><ele>521.171997</ele><time>2008-06-01T08:47:24Z</time></trkpt>
<trkpt lat="45.86515632" lon="9.01165006"><ele>522.613892</ele><time>2008-06-01T08:47:40Z</time></trkpt>
<trkpt lat="45.86520854" lon="9.01157144"><ele>524.055786</ele><time>2008-06-01T08:47:45Z</time></trkpt>
<trkpt lat="45.86534106" lon="9.01133733"><ele>527.901001</ele><time>2008-06-01T08:48:00Z</time></trkpt>
<trkpt lat="45.86548766" lon="9.01140866"><ele>531.265747</ele><time>2008-06-01T08:48:13Z</time></trkpt>
<trkpt lat="45.86566737" lon="9.01143045"><ele>534.149658</ele><time>2008-06-01T08:48:32Z</time></trkpt>
<trkpt lat="45.86568447" lon="9.01131872"><ele>537.514282</ele><time>2008-06-01T08:48:41Z</time></trkpt>
<trkpt lat="45.86574398" lon="9.01121177"><ele>539.917603</ele><time>2008-06-01T08:48:50Z</time></trkpt>
<trkpt lat="45.86593232" lon="9.01117967"><ele>541.359497</ele><time>2008-06-01T08:49:07Z</time></trkpt>
<trkpt lat="45.86613843" lon="9.01102762"><ele>544.724243</ele><time>2008-06-01T08:49:25Z</time></trkpt>
<trkpt lat="45.86615939" lon="9.01100574"><ele>545.685547</ele><time>2008-06-01T08:49:27Z</time></trkpt>
<trkpt lat="45.86626609" lon="9.01087783"><ele>548.569336</ele><time>2008-06-01T08:49:41Z</time></trkpt>
<trkpt lat="45.86631143" lon="9.01080022"><ele>549.530762</ele><time>2008-06-01T08:49:51Z</time></trkpt>
<trkpt lat="45.86637254" lon="9.01080868"><ele>550.492188</ele><time>2008-06-01T08:49:57Z</time></trkpt>
<trkpt lat="45.86654445" lon="9.01093240"><ele>553.856689</ele><time>2008-06-01T08:50:13Z</time></trkpt>
<trkpt lat="45.86667865" lon="9.01107824"><ele>557.221436</ele><time>2008-06-01T08:50:29Z</time></trkpt>
<trkpt lat="45.86668602" lon="9.01123172"><ele>559.144043</ele><time>2008-06-01T08:50:44Z</time></trkpt>
<trkpt lat="45.86679599" lon="9.01133934"><ele>562.028076</ele><time>2008-06-01T08:50:58Z</time></trkpt>
<trkpt lat="45.86692876" lon="9.01151662"><ele>564.911865</ele><time>2008-06-01T08:51:11Z</time></trkpt>
<trkpt lat="45.86706002" lon="9.01177838"><ele>567.795654</ele><time>2008-06-01T08:51:28Z</time></trkpt>
<trkpt lat="45.86720989" lon="9.01201626"><ele>571.1604</ele><time>2008-06-01T08:51:47Z</time></trkpt>
<trkpt lat="45.86737183" lon="9.01209723"><ele>573.563965</ele><time>2008-06-01T08:52:05Z</time></trkpt>
<trkpt lat="45.86746797" lon="9.01212330"><ele>575.967041</ele><time>2008-06-01T08:52:15Z</time></trkpt>
<trkpt lat="45.86760200" lon="9.01210863"><ele>579.812256</ele><time>2008-06-01T08:52:31Z</time></trkpt>
<trkpt lat="45.86766226" lon="9.01207846"><ele>581.254395</ele><time>2008-06-01T08:52:38Z</time></trkpt>
<trkpt lat="45.86779864" lon="9.01195105"><ele>583.657471</ele><time>2008-06-01T08:52:53Z</time></trkpt>
<trkpt lat="45.86793124" lon="9.01182708"><ele>585.580078</ele><time>2008-06-01T08:53:09Z</time></trkpt>
<trkpt lat="45.86806769" lon="9.01172466"><ele>588.945068</ele><time>2008-06-01T08:53:24Z</time></trkpt>
<trkpt lat="45.86814590" lon="9.01162709"><ele>591.828857</ele><time>2008-06-01T08:53:38Z</time></trkpt>
<trkpt lat="45.86829987" lon="9.01150463"><ele>593.270752</ele><time>2008-06-01T08:53:54Z</time></trkpt>
<trkpt lat="45.86848084" lon="9.01131554"><ele>596.635498</ele><time>2008-06-01T08:54:13Z</time></trkpt>
<trkpt lat="45.86856290" lon="9.01120758"><ele>598.557861</ele><time>2008-06-01T08:54:23Z</time></trkpt>
<trkpt lat="45.86867077" lon="9.01102955"><ele>600.961182</ele><time>2008-06-01T08:54:39Z</time></trkpt>
<trkpt lat="45.86880346" lon="9.01086367"><ele>603.845215</ele><time>2008-06-01T08:54:57Z</time></trkpt>
<trkpt lat="45.86890765" lon="9.01073257"><ele>607.209961</ele><time>2008-06-01T08:55:13Z</time></trkpt>
<trkpt lat="45.86898979" lon="9.01059679"><ele>609.613281</ele><time>2008-06-01T08:55:26Z</time></trkpt>
<trkpt lat="45.86903128" lon="9.01053694"><ele>609.132568</ele><time>2008-06-01T08:55:40Z</time></trkpt>
<trkpt lat="45.86904930" lon="9.01049243"><ele>610.09375</ele><time>2008-06-01T08:55:58Z</time></trkpt>
<trkpt lat="45.86911099" lon="9.01040057"><ele>611.055176</ele><time>2008-06-01T08:56:07Z</time></trkpt>
<trkpt lat="45.86919808" lon="9.01018607"><ele>614.419678</ele><time>2008-06-01T08:56:24Z</time></trkpt>
<trkpt lat="45.86926228" lon="9.00995339"><ele>617.303711</ele><time>2008-06-01T08:56:40Z</time></trkpt>
<trkpt lat="45.86931325" lon="9.00982699"><ele>618.745605</ele><time>2008-06-01T08:56:48Z</time></trkpt>
<trkpt lat="45.86933479" lon="9.00974058"><ele>618.745605</ele><time>2008-06-01T08:57:02Z</time></trkpt>
<trkpt lat="45.86939623" lon="9.00948820"><ele>622.110352</ele><time>2008-06-01T08:57:19Z</time></trkpt>
<trkpt lat="45.86942757" lon="9.00928452"><ele>625.955566</ele><time>2008-06-01T08:57:32Z</time></trkpt>
<trkpt lat="45.86943017" lon="9.00923699"><ele>625.955566</ele><time>2008-06-01T08:57:35Z</time></trkpt>
<trkpt lat="45.86948122" lon="9.00910338"><ele>627.878174</ele><time>2008-06-01T08:57:43Z</time></trkpt>
<trkpt lat="45.86958985" lon="9.00893549"><ele>631.24292</ele><time>2008-06-01T08:57:58Z</time></trkpt>
<trkpt lat="45.86969362" lon="9.00871933"><ele>631.723389</ele><time>2008-06-01T08:58:14Z</time></trkpt>
<trkpt lat="45.86970778" lon="9.00869292"><ele>632.204102</ele><time>2008-06-01T08:58:16Z</time></trkpt>
<trkpt lat="45.86981348" lon="9.00852663"><ele>635.568604</ele><time>2008-06-01T08:58:28Z</time></trkpt>
<trkpt lat="45.86984776" lon="9.00844708"><ele>636.049561</ele><time>2008-06-01T08:58:34Z</time></trkpt>
<trkpt lat="45.86992538" lon="9.00830207"><ele>638.452881</ele><time>2008-06-01T08:58:45Z</time></trkpt>
<trkpt lat="45.87001372" lon="9.00811558"><ele>640.855957</ele><time>2008-06-01T08:58:59Z</time></trkpt>
<trkpt lat="45.87003895" lon="9.00797627"><ele>643.73999</ele><time>2008-06-01T08:59:11Z</time></trkpt>
<trkpt lat="45.87013886" lon="9.00778902"><ele>646.624023</ele><time>2008-06-01T08:59:23Z</time></trkpt>
<trkpt lat="45.87019217" lon="9.00767243"><ele>648.546387</ele><time>2008-06-01T08:59:31Z</time></trkpt>
<trkpt lat="45.87026685" lon="9.00748610"><ele>650.469238</ele><time>2008-06-01T08:59:45Z</time></trkpt>
<trkpt lat="45.87030617" lon="9.00744360"><ele>651.43042</ele><time>2008-06-01T08:59:49Z</time></trkpt>
<trkpt lat="45.87039904" lon="9.00722994"><ele>653.833984</ele><time>2008-06-01T09:00:05Z</time></trkpt>
<trkpt lat="45.87058470" lon="9.00705879"><ele>654.795166</ele><time>2008-06-01T09:00:20Z</time></trkpt>
<trkpt lat="45.87061814" lon="9.00703339"><ele>654.795166</ele><time>2008-06-01T09:00:23Z</time></trkpt>
<trkpt lat="45.87077639" lon="9.00684304"><ele>656.717773</ele><time>2008-06-01T09:00:36Z</time></trkpt>
<trkpt lat="45.87090648" lon="9.00673533"><ele>659.601807</ele><time>2008-06-01T09:00:49Z</time></trkpt>
<trkpt lat="45.87098342" lon="9.00668738"><ele>662.005127</ele><time>2008-06-01T09:00:57Z</time></trkpt>
<trkpt lat="45.87119004" lon="9.00656786"><ele>663.92749</ele><time>2008-06-01T09:01:15Z</time></trkpt>
<trkpt lat="45.87123672" lon="9.00651405"><ele>665.369629</ele><time>2008-06-01T09:01:22Z</time></trkpt>
<trkpt lat="45.87137838" lon="9.00644029"><ele>668.734375</ele><time>2008-06-01T09:01:36Z</time></trkpt>
<trkpt lat="45.87152372" lon="9.00633954"><ele>671.618164</ele><time>2008-06-01T09:01:50Z</time></trkpt>
<trkpt lat="45.87153110" lon="9.00632797"><ele>671.137695</ele><time>2008-06-01T09:01:51Z</time></trkpt>
<trkpt lat="45.87163537" lon="9.00611297"><ele>674.021484</ele><time>2008-06-01T09:02:07Z</time></trkpt>
<trkpt lat="45.87169077" lon="9.00616737"><ele>675.463379</ele><time>2008-06-01T09:02:13Z</time></trkpt>
<trkpt lat="45.87170368" lon="9.00637709"><ele>677.38623</ele><time>2008-06-01T09:02:30Z</time></trkpt>
<trkpt lat="45.87168532" lon="9.00640592"><ele>677.866699</ele><time>2008-06-01T09:02:33Z</time></trkpt>
<trkpt lat="45.87156354" lon="9.00657984"><ele>680.750732</ele><time>2008-06-01T09:02:49Z</time></trkpt>
<trkpt lat="45.87149640" lon="9.00673575"><ele>682.67334</ele><time>2008-06-01T09:03:02Z</time></trkpt>
<trkpt lat="45.87149187" lon="9.00687313"><ele>685.076904</ele><time>2008-06-01T09:03:12Z</time></trkpt>
<trkpt lat="45.87163872" lon="9.00683616"><ele>686.518799</ele><time>2008-06-01T09:03:26Z</time></trkpt>
<trkpt lat="45.87167510" lon="9.00683256"><ele>686.518799</ele><time>2008-06-01T09:03:29Z</time></trkpt>
<trkpt lat="45.87175515" lon="9.00681227"><ele>687.960693</ele><time>2008-06-01T09:03:35Z</time></trkpt>
<trkpt lat="45.87177996" lon="9.00680498"><ele>686.999268</ele><time>2008-06-01T09:03:37Z</time></trkpt>
<trkpt lat="45.87197023" lon="9.00680314"><ele>688.441406</ele><time>2008-06-01T09:03:51Z</time></trkpt>
<trkpt lat="45.87203183" lon="9.00681965"><ele>688.441406</ele><time>2008-06-01T09:03:57Z</time></trkpt>
<trkpt lat="45.87215396" lon="9.00674203"><ele>689.402588</ele><time>2008-06-01T09:04:07Z</time></trkpt>
<trkpt lat="45.87226099" lon="9.00660298"><ele>692.767334</ele><time>2008-06-01T09:04:18Z</time></trkpt>
<trkpt lat="45.87229762" lon="9.00647733"><ele>694.689697</ele><time>2008-06-01T09:04:31Z</time></trkpt>
<trkpt lat="45.87230274" lon="9.00640944"><ele>695.651123</ele><time>2008-06-01T09:04:36Z</time></trkpt>
<trkpt lat="45.87235462" lon="9.00616444"><ele>698.054443</ele><time>2008-06-01T09:04:52Z</time></trkpt>
<trkpt lat="45.87241648" lon="9.00590057"><ele>700.938477</ele><time>2008-06-01T09:05:07Z</time></trkpt>
<trkpt lat="45.87241807" lon="9.00588666"><ele>700.938477</ele><time>2008-06-01T09:05:08Z</time></trkpt>
<trkpt lat="45.87241019" lon="9.00568315"><ele>704.303223</ele><time>2008-06-01T09:05:22Z</time></trkpt>
<trkpt lat="45.87239846" lon="9.00565180"><ele>704.783691</ele><time>2008-06-01T09:05:25Z</time></trkpt>
<trkpt lat="45.87233526" lon="9.00546798"><ele>707.667725</ele><time>2008-06-01T09:05:42Z</time></trkpt>
<trkpt lat="45.87242704" lon="9.00519767"><ele>710.070801</ele><time>2008-06-01T09:05:58Z</time></trkpt>
<trkpt lat="45.87248647" lon="9.00495837"><ele>713.435547</ele><time>2008-06-01T09:06:13Z</time></trkpt>
<trkpt lat="45.87249585" lon="9.00487295"><ele>714.877441</ele><time>2008-06-01T09:06:19Z</time></trkpt>
<trkpt lat="45.87248806" lon="9.00479777"><ele>715.358154</ele><time>2008-06-01T09:06:24Z</time></trkpt>
<trkpt lat="45.87245638" lon="9.00457984"><ele>718.7229</ele><time>2008-06-01T09:06:39Z</time></trkpt>
<trkpt lat="45.87243475" lon="9.00453458"><ele>720.645508</ele><time>2008-06-01T09:06:43Z</time></trkpt>
<trkpt lat="45.87237817" lon="9.00432712"><ele>721.606689</ele><time>2008-06-01T09:06:58Z</time></trkpt>
<trkpt lat="45.87240726" lon="9.00411196"><ele>723.529541</ele><time>2008-06-01T09:07:11Z</time></trkpt>
<trkpt lat="45.87237985" lon="9.00401859"><ele>724.971436</ele><time>2008-06-01T09:07:18Z</time></trkpt>
<trkpt lat="45.87231447" lon="9.00382505"><ele>728.335938</ele><time>2008-06-01T09:07:34Z</time></trkpt>
<trkpt lat="45.87228547" lon="9.00356487"><ele>731.219971</ele><time>2008-06-01T09:07:50Z</time></trkpt>
<trkpt lat="45.87231682" lon="9.00329724"><ele>734.104004</ele><time>2008-06-01T09:08:06Z</time></trkpt>
<trkpt lat="45.87233325" lon="9.00325508"><ele>734.584717</ele><time>2008-06-01T09:08:08Z</time></trkpt>
<trkpt lat="45.87236417" lon="9.00317838"><ele>734.584717</ele><time>2008-06-01T09:08:12Z</time></trkpt>
<trkpt lat="45.87238186" lon="9.00315684"><ele>735.06543</ele><time>2008-06-01T09:08:14Z</time></trkpt>
<trkpt lat="45.87251698" lon="9.00328207"><ele>738.429932</ele><time>2008-06-01T09:08:31Z</time></trkpt>
<trkpt lat="45.87264564" lon="9.00338835"><ele>740.833008</ele><time>2008-06-01T09:08:47Z</time></trkpt>
<trkpt lat="45.87269736" lon="9.00345859"><ele>741.794434</ele><time>2008-06-01T09:08:54Z</time></trkpt>
<trkpt lat="45.87276240" lon="9.00356303"><ele>742.755859</ele><time>2008-06-01T09:09:03Z</time></trkpt>
<trkpt lat="45.87287975" lon="9.00374626"><ele>746.120361</ele><time>2008-06-01T09:09:20Z</time></trkpt>
<trkpt lat="45.87300145" lon="9.00395949"><ele>748.523682</ele><time>2008-06-01T09:09:35Z</time></trkpt>
<trkpt lat="45.87307697" lon="9.00408380"><ele>750.927002</ele><time>2008-06-01T09:09:47Z</time></trkpt>
<trkpt lat="45.87316155" lon="9.00416862"><ele>752.368896</ele><time>2008-06-01T09:09:56Z</time></trkpt>
<trkpt lat="45.87323388" lon="9.00434054"><ele>754.291748</ele><time>2008-06-01T09:10:11Z</time></trkpt>
<trkpt lat="45.87336455" lon="9.00451278"><ele>756.694824</ele><time>2008-06-01T09:10:26Z</time></trkpt>
<trkpt lat="45.87346086" lon="9.00469350"><ele>758.617432</ele><time>2008-06-01T09:10:41Z</time></trkpt>
<trkpt lat="45.87356069" lon="9.00482987"><ele>761.501465</ele><time>2008-06-01T09:10:54Z</time></trkpt>
<trkpt lat="45.87359263" lon="9.00490715"><ele>762.462646</ele><time>2008-06-01T09:10:59Z</time></trkpt>
<trkpt lat="45.87372146" lon="9.00504436"><ele>765.346924</ele><time>2008-06-01T09:11:13Z</time></trkpt>
<trkpt lat="45.87374342" lon="9.00509415"><ele>766.308105</ele><time>2008-06-01T09:11:17Z</time></trkpt>
<trkpt lat="45.87382916" lon="9.00532709"><ele>769.192139</ele><time>2008-06-01T09:11:33Z</time></trkpt>
<trkpt lat="45.87383998" lon="9.00549799"><ele>771.595215</ele><time>2008-06-01T09:11:46Z</time></trkpt>
<trkpt lat="45.87386504" lon="9.00570653"><ele>773.998535</ele><time>2008-06-01T09:12:01Z</time></trkpt>
<trkpt lat="45.87388717" lon="9.00594039"><ele>775.921143</ele><time>2008-06-01T09:12:17Z</time></trkpt>
<trkpt lat="45.87389580" lon="9.00610669"><ele>778.805176</ele><time>2008-06-01T09:12:28Z</time></trkpt>
<trkpt lat="45.87391265" lon="9.00634683"><ele>780.728027</ele><time>2008-06-01T09:12:42Z</time></trkpt>
<trkpt lat="45.87392572" lon="9.00658278"><ele>783.131104</ele><time>2008-06-01T09:12:57Z</time></trkpt>
<trkpt lat="45.87392488" lon="9.00680993"><ele>786.015137</ele><time>2008-06-01T09:13:12Z</time></trkpt>
<trkpt lat="45.87393352" lon="9.00702283"><ele>788.418457</ele><time>2008-06-01T09:13:24Z</time></trkpt>
<trkpt lat="45.87391826" lon="9.00714177"><ele>789.379639</ele><time>2008-06-01T09:13:35Z</time></trkpt>
<trkpt lat="45.87392983" lon="9.00730656"><ele>790.821533</ele><time>2008-06-01T09:13:46Z</time></trkpt>
<trkpt lat="45.87392589" lon="9.00737906"><ele>791.302246</ele><time>2008-06-01T09:13:52Z</time></trkpt>
<trkpt lat="45.87391432" lon="9.00754678"><ele>793.705566</ele><time>2008-06-01T09:14:07Z</time></trkpt>
<trkpt lat="45.87391868" lon="9.00772733"><ele>795.628174</ele><time>2008-06-01T09:14:21Z</time></trkpt>
<trkpt lat="45.87391935" lon="9.00790586"><ele>797.070313</ele><time>2008-06-01T09:14:34Z</time></trkpt>
<trkpt lat="45.87388918" lon="9.00803754"><ele>799.473633</ele><time>2008-06-01T09:14:46Z</time></trkpt>
<trkpt lat="45.87387275" lon="9.00807509"><ele>799.954346</ele><time>2008-06-01T09:14:50Z</time></trkpt>
<trkpt lat="45.87381885" lon="9.00816972"><ele>801.39624</ele><time>2008-06-01T09:15:01Z</time></trkpt>
<trkpt lat="45.87377468" lon="9.00831440"><ele>802.838135</ele><time>2008-06-01T09:15:15Z</time></trkpt>
<trkpt lat="45.87369279" lon="9.00845144"><ele>804.280273</ele><time>2008-06-01T09:15:49Z</time></trkpt>
<trkpt lat="45.87375876" lon="9.00841976"><ele>804.760742</ele><time>2008-06-01T09:16:11Z</time></trkpt>
<trkpt lat="45.87379932" lon="9.00835019"><ele>806.202637</ele><time>2008-06-01T09:16:19Z</time></trkpt>
<trkpt lat="45.87387635" lon="9.00829436"><ele>807.644775</ele><time>2008-06-01T09:16:25Z</time></trkpt>
<trkpt lat="45.87398289" lon="9.00811725"><ele>810.047852</ele><time>2008-06-01T09:16:41Z</time></trkpt>
<trkpt lat="45.87405422" lon="9.00793746"><ele>812.932129</ele><time>2008-06-01T09:16:55Z</time></trkpt>
<trkpt lat="45.87414826" lon="9.00780478"><ele>814.374023</ele><time>2008-06-01T09:17:07Z</time></trkpt>
<trkpt lat="45.87424222" lon="9.00765298"><ele>816.777344</ele><time>2008-06-01T09:17:22Z</time></trkpt>
<trkpt lat="45.87432973" lon="9.00748819"><ele>819.180664</ele><time>2008-06-01T09:17:37Z</time></trkpt>
<trkpt lat="45.87443375" lon="9.00729348"><ele>822.064453</ele><time>2008-06-01T09:17:53Z</time></trkpt>
<trkpt lat="45.87449284" lon="9.00714202"><ele>822.545166</ele><time>2008-06-01T09:18:06Z</time></trkpt>
<trkpt lat="45.87455286" lon="9.00698377"><ele>825.909668</ele><time>2008-06-01T09:18:19Z</time></trkpt>
<trkpt lat="45.87460893" lon="9.00683122"><ele>827.351807</ele><time>2008-06-01T09:18:32Z</time></trkpt>
<trkpt lat="45.87463777" lon="9.00678042"><ele>828.793945</ele><time>2008-06-01T09:18:36Z</time></trkpt>
<trkpt lat="45.87469275" lon="9.00668428"><ele>829.755127</ele><time>2008-06-01T09:18:43Z</time></trkpt>
<trkpt lat="45.87472946" lon="9.00662100"><ele>831.197266</ele><time>2008-06-01T09:18:48Z</time></trkpt>
<trkpt lat="45.87487346" lon="9.00640659"><ele>833.119629</ele><time>2008-06-01T09:19:06Z</time></trkpt>
<trkpt lat="45.87491806" lon="9.00636594"><ele>834.081055</ele><time>2008-06-01T09:19:11Z</time></trkpt>
<trkpt lat="45.87502476" lon="9.00627323"><ele>836.484375</ele><time>2008-06-01T09:19:27Z</time></trkpt>
<trkpt lat="45.87515434" lon="9.00617508"><ele>838.406982</ele><time>2008-06-01T09:19:41Z</time></trkpt>
<trkpt lat="45.87523204" lon="9.00605690"><ele>840.810059</ele><time>2008-06-01T09:19:55Z</time></trkpt>
<trkpt lat="45.87531444" lon="9.00597392"><ele>843.213379</ele><time>2008-06-01T09:20:05Z</time></trkpt>
<trkpt lat="45.87539708" lon="9.00588767"><ele>844.175049</ele><time>2008-06-01T09:20:15Z</time></trkpt>
<trkpt lat="45.87548065" lon="9.00575775"><ele>846.097656</ele><time>2008-06-01T09:20:26Z</time></trkpt>
<trkpt lat="45.87554385" lon="9.00551802"><ele>848.500732</ele><time>2008-06-01T09:20:43Z</time></trkpt>
<trkpt lat="45.87557646" lon="9.00534259"><ele>850.423584</ele><time>2008-06-01T09:20:54Z</time></trkpt>
<trkpt lat="45.87564435" lon="9.00516783"><ele>852.345947</ele><time>2008-06-01T09:21:08Z</time></trkpt>
<trkpt lat="45.87567754" lon="9.00512944"><ele>853.307373</ele><time>2008-06-01T09:21:12Z</time></trkpt>
<trkpt lat="45.87570730" lon="9.00516096"><ele>854.268799</ele><time>2008-06-01T09:21:20Z</time></trkpt>
<trkpt lat="45.87573756" lon="9.00535005"><ele>857.633301</ele><time>2008-06-01T09:21:35Z</time></trkpt>
<trkpt lat="45.87577360" lon="9.00559363"><ele>859.075195</ele><time>2008-06-01T09:21:52Z</time></trkpt>
<trkpt lat="45.87575449" lon="9.00587099"><ele>861.47876</ele><time>2008-06-01T09:22:10Z</time></trkpt>
<trkpt lat="45.87572934" lon="9.00598129"><ele>862.920654</ele><time>2008-06-01T09:22:24Z</time></trkpt>
<trkpt lat="45.87568416" lon="9.00608875"><ele>864.843262</ele><time>2008-06-01T09:22:37Z</time></trkpt>
<trkpt lat="45.87568098" lon="9.00610216"><ele>865.804688</ele><time>2008-06-01T09:22:38Z</time></trkpt>
<trkpt lat="45.87568140" lon="9.00618849"><ele>866.765869</ele><time>2008-06-01T09:22:46Z</time></trkpt>
<trkpt lat="45.87562415" lon="9.00636795"><ele>869.649902</ele><time>2008-06-01T09:23:02Z</time></trkpt>
<trkpt lat="45.87559339" lon="9.00652863"><ele>871.572266</ele><time>2008-06-01T09:23:15Z</time></trkpt>
<trkpt lat="45.87555659" lon="9.00663818"><ele>873.014404</ele><time>2008-06-01T09:23:27Z</time></trkpt>
<trkpt lat="45.87551828" lon="9.00681756"><ele>875.898193</ele><time>2008-06-01T09:23:42Z</time></trkpt>
<trkpt lat="45.87552424" lon="9.00704286"><ele>877.821045</ele><time>2008-06-01T09:23:55Z</time></trkpt>
<trkpt lat="45.87552038" lon="9.00722886"><ele>880.705078</ele><time>2008-06-01T09:24:10Z</time></trkpt>
<trkpt lat="45.87551317" lon="9.00734805"><ele>882.627686</ele><time>2008-06-01T09:24:21Z</time></trkpt>
<trkpt lat="45.87550764" lon="9.00741678"><ele>883.588867</ele><time>2008-06-01T09:24:27Z</time></trkpt>
<trkpt lat="45.87550722" lon="9.00751309"><ele>884.550293</ele><time>2008-06-01T09:24:38Z</time></trkpt>
<trkpt lat="45.87551954" lon="9.00764577"><ele>885.992188</ele><time>2008-06-01T09:24:49Z</time></trkpt>
<trkpt lat="45.87556028" lon="9.00789966"><ele>889.356689</ele><time>2008-06-01T09:25:04Z</time></trkpt>
<trkpt lat="45.87555927" lon="9.00801265"><ele>890.318115</ele><time>2008-06-01T09:25:14Z</time></trkpt>
<trkpt lat="45.87556162" lon="9.00811734"><ele>891.279297</ele><time>2008-06-01T09:25:24Z</time></trkpt>
<trkpt lat="45.87544402" lon="9.00827022"><ele>894.163574</ele><time>2008-06-01T09:25:41Z</time></trkpt>
<trkpt lat="45.87540672" lon="9.00834926"><ele>897.047363</ele><time>2008-06-01T09:25:53Z</time></trkpt>
<trkpt lat="45.87537856" lon="9.00846686"><ele>898.008789</ele><time>2008-06-01T09:26:03Z</time></trkpt>
<trkpt lat="45.87534126" lon="9.00860935"><ele>899.931396</ele><time>2008-06-01T09:26:14Z</time></trkpt>
<trkpt lat="45.87529088" lon="9.00875964"><ele>900.892578</ele><time>2008-06-01T09:26:27Z</time></trkpt>
<trkpt lat="45.87521612" lon="9.00888814"><ele>902.815186</ele><time>2008-06-01T09:26:41Z</time></trkpt>
<trkpt lat="45.87519005" lon="9.00903809"><ele>904.737793</ele><time>2008-06-01T09:26:53Z</time></trkpt>
<trkpt lat="45.87513540" lon="9.00922827"><ele>907.621826</ele><time>2008-06-01T09:27:08Z</time></trkpt>
<trkpt lat="45.87511662" lon="9.00941142"><ele>908.583252</ele><time>2008-06-01T09:27:20Z</time></trkpt>
<trkpt lat="45.87510833" lon="9.00952826"><ele>910.505859</ele><time>2008-06-01T09:27:31Z</time></trkpt>
<trkpt lat="45.87506575" lon="9.00961267"><ele>912.428467</ele><time>2008-06-01T09:27:41Z</time></trkpt>
<trkpt lat="45.87500992" lon="9.00976388"><ele>913.870361</ele><time>2008-06-01T09:27:52Z</time></trkpt>
<trkpt lat="45.87494664" lon="9.00991534"><ele>916.754395</ele><time>2008-06-01T09:28:06Z</time></trkpt>
<trkpt lat="45.87491169" lon="9.01004660"><ele>917.715576</ele><time>2008-06-01T09:28:17Z</time></trkpt>
<trkpt lat="45.87487372" lon="9.01020770"><ele>920.118896</ele><time>2008-06-01T09:28:29Z</time></trkpt>
<trkpt lat="45.87482410" lon="9.01034240"><ele>923.483643</ele><time>2008-06-01T09:28:44Z</time></trkpt>
<trkpt lat="45.87472787" lon="9.01055329"><ele>924.925781</ele><time>2008-06-01T09:29:02Z</time></trkpt>
<trkpt lat="45.87462595" lon="9.01069695"><ele>926.367676</ele><time>2008-06-01T09:29:15Z</time></trkpt>
<trkpt lat="45.87460994" lon="9.01075738"><ele>928.770996</ele><time>2008-06-01T09:29:18Z</time></trkpt>
<trkpt lat="45.87459795" lon="9.01078823"><ele>928.770996</ele><time>2008-06-01T09:29:20Z</time></trkpt>
<trkpt lat="45.87445253" lon="9.01101697"><ele>932.616211</ele><time>2008-06-01T09:29:38Z</time></trkpt>
<trkpt lat="45.87441648" lon="9.01107338"><ele>933.09668</ele><time>2008-06-01T09:29:43Z</time></trkpt>
<trkpt lat="45.87434038" lon="9.01114915"><ele>935.019531</ele><time>2008-06-01T09:29:56Z</time></trkpt>
<trkpt lat="45.87427818" lon="9.01119752"><ele>935.980713</ele><time>2008-06-01T09:30:06Z</time></trkpt>
<trkpt lat="45.87421523" lon="9.01123079"><ele>937.90332</ele><time>2008-06-01T09:30:16Z</time></trkpt>
<trkpt lat="45.87411482" lon="9.01130539"><ele>938.864746</ele><time>2008-06-01T09:30:30Z</time></trkpt>
<trkpt lat="45.87404709" lon="9.01144747"><ele>942.229492</ele><time>2008-06-01T09:30:45Z</time></trkpt>
<trkpt lat="45.87402195" lon="9.01159960"><ele>943.190674</ele><time>2008-06-01T09:31:00Z</time></trkpt>
<trkpt lat="45.87403569" lon="9.01161066"><ele>944.1521</ele><time>2008-06-01T09:31:17Z</time></trkpt>
<trkpt lat="45.87404265" lon="9.01161544"><ele>944.1521</ele><time>2008-06-01T09:31:18Z</time></trkpt>
<trkpt lat="45.87414357" lon="9.01163899"><ele>944.632568</ele><time>2008-06-01T09:31:26Z</time></trkpt>
<trkpt lat="45.87419084" lon="9.01161209"><ele>945.113281</ele><time>2008-06-01T09:31:30Z</time></trkpt>
<trkpt lat="45.87439209" lon="9.01141855"><ele>947.035889</ele><time>2008-06-01T09:31:47Z</time></trkpt>
<trkpt lat="45.87461933" lon="9.01121613"><ele>949.439209</ele><time>2008-06-01T09:32:03Z</time></trkpt>
<trkpt lat="45.87488822" lon="9.01102980"><ele>952.322998</ele><time>2008-06-01T09:32:20Z</time></trkpt>
<trkpt lat="45.87513582" lon="9.01079603"><ele>954.24585</ele><time>2008-06-01T09:32:37Z</time></trkpt>
<trkpt lat="45.87535844" lon="9.01054960"><ele>956.64917</ele><time>2008-06-01T09:32:53Z</time></trkpt>
<trkpt lat="45.87557436" lon="9.01031289"><ele>958.571777</ele><time>2008-06-01T09:33:09Z</time></trkpt>
<trkpt lat="45.87574032" lon="9.01003378"><ele>960.494385</ele><time>2008-06-01T09:33:24Z</time></trkpt>
<trkpt lat="45.87590234" lon="9.00974594"><ele>962.897705</ele><time>2008-06-01T09:33:39Z</time></trkpt>
<trkpt lat="45.87602086" lon="9.00960504"><ele>964.3396</ele><time>2008-06-01T09:33:48Z</time></trkpt>
<trkpt lat="45.87612949" lon="9.00938703"><ele>965.301025</ele><time>2008-06-01T09:33:59Z</time></trkpt>
<trkpt lat="45.87617132" lon="9.00934109"><ele>965.781738</ele><time>2008-06-01T09:34:02Z</time></trkpt>
<trkpt lat="45.87624223" lon="9.00926105"><ele>966.262207</ele><time>2008-06-01T09:34:08Z</time></trkpt>
<trkpt lat="45.87641263" lon="9.00901076"><ele>968.184814</ele><time>2008-06-01T09:34:23Z</time></trkpt>
<trkpt lat="45.87655244" lon="9.00877926"><ele>970.107422</ele><time>2008-06-01T09:34:36Z</time></trkpt>
<trkpt lat="45.87672494" lon="9.00860508"><ele>972.030273</ele><time>2008-06-01T09:34:48Z</time></trkpt>
<trkpt lat="45.87675587" lon="9.00868538"><ele>972.030273</ele><time>2008-06-01T09:34:55Z</time></trkpt>
<trkpt lat="45.87664272" lon="9.00884874"><ele>975.394775</ele><time>2008-06-01T09:35:10Z</time></trkpt>
<trkpt lat="45.87662176" lon="9.00893725"><ele>976.836914</ele><time>2008-06-01T09:35:17Z</time></trkpt>
<trkpt lat="45.87659192" lon="9.00910255"><ele>980.201416</ele><time>2008-06-01T09:35:30Z</time></trkpt>
<trkpt lat="45.87650534" lon="9.00931033"><ele>981.643311</ele><time>2008-06-01T09:35:47Z</time></trkpt>
<trkpt lat="45.87647240" lon="9.00942927"><ele>983.085205</ele><time>2008-06-01T09:36:00Z</time></trkpt>
<trkpt lat="45.87641414" lon="9.00955894"><ele>985.008057</ele><time>2008-06-01T09:36:14Z</time></trkpt>
<trkpt lat="45.87634466" lon="9.00970730"><ele>986.93042</ele><time>2008-06-01T09:36:30Z</time></trkpt>
<trkpt lat="45.87628389" lon="9.00992355"><ele>988.853516</ele><time>2008-06-01T09:36:50Z</time></trkpt>
<trkpt lat="45.87624617" lon="9.01012698"><ele>991.737305</ele><time>2008-06-01T09:37:05Z</time></trkpt>
<trkpt lat="45.87620845" lon="9.01032513"><ele>994.140625</ele><time>2008-06-01T09:37:20Z</time></trkpt>
<trkpt lat="45.87620803" lon="9.01040685"><ele>994.140625</ele><time>2008-06-01T09:37:38Z</time></trkpt>
<trkpt lat="45.87622806" lon="9.01040258"><ele>994.621094</ele><time>2008-06-01T09:38:07Z</time></trkpt>
<trkpt lat="45.87626696" lon="9.01037509"><ele>995.101807</ele><time>2008-06-01T09:38:11Z</time></trkpt>
<trkpt lat="45.87648178" lon="9.01025950"><ele>997.505127</ele><time>2008-06-01T09:38:27Z</time></trkpt>
<trkpt lat="45.87665269" lon="9.01019773"><ele>999.427734</ele><time>2008-06-01T09:38:41Z</time></trkpt>
<trkpt lat="45.87679217" lon="9.01004040"><ele>1001.831055</ele><time>2008-06-01T09:38:55Z</time></trkpt>
<trkpt lat="45.87680382" lon="9.01003084"><ele>1002.311523</ele><time>2008-06-01T09:38:56Z</time></trkpt>
<trkpt lat="45.87688034" lon="9.01001357"><ele>1002.311523</ele><time>2008-06-01T09:39:02Z</time></trkpt>
<trkpt lat="45.87699786" lon="9.01000905"><ele>1004.234619</ele><time>2008-06-01T09:39:12Z</time></trkpt>
<trkpt lat="45.87727555" lon="9.01013260"><ele>1006.156982</ele><time>2008-06-01T09:39:31Z</time></trkpt>
<trkpt lat="45.87748392" lon="9.01025355"><ele>1009.521729</ele><time>2008-06-01T09:39:48Z</time></trkpt>
<trkpt lat="45.87768769" lon="9.01041096"><ele>1012.405518</ele><time>2008-06-01T09:40:07Z</time></trkpt>
<trkpt lat="45.87783362" lon="9.01055312"><ele>1015.289551</ele><time>2008-06-01T09:40:20Z</time></trkpt>
<trkpt lat="45.87806295" lon="9.01066208"><ele>1017.212158</ele><time>2008-06-01T09:40:36Z</time></trkpt>
<trkpt lat="45.87809379" lon="9.01067055"><ele>1017.212158</ele><time>2008-06-01T09:40:38Z</time></trkpt>
<trkpt lat="45.87831030" lon="9.01063534"><ele>1019.134766</ele><time>2008-06-01T09:40:52Z</time></trkpt>
<trkpt lat="45.87860752" lon="9.01055337"><ele>1021.057617</ele><time>2008-06-01T09:41:09Z</time></trkpt>
<trkpt lat="45.87864758" lon="9.01054624"><ele>1022.018799</ele><time>2008-06-01T09:41:11Z</time></trkpt>
<trkpt lat="45.87881464" lon="9.01055739"><ele>1022.980225</ele><time>2008-06-01T09:41:20Z</time></trkpt>
<trkpt lat="45.87893098" lon="9.01058723"><ele>1023.460938</ele><time>2008-06-01T09:41:26Z</time></trkpt>
<trkpt lat="45.87921110" lon="9.01071095"><ele>1024.902832</ele><time>2008-06-01T09:41:38Z</time></trkpt>
<trkpt lat="45.87984335" lon="9.01089753"><ele>1026.825439</ele><time>2008-06-01T09:41:59Z</time></trkpt>
<trkpt lat="45.88029538" lon="9.01102535"><ele>1028.748047</ele><time>2008-06-01T09:42:14Z</time></trkpt>
<trkpt lat="45.88064474" lon="9.01100633"><ele>1029.709229</ele><time>2008-06-01T09:42:27Z</time></trkpt>
<trkpt lat="45.88099988" lon="9.01098453"><ele>1031.631836</ele><time>2008-06-01T09:42:42Z</time></trkpt>
<trkpt lat="45.88130104" lon="9.01090323"><ele>1034.035156</ele><time>2008-06-01T09:42:55Z</time></trkpt>
<trkpt lat="45.88176096" lon="9.01086124"><ele>1034.996582</ele><time>2008-06-01T09:43:11Z</time></trkpt>
<trkpt lat="45.88210512" lon="9.01086694"><ele>1036.919189</ele><time>2008-06-01T09:43:23Z</time></trkpt>
<trkpt lat="45.88246294" lon="9.01104782"><ele>1038.361328</ele><time>2008-06-01T09:43:35Z</time></trkpt>
<trkpt lat="45.88286947" lon="9.01136113"><ele>1040.764404</ele><time>2008-06-01T09:43:53Z</time></trkpt>
<trkpt lat="45.88303903" lon="9.01155643"><ele>1043.167725</ele><time>2008-06-01T09:44:07Z</time></trkpt>
<trkpt lat="45.88318504" lon="9.01178752"><ele>1045.090332</ele><time>2008-06-01T09:44:21Z</time></trkpt>
<trkpt lat="45.88329736" lon="9.01197217"><ele>1048.454834</ele><time>2008-06-01T09:44:32Z</time></trkpt>
<trkpt lat="45.88343206" lon="9.01215658"><ele>1051.81958</ele><time>2008-06-01T09:44:44Z</time></trkpt>
<trkpt lat="45.88367346" lon="9.01234425"><ele>1053.261719</ele><time>2008-06-01T09:45:02Z</time></trkpt>
<trkpt lat="45.88387814" lon="9.01250208"><ele>1056.145508</ele><time>2008-06-01T09:45:17Z</time></trkpt>
<trkpt lat="45.88408409" lon="9.01270249"><ele>1058.068359</ele><time>2008-06-01T09:45:33Z</time></trkpt>
<trkpt lat="45.88430193" lon="9.01289787"><ele>1060.952148</ele><time>2008-06-01T09:45:50Z</time></trkpt>
<trkpt lat="45.88450285" lon="9.01306526"><ele>1064.31665</ele><time>2008-06-01T09:46:06Z</time></trkpt>
<trkpt lat="45.88466965" lon="9.01333457"><ele>1066.719971</ele><time>2008-06-01T09:46:24Z</time></trkpt>
<trkpt lat="45.88482496" lon="9.01368518"><ele>1069.123535</ele><time>2008-06-01T09:46:44Z</time></trkpt>
<trkpt lat="45.88500517" lon="9.01401820"><ele>1072.007324</ele><time>2008-06-01T09:47:05Z</time></trkpt>
<trkpt lat="45.88514389" lon="9.01423219"><ele>1074.891357</ele><time>2008-06-01T09:47:17Z</time></trkpt>
<trkpt lat="45.88535336" lon="9.01441013"><ele>1077.775146</ele><time>2008-06-01T09:47:33Z</time></trkpt>
<trkpt lat="45.88553826" lon="9.01443017"><ele>1078.255859</ele><time>2008-06-01T09:47:45Z</time></trkpt>
<trkpt lat="45.88564086" lon="9.01444106"><ele>1079.697754</ele><time>2008-06-01T09:47:51Z</time></trkpt>
<trkpt lat="45.88569358" lon="9.01483786"><ele>1080.65918</ele><time>2008-06-01T09:48:03Z</time></trkpt>
<trkpt lat="45.88580263" lon="9.01529183"><ele>1080.65918</ele><time>2008-06-01T09:48:16Z</time></trkpt>
<trkpt lat="45.88608828" lon="9.01587923"><ele>1082.581787</ele><time>2008-06-01T09:48:33Z</time></trkpt>
<trkpt lat="45.88626238" lon="9.01658733"><ele>1084.985352</ele><time>2008-06-01T09:48:52Z</time></trkpt>
<trkpt lat="45.88645985" lon="9.01741379"><ele>1086.427246</ele><time>2008-06-01T09:49:09Z</time></trkpt>
<trkpt lat="45.88668742" lon="9.01810043"><ele>1088.830566</ele><time>2008-06-01T09:49:25Z</time></trkpt>
<trkpt lat="45.88700845" lon="9.01810203"><ele>1089.791748</ele><time>2008-06-01T09:49:35Z</time></trkpt>
<trkpt lat="45.88747717" lon="9.01784806"><ele>1091.233643</ele><time>2008-06-01T09:49:48Z</time></trkpt>
<trkpt lat="45.88790724" lon="9.01767137"><ele>1092.675781</ele><time>2008-06-01T09:50:00Z</time></trkpt>
<trkpt lat="45.88830924" lon="9.01768486"><ele>1093.15625</ele><time>2008-06-01T09:50:11Z</time></trkpt>
<trkpt lat="45.88873068" lon="9.01774219"><ele>1093.15625</ele><time>2008-06-01T09:50:22Z</time></trkpt>
<trkpt lat="45.88895649" lon="9.01762526"><ele>1093.15625</ele><time>2008-06-01T09:50:27Z</time></trkpt>
<trkpt lat="45.88912547" lon="9.01747456"><ele>1093.15625</ele><time>2008-06-01T09:50:31Z</time></trkpt>
<trkpt lat="45.88967456" lon="9.01715253"><ele>1093.15625</ele><time>2008-06-01T09:50:46Z</time></trkpt>
<trkpt lat="45.89004924" lon="9.01731648"><ele>1093.15625</ele><time>2008-06-01T09:50:57Z</time></trkpt>
<trkpt lat="45.89044972" lon="9.01766810"><ele>1092.675781</ele><time>2008-06-01T09:51:09Z</time></trkpt>
<trkpt lat="45.89048635" lon="9.01770020"><ele>1092.195068</ele><time>2008-06-01T09:51:10Z</time></trkpt>
<trkpt lat="45.89058040" lon="9.01782115"><ele>1092.195068</ele><time>2008-06-01T09:51:13Z</time></trkpt>
<trkpt lat="45.89062960" lon="9.01791947"><ele>1091.714355</ele><time>2008-06-01T09:51:15Z</time></trkpt>
<trkpt lat="45.89070948" lon="9.01813673"><ele>1091.714355</ele><time>2008-06-01T09:51:19Z</time></trkpt>
<trkpt lat="45.89081333" lon="9.01852372"><ele>1092.195068</ele><time>2008-06-01T09:51:26Z</time></trkpt>
<trkpt lat="45.89110418" lon="9.01891893"><ele>1091.714355</ele><time>2008-06-01T09:51:36Z</time></trkpt>
<trkpt lat="45.89114249" lon="9.01892228"><ele>1091.714355</ele><time>2008-06-01T09:51:37Z</time></trkpt>
<trkpt lat="45.89124349" lon="9.01893728"><ele>1091.233643</ele><time>2008-06-01T09:51:46Z</time></trkpt>
<trkpt lat="45.89124944" lon="9.01895237"><ele>1090.75293</ele><time>2008-06-01T09:51:58Z</time></trkpt>
<trkpt lat="45.89124726" lon="9.01894609"><ele>1084.985352</ele><time>2008-06-01T09:52:01Z</time></trkpt>
<trkpt lat="45.89125053" lon="9.01894357"><ele>1094.117676</ele><time>2008-06-01T09:52:02Z</time></trkpt>
<trkpt lat="45.89125179" lon="9.01893334"><ele>1091.233643</ele><time>2008-06-01T09:52:04Z</time></trkpt>
<trkpt lat="45.89123955" lon="9.01888875"><ele>1091.233643</ele><time>2008-06-01T09:52:27Z</time></trkpt>
<trkpt lat="45.89123754" lon="9.01890317"><ele>1091.233643</ele><time>2008-06-01T09:52:47Z</time></trkpt>
<trkpt lat="45.89126235" lon="9.01893846"><ele>1090.75293</ele><time>2008-06-01T09:53:03Z</time></trkpt>
<trkpt lat="45.89128213" lon="9.01895799"><ele>1090.75293</ele><time>2008-06-01T09:53:22Z</time></trkpt>
<trkpt lat="45.89126528" lon="9.01897718"><ele>1090.75293</ele><time>2008-06-01T09:53:54Z</time></trkpt>
<trkpt lat="45.89120242" lon="9.01895355"><ele>1091.233643</ele><time>2008-06-01T09:54:37Z</time></trkpt>
<trkpt lat="45.89133410" lon="9.01897425"><ele>1091.233643</ele><time>2008-06-01T09:54:55Z</time></trkpt>
<trkpt lat="45.89173953" lon="9.01908900"><ele>1092.195068</ele><time>2008-06-01T09:55:08Z</time></trkpt>
<trkpt lat="45.89179334" lon="9.01916016"><ele>1091.714355</ele><time>2008-06-01T09:55:11Z</time></trkpt>
<trkpt lat="45.89189325" lon="9.01914935"><ele>1092.675781</ele><time>2008-06-01T09:55:15Z</time></trkpt>
<trkpt lat="45.89222887" lon="9.01908900"><ele>1092.195068</ele><time>2008-06-01T09:55:25Z</time></trkpt>
<trkpt lat="45.89235183" lon="9.01910869"><ele>1091.714355</ele><time>2008-06-01T09:55:28Z</time></trkpt>
<trkpt lat="45.89256909" lon="9.01915479"><ele>1092.675781</ele><time>2008-06-01T09:55:33Z</time></trkpt>
<trkpt lat="45.89282465" lon="9.01894122"><ele>1092.675781</ele><time>2008-06-01T09:55:40Z</time></trkpt>
<trkpt lat="45.89294644" lon="9.01860142"><ele>1095.078857</ele><time>2008-06-01T09:55:47Z</time></trkpt>
<trkpt lat="45.89306362" lon="9.01823723"><ele>1098.443359</ele><time>2008-06-01T09:55:58Z</time></trkpt>
<trkpt lat="45.89323478" lon="9.01795995"><ele>1099.885498</ele><time>2008-06-01T09:56:10Z</time></trkpt>
<trkpt lat="45.89337903" lon="9.01762552"><ele>1102.769531</ele><time>2008-06-01T09:56:24Z</time></trkpt>
<trkpt lat="45.89368883" lon="9.01734263"><ele>1103.250244</ele><time>2008-06-01T09:56:41Z</time></trkpt>
<trkpt lat="45.89380994" lon="9.01738923"><ele>1103.250244</ele><time>2008-06-01T09:56:47Z</time></trkpt>
<trkpt lat="45.89388295" lon="9.01751052"><ele>1102.769531</ele><time>2008-06-01T09:56:58Z</time></trkpt>
<trkpt lat="45.89387683" lon="9.01752334"><ele>1103.250244</ele><time>2008-06-01T09:57:59Z</time></trkpt>
<trkpt lat="45.89403332" lon="9.01777589"><ele>1104.21167</ele><time>2008-06-01T09:58:09Z</time></trkpt>
<trkpt lat="45.89415704" lon="9.01803933"><ele>1102.769531</ele><time>2008-06-01T09:58:19Z</time></trkpt>
<trkpt lat="45.89413994" lon="9.01800974"><ele>1103.730957</ele><time>2008-06-01T09:59:18Z</time></trkpt>
<trkpt lat="45.89431596" lon="9.01827537"><ele>1104.21167</ele><time>2008-06-01T09:59:26Z</time></trkpt>
<trkpt lat="45.89439693" lon="9.01838064"><ele>1104.21167</ele><time>2008-06-01T09:59:28Z</time></trkpt>
<trkpt lat="45.89448988" lon="9.01847024"><ele>1103.730957</ele><time>2008-06-01T09:59:30Z</time></trkpt>
<trkpt lat="45.89514174" lon="9.01860687"><ele>1103.730957</ele><time>2008-06-01T09:59:42Z</time></trkpt>
<trkpt lat="45.89565505" lon="9.01859019"><ele>1103.730957</ele><time>2008-06-01T09:59:51Z</time></trkpt>
<trkpt lat="45.89593065" lon="9.01851274"><ele>1103.730957</ele><time>2008-06-01T09:59:56Z</time></trkpt>
<trkpt lat="45.89631488" lon="9.01851735"><ele>1105.172852</ele><time>2008-06-01T10:00:03Z</time></trkpt>
<trkpt lat="45.89641554" lon="9.01849497"><ele>1105.653564</ele><time>2008-06-01T10:00:05Z</time></trkpt>
<trkpt lat="45.89654253" lon="9.01833613"><ele>1105.653564</ele><time>2008-06-01T10:00:08Z</time></trkpt>
<trkpt lat="45.89671486" lon="9.01792835"><ele>1106.134033</ele><time>2008-06-01T10:00:14Z</time></trkpt>
<trkpt lat="45.89689155" lon="9.01773054"><ele>1107.095459</ele><time>2008-06-01T10:00:19Z</time></trkpt>
<trkpt lat="45.89743135" lon="9.01759786"><ele>1109.979248</ele><time>2008-06-01T10:00:34Z</time></trkpt>
<trkpt lat="45.89783678" lon="9.01763767"><ele>1110.940674</ele><time>2008-06-01T10:00:45Z</time></trkpt>
<trkpt lat="45.89854312" lon="9.01786524"><ele>1111.421387</ele><time>2008-06-01T10:01:01Z</time></trkpt>
<trkpt lat="45.89878435" lon="9.01789139"><ele>1110.940674</ele><time>2008-06-01T10:01:05Z</time></trkpt>
<trkpt lat="45.89896414" lon="9.01785007"><ele>1110.940674</ele><time>2008-06-01T10:01:08Z</time></trkpt>
<trkpt lat="45.89986696" lon="9.01762208"><ele>1110.940674</ele><time>2008-06-01T10:01:22Z</time></trkpt>
<trkpt lat="45.90054916" lon="9.01747548"><ele>1111.421387</ele><time>2008-06-01T10:01:34Z</time></trkpt>
<trkpt lat="45.90065209" lon="9.01747808"><ele>1110.940674</ele><time>2008-06-01T10:01:36Z</time></trkpt>
<trkpt lat="45.90084622" lon="9.01752627"><ele>1112.382568</ele><time>2008-06-01T10:01:40Z</time></trkpt>
<trkpt lat="45.90160629" lon="9.01743474"><ele>1114.785889</ele><time>2008-06-01T10:01:57Z</time></trkpt>
<trkpt lat="45.90203988" lon="9.01730089"><ele>1117.669922</ele><time>2008-06-01T10:02:10Z</time></trkpt>
<trkpt lat="45.90234473" lon="9.01716828"><ele>1121.034668</ele><time>2008-06-01T10:02:20Z</time></trkpt>
<trkpt lat="45.90276073" lon="9.01692864"><ele>1122.957275</ele><time>2008-06-01T10:02:35Z</time></trkpt>
<trkpt lat="45.90302727" lon="9.01650192"><ele>1125.841064</ele><time>2008-06-01T10:02:49Z</time></trkpt>
<trkpt lat="45.90312626" lon="9.01613052"><ele>1127.283203</ele><time>2008-06-01T10:02:59Z</time></trkpt>
<trkpt lat="45.90336733" lon="9.01551428"><ele>1130.647705</ele><time>2008-06-01T10:03:17Z</time></trkpt>
<trkpt lat="45.90362323" lon="9.01491934"><ele>1132.570557</ele><time>2008-06-01T10:03:34Z</time></trkpt>
<trkpt lat="45.90360478" lon="9.01440678"><ele>1135.454346</ele><time>2008-06-01T10:03:47Z</time></trkpt>
<trkpt lat="45.90357712" lon="9.01399632"><ele>1136.89624</ele><time>2008-06-01T10:03:57Z</time></trkpt>
<trkpt lat="45.90370897" lon="9.01348955"><ele>1139.299561</ele><time>2008-06-01T10:04:11Z</time></trkpt>
<trkpt lat="45.90397124" lon="9.01305847"><ele>1141.222168</ele><time>2008-06-01T10:04:26Z</time></trkpt>
<trkpt lat="45.90399538" lon="9.01303458"><ele>1141.222168</ele><time>2008-06-01T10:04:27Z</time></trkpt>
<trkpt lat="45.90435639" lon="9.01285135"><ele>1144.106201</ele><time>2008-06-01T10:04:41Z</time></trkpt>
<trkpt lat="45.90480407" lon="9.01271867"><ele>1145.548096</ele><time>2008-06-01T10:04:57Z</time></trkpt>
<trkpt lat="45.90535677" lon="9.01235355"><ele>1148.912842</ele><time>2008-06-01T10:05:17Z</time></trkpt>
<trkpt lat="45.90593915" lon="9.01202012"><ele>1150.35498</ele><time>2008-06-01T10:05:36Z</time></trkpt>
<trkpt lat="45.90665303" lon="9.01193345"><ele>1151.316162</ele><time>2008-06-01T10:05:55Z</time></trkpt>
<trkpt lat="45.90683509" lon="9.01185449"><ele>1151.796875</ele><time>2008-06-01T10:06:00Z</time></trkpt>
<trkpt lat="45.90745887" lon="9.01106265"><ele>1152.758057</ele><time>2008-06-01T10:06:17Z</time></trkpt>
<trkpt lat="45.90771343" lon="9.01054189"><ele>1153.719482</ele><time>2008-06-01T10:06:26Z</time></trkpt>
<trkpt lat="45.90836453" lon="9.00987913"><ele>1156.603271</ele><time>2008-06-01T10:06:44Z</time></trkpt>
<trkpt lat="45.90849353" lon="9.00965609"><ele>1157.564697</ele><time>2008-06-01T10:06:50Z</time></trkpt>
<trkpt lat="45.90884733" lon="9.00871304"><ele>1159.006592</ele><time>2008-06-01T10:07:08Z</time></trkpt>
<trkpt lat="45.90909753" lon="9.00813628"><ele>1159.487305</ele><time>2008-06-01T10:07:17Z</time></trkpt>
<trkpt lat="45.90914648" lon="9.00768022"><ele>1159.006592</ele><time>2008-06-01T10:07:23Z</time></trkpt>
<trkpt lat="45.90912075" lon="9.00752884"><ele>1159.006592</ele><time>2008-06-01T10:07:25Z</time></trkpt>
<trkpt lat="45.90889234" lon="9.00689894"><ele>1159.487305</ele><time>2008-06-01T10:07:34Z</time></trkpt>
<trkpt lat="45.90885462" lon="9.00664698"><ele>1159.967773</ele><time>2008-06-01T10:07:37Z</time></trkpt>
<trkpt lat="45.90862890" lon="9.00613074"><ele>1159.487305</ele><time>2008-06-01T10:07:44Z</time></trkpt>
<trkpt lat="45.90854919" lon="9.00600049"><ele>1159.967773</ele><time>2008-06-01T10:07:46Z</time></trkpt>
<trkpt lat="45.90827644" lon="9.00583503"><ele>1160.448486</ele><time>2008-06-01T10:07:51Z</time></trkpt>
<trkpt lat="45.90764612" lon="9.00516506"><ele>1160.929199</ele><time>2008-06-01T10:08:04Z</time></trkpt>
<trkpt lat="45.90755166" lon="9.00506632"><ele>1161.409912</ele><time>2008-06-01T10:08:06Z</time></trkpt>
<trkpt lat="45.90718386" lon="9.00460624"><ele>1161.409912</ele><time>2008-06-01T10:08:14Z</time></trkpt>
<trkpt lat="45.90716986" lon="9.00413426"><ele>1161.409912</ele><time>2008-06-01T10:08:20Z</time></trkpt>
<trkpt lat="45.90755484" lon="9.00340226"><ele>1161.890625</ele><time>2008-06-01T10:08:30Z</time></trkpt>
<trkpt lat="45.90765174" lon="9.00291310"><ele>1162.851807</ele><time>2008-06-01T10:08:37Z</time></trkpt>
<trkpt lat="45.90766548" lon="9.00287387"><ele>1164.293945</ele><time>2008-06-01T10:08:39Z</time></trkpt>
<trkpt lat="45.90771946" lon="9.00273423"><ele>1165.736084</ele><time>2008-06-01T10:08:50Z</time></trkpt>
<trkpt lat="45.90778685" lon="9.00272585"><ele>1165.736084</ele><time>2008-06-01T10:08:54Z</time></trkpt>
<trkpt lat="45.90804024" lon="9.00275627"><ele>1169.581299</ele><time>2008-06-01T10:09:09Z</time></trkpt>
<trkpt lat="45.90828356" lon="9.00285719"><ele>1171.984375</ele><time>2008-06-01T10:09:25Z</time></trkpt>
<trkpt lat="45.90849336" lon="9.00289097"><ele>1174.868408</ele><time>2008-06-01T10:09:41Z</time></trkpt>
<trkpt lat="45.90868799" lon="9.00303044"><ele>1178.23291</ele><time>2008-06-01T10:09:57Z</time></trkpt>
<trkpt lat="45.90888865" lon="9.00322700"><ele>1180.636475</ele><time>2008-06-01T10:10:13Z</time></trkpt>
<trkpt lat="45.90904523" lon="9.00333026"><ele>1183.520264</ele><time>2008-06-01T10:10:28Z</time></trkpt>
<trkpt lat="45.90918747" lon="9.00339967"><ele>1186.884766</ele><time>2008-06-01T10:10:42Z</time></trkpt>
<trkpt lat="45.90925829" lon="9.00345398"><ele>1187.846191</ele><time>2008-06-01T10:10:50Z</time></trkpt>
<trkpt lat="45.90930297" lon="9.00350838"><ele>1188.807617</ele><time>2008-06-01T10:10:54Z</time></trkpt>
<trkpt lat="45.90944504" lon="9.00366856"><ele>1190.72998</ele><time>2008-06-01T10:11:09Z</time></trkpt>
<trkpt lat="45.90964688" lon="9.00383175"><ele>1193.614014</ele><time>2008-06-01T10:11:28Z</time></trkpt>
<trkpt lat="45.90972986" lon="9.00395824"><ele>1195.536621</ele><time>2008-06-01T10:11:36Z</time></trkpt>
<trkpt lat="45.90978594" lon="9.00424213"><ele>1198.420654</ele><time>2008-06-01T10:11:53Z</time></trkpt>
<trkpt lat="45.90979516" lon="9.00429167"><ele>1198.420654</ele><time>2008-06-01T10:11:56Z</time></trkpt>
<trkpt lat="45.90964948" lon="9.00448873"><ele>1200.823975</ele><time>2008-06-01T10:12:15Z</time></trkpt>
<trkpt lat="45.90943289" lon="9.00456559"><ele>1203.708008</ele><time>2008-06-01T10:12:31Z</time></trkpt>
<trkpt lat="45.90952216" lon="9.00477363"><ele>1203.708008</ele><time>2008-06-01T10:12:42Z</time></trkpt>
<trkpt lat="45.90983614" lon="9.00494294"><ele>1205.630615</ele><time>2008-06-01T10:12:58Z</time></trkpt>
<trkpt lat="45.91009322" lon="9.00500664"><ele>1208.033936</ele><time>2008-06-01T10:13:12Z</time></trkpt>
<trkpt lat="45.91025147" lon="9.00499918"><ele>1210.917725</ele><time>2008-06-01T10:13:26Z</time></trkpt>
<trkpt lat="45.91051784" lon="9.00497328"><ele>1213.321289</ele><time>2008-06-01T10:13:44Z</time></trkpt>
<trkpt lat="45.91066813" lon="9.00493104"><ele>1215.243896</ele><time>2008-06-01T10:13:54Z</time></trkpt>
<trkpt lat="45.91072219" lon="9.00492869"><ele>1216.205078</ele><time>2008-06-01T10:13:58Z</time></trkpt>
<trkpt lat="45.91076528" lon="9.00490388"><ele>1216.685791</ele><time>2008-06-01T10:14:07Z</time></trkpt>
<trkpt lat="45.91084843" lon="9.00487673"><ele>1219.569824</ele><time>2008-06-01T10:14:21Z</time></trkpt>
<trkpt lat="45.91083719" lon="9.00497873"><ele>1221.9729</ele><time>2008-06-01T10:14:36Z</time></trkpt>
<trkpt lat="45.91076067" lon="9.00504889"><ele>1223.415039</ele><time>2008-06-01T10:14:45Z</time></trkpt>
<trkpt lat="45.91069764" lon="9.00509784"><ele>1223.895508</ele><time>2008-06-01T10:14:51Z</time></trkpt>
<trkpt lat="45.91059848" lon="9.00526942"><ele>1225.818115</ele><time>2008-06-01T10:15:08Z</time></trkpt>
<trkpt lat="45.91067878" lon="9.00530823"><ele>1229.182861</ele><time>2008-06-01T10:15:24Z</time></trkpt>
<trkpt lat="45.91078296" lon="9.00534402"><ele>1232.066895</ele><time>2008-06-01T10:15:40Z</time></trkpt>
<trkpt lat="45.91082194" lon="9.00535667"><ele>1233.508789</ele><time>2008-06-01T10:15:54Z</time></trkpt>
<trkpt lat="45.91086552" lon="9.00534309"><ele>1236.392822</ele><time>2008-06-01T10:16:08Z</time></trkpt>
<trkpt lat="45.91096317" lon="9.00530454"><ele>1238.796143</ele><time>2008-06-01T10:16:24Z</time></trkpt>
<trkpt lat="45.91106275" lon="9.00531577"><ele>1241.679932</ele><time>2008-06-01T10:16:36Z</time></trkpt>
<trkpt lat="45.91118429" lon="9.00529255"><ele>1244.083496</ele><time>2008-06-01T10:16:52Z</time></trkpt>
<trkpt lat="45.91126978" lon="9.00527093"><ele>1246.486816</ele><time>2008-06-01T10:17:11Z</time></trkpt>
<trkpt lat="45.91137816" lon="9.00523078"><ele>1248.889893</ele><time>2008-06-01T10:17:26Z</time></trkpt>
<trkpt lat="45.91150817" lon="9.00522449"><ele>1251.293213</ele><time>2008-06-01T10:17:41Z</time></trkpt>
<trkpt lat="45.91154647" lon="9.00522508"><ele>1253.21582</ele><time>2008-06-01T10:17:46Z</time></trkpt>
<trkpt lat="45.91164957" lon="9.00519046"><ele>1255.138428</ele><time>2008-06-01T10:18:00Z</time></trkpt>
<trkpt lat="45.91168125" lon="9.00517135"><ele>1255.619141</ele><time>2008-06-01T10:18:06Z</time></trkpt>
<trkpt lat="45.91187278" lon="9.00509885"><ele>1257.061035</ele><time>2008-06-01T10:18:21Z</time></trkpt>
<trkpt lat="45.91195358" lon="9.00502743"><ele>1258.50293</ele><time>2008-06-01T10:18:27Z</time></trkpt>
<trkpt lat="45.91201628" lon="9.00500078"><ele>1258.983643</ele><time>2008-06-01T10:18:31Z</time></trkpt>
<trkpt lat="45.91229036" lon="9.00489483"><ele>1261.387207</ele><time>2008-06-01T10:18:49Z</time></trkpt>
<trkpt lat="45.91232724" lon="9.00486273"><ele>1261.86792</ele><time>2008-06-01T10:18:52Z</time></trkpt>
<trkpt lat="45.91253369" lon="9.00471294"><ele>1265.232422</ele><time>2008-06-01T10:19:08Z</time></trkpt>
<trkpt lat="45.91261022" lon="9.00457758"><ele>1265.713135</ele><time>2008-06-01T10:19:21Z</time></trkpt>
<trkpt lat="45.91268356" lon="9.00463072"><ele>1268.116211</ele><time>2008-06-01T10:19:37Z</time></trkpt>
<trkpt lat="45.91269672" lon="9.00468076"><ele>1269.55835</ele><time>2008-06-01T10:19:42Z</time></trkpt>
<trkpt lat="45.91269119" lon="9.00482493"><ele>1272.442139</ele><time>2008-06-01T10:19:57Z</time></trkpt>
<trkpt lat="45.91260267" lon="9.00497152"><ele>1274.845459</ele><time>2008-06-01T10:20:12Z</time></trkpt>
<trkpt lat="45.91257845" lon="9.00500857"><ele>1275.325928</ele><time>2008-06-01T10:20:16Z</time></trkpt>
<trkpt lat="45.91240763" lon="9.00519876"><ele>1277.729492</ele><time>2008-06-01T10:20:31Z</time></trkpt>
<trkpt lat="45.91248214" lon="9.00516397"><ele>1280.132813</ele><time>2008-06-01T10:20:45Z</time></trkpt>
<trkpt lat="45.91249614" lon="9.00515383"><ele>1280.613525</ele><time>2008-06-01T10:20:47Z</time></trkpt>
<trkpt lat="45.91254274" lon="9.00520999"><ele>1281.574707</ele><time>2008-06-01T10:20:59Z</time></trkpt>
<trkpt lat="45.91257744" lon="9.00523815"><ele>1284.45874</ele><time>2008-06-01T10:21:14Z</time></trkpt>
<trkpt lat="45.91255012" lon="9.00537562"><ele>1287.823242</ele><time>2008-06-01T10:21:29Z</time></trkpt>
<trkpt lat="45.91254702" lon="9.00553579"><ele>1289.265137</ele><time>2008-06-01T10:21:45Z</time></trkpt>
<trkpt lat="45.91250620" lon="9.00564107"><ele>1292.149414</ele><time>2008-06-01T10:21:59Z</time></trkpt>
<trkpt lat="45.91245758" lon="9.00575976"><ele>1294.072021</ele><time>2008-06-01T10:22:15Z</time></trkpt>
<trkpt lat="45.91243193" lon="9.00586713"><ele>1296.475342</ele><time>2008-06-01T10:22:29Z</time></trkpt>
<trkpt lat="45.91242909" lon="9.00594190"><ele>1300.320557</ele><time>2008-06-01T10:22:44Z</time></trkpt>
<trkpt lat="45.91249622" lon="9.00597618"><ele>1302.723633</ele><time>2008-06-01T10:23:02Z</time></trkpt>
<trkpt lat="45.91260427" lon="9.00594617"><ele>1305.126953</ele><time>2008-06-01T10:23:17Z</time></trkpt>
<trkpt lat="45.91286469" lon="9.00578029"><ele>1306.088135</ele><time>2008-06-01T10:23:32Z</time></trkpt>
<trkpt lat="45.91297324" lon="9.00574584"><ele>1306.568848</ele><time>2008-06-01T10:23:38Z</time></trkpt>
<trkpt lat="45.91300325" lon="9.00572724"><ele>1306.568848</ele><time>2008-06-01T10:23:40Z</time></trkpt>
<trkpt lat="45.91313040" lon="9.00568767"><ele>1308.491699</ele><time>2008-06-01T10:23:49Z</time></trkpt>
<trkpt lat="45.91332109" lon="9.00560637"><ele>1309.933594</ele><time>2008-06-01T10:24:02Z</time></trkpt>
<trkpt lat="45.91358998" lon="9.00555365"><ele>1310.89502</ele><time>2008-06-01T10:24:17Z</time></trkpt>
<trkpt lat="45.91393238" lon="9.00561257"><ele>1314.259521</ele><time>2008-06-01T10:24:33Z</time></trkpt>
<trkpt lat="45.91395115" lon="9.00561090"><ele>1313.778809</ele><time>2008-06-01T10:24:36Z</time></trkpt>
<trkpt lat="45.91397085" lon="9.00561157"><ele>1314.259521</ele><time>2008-06-01T10:24:38Z</time></trkpt>
<trkpt lat="45.91411787" lon="9.00565909"><ele>1317.143555</ele><time>2008-06-01T10:24:56Z</time></trkpt>
<trkpt lat="45.91421317" lon="9.00564493"><ele>1319.546875</ele><time>2008-06-01T10:25:12Z</time></trkpt>
<trkpt lat="45.91441727" lon="9.00565817"><ele>1321.469238</ele><time>2008-06-01T10:25:31Z</time></trkpt>
<trkpt lat="45.91458533" lon="9.00568273"><ele>1323.39209</ele><time>2008-06-01T10:25:46Z</time></trkpt>
<trkpt lat="45.91468683" lon="9.00567695"><ele>1325.314697</ele><time>2008-06-01T10:25:58Z</time></trkpt>
<trkpt lat="45.91470016" lon="9.00568399"><ele>1325.314697</ele><time>2008-06-01T10:26:00Z</time></trkpt>
<trkpt lat="45.91484986" lon="9.00575004"><ele>1328.19873</ele><time>2008-06-01T10:26:18Z</time></trkpt>
<trkpt lat="45.91486503" lon="9.00580469"><ele>1329.159912</ele><time>2008-06-01T10:26:25Z</time></trkpt>
<trkpt lat="45.91509059" lon="9.00602597"><ele>1328.679443</ele><time>2008-06-01T10:26:39Z</time></trkpt>
<trkpt lat="45.91547515" lon="9.00640877"><ele>1329.640625</ele><time>2008-06-01T10:26:55Z</time></trkpt>
<trkpt lat="45.91571664" lon="9.00703263"><ele>1330.121338</ele><time>2008-06-01T10:27:10Z</time></trkpt>
<trkpt lat="45.91573952" lon="9.00779514"><ele>1333.005127</ele><time>2008-06-01T10:27:26Z</time></trkpt>
<trkpt lat="45.91569392" lon="9.00800904"><ele>1334.927979</ele><time>2008-06-01T10:27:31Z</time></trkpt>
<trkpt lat="45.91562955" lon="9.00831926"><ele>1334.927979</ele><time>2008-06-01T10:27:41Z</time></trkpt>
<trkpt lat="45.91561572" lon="9.00835052"><ele>1334.927979</ele><time>2008-06-01T10:27:43Z</time></trkpt>
<trkpt lat="45.91561153" lon="9.00848648"><ele>1335.408447</ele><time>2008-06-01T10:27:48Z</time></trkpt>
<trkpt lat="45.91580934" lon="9.00879602"><ele>1335.408447</ele><time>2008-06-01T10:28:02Z</time></trkpt>
<trkpt lat="45.91596809" lon="9.00896039"><ele>1338.773193</ele><time>2008-06-01T10:28:13Z</time></trkpt>
<trkpt lat="45.91616255" lon="9.00918033"><ele>1341.657227</ele><time>2008-06-01T10:28:26Z</time></trkpt>
<trkpt lat="45.91632105" lon="9.00965734"><ele>1344.541016</ele><time>2008-06-01T10:28:47Z</time></trkpt>
<trkpt lat="45.91628317" lon="9.01021516"><ele>1347.425049</ele><time>2008-06-01T10:29:07Z</time></trkpt>
<trkpt lat="45.91642348" lon="9.01064213"><ele>1349.828369</ele><time>2008-06-01T10:29:24Z</time></trkpt>
<trkpt lat="45.91659338" lon="9.01098135"><ele>1353.192871</ele><time>2008-06-01T10:29:39Z</time></trkpt>
<trkpt lat="45.91666605" lon="9.01124806"><ele>1354.634766</ele><time>2008-06-01T10:29:50Z</time></trkpt>
<trkpt lat="45.91671685" lon="9.01183312"><ele>1357.03833</ele><time>2008-06-01T10:30:14Z</time></trkpt>
<trkpt lat="45.91672422" lon="9.01189825"><ele>1358.960938</ele><time>2008-06-01T10:30:17Z</time></trkpt>
<trkpt lat="45.91673235" lon="9.01200059"><ele>1360.402832</ele><time>2008-06-01T10:30:22Z</time></trkpt>
<trkpt lat="45.91672808" lon="9.01249403"><ele>1362.325439</ele><time>2008-06-01T10:30:43Z</time></trkpt>
<trkpt lat="45.91672850" lon="9.01268606"><ele>1365.209473</ele><time>2008-06-01T10:30:53Z</time></trkpt>
<trkpt lat="45.91675247" lon="9.01282017"><ele>1367.13208</ele><time>2008-06-01T10:31:01Z</time></trkpt>
<trkpt lat="45.91674509" lon="9.01287373"><ele>1367.13208</ele><time>2008-06-01T10:31:04Z</time></trkpt>
<trkpt lat="45.91683218" lon="9.01294632"><ele>1368.093262</ele><time>2008-06-01T10:31:12Z</time></trkpt>
<trkpt lat="45.91702924" lon="9.01280307"><ele>1368.093262</ele><time>2008-06-01T10:31:23Z</time></trkpt>
<trkpt lat="45.91718665" lon="9.01263217"><ele>1370.496582</ele><time>2008-06-01T10:31:37Z</time></trkpt>
<trkpt lat="45.91737122" lon="9.01252463"><ele>1371.457764</ele><time>2008-06-01T10:31:50Z</time></trkpt>
<trkpt lat="45.91756627" lon="9.01241164"><ele>1372.419434</ele><time>2008-06-01T10:32:02Z</time></trkpt>
<trkpt lat="45.91776492" lon="9.01236629"><ele>1373.380859</ele><time>2008-06-01T10:32:13Z</time></trkpt>
<trkpt lat="45.91780054" lon="9.01233553"><ele>1373.380859</ele><time>2008-06-01T10:32:15Z</time></trkpt>
<trkpt lat="45.91798604" lon="9.01219605"><ele>1376.745361</ele><time>2008-06-01T10:32:28Z</time></trkpt>
<trkpt lat="45.91799584" lon="9.01218994"><ele>1377.226074</ele><time>2008-06-01T10:32:29Z</time></trkpt>
<trkpt lat="45.91817974" lon="9.01208592"><ele>1378.667969</ele><time>2008-06-01T10:32:42Z</time></trkpt>
<trkpt lat="45.91819366" lon="9.01208298"><ele>1378.667969</ele><time>2008-06-01T10:32:43Z</time></trkpt>
<trkpt lat="45.91847629" lon="9.01220326"><ele>1379.62915</ele><time>2008-06-01T10:32:57Z</time></trkpt>
<trkpt lat="45.91871065" lon="9.01236344"><ele>1382.513184</ele><time>2008-06-01T10:33:11Z</time></trkpt>
<trkpt lat="45.91876748" lon="9.01242136"><ele>1383.474365</ele><time>2008-06-01T10:33:15Z</time></trkpt>
<trkpt lat="45.91891819" lon="9.01259026"><ele>1386.838867</ele><time>2008-06-01T10:33:28Z</time></trkpt>
<trkpt lat="45.91913134" lon="9.01284523"><ele>1390.203857</ele><time>2008-06-01T10:33:45Z</time></trkpt>
<trkpt lat="45.91915104" lon="9.01286460"><ele>1391.165039</ele><time>2008-06-01T10:33:47Z</time></trkpt>
<trkpt lat="45.91924164" lon="9.01296266"><ele>1391.645752</ele><time>2008-06-01T10:34:01Z</time></trkpt>
<trkpt lat="45.91929789" lon="9.01304095"><ele>1393.568359</ele><time>2008-06-01T10:34:25Z</time></trkpt>
<trkpt lat="45.91942177" lon="9.01320658"><ele>1394.529541</ele><time>2008-06-01T10:34:43Z</time></trkpt>
<trkpt lat="45.91950039" lon="9.01345057"><ele>1395.97168</ele><time>2008-06-01T10:35:00Z</time></trkpt>
<trkpt lat="45.91953820" lon="9.01360958"><ele>1398.374756</ele><time>2008-06-01T10:35:15Z</time></trkpt>
<trkpt lat="45.91960517" lon="9.01380178"><ele>1401.258789</ele><time>2008-06-01T10:35:33Z</time></trkpt>
<trkpt lat="45.91963124" lon="9.01389792"><ele>1401.739502</ele><time>2008-06-01T10:35:41Z</time></trkpt>
<trkpt lat="45.91971698" lon="9.01415767"><ele>1403.662109</ele><time>2008-06-01T10:36:00Z</time></trkpt>
<trkpt lat="45.91981773" lon="9.01439144"><ele>1407.026855</ele><time>2008-06-01T10:36:19Z</time></trkpt>
<trkpt lat="45.91991756" lon="9.01437158"><ele>1408.949463</ele><time>2008-06-01T10:36:35Z</time></trkpt>
<trkpt lat="45.91995218" lon="9.01434685"><ele>1409.430176</ele><time>2008-06-01T10:36:43Z</time></trkpt>
<trkpt lat="45.92005620" lon="9.01424702"><ele>1408.949463</ele><time>2008-06-01T10:36:52Z</time></trkpt>
<trkpt lat="45.92016357" lon="9.01410596"><ele>1409.430176</ele><time>2008-06-01T10:36:59Z</time></trkpt>
<trkpt lat="45.92035417" lon="9.01385995"><ele>1411.833496</ele><time>2008-06-01T10:37:14Z</time></trkpt>
<trkpt lat="45.92046322" lon="9.01377898"><ele>1412.794678</ele><time>2008-06-01T10:37:22Z</time></trkpt>
<trkpt lat="45.92047974" lon="9.01375375"><ele>1413.755859</ele><time>2008-06-01T10:37:25Z</time></trkpt>
<trkpt lat="45.92059222" lon="9.01370463"><ele>1414.236572</ele><time>2008-06-01T10:37:39Z</time></trkpt>
<trkpt lat="45.92067327" lon="9.01367714"><ele>1415.678711</ele><time>2008-06-01T10:37:48Z</time></trkpt>
<trkpt lat="45.92083069" lon="9.01361964"><ele>1418.5625</ele><time>2008-06-01T10:38:06Z</time></trkpt>
<trkpt lat="45.92090763" lon="9.01362274"><ele>1421.927246</ele><time>2008-06-01T10:38:18Z</time></trkpt>
<trkpt lat="45.92105004" lon="9.01364554"><ele>1425.291748</ele><time>2008-06-01T10:38:39Z</time></trkpt>
<trkpt lat="45.92119656" lon="9.01369139"><ele>1428.656494</ele><time>2008-06-01T10:38:58Z</time></trkpt>
<trkpt lat="45.92131952" lon="9.01369348"><ele>1430.579102</ele><time>2008-06-01T10:39:15Z</time></trkpt>
<trkpt lat="45.92143125" lon="9.01368979"><ele>1433.462891</ele><time>2008-06-01T10:39:31Z</time></trkpt>
<trkpt lat="45.92156880" lon="9.01371318"><ele>1436.347168</ele><time>2008-06-01T10:39:48Z</time></trkpt>
<trkpt lat="45.92167323" lon="9.01370153"><ele>1439.71167</ele><time>2008-06-01T10:40:03Z</time></trkpt>
<trkpt lat="45.92180869" lon="9.01373539"><ele>1439.71167</ele><time>2008-06-01T10:40:22Z</time></trkpt>
<trkpt lat="45.92192855" lon="9.01376825"><ele>1441.634277</ele><time>2008-06-01T10:40:41Z</time></trkpt>
<trkpt lat="45.92202997" lon="9.01379289"><ele>1443.556885</ele><time>2008-06-01T10:40:57Z</time></trkpt>
<trkpt lat="45.92207733" lon="9.01380085"><ele>1446.440918</ele><time>2008-06-01T10:41:05Z</time></trkpt>
<trkpt lat="45.92217648" lon="9.01380546"><ele>1448.363281</ele><time>2008-06-01T10:41:20Z</time></trkpt>
<trkpt lat="45.92230607" lon="9.01386975"><ele>1450.766602</ele><time>2008-06-01T10:41:37Z</time></trkpt>
<trkpt lat="45.92245124" lon="9.01395349"><ele>1452.689453</ele><time>2008-06-01T10:41:55Z</time></trkpt>
<trkpt lat="45.92257932" lon="9.01405617"><ele>1454.612061</ele><time>2008-06-01T10:42:13Z</time></trkpt>
<trkpt lat="45.92265056" lon="9.01408777"><ele>1457.496094</ele><time>2008-06-01T10:42:27Z</time></trkpt>
<trkpt lat="45.92277093" lon="9.01416639"><ele>1460.860596</ele><time>2008-06-01T10:42:45Z</time></trkpt>
<trkpt lat="45.92286782" lon="9.01424618"><ele>1461.822021</ele><time>2008-06-01T10:43:01Z</time></trkpt>
<trkpt lat="45.92297092" lon="9.01431684"><ele>1463.744385</ele><time>2008-06-01T10:43:18Z</time></trkpt>
<trkpt lat="45.92302842" lon="9.01436563"><ele>1465.667236</ele><time>2008-06-01T10:43:31Z</time></trkpt>
<trkpt lat="45.92309346" lon="9.01443025"><ele>1468.55127</ele><time>2008-06-01T10:43:41Z</time></trkpt>
<trkpt lat="45.92323906" lon="9.01451977"><ele>1469.512695</ele><time>2008-06-01T10:44:01Z</time></trkpt>
<trkpt lat="45.92335800" lon="9.01456654"><ele>1472.877197</ele><time>2008-06-01T10:44:18Z</time></trkpt>
<trkpt lat="45.92348867" lon="9.01462203"><ele>1475.280273</ele><time>2008-06-01T10:44:37Z</time></trkpt>
<trkpt lat="45.92361725" lon="9.01468129"><ele>1477.203125</ele><time>2008-06-01T10:44:55Z</time></trkpt>
<trkpt lat="45.92374046" lon="9.01471809"><ele>1479.125488</ele><time>2008-06-01T10:45:09Z</time></trkpt>
<trkpt lat="45.92384197" lon="9.01478204"><ele>1480.567627</ele><time>2008-06-01T10:45:24Z</time></trkpt>
<trkpt lat="45.92397038" lon="9.01487139"><ele>1484.413086</ele><time>2008-06-01T10:45:42Z</time></trkpt>
<trkpt lat="45.92397658" lon="9.01487969"><ele>1484.413086</ele><time>2008-06-01T10:45:43Z</time></trkpt>
<trkpt lat="45.92409158" lon="9.01496074"><ele>1486.816162</ele><time>2008-06-01T10:46:00Z</time></trkpt>
<trkpt lat="45.92419007" lon="9.01502889"><ele>1488.739014</ele><time>2008-06-01T10:46:15Z</time></trkpt>
<trkpt lat="45.92428906" lon="9.01511983"><ele>1490.661377</ele><time>2008-06-01T10:46:31Z</time></trkpt>
<trkpt lat="45.92442493" lon="9.01521086"><ele>1493.064697</ele><time>2008-06-01T10:46:51Z</time></trkpt>
<trkpt lat="45.92451084" lon="9.01527515"><ele>1494.506592</ele><time>2008-06-01T10:47:06Z</time></trkpt>
<trkpt lat="45.92464043" lon="9.01539987"><ele>1497.871338</ele><time>2008-06-01T10:47:26Z</time></trkpt>
<trkpt lat="45.92473447" lon="9.01544916"><ele>1500.755371</ele><time>2008-06-01T10:47:39Z</time></trkpt>
<trkpt lat="45.92485685" lon="9.01555100"><ele>1503.158691</ele><time>2008-06-01T10:47:57Z</time></trkpt>
<trkpt lat="45.92498526" lon="9.01562677"><ele>1505.081299</ele><time>2008-06-01T10:48:17Z</time></trkpt>
<trkpt lat="45.92508132" lon="9.01569265"><ele>1507.003906</ele><time>2008-06-01T10:48:32Z</time></trkpt>
<trkpt lat="45.92515675" lon="9.01574663"><ele>1509.887695</ele><time>2008-06-01T10:48:44Z</time></trkpt>
<trkpt lat="45.92516237" lon="9.01575518"><ele>1509.887695</ele><time>2008-06-01T10:48:45Z</time></trkpt>
<trkpt lat="45.92526748" lon="9.01587185"><ele>1513.252441</ele><time>2008-06-01T10:49:02Z</time></trkpt>
<trkpt lat="45.92536798" lon="9.01596338"><ele>1515.175049</ele><time>2008-06-01T10:49:17Z</time></trkpt>
<trkpt lat="45.92546395" lon="9.01606564"><ele>1518.539795</ele><time>2008-06-01T10:49:32Z</time></trkpt>
<trkpt lat="45.92557979" lon="9.01618618"><ele>1521.423584</ele><time>2008-06-01T10:49:51Z</time></trkpt>
<trkpt lat="45.92568959" lon="9.01631199"><ele>1522.865723</ele><time>2008-06-01T10:50:10Z</time></trkpt>
<trkpt lat="45.92581213" lon="9.01647770"><ele>1526.230225</ele><time>2008-06-01T10:50:31Z</time></trkpt>
<trkpt lat="45.92591942" lon="9.01661005"><ele>1529.114014</ele><time>2008-06-01T10:50:49Z</time></trkpt>
<trkpt lat="45.92603685" lon="9.01674726"><ele>1531.998047</ele><time>2008-06-01T10:51:10Z</time></trkpt>
<trkpt lat="45.92613065" lon="9.01688313"><ele>1535.362793</ele><time>2008-06-01T10:51:29Z</time></trkpt>
<trkpt lat="45.92623274" lon="9.01703820"><ele>1537.766113</ele><time>2008-06-01T10:51:49Z</time></trkpt>
<trkpt lat="45.92633693" lon="9.01722394"><ele>1540.169434</ele><time>2008-06-01T10:52:09Z</time></trkpt>
<trkpt lat="45.92644463" lon="9.01740465"><ele>1542.092041</ele><time>2008-06-01T10:52:29Z</time></trkpt>
<trkpt lat="45.92650046" lon="9.01748965"><ele>1544.97583</ele><time>2008-06-01T10:52:42Z</time></trkpt>
<trkpt lat="45.92658830" lon="9.01762694"><ele>1548.340576</ele><time>2008-06-01T10:53:00Z</time></trkpt>
<trkpt lat="45.92668142" lon="9.01779709"><ele>1550.743896</ele><time>2008-06-01T10:53:20Z</time></trkpt>
<trkpt lat="45.92678159" lon="9.01798259"><ele>1553.62793</ele><time>2008-06-01T10:53:42Z</time></trkpt>
<trkpt lat="45.92680103" lon="9.01804076"><ele>1554.589111</ele><time>2008-06-01T10:53:48Z</time></trkpt>
<trkpt lat="45.92687898" lon="9.01817168"><ele>1556.992432</ele><time>2008-06-01T10:54:05Z</time></trkpt>
<trkpt lat="45.92696154" lon="9.01831074"><ele>1559.876221</ele><time>2008-06-01T10:54:24Z</time></trkpt>
<trkpt lat="45.92707545" lon="9.01846413"><ele>1563.240967</ele><time>2008-06-01T10:54:44Z</time></trkpt>
<trkpt lat="45.92720504" lon="9.01861316"><ele>1566.125</ele><time>2008-06-01T10:55:04Z</time></trkpt>
<trkpt lat="45.92733756" lon="9.01875397"><ele>1569.009033</ele><time>2008-06-01T10:55:26Z</time></trkpt>
<trkpt lat="45.92745063" lon="9.01886914"><ele>1572.373535</ele><time>2008-06-01T10:55:45Z</time></trkpt>
<trkpt lat="45.92748022" lon="9.01889018"><ele>1573.334961</ele><time>2008-06-01T10:55:50Z</time></trkpt>
<trkpt lat="45.92759195" lon="9.01897307"><ele>1576.699463</ele><time>2008-06-01T10:56:09Z</time></trkpt>
<trkpt lat="45.92771097" lon="9.01910802"><ele>1580.064209</ele><time>2008-06-01T10:56:28Z</time></trkpt>
<trkpt lat="45.92771617" lon="9.01911632"><ele>1580.064209</ele><time>2008-06-01T10:56:29Z</time></trkpt>
<trkpt lat="45.92782388" lon="9.01924658"><ele>1581.986816</ele><time>2008-06-01T10:56:47Z</time></trkpt>
<trkpt lat="45.92793753" lon="9.01936099"><ele>1585.832031</ele><time>2008-06-01T10:57:05Z</time></trkpt>
<trkpt lat="45.92804926" lon="9.01954589"><ele>1588.716064</ele><time>2008-06-01T10:57:27Z</time></trkpt>
<trkpt lat="45.92814633" lon="9.01970398"><ele>1592.080566</ele><time>2008-06-01T10:57:46Z</time></trkpt>
<trkpt lat="45.92823543" lon="9.01978805"><ele>1595.925781</ele><time>2008-06-01T10:58:02Z</time></trkpt>
<trkpt lat="45.92827030" lon="9.01983725"><ele>1597.848633</ele><time>2008-06-01T10:58:17Z</time></trkpt>
<trkpt lat="45.92829393" lon="9.01984722"><ele>1597.848633</ele><time>2008-06-01T10:58:22Z</time></trkpt>
<trkpt lat="45.92831329" lon="9.01990984"><ele>1597.848633</ele><time>2008-06-01T10:58:27Z</time></trkpt>
<trkpt lat="45.92845185" lon="9.02013187"><ele>1601.213135</ele><time>2008-06-01T10:58:48Z</time></trkpt>
<trkpt lat="45.92846568" lon="9.02016163"><ele>1602.174316</ele><time>2008-06-01T10:58:51Z</time></trkpt>
<trkpt lat="45.92855478" lon="9.02037755"><ele>1605.539063</ele><time>2008-06-01T10:59:09Z</time></trkpt>
<trkpt lat="45.92858478" lon="9.02050814"><ele>1606.019531</ele><time>2008-06-01T10:59:28Z</time></trkpt>
<trkpt lat="45.92859669" lon="9.02050495"><ele>1606.019531</ele><time>2008-06-01T10:59:55Z</time></trkpt>
<trkpt lat="45.92860985" lon="9.02052415"><ele>1606.500244</ele><time>2008-06-01T11:00:13Z</time></trkpt>
<trkpt lat="45.92858269" lon="9.02052239"><ele>1606.980957</ele><time>2008-06-01T11:00:29Z</time></trkpt>
<trkpt lat="45.92857758" lon="9.02050730"><ele>1606.500244</ele><time>2008-06-01T11:00:45Z</time></trkpt>
<trkpt lat="45.92856718" lon="9.02048165"><ele>1606.500244</ele><time>2008-06-01T11:01:00Z</time></trkpt>
<trkpt lat="45.92857154" lon="9.02050914"><ele>1606.980957</ele><time>2008-06-01T11:01:13Z</time></trkpt>
<trkpt lat="45.92860532" lon="9.02061492"><ele>1606.980957</ele><time>2008-06-01T11:01:18Z</time></trkpt>
<trkpt lat="45.92863860" lon="9.02083335"><ele>1605.539063</ele><time>2008-06-01T11:01:23Z</time></trkpt>
<trkpt lat="45.92871068" lon="9.02133459"><ele>1605.05835</ele><time>2008-06-01T11:01:35Z</time></trkpt>
<trkpt lat="45.92882467" lon="9.02204429"><ele>1605.05835</ele><time>2008-06-01T11:01:50Z</time></trkpt>
<trkpt lat="45.92889257" lon="9.02228259"><ele>1605.539063</ele><time>2008-06-01T11:01:56Z</time></trkpt>
<trkpt lat="45.92888310" lon="9.02268249"><ele>1601.693848</ele><time>2008-06-01T11:02:02Z</time></trkpt>
<trkpt lat="45.92887639" lon="9.02275725"><ele>1601.213135</ele><time>2008-06-01T11:02:03Z</time></trkpt>
<trkpt lat="45.92889206" lon="9.02344926"><ele>1596.887207</ele><time>2008-06-01T11:02:11Z</time></trkpt>
<trkpt lat="45.92890724" lon="9.02358304"><ele>1595.445068</ele><time>2008-06-01T11:02:13Z</time></trkpt>
<trkpt lat="45.92892375" lon="9.02378303"><ele>1593.522461</ele><time>2008-06-01T11:02:17Z</time></trkpt>
<trkpt lat="45.92891704" lon="9.02390390"><ele>1593.041748</ele><time>2008-06-01T11:02:19Z</time></trkpt>
<trkpt lat="45.92889718" lon="9.02412417"><ele>1589.677246</ele><time>2008-06-01T11:02:22Z</time></trkpt>
<trkpt lat="45.92888947" lon="9.02454939"><ele>1587.754639</ele><time>2008-06-01T11:02:28Z</time></trkpt>
<trkpt lat="45.92890707" lon="9.02458845"><ele>1587.273926</ele><time>2008-06-01T11:02:30Z</time></trkpt>
<trkpt lat="45.92896859" lon="9.02454377"><ele>1586.312744</ele><time>2008-06-01T11:02:34Z</time></trkpt>
<trkpt lat="45.92898452" lon="9.02452257"><ele>1586.312744</ele><time>2008-06-01T11:02:35Z</time></trkpt>
<trkpt lat="45.92906716" lon="9.02438544"><ele>1580.544922</ele><time>2008-06-01T11:02:40Z</time></trkpt>
<trkpt lat="45.92910857" lon="9.02429164"><ele>1579.583252</ele><time>2008-06-01T11:02:42Z</time></trkpt>
<trkpt lat="45.92919298" lon="9.02410490"><ele>1574.776855</ele><time>2008-06-01T11:02:46Z</time></trkpt>
<trkpt lat="45.92925433" lon="9.02391622"><ele>1572.854248</ele><time>2008-06-01T11:02:50Z</time></trkpt>
<trkpt lat="45.92929884" lon="9.02384128"><ele>1571.412109</ele><time>2008-06-01T11:02:52Z</time></trkpt>
<trkpt lat="45.92951828" lon="9.02334617"><ele>1567.086426</ele><time>2008-06-01T11:03:01Z</time></trkpt>
<trkpt lat="45.92960369" lon="9.02308758"><ele>1563.240967</ele><time>2008-06-01T11:03:04Z</time></trkpt>
<trkpt lat="45.92965448" lon="9.02293059"><ele>1562.279541</ele><time>2008-06-01T11:03:06Z</time></trkpt>
<trkpt lat="45.92969798" lon="9.02281735"><ele>1561.318359</ele><time>2008-06-01T11:03:08Z</time></trkpt>
<trkpt lat="45.92975096" lon="9.02271425"><ele>1559.876221</ele><time>2008-06-01T11:03:10Z</time></trkpt>
<trkpt lat="45.92980552" lon="9.02263287"><ele>1557.953857</ele><time>2008-06-01T11:03:12Z</time></trkpt>
<trkpt lat="45.92988507" lon="9.02251988"><ele>1555.069824</ele><time>2008-06-01T11:03:15Z</time></trkpt>
<trkpt lat="45.92998565" lon="9.02242717"><ele>1553.62793</ele><time>2008-06-01T11:03:18Z</time></trkpt>
<trkpt lat="45.93014290" lon="9.02231494"><ele>1550.263428</ele><time>2008-06-01T11:03:24Z</time></trkpt>
<trkpt lat="45.93017693" lon="9.02233388"><ele>1550.743896</ele><time>2008-06-01T11:03:25Z</time></trkpt>
<trkpt lat="45.93028723" lon="9.02237588"><ele>1549.782715</ele><time>2008-06-01T11:03:28Z</time></trkpt>
<trkpt lat="45.93042268" lon="9.02241359"><ele>1549.302002</ele><time>2008-06-01T11:03:31Z</time></trkpt>
<trkpt lat="45.93058546" lon="9.02253555"><ele>1547.859863</ele><time>2008-06-01T11:03:35Z</time></trkpt>
<trkpt lat="45.93067322" lon="9.02259867"><ele>1547.37915</ele><time>2008-06-01T11:03:37Z</time></trkpt>
<trkpt lat="45.93091462" lon="9.02272934"><ele>1542.572754</ele><time>2008-06-01T11:03:42Z</time></trkpt>
<trkpt lat="45.93098578" lon="9.02272758"><ele>1540.649902</ele><time>2008-06-01T11:03:44Z</time></trkpt>
<trkpt lat="45.93123347" lon="9.02262256"><ele>1536.804688</ele><time>2008-06-01T11:03:50Z</time></trkpt>
<trkpt lat="45.93128418" lon="9.02257847"><ele>1537.766113</ele><time>2008-06-01T11:03:52Z</time></trkpt>
<trkpt lat="45.93136154" lon="9.02253798"><ele>1537.2854</ele><time>2008-06-01T11:03:54Z</time></trkpt>
<trkpt lat="45.93156547" lon="9.02243447"><ele>1537.2854</ele><time>2008-06-01T11:04:00Z</time></trkpt>
<trkpt lat="45.93178977" lon="9.02227747"><ele>1537.766113</ele><time>2008-06-01T11:04:12Z</time></trkpt>
<trkpt lat="45.93181215" lon="9.02231896"><ele>1537.2854</ele><time>2008-06-01T11:04:20Z</time></trkpt>
<trkpt lat="45.93193143" lon="9.02257377"><ele>1534.401611</ele><time>2008-06-01T11:04:28Z</time></trkpt>
<trkpt lat="45.93195858" lon="9.02265449"><ele>1533.440186</ele><time>2008-06-01T11:04:30Z</time></trkpt>
<trkpt lat="45.93200125" lon="9.02282783"><ele>1531.036865</ele><time>2008-06-01T11:04:33Z</time></trkpt>
<trkpt lat="45.93212689" lon="9.02318716"><ele>1527.19165</ele><time>2008-06-01T11:04:39Z</time></trkpt>
<trkpt lat="45.93223787" lon="9.02345899"><ele>1522.865723</ele><time>2008-06-01T11:04:43Z</time></trkpt>
<trkpt lat="45.93226804" lon="9.02352562"><ele>1523.826904</ele><time>2008-06-01T11:04:44Z</time></trkpt>
<trkpt lat="45.93229973" lon="9.02358798"><ele>1522.865723</ele><time>2008-06-01T11:04:45Z</time></trkpt>
<trkpt lat="45.93244666" lon="9.02376249"><ele>1520.462402</ele><time>2008-06-01T11:04:49Z</time></trkpt>
<trkpt lat="45.93248799" lon="9.02379803"><ele>1519.501221</ele><time>2008-06-01T11:04:50Z</time></trkpt>
<trkpt lat="45.93267004" lon="9.02396190"><ele>1515.175049</ele><time>2008-06-01T11:04:54Z</time></trkpt>
<trkpt lat="45.93301353" lon="9.02401219"><ele>1513.73291</ele><time>2008-06-01T11:05:01Z</time></trkpt>
<trkpt lat="45.93312568" lon="9.02399467"><ele>1512.771729</ele><time>2008-06-01T11:05:03Z</time></trkpt>
<trkpt lat="45.93323649" lon="9.02396207"><ele>1511.329834</ele><time>2008-06-01T11:05:05Z</time></trkpt>
<trkpt lat="45.93334772" lon="9.02392745"><ele>1510.368408</ele><time>2008-06-01T11:05:07Z</time></trkpt>
<trkpt lat="45.93339834" lon="9.02390725"><ele>1509.887695</ele><time>2008-06-01T11:05:08Z</time></trkpt>
<trkpt lat="45.93349222" lon="9.02384137"><ele>1507.965332</ele><time>2008-06-01T11:05:10Z</time></trkpt>
<trkpt lat="45.93380562" lon="9.02361908"><ele>1507.484619</ele><time>2008-06-01T11:05:19Z</time></trkpt>
<trkpt lat="45.93387050" lon="9.02360659"><ele>1507.965332</ele><time>2008-06-01T11:05:21Z</time></trkpt>
<trkpt lat="45.93403026" lon="9.02358497"><ele>1508.926514</ele><time>2008-06-01T11:05:26Z</time></trkpt>
<trkpt lat="45.93415582" lon="9.02379326"><ele>1504.600586</ele><time>2008-06-01T11:05:31Z</time></trkpt>
<trkpt lat="45.93423083" lon="9.02389023"><ele>1503.639404</ele><time>2008-06-01T11:05:33Z</time></trkpt>
<trkpt lat="45.93440442" lon="9.02398637"><ele>1502.677979</ele><time>2008-06-01T11:05:36Z</time></trkpt>
<trkpt lat="45.93459444" lon="9.02401496"><ele>1499.793945</ele><time>2008-06-01T11:05:40Z</time></trkpt>
<trkpt lat="45.93469779" lon="9.02399308"><ele>1497.871338</ele><time>2008-06-01T11:05:42Z</time></trkpt>
<trkpt lat="45.93480013" lon="9.02409417"><ele>1496.429443</ele><time>2008-06-01T11:05:46Z</time></trkpt>
<trkpt lat="45.93481338" lon="9.02414488"><ele>1495.468018</ele><time>2008-06-01T11:05:47Z</time></trkpt>
<trkpt lat="45.93489963" lon="9.02455953"><ele>1493.064697</ele><time>2008-06-01T11:05:52Z</time></trkpt>
<trkpt lat="45.93503634" lon="9.02527006"><ele>1490.180908</ele><time>2008-06-01T11:05:59Z</time></trkpt>
<trkpt lat="45.93521479" lon="9.02596316"><ele>1486.816162</ele><time>2008-06-01T11:06:07Z</time></trkpt>
<trkpt lat="45.93524119" lon="9.02603550"><ele>1487.296875</ele><time>2008-06-01T11:06:08Z</time></trkpt>
<trkpt lat="45.93536013" lon="9.02642350"><ele>1483.932129</ele><time>2008-06-01T11:06:15Z</time></trkpt>
<trkpt lat="45.93541210" lon="9.02653514"><ele>1482.490234</ele><time>2008-06-01T11:06:18Z</time></trkpt>
<trkpt lat="45.93556305" lon="9.02673916"><ele>1478.64502</ele><time>2008-06-01T11:06:24Z</time></trkpt>
<trkpt lat="45.93559549" lon="9.02676959"><ele>1478.64502</ele><time>2008-06-01T11:06:25Z</time></trkpt>
<trkpt lat="45.93565660" lon="9.02683077"><ele>1477.683594</ele><time>2008-06-01T11:06:27Z</time></trkpt>
<trkpt lat="45.93599338" lon="9.02706924"><ele>1473.35791</ele><time>2008-06-01T11:06:33Z</time></trkpt>
<trkpt lat="45.93619052" lon="9.02721525"><ele>1469.512695</ele><time>2008-06-01T11:06:36Z</time></trkpt>
<trkpt lat="45.93625959" lon="9.02727309"><ele>1469.512695</ele><time>2008-06-01T11:06:37Z</time></trkpt>
<trkpt lat="45.93632715" lon="9.02733335"><ele>1469.512695</ele><time>2008-06-01T11:06:38Z</time></trkpt>
<trkpt lat="45.93656159" lon="9.02762102"><ele>1467.5896</ele><time>2008-06-01T11:06:42Z</time></trkpt>
<trkpt lat="45.93673836" lon="9.02781464"><ele>1465.186523</ele><time>2008-06-01T11:06:45Z</time></trkpt>
<trkpt lat="45.93689796" lon="9.02815185"><ele>1463.744385</ele><time>2008-06-01T11:06:49Z</time></trkpt>
<trkpt lat="45.93694104" lon="9.02846684"><ele>1462.783203</ele><time>2008-06-01T11:06:52Z</time></trkpt>
<trkpt lat="45.93694632" lon="9.02878845"><ele>1458.457275</ele><time>2008-06-01T11:06:55Z</time></trkpt>
<trkpt lat="45.93696032" lon="9.02901099"><ele>1456.534668</ele><time>2008-06-01T11:06:57Z</time></trkpt>
<trkpt lat="45.93695629" lon="9.02938013"><ele>1453.170166</ele><time>2008-06-01T11:07:00Z</time></trkpt>
<trkpt lat="45.93689603" lon="9.02977492"><ele>1449.80542</ele><time>2008-06-01T11:07:04Z</time></trkpt>
<trkpt lat="45.93687449" lon="9.03018186"><ele>1446.921387</ele><time>2008-06-01T11:07:09Z</time></trkpt>
<trkpt lat="45.93686594" lon="9.03033818"><ele>1447.882813</ele><time>2008-06-01T11:07:11Z</time></trkpt>
<trkpt lat="45.93683694" lon="9.03049467"><ele>1446.921387</ele><time>2008-06-01T11:07:13Z</time></trkpt>
<trkpt lat="45.93678346" lon="9.03094193"><ele>1443.556885</ele><time>2008-06-01T11:07:18Z</time></trkpt>
<trkpt lat="45.93675739" lon="9.03120236"><ele>1443.076172</ele><time>2008-06-01T11:07:21Z</time></trkpt>
<trkpt lat="45.93670953" lon="9.03145239"><ele>1439.71167</ele><time>2008-06-01T11:07:25Z</time></trkpt>
<trkpt lat="45.93666988" lon="9.03175724"><ele>1439.230957</ele><time>2008-06-01T11:07:30Z</time></trkpt>
<trkpt lat="45.93666083" lon="9.03199562"><ele>1436.347168</ele><time>2008-06-01T11:07:33Z</time></trkpt>
<trkpt lat="45.93669453" lon="9.03238546"><ele>1431.540283</ele><time>2008-06-01T11:07:38Z</time></trkpt>
<trkpt lat="45.93674163" lon="9.03275795"><ele>1426.733887</ele><time>2008-06-01T11:07:43Z</time></trkpt>
<trkpt lat="45.93676426" lon="9.03292467"><ele>1424.811279</ele><time>2008-06-01T11:07:45Z</time></trkpt>
<trkpt lat="45.93679218" lon="9.03317420"><ele>1420.004639</ele><time>2008-06-01T11:07:48Z</time></trkpt>
<trkpt lat="45.93679880" lon="9.03325207"><ele>1419.043213</ele><time>2008-06-01T11:07:49Z</time></trkpt>
<trkpt lat="45.93675362" lon="9.03365607"><ele>1414.236572</ele><time>2008-06-01T11:07:54Z</time></trkpt>
<trkpt lat="45.93668757" lon="9.03392564"><ele>1411.352783</ele><time>2008-06-01T11:07:58Z</time></trkpt>
<trkpt lat="45.93667106" lon="9.03399319"><ele>1410.87207</ele><time>2008-06-01T11:07:59Z</time></trkpt>
<trkpt lat="45.93667282" lon="9.03427499"><ele>1407.507568</ele><time>2008-06-01T11:08:04Z</time></trkpt>
<trkpt lat="45.93680282" lon="9.03440307"><ele>1404.623535</ele><time>2008-06-01T11:08:13Z</time></trkpt>
<trkpt lat="45.93680827" lon="9.03437524"><ele>1404.623535</ele><time>2008-06-01T11:08:34Z</time></trkpt>
<trkpt lat="45.93680056" lon="9.03437155"><ele>1405.104248</ele><time>2008-06-01T11:09:04Z</time></trkpt>
<trkpt lat="45.93695512" lon="9.03438186"><ele>1403.662109</ele><time>2008-06-01T11:09:12Z</time></trkpt>
<trkpt lat="45.93719023" lon="9.03398297"><ele>1403.181396</ele><time>2008-06-01T11:09:23Z</time></trkpt>
<trkpt lat="45.93730364" lon="9.03368214"><ele>1401.739502</ele><time>2008-06-01T11:09:29Z</time></trkpt>
<trkpt lat="45.93735779" lon="9.03356848"><ele>1401.258789</ele><time>2008-06-01T11:09:31Z</time></trkpt>
<trkpt lat="45.93759709" lon="9.03311829"><ele>1399.336182</ele><time>2008-06-01T11:09:41Z</time></trkpt>
<trkpt lat="45.93783866" lon="9.03281034"><ele>1397.894287</ele><time>2008-06-01T11:09:48Z</time></trkpt>
<trkpt lat="45.93797562" lon="9.03263046"><ele>1396.932861</ele><time>2008-06-01T11:09:52Z</time></trkpt>
<trkpt lat="45.93809456" lon="9.03245126"><ele>1395.490967</ele><time>2008-06-01T11:09:56Z</time></trkpt>
<trkpt lat="45.93833009" lon="9.03196343"><ele>1395.010254</ele><time>2008-06-01T11:10:07Z</time></trkpt>
<trkpt lat="45.93845632" lon="9.03147644"><ele>1392.126465</ele><time>2008-06-01T11:10:18Z</time></trkpt>
<trkpt lat="45.93842497" lon="9.03079374"><ele>1391.165039</ele><time>2008-06-01T11:10:30Z</time></trkpt>
<trkpt lat="45.93837929" lon="9.02999058"><ele>1391.645752</ele><time>2008-06-01T11:10:57Z</time></trkpt>
<trkpt lat="45.93836714" lon="9.02989042"><ele>1391.165039</ele><time>2008-06-01T11:10:45Z</time></trkpt>
<trkpt lat="45.93846059" lon="9.02943629"><ele>1390.203857</ele><time>2008-06-01T11:10:54Z</time></trkpt>
<trkpt lat="45.93866503" lon="9.02920729"><ele>1386.838867</ele><time>2008-06-01T11:11:01Z</time></trkpt>
<trkpt lat="45.93869437" lon="9.02917829"><ele>1386.358398</ele><time>2008-06-01T11:11:02Z</time></trkpt>
<trkpt lat="45.93881490" lon="9.02901786"><ele>1381.071289</ele><time>2008-06-01T11:11:07Z</time></trkpt>
<trkpt lat="45.93883158" lon="9.02898568"><ele>1381.071289</ele><time>2008-06-01T11:11:08Z</time></trkpt>
<trkpt lat="45.93886536" lon="9.02891468"><ele>1380.590576</ele><time>2008-06-01T11:11:10Z</time></trkpt>
<trkpt lat="45.93891707" lon="9.02891653"><ele>1379.62915</ele><time>2008-06-01T11:11:13Z</time></trkpt>
<trkpt lat="45.93892328" lon="9.02898945"><ele>1378.667969</ele><time>2008-06-01T11:11:15Z</time></trkpt>
<trkpt lat="45.93892009" lon="9.02919958"><ele>1376.745361</ele><time>2008-06-01T11:11:20Z</time></trkpt>
<trkpt lat="45.93902470" lon="9.02948080"><ele>1375.303223</ele><time>2008-06-01T11:11:25Z</time></trkpt>
<trkpt lat="45.93921966" lon="9.02967609"><ele>1374.822754</ele><time>2008-06-01T11:11:34Z</time></trkpt>
<trkpt lat="45.93946433" lon="9.02990626"><ele>1370.977295</ele><time>2008-06-01T11:11:45Z</time></trkpt>
<trkpt lat="45.93949065" lon="9.02992956"><ele>1371.457764</ele><time>2008-06-01T11:11:46Z</time></trkpt>
<trkpt lat="45.93956684" lon="9.02999737"><ele>1370.015869</ele><time>2008-06-01T11:11:49Z</time></trkpt>
<trkpt lat="45.93968846" lon="9.03010282"><ele>1367.13208</ele><time>2008-06-01T11:11:53Z</time></trkpt>
<trkpt lat="45.93988267" lon="9.03016878"><ele>1365.209473</ele><time>2008-06-01T11:11:58Z</time></trkpt>
<trkpt lat="45.94016857" lon="9.03022595"><ele>1362.325439</ele><time>2008-06-01T11:12:06Z</time></trkpt>
<trkpt lat="45.94032289" lon="9.03022494"><ele>1359.922119</ele><time>2008-06-01T11:12:11Z</time></trkpt>
<trkpt lat="45.94040947" lon="9.03024405"><ele>1358.480225</ele><time>2008-06-01T11:12:13Z</time></trkpt>
<trkpt lat="45.94051743" lon="9.03028596"><ele>1357.03833</ele><time>2008-06-01T11:12:15Z</time></trkpt>
<trkpt lat="45.94056864" lon="9.03030775"><ele>1356.557617</ele><time>2008-06-01T11:12:16Z</time></trkpt>
<trkpt lat="45.94077618" lon="9.03067186"><ele>1354.634766</ele><time>2008-06-01T11:12:25Z</time></trkpt>
<trkpt lat="45.94081038" lon="9.03079013"><ele>1352.712158</ele><time>2008-06-01T11:12:28Z</time></trkpt>
<trkpt lat="45.94086452" lon="9.03089566"><ele>1350.789551</ele><time>2008-06-01T11:12:31Z</time></trkpt>
<trkpt lat="45.94090417" lon="9.03100220"><ele>1349.347656</ele><time>2008-06-01T11:12:33Z</time></trkpt>
<trkpt lat="45.94096192" lon="9.03114100"><ele>1347.905762</ele><time>2008-06-01T11:12:36Z</time></trkpt>
<trkpt lat="45.94101314" lon="9.03124309"><ele>1346.944336</ele><time>2008-06-01T11:12:39Z</time></trkpt>
<trkpt lat="45.94104029" lon="9.03135843"><ele>1345.021729</ele><time>2008-06-01T11:12:42Z</time></trkpt>
<trkpt lat="45.94107717" lon="9.03150260"><ele>1343.099121</ele><time>2008-06-01T11:12:45Z</time></trkpt>
<trkpt lat="45.94129594" lon="9.03215840"><ele>1339.734375</ele><time>2008-06-01T11:12:55Z</time></trkpt>
<trkpt lat="45.94147079" lon="9.03263365"><ele>1336.369873</ele><time>2008-06-01T11:13:04Z</time></trkpt>
<trkpt lat="45.94148872" lon="9.03268042"><ele>1336.369873</ele><time>2008-06-01T11:13:05Z</time></trkpt>
<trkpt lat="45.94153499" lon="9.03278402"><ele>1335.88916</ele><time>2008-06-01T11:13:07Z</time></trkpt>
<trkpt lat="45.94160004" lon="9.03296733"><ele>1334.447266</ele><time>2008-06-01T11:13:10Z</time></trkpt>
<trkpt lat="45.94163960" lon="9.03311033"><ele>1333.48584</ele><time>2008-06-01T11:13:12Z</time></trkpt>
<trkpt lat="45.94165276" lon="9.03338877"><ele>1333.48584</ele><time>2008-06-01T11:13:16Z</time></trkpt>
<trkpt lat="45.94163826" lon="9.03412353"><ele>1332.524658</ele><time>2008-06-01T11:13:28Z</time></trkpt>
<trkpt lat="45.94164144" lon="9.03425395"><ele>1331.082764</ele><time>2008-06-01T11:13:30Z</time></trkpt>
<trkpt lat="45.94166726" lon="9.03456886"><ele>1330.121338</ele><time>2008-06-01T11:13:35Z</time></trkpt>
<trkpt lat="45.94172233" lon="9.03503012"><ele>1329.159912</ele><time>2008-06-01T11:13:41Z</time></trkpt>
<trkpt lat="45.94179969" lon="9.03561157"><ele>1329.159912</ele><time>2008-06-01T11:13:49Z</time></trkpt>
<trkpt lat="45.94198225" lon="9.03662796"><ele>1330.121338</ele><time>2008-06-01T11:14:06Z</time></trkpt>
<trkpt lat="45.94224469" lon="9.03711344"><ele>1330.121338</ele><time>2008-06-01T11:14:18Z</time></trkpt>
<trkpt lat="45.94244854" lon="9.03724043"><ele>1328.679443</ele><time>2008-06-01T11:14:22Z</time></trkpt>
<trkpt lat="45.94256077" lon="9.03727387"><ele>1328.19873</ele><time>2008-06-01T11:14:24Z</time></trkpt>
<trkpt lat="45.94290979" lon="9.03724462"><ele>1325.314697</ele><time>2008-06-01T11:14:34Z</time></trkpt>
<trkpt lat="45.94324465" lon="9.03726582"><ele>1324.353516</ele><time>2008-06-01T11:14:47Z</time></trkpt>
<trkpt lat="45.94327935" lon="9.03727504"><ele>1324.834229</ele><time>2008-06-01T11:14:48Z</time></trkpt>
<trkpt lat="45.94369886" lon="9.03766707"><ele>1324.834229</ele><time>2008-06-01T11:14:58Z</time></trkpt>
<trkpt lat="45.94382803" lon="9.03774586"><ele>1324.353516</ele><time>2008-06-01T11:15:01Z</time></trkpt>
<trkpt lat="45.94395686" lon="9.03777578"><ele>1324.353516</ele><time>2008-06-01T11:15:04Z</time></trkpt>
<trkpt lat="45.94415358" lon="9.03776539"><ele>1321.949951</ele><time>2008-06-01T11:15:09Z</time></trkpt>
<trkpt lat="45.94433815" lon="9.03769129"><ele>1318.585449</ele><time>2008-06-01T11:15:14Z</time></trkpt>
<trkpt lat="45.94437889" lon="9.03766556"><ele>1317.624023</ele><time>2008-06-01T11:15:15Z</time></trkpt>
<trkpt lat="45.94446078" lon="9.03760253"><ele>1317.143555</ele><time>2008-06-01T11:15:17Z</time></trkpt>
<trkpt lat="45.94461576" lon="9.03746749"><ele>1315.70166</ele><time>2008-06-01T11:15:21Z</time></trkpt>
<trkpt lat="45.94484844" lon="9.03724009"><ele>1311.375732</ele><time>2008-06-01T11:15:27Z</time></trkpt>
<trkpt lat="45.94499093" lon="9.03710020"><ele>1308.972412</ele><time>2008-06-01T11:15:31Z</time></trkpt>
<trkpt lat="45.94516042" lon="9.03695368"><ele>1307.530273</ele><time>2008-06-01T11:15:35Z</time></trkpt>
<trkpt lat="45.94528338" lon="9.03681228"><ele>1305.607666</ele><time>2008-06-01T11:15:38Z</time></trkpt>
<trkpt lat="45.94536452" lon="9.03672092"><ele>1303.685059</ele><time>2008-06-01T11:15:40Z</time></trkpt>
<trkpt lat="45.94543719" lon="9.03662545"><ele>1302.723633</ele><time>2008-06-01T11:15:42Z</time></trkpt>
<trkpt lat="45.94570616" lon="9.03634314"><ele>1298.878418</ele><time>2008-06-01T11:15:47Z</time></trkpt>
<trkpt lat="45.94597313" lon="9.03602052"><ele>1296.475342</ele><time>2008-06-01T11:15:51Z</time></trkpt>
<trkpt lat="45.94611847" lon="9.03584627"><ele>1295.513916</ele><time>2008-06-01T11:15:53Z</time></trkpt>
<trkpt lat="45.94625358" lon="9.03568014"><ele>1291.668457</ele><time>2008-06-01T11:15:55Z</time></trkpt>
<trkpt lat="45.94632223" lon="9.03560034"><ele>1291.668457</ele><time>2008-06-01T11:15:56Z</time></trkpt>
<trkpt lat="45.94647294" lon="9.03543673"><ele>1290.226563</ele><time>2008-06-01T11:15:58Z</time></trkpt>
<trkpt lat="45.94659397" lon="9.03528644"><ele>1289.265137</ele><time>2008-06-01T11:16:00Z</time></trkpt>
<trkpt lat="45.94675398" lon="9.03510044"><ele>1285.900635</ele><time>2008-06-01T11:16:03Z</time></trkpt>
<trkpt lat="45.94706688" lon="9.03474505"><ele>1282.536133</ele><time>2008-06-01T11:16:09Z</time></trkpt>
<trkpt lat="45.94743426" lon="9.03442696"><ele>1279.171387</ele><time>2008-06-01T11:16:17Z</time></trkpt>
<trkpt lat="45.94748346" lon="9.03439519"><ele>1279.171387</ele><time>2008-06-01T11:16:18Z</time></trkpt>
<trkpt lat="45.94768647" lon="9.03416703"><ele>1278.690918</ele><time>2008-06-01T11:16:23Z</time></trkpt>
<trkpt lat="45.94794069" lon="9.03368072"><ele>1277.249023</ele><time>2008-06-01T11:16:31Z</time></trkpt>
<trkpt lat="45.94817447" lon="9.03383888"><ele>1275.806641</ele><time>2008-06-01T11:16:39Z</time></trkpt>
<trkpt lat="45.94812434" lon="9.03410492"><ele>1273.403564</ele><time>2008-06-01T11:16:43Z</time></trkpt>
<trkpt lat="45.94814513" lon="9.03488327"><ele>1272.922852</ele><time>2008-06-01T11:16:53Z</time></trkpt>
<trkpt lat="45.94814027" lon="9.03604274"><ele>1273.403564</ele><time>2008-06-01T11:17:09Z</time></trkpt>
<trkpt lat="45.94805762" lon="9.03697263"><ele>1274.364746</ele><time>2008-06-01T11:17:27Z</time></trkpt>
<trkpt lat="45.94796073" lon="9.03751192"><ele>1276.768311</ele><time>2008-06-01T11:17:42Z</time></trkpt>
<trkpt lat="45.94790876" lon="9.03766438"><ele>1275.806641</ele><time>2008-06-01T11:17:54Z</time></trkpt>
<trkpt lat="45.94779653" lon="9.03793738"><ele>1278.210205</ele><time>2008-06-01T11:18:14Z</time></trkpt>
<trkpt lat="45.94748665" lon="9.03831976"><ele>1279.171387</ele><time>2008-06-01T11:18:29Z</time></trkpt>
<trkpt lat="45.94722798" lon="9.03870768"><ele>1280.132813</ele><time>2008-06-01T11:18:43Z</time></trkpt>
<trkpt lat="45.94700645" lon="9.03915636"><ele>1282.05542</ele><time>2008-06-01T11:18:58Z</time></trkpt>
<trkpt lat="45.94673865" lon="9.03956582"><ele>1283.978027</ele><time>2008-06-01T11:19:14Z</time></trkpt>
<trkpt lat="45.94643053" lon="9.04029303"><ele>1284.939453</ele><time>2008-06-01T11:19:33Z</time></trkpt>
<trkpt lat="45.94624680" lon="9.04106936"><ele>1284.939453</ele><time>2008-06-01T11:19:48Z</time></trkpt>
<trkpt lat="45.94624160" lon="9.04112955"><ele>1285.419922</ele><time>2008-06-01T11:19:49Z</time></trkpt>
<trkpt lat="45.94624378" lon="9.04143976"><ele>1285.419922</ele><time>2008-06-01T11:19:54Z</time></trkpt>
<trkpt lat="45.94625216" lon="9.04177177"><ele>1284.939453</ele><time>2008-06-01T11:19:59Z</time></trkpt>
<trkpt lat="45.94636674" lon="9.04235347"><ele>1286.381348</ele><time>2008-06-01T11:20:12Z</time></trkpt>
<trkpt lat="45.94636138" lon="9.04247543"><ele>1286.381348</ele><time>2008-06-01T11:20:15Z</time></trkpt>
<trkpt lat="45.94627362" lon="9.04255707"><ele>1286.861816</ele><time>2008-06-01T11:20:19Z</time></trkpt>
<trkpt lat="45.94619667" lon="9.04255128"><ele>1286.861816</ele><time>2008-06-01T11:20:21Z</time></trkpt>
<trkpt lat="45.94601654" lon="9.04258523"><ele>1286.381348</ele><time>2008-06-01T11:20:25Z</time></trkpt>
<trkpt lat="45.94561522" lon="9.04271984"><ele>1287.823242</ele><time>2008-06-01T11:20:43Z</time></trkpt>
<trkpt lat="45.94526268" lon="9.04308706"><ele>1288.784668</ele><time>2008-06-01T11:21:02Z</time></trkpt>
<trkpt lat="45.94493427" lon="9.04374336"><ele>1287.823242</ele><time>2008-06-01T11:21:19Z</time></trkpt>
<trkpt lat="45.94462230" lon="9.04421073"><ele>1288.303955</ele><time>2008-06-01T11:21:36Z</time></trkpt>
<trkpt lat="45.94429255" lon="9.04439807"><ele>1288.784668</ele><time>2008-06-01T11:21:51Z</time></trkpt>
<trkpt lat="45.94392559" lon="9.04448792"><ele>1290.226563</ele><time>2008-06-01T11:22:07Z</time></trkpt>
<trkpt lat="45.94358395" lon="9.04454618"><ele>1292.630127</ele><time>2008-06-01T11:22:23Z</time></trkpt>
<trkpt lat="45.94316888" lon="9.04484206"><ele>1295.033203</ele><time>2008-06-01T11:22:44Z</time></trkpt>
<trkpt lat="45.94286679" lon="9.04519217"><ele>1296.475342</ele><time>2008-06-01T11:23:01Z</time></trkpt>
<trkpt lat="45.94246706" lon="9.04559358"><ele>1299.359131</ele><time>2008-06-01T11:23:21Z</time></trkpt>
<trkpt lat="45.94206397" lon="9.04584286"><ele>1299.359131</ele><time>2008-06-01T11:23:38Z</time></trkpt>
<trkpt lat="45.94181914" lon="9.04601343"><ele>1302.24292</ele><time>2008-06-01T11:23:50Z</time></trkpt>
<trkpt lat="45.94150465" lon="9.04626966"><ele>1305.607666</ele><time>2008-06-01T11:24:09Z</time></trkpt>
<trkpt lat="45.94131924" lon="9.04649019"><ele>1307.530273</ele><time>2008-06-01T11:24:21Z</time></trkpt>
<trkpt lat="45.94115060" lon="9.04661953"><ele>1307.530273</ele><time>2008-06-01T11:24:30Z</time></trkpt>
<trkpt lat="45.94105689" lon="9.04681524"><ele>1309.453125</ele><time>2008-06-01T11:24:43Z</time></trkpt>
<trkpt lat="45.94095957" lon="9.04703753"><ele>1311.375732</ele><time>2008-06-01T11:25:01Z</time></trkpt>
<trkpt lat="45.94089235" lon="9.04719125"><ele>1314.740234</ele><time>2008-06-01T11:25:13Z</time></trkpt>
<trkpt lat="45.94074022" lon="9.04744623"><ele>1317.624023</ele><time>2008-06-01T11:25:34Z</time></trkpt>
<trkpt lat="45.94058574" lon="9.04768587"><ele>1317.624023</ele><time>2008-06-01T11:25:49Z</time></trkpt>
<trkpt lat="45.94034099" lon="9.04804948"><ele>1319.546875</ele><time>2008-06-01T11:26:04Z</time></trkpt>
<trkpt lat="45.94005684" lon="9.04820672"><ele>1323.39209</ele><time>2008-06-01T11:26:16Z</time></trkpt>
<trkpt lat="45.93974923" lon="9.04844787"><ele>1324.834229</ele><time>2008-06-01T11:26:32Z</time></trkpt>
<trkpt lat="45.93953163" lon="9.04876823"><ele>1327.718018</ele><time>2008-06-01T11:26:48Z</time></trkpt>
<trkpt lat="45.93921346" lon="9.04907919"><ele>1329.640625</ele><time>2008-06-01T11:27:05Z</time></trkpt>
<trkpt lat="45.93880383" lon="9.04913443"><ele>1331.082764</ele><time>2008-06-01T11:27:20Z</time></trkpt>
<trkpt lat="45.93821459" lon="9.04899077"><ele>1330.602051</ele><time>2008-06-01T11:27:35Z</time></trkpt>
<trkpt lat="45.93816882" lon="9.04898180"><ele>1329.640625</ele><time>2008-06-01T11:27:36Z</time></trkpt>
<trkpt lat="45.93799339" lon="9.04899546"><ele>1329.640625</ele><time>2008-06-01T11:27:40Z</time></trkpt>
<trkpt lat="45.93791904" lon="9.04902714"><ele>1329.159912</ele><time>2008-06-01T11:27:42Z</time></trkpt>
<trkpt lat="45.93776766" lon="9.04915455"><ele>1329.640625</ele><time>2008-06-01T11:27:46Z</time></trkpt>
<trkpt lat="45.93761972" lon="9.04937256"><ele>1328.19873</ele><time>2008-06-01T11:27:51Z</time></trkpt>
<trkpt lat="45.93739777" lon="9.04990573"><ele>1327.237549</ele><time>2008-06-01T11:28:01Z</time></trkpt>
<trkpt lat="45.93728562" lon="9.05010640"><ele>1326.276123</ele><time>2008-06-01T11:28:06Z</time></trkpt>
<trkpt lat="45.93726659" lon="9.05019516"><ele>1325.79541</ele><time>2008-06-01T11:28:09Z</time></trkpt>
<trkpt lat="45.93698295" lon="9.05059774"><ele>1326.276123</ele><time>2008-06-01T11:28:21Z</time></trkpt>
<trkpt lat="45.93684783" lon="9.05071258"><ele>1326.276123</ele><time>2008-06-01T11:28:25Z</time></trkpt>
<trkpt lat="45.93635347" lon="9.05106177"><ele>1327.718018</ele><time>2008-06-01T11:28:38Z</time></trkpt>
<trkpt lat="45.93629278" lon="9.05108549"><ele>1328.679443</ele><time>2008-06-01T11:28:40Z</time></trkpt>
<trkpt lat="45.93585039" lon="9.05136435"><ele>1329.159912</ele><time>2008-06-01T11:28:54Z</time></trkpt>
<trkpt lat="45.93560924" lon="9.05151699"><ele>1328.19873</ele><time>2008-06-01T11:28:59Z</time></trkpt>
<trkpt lat="45.93542115" lon="9.05155395"><ele>1326.276123</ele><time>2008-06-01T11:29:02Z</time></trkpt>
<trkpt lat="45.93496785" lon="9.05161707"><ele>1327.237549</ele><time>2008-06-01T11:29:12Z</time></trkpt>
<trkpt lat="45.93469662" lon="9.05164917"><ele>1325.79541</ele><time>2008-06-01T11:29:19Z</time></trkpt>
<trkpt lat="45.93465202" lon="9.05165110"><ele>1325.79541</ele><time>2008-06-01T11:29:20Z</time></trkpt>
<trkpt lat="45.93440275" lon="9.05175235"><ele>1324.834229</ele><time>2008-06-01T11:29:26Z</time></trkpt>
<trkpt lat="45.93431532" lon="9.05174187"><ele>1324.834229</ele><time>2008-06-01T11:29:28Z</time></trkpt>
<trkpt lat="45.93382523" lon="9.05162210"><ele>1322.911377</ele><time>2008-06-01T11:29:38Z</time></trkpt>
<trkpt lat="45.93355089" lon="9.05167918"><ele>1320.98877</ele><time>2008-06-01T11:29:43Z</time></trkpt>
<trkpt lat="45.93343154" lon="9.05175470"><ele>1319.546875</ele><time>2008-06-01T11:29:45Z</time></trkpt>
<trkpt lat="45.93332475" lon="9.05184899"><ele>1318.585449</ele><time>2008-06-01T11:29:47Z</time></trkpt>
<trkpt lat="45.93311747" lon="9.05215167"><ele>1313.778809</ele><time>2008-06-01T11:29:51Z</time></trkpt>
<trkpt lat="45.93306768" lon="9.05224353"><ele>1313.29834</ele><time>2008-06-01T11:29:52Z</time></trkpt>
<trkpt lat="45.93289727" lon="9.05249298"><ele>1311.856445</ele><time>2008-06-01T11:29:55Z</time></trkpt>
<trkpt lat="45.93232370" lon="9.05305238"><ele>1308.01123</ele><time>2008-06-01T11:30:03Z</time></trkpt>
<trkpt lat="45.93194869" lon="9.05339110"><ele>1306.088135</ele><time>2008-06-01T11:30:08Z</time></trkpt>
<trkpt lat="45.93143245" lon="9.05366166"><ele>1303.685059</ele><time>2008-06-01T11:30:15Z</time></trkpt>
<trkpt lat="45.93117278" lon="9.05365446"><ele>1302.24292</ele><time>2008-06-01T11:30:19Z</time></trkpt>
<trkpt lat="45.93078637" lon="9.05343108"><ele>1302.723633</ele><time>2008-06-01T11:30:26Z</time></trkpt>
<trkpt lat="45.93053634" lon="9.05337509"><ele>1304.64624</ele><time>2008-06-01T11:30:31Z</time></trkpt>
<trkpt lat="45.93017818" lon="9.05352060"><ele>1308.01123</ele><time>2008-06-01T11:30:43Z</time></trkpt>
<trkpt lat="45.92967669" lon="9.05408604"><ele>1309.453125</ele><time>2008-06-01T11:31:02Z</time></trkpt>
<trkpt lat="45.92951987" lon="9.05444370"><ele>1312.817627</ele><time>2008-06-01T11:31:16Z</time></trkpt>
<trkpt lat="45.92948969" lon="9.05477436"><ele>1316.182129</ele><time>2008-06-01T11:31:30Z</time></trkpt>
<trkpt lat="45.92933052" lon="9.05550275"><ele>1318.104736</ele><time>2008-06-01T11:31:53Z</time></trkpt>
<trkpt lat="45.92913640" lon="9.05615754"><ele>1321.469238</ele><time>2008-06-01T11:32:15Z</time></trkpt>
<trkpt lat="45.92900547" lon="9.05657605"><ele>1324.353516</ele><time>2008-06-01T11:32:34Z</time></trkpt>
<trkpt lat="45.92897102" lon="9.05668653"><ele>1326.276123</ele><time>2008-06-01T11:32:39Z</time></trkpt>
<trkpt lat="45.92892266" lon="9.05686523"><ele>1326.756836</ele><time>2008-06-01T11:32:51Z</time></trkpt>
<trkpt lat="45.92887480" lon="9.05710730"><ele>1330.121338</ele><time>2008-06-01T11:33:08Z</time></trkpt>
<trkpt lat="45.92885686" lon="9.05737912"><ele>1331.563232</ele><time>2008-06-01T11:33:26Z</time></trkpt>
<trkpt lat="45.92887832" lon="9.05771876"><ele>1333.48584</ele><time>2008-06-01T11:33:48Z</time></trkpt>
<trkpt lat="45.92890413" lon="9.05796074"><ele>1336.850342</ele><time>2008-06-01T11:34:05Z</time></trkpt>
<trkpt lat="45.92890539" lon="9.05821119"><ele>1339.253662</ele><time>2008-06-01T11:34:24Z</time></trkpt>
<trkpt lat="45.92891755" lon="9.05835017"><ele>1343.099121</ele><time>2008-06-01T11:34:35Z</time></trkpt>
<trkpt lat="45.92895057" lon="9.05844773"><ele>1342.618652</ele><time>2008-06-01T11:34:51Z</time></trkpt>
<trkpt lat="45.92897362" lon="9.05848788"><ele>1343.579834</ele><time>2008-06-01T11:35:05Z</time></trkpt>
<trkpt lat="45.92904277" lon="9.05853926"><ele>1342.618652</ele><time>2008-06-01T11:35:09Z</time></trkpt>
<trkpt lat="45.92926707" lon="9.05853909"><ele>1340.215332</ele><time>2008-06-01T11:35:15Z</time></trkpt>
<trkpt lat="45.92958248" lon="9.05853105"><ele>1338.773193</ele><time>2008-06-01T11:35:23Z</time></trkpt>
<trkpt lat="45.92984567" lon="9.05852828"><ele>1335.408447</ele><time>2008-06-01T11:35:29Z</time></trkpt>
<trkpt lat="45.92994450" lon="9.05851596"><ele>1333.966553</ele><time>2008-06-01T11:35:31Z</time></trkpt>
<trkpt lat="45.93034700" lon="9.05843885"><ele>1331.082764</ele><time>2008-06-01T11:35:39Z</time></trkpt>
<trkpt lat="45.93043618" lon="9.05843910"><ele>1330.121338</ele><time>2008-06-01T11:35:41Z</time></trkpt>
<trkpt lat="45.93065117" lon="9.05842854"><ele>1327.718018</ele><time>2008-06-01T11:35:45Z</time></trkpt>
<trkpt lat="45.93076224" lon="9.05840029"><ele>1327.237549</ele><time>2008-06-01T11:35:47Z</time></trkpt>
<trkpt lat="45.93090280" lon="9.05835805"><ele>1325.79541</ele><time>2008-06-01T11:35:50Z</time></trkpt>
<trkpt lat="45.93104647" lon="9.05834547"><ele>1323.872559</ele><time>2008-06-01T11:35:53Z</time></trkpt>
<trkpt lat="45.93133338" lon="9.05837665"><ele>1320.027344</ele><time>2008-06-01T11:35:58Z</time></trkpt>
<trkpt lat="45.93158282" lon="9.05835067"><ele>1317.624023</ele><time>2008-06-01T11:36:02Z</time></trkpt>
<trkpt lat="45.93170528" lon="9.05833659"><ele>1316.662842</ele><time>2008-06-01T11:36:04Z</time></trkpt>
<trkpt lat="45.93192665" lon="9.05840809"><ele>1316.182129</ele><time>2008-06-01T11:36:08Z</time></trkpt>
<trkpt lat="45.93207945" lon="9.05843717"><ele>1315.220947</ele><time>2008-06-01T11:36:11Z</time></trkpt>
<trkpt lat="45.93239226" lon="9.05843767"><ele>1314.259521</ele><time>2008-06-01T11:36:19Z</time></trkpt>
<trkpt lat="45.93243149" lon="9.05843658"><ele>1313.29834</ele><time>2008-06-01T11:36:20Z</time></trkpt>
<trkpt lat="45.93261640" lon="9.05843985"><ele>1310.414307</ele><time>2008-06-01T11:36:25Z</time></trkpt>
<trkpt lat="45.93269024" lon="9.05844354"><ele>1308.972412</ele><time>2008-06-01T11:36:27Z</time></trkpt>
<trkpt lat="45.93284539" lon="9.05841546"><ele>1308.491699</ele><time>2008-06-01T11:36:31Z</time></trkpt>
<trkpt lat="45.93331126" lon="9.05835997"><ele>1307.049561</ele><time>2008-06-01T11:36:41Z</time></trkpt>
<trkpt lat="45.93346297" lon="9.05847816"><ele>1306.568848</ele><time>2008-06-01T11:36:45Z</time></trkpt>
<trkpt lat="45.93358157" lon="9.05857002"><ele>1305.607666</ele><time>2008-06-01T11:36:48Z</time></trkpt>
<trkpt lat="45.93372256" lon="9.05865267"><ele>1303.685059</ele><time>2008-06-01T11:36:51Z</time></trkpt>
<trkpt lat="45.93397058" lon="9.05886632"><ele>1300.801025</ele><time>2008-06-01T11:36:57Z</time></trkpt>
<trkpt lat="45.93403964" lon="9.05895199"><ele>1299.839844</ele><time>2008-06-01T11:36:59Z</time></trkpt>
<trkpt lat="45.93416680" lon="9.05911258"><ele>1297.436523</ele><time>2008-06-01T11:37:03Z</time></trkpt>
<trkpt lat="45.93432714" lon="9.05933806"><ele>1294.072021</ele><time>2008-06-01T11:37:08Z</time></trkpt>
<trkpt lat="45.93439763" lon="9.05942154"><ele>1292.630127</ele><time>2008-06-01T11:37:10Z</time></trkpt>
<trkpt lat="45.93460333" lon="9.05952129"><ele>1290.707031</ele><time>2008-06-01T11:37:14Z</time></trkpt>
<trkpt lat="45.93481665" lon="9.05955942"><ele>1287.342529</ele><time>2008-06-01T11:37:18Z</time></trkpt>
<trkpt lat="45.93505293" lon="9.05976143"><ele>1285.900635</ele><time>2008-06-01T11:37:25Z</time></trkpt>
<trkpt lat="45.93508897" lon="9.05999587"><ele>1284.45874</ele><time>2008-06-01T11:37:28Z</time></trkpt>
<trkpt lat="45.93511538" lon="9.06015253"><ele>1280.613525</ele><time>2008-06-01T11:37:30Z</time></trkpt>
<trkpt lat="45.93517246" lon="9.06044489"><ele>1278.210205</ele><time>2008-06-01T11:37:34Z</time></trkpt>
<trkpt lat="45.93519920" lon="9.06058922"><ele>1277.249023</ele><time>2008-06-01T11:37:36Z</time></trkpt>
<trkpt lat="45.93521638" lon="9.06067019"><ele>1276.287598</ele><time>2008-06-01T11:37:37Z</time></trkpt>
<trkpt lat="45.93521026" lon="9.06116716"><ele>1272.922852</ele><time>2008-06-01T11:37:43Z</time></trkpt>
<trkpt lat="45.93522124" lon="9.06141115"><ele>1269.55835</ele><time>2008-06-01T11:37:47Z</time></trkpt>
<trkpt lat="45.93524236" lon="9.06157888"><ele>1267.635498</ele><time>2008-06-01T11:37:50Z</time></trkpt>
<trkpt lat="45.93534856" lon="9.06178834"><ele>1264.751709</ele><time>2008-06-01T11:37:54Z</time></trkpt>
<trkpt lat="45.93557009" lon="9.06196696"><ele>1261.86792</ele><time>2008-06-01T11:37:59Z</time></trkpt>
<trkpt lat="45.93576657" lon="9.06205664"><ele>1259.464355</ele><time>2008-06-01T11:38:03Z</time></trkpt>
<trkpt lat="45.93609463" lon="9.06209579"><ele>1257.061035</ele><time>2008-06-01T11:38:09Z</time></trkpt>
<trkpt lat="45.93642698" lon="9.06218447"><ele>1255.619141</ele><time>2008-06-01T11:38:15Z</time></trkpt>
<trkpt lat="45.93660099" lon="9.06237046"><ele>1254.177246</ele><time>2008-06-01T11:38:19Z</time></trkpt>
<trkpt lat="45.93674222" lon="9.06258873"><ele>1252.735107</ele><time>2008-06-01T11:38:23Z</time></trkpt>
<trkpt lat="45.93681472" lon="9.06270029"><ele>1251.773926</ele><time>2008-06-01T11:38:25Z</time></trkpt>
<trkpt lat="45.93687189" lon="9.06283507"><ele>1252.254395</ele><time>2008-06-01T11:38:27Z</time></trkpt>
<trkpt lat="45.93705495" lon="9.06307563"><ele>1250.8125</ele><time>2008-06-01T11:38:32Z</time></trkpt>
<trkpt lat="45.93722225" lon="9.06338308"><ele>1250.332031</ele><time>2008-06-01T11:38:37Z</time></trkpt>
<trkpt lat="45.93744890" lon="9.06375163"><ele>1249.370605</ele><time>2008-06-01T11:38:44Z</time></trkpt>
<trkpt lat="45.93753322" lon="9.06385993"><ele>1247.928711</ele><time>2008-06-01T11:38:47Z</time></trkpt>
<trkpt lat="45.93771343" lon="9.06386646"><ele>1245.525391</ele><time>2008-06-01T11:38:53Z</time></trkpt>
<trkpt lat="45.93784033" lon="9.06385699"><ele>1242.641357</ele><time>2008-06-01T11:38:56Z</time></trkpt>
<trkpt lat="45.93809850" lon="9.06383470"><ele>1239.757324</ele><time>2008-06-01T11:39:01Z</time></trkpt>
<trkpt lat="45.93821148" lon="9.06382338"><ele>1239.276611</ele><time>2008-06-01T11:39:03Z</time></trkpt>
<trkpt lat="45.93835993" lon="9.06379522"><ele>1236.873291</ele><time>2008-06-01T11:39:06Z</time></trkpt>
<trkpt lat="45.93847208" lon="9.06373546"><ele>1235.431396</ele><time>2008-06-01T11:39:09Z</time></trkpt>
<trkpt lat="45.93860719" lon="9.06348643"><ele>1233.989502</ele><time>2008-06-01T11:39:13Z</time></trkpt>
<trkpt lat="45.93863217" lon="9.06341527"><ele>1233.508789</ele><time>2008-06-01T11:39:14Z</time></trkpt>
<trkpt lat="45.93887039" lon="9.06311142"><ele>1232.547607</ele><time>2008-06-01T11:39:22Z</time></trkpt>
<trkpt lat="45.93897600" lon="9.06309525"><ele>1233.989502</ele><time>2008-06-01T11:39:25Z</time></trkpt>
<trkpt lat="45.93925126" lon="9.06308033"><ele>1233.989502</ele><time>2008-06-01T11:39:34Z</time></trkpt>
<trkpt lat="45.93954597" lon="9.06292317"><ele>1229.663574</ele><time>2008-06-01T11:39:39Z</time></trkpt>
<trkpt lat="45.93978837" lon="9.06271043"><ele>1228.22168</ele><time>2008-06-01T11:39:44Z</time></trkpt>
<trkpt lat="45.93982684" lon="9.06267062"><ele>1227.740723</ele><time>2008-06-01T11:39:45Z</time></trkpt>
<trkpt lat="45.93993665" lon="9.06252209"><ele>1225.818115</ele><time>2008-06-01T11:39:48Z</time></trkpt>
<trkpt lat="45.94003178" lon="9.06232017"><ele>1223.415039</ele><time>2008-06-01T11:39:51Z</time></trkpt>
<trkpt lat="45.94005894" lon="9.06193796"><ele>1219.569824</ele><time>2008-06-01T11:39:56Z</time></trkpt>
<trkpt lat="45.94009984" lon="9.06195547"><ele>1217.166504</ele><time>2008-06-01T11:40:04Z</time></trkpt>
<trkpt lat="45.94014896" lon="9.06208942"><ele>1216.205078</ele><time>2008-06-01T11:40:07Z</time></trkpt>
<trkpt lat="45.94023915" lon="9.06223509"><ele>1213.801758</ele><time>2008-06-01T11:40:10Z</time></trkpt>
<trkpt lat="45.94040293" lon="9.06252075"><ele>1212.359863</ele><time>2008-06-01T11:40:15Z</time></trkpt>
<trkpt lat="45.94044266" lon="9.06279559"><ele>1208.995117</ele><time>2008-06-01T11:40:20Z</time></trkpt>
<trkpt lat="45.94046747" lon="9.06286508"><ele>1207.07251</ele><time>2008-06-01T11:40:24Z</time></trkpt>
<trkpt lat="45.94048784" lon="9.06283725"><ele>1207.07251</ele><time>2008-06-01T11:40:25Z</time></trkpt>
<trkpt lat="45.94053604" lon="9.06231749"><ele>1204.669189</ele><time>2008-06-01T11:40:36Z</time></trkpt>
<trkpt lat="45.94050092" lon="9.06222546"><ele>1203.708008</ele><time>2008-06-01T11:40:38Z</time></trkpt>
<trkpt lat="45.94062053" lon="9.06229503"><ele>1201.7854</ele><time>2008-06-01T11:40:45Z</time></trkpt>
<trkpt lat="45.94077006" lon="9.06247649"><ele>1199.862793</ele><time>2008-06-01T11:40:49Z</time></trkpt>
<trkpt lat="45.94090568" lon="9.06258496"><ele>1196.017578</ele><time>2008-06-01T11:40:52Z</time></trkpt>
<trkpt lat="45.94095505" lon="9.06262980"><ele>1195.055908</ele><time>2008-06-01T11:40:53Z</time></trkpt>
<trkpt lat="45.94119569" lon="9.06278352"><ele>1191.210693</ele><time>2008-06-01T11:40:57Z</time></trkpt>
<trkpt lat="45.94153943" lon="9.06284672"><ele>1185.923584</ele><time>2008-06-01T11:41:01Z</time></trkpt>
<trkpt lat="45.94192048" lon="9.06286424"><ele>1182.078369</ele><time>2008-06-01T11:41:05Z</time></trkpt>
<trkpt lat="45.94231895" lon="9.06300816"><ele>1180.636475</ele><time>2008-06-01T11:41:11Z</time></trkpt>
<trkpt lat="45.94247678" lon="9.06300489"><ele>1181.117188</ele><time>2008-06-01T11:41:15Z</time></trkpt>
<trkpt lat="45.94277769" lon="9.06291554"><ele>1179.674805</ele><time>2008-06-01T11:41:25Z</time></trkpt>
<trkpt lat="45.94291314" lon="9.06293188"><ele>1177.752197</ele><time>2008-06-01T11:41:28Z</time></trkpt>
<trkpt lat="45.94300124" lon="9.06294395"><ele>1174.387695</ele><time>2008-06-01T11:41:30Z</time></trkpt>
<trkpt lat="45.94314122" lon="9.06295435"><ele>1170.061768</ele><time>2008-06-01T11:41:33Z</time></trkpt>
<trkpt lat="45.94331833" lon="9.06295787"><ele>1167.177979</ele><time>2008-06-01T11:41:36Z</time></trkpt>
<trkpt lat="45.94337499" lon="9.06295803"><ele>1166.697266</ele><time>2008-06-01T11:41:37Z</time></trkpt>
<trkpt lat="45.94347012" lon="9.06293792"><ele>1165.255371</ele><time>2008-06-01T11:41:39Z</time></trkpt>
<trkpt lat="45.94358454" lon="9.06285879"><ele>1161.890625</ele><time>2008-06-01T11:41:42Z</time></trkpt>
<trkpt lat="45.94366802" lon="9.06281319"><ele>1159.967773</ele><time>2008-06-01T11:41:44Z</time></trkpt>
<trkpt lat="45.94382878" lon="9.06268378"><ele>1153.719482</ele><time>2008-06-01T11:41:48Z</time></trkpt>
<trkpt lat="45.94393582" lon="9.06259082"><ele>1150.35498</ele><time>2008-06-01T11:41:52Z</time></trkpt>
<trkpt lat="45.94402199" lon="9.06252293"><ele>1147.951416</ele><time>2008-06-01T11:41:55Z</time></trkpt>
<trkpt lat="45.94418912" lon="9.06249787"><ele>1145.067383</ele><time>2008-06-01T11:41:59Z</time></trkpt>
<trkpt lat="45.94427126" lon="9.06247012"><ele>1144.106201</ele><time>2008-06-01T11:42:01Z</time></trkpt>
<trkpt lat="45.94440118" lon="9.06245093"><ele>1138.819092</ele><time>2008-06-01T11:42:04Z</time></trkpt>
<trkpt lat="45.94447595" lon="9.06244917"><ele>1136.89624</ele><time>2008-06-01T11:42:06Z</time></trkpt>
<trkpt lat="45.94459145" lon="9.06239142"><ele>1130.647705</ele><time>2008-06-01T11:42:09Z</time></trkpt>
<trkpt lat="45.94464057" lon="9.06232922"><ele>1128.244385</ele><time>2008-06-01T11:42:11Z</time></trkpt>
<trkpt lat="45.94469807" lon="9.06220618"><ele>1125.841064</ele><time>2008-06-01T11:42:14Z</time></trkpt>
<trkpt lat="45.94480075" lon="9.06199185"><ele>1121.034668</ele><time>2008-06-01T11:42:18Z</time></trkpt>
<trkpt lat="45.94492782" lon="9.06189906"><ele>1116.228027</ele><time>2008-06-01T11:42:21Z</time></trkpt>
<trkpt lat="45.94500527" lon="9.06190803"><ele>1112.863281</ele><time>2008-06-01T11:42:23Z</time></trkpt>
<trkpt lat="45.94506587" lon="9.06197542"><ele>1111.9021</ele><time>2008-06-01T11:42:25Z</time></trkpt>
<trkpt lat="45.94528757" lon="9.06257490"><ele>1108.056885</ele><time>2008-06-01T11:42:35Z</time></trkpt>
<trkpt lat="45.94540467" lon="9.06288939"><ele>1106.614746</ele><time>2008-06-01T11:42:39Z</time></trkpt>
<trkpt lat="45.94550282" lon="9.06299584"><ele>1103.250244</ele><time>2008-06-01T11:42:45Z</time></trkpt>
<trkpt lat="45.94557063" lon="9.06302207"><ele>1102.288818</ele><time>2008-06-01T11:42:47Z</time></trkpt>
<trkpt lat="45.94574413" lon="9.06317429"><ele>1099.404785</ele><time>2008-06-01T11:42:53Z</time></trkpt>
<trkpt lat="45.94577850" lon="9.06343647"><ele>1095.55957</ele><time>2008-06-01T11:42:57Z</time></trkpt>
<trkpt lat="45.94578219" lon="9.06350504"><ele>1095.55957</ele><time>2008-06-01T11:42:58Z</time></trkpt>
<trkpt lat="45.94579057" lon="9.06370897"><ele>1093.636963</ele><time>2008-06-01T11:43:01Z</time></trkpt>
<trkpt lat="45.94568957" lon="9.06409076"><ele>1091.233643</ele><time>2008-06-01T11:43:06Z</time></trkpt>
<trkpt lat="45.94561296" lon="9.06424826"><ele>1090.272461</ele><time>2008-06-01T11:43:08Z</time></trkpt>
<trkpt lat="45.94547633" lon="9.06456007"><ele>1086.907715</ele><time>2008-06-01T11:43:12Z</time></trkpt>
<trkpt lat="45.94537533" lon="9.06483969"><ele>1083.062256</ele><time>2008-06-01T11:43:15Z</time></trkpt>
<trkpt lat="45.94531632" lon="9.06501168"><ele>1080.65918</ele><time>2008-06-01T11:43:17Z</time></trkpt>
<trkpt lat="45.94529805" lon="9.06539817"><ele>1077.294678</ele><time>2008-06-01T11:43:22Z</time></trkpt>
<trkpt lat="45.94531230" lon="9.06545852"><ele>1076.333252</ele><time>2008-06-01T11:43:23Z</time></trkpt>
<trkpt lat="45.94534700" lon="9.06578877"><ele>1073.449463</ele><time>2008-06-01T11:43:28Z</time></trkpt>
<trkpt lat="45.94528439" lon="9.06626847"><ele>1067.200684</ele><time>2008-06-01T11:43:33Z</time></trkpt>
<trkpt lat="45.94523543" lon="9.06654079"><ele>1063.355469</ele><time>2008-06-01T11:43:36Z</time></trkpt>
<trkpt lat="45.94516704" lon="9.06676384"><ele>1059.029541</ele><time>2008-06-01T11:43:39Z</time></trkpt>
<trkpt lat="45.94514089" lon="9.06683818"><ele>1057.106934</ele><time>2008-06-01T11:43:40Z</time></trkpt>
<trkpt lat="45.94497417" lon="9.06716005"><ele>1052.781006</ele><time>2008-06-01T11:43:44Z</time></trkpt>
<trkpt lat="45.94480125" lon="9.06757428"><ele>1048.935547</ele><time>2008-06-01T11:43:49Z</time></trkpt>
<trkpt lat="45.94470260" lon="9.06778953"><ele>1045.571045</ele><time>2008-06-01T11:43:52Z</time></trkpt>
<trkpt lat="45.94463563" lon="9.06801676"><ele>1041.72583</ele><time>2008-06-01T11:43:55Z</time></trkpt>
<trkpt lat="45.94460269" lon="9.06808717"><ele>1040.764404</ele><time>2008-06-01T11:43:56Z</time></trkpt>
<trkpt lat="45.94451199" lon="9.06827912"><ele>1037.880615</ele><time>2008-06-01T11:43:59Z</time></trkpt>
<trkpt lat="45.94443874" lon="9.06859143"><ele>1032.593262</ele><time>2008-06-01T11:44:03Z</time></trkpt>
<trkpt lat="45.94440244" lon="9.06885143"><ele>1029.228516</ele><time>2008-06-01T11:44:07Z</time></trkpt>
<trkpt lat="45.94422257" lon="9.06879963"><ele>1029.709229</ele><time>2008-06-01T11:44:16Z</time></trkpt>
<trkpt lat="45.94392065" lon="9.06854575"><ele>1031.151367</ele><time>2008-06-01T11:44:30Z</time></trkpt>
<trkpt lat="45.94358479" lon="9.06827484"><ele>1034.515869</ele><time>2008-06-01T11:44:49Z</time></trkpt>
<trkpt lat="45.94330299" lon="9.06805524"><ele>1036.438721</ele><time>2008-06-01T11:45:05Z</time></trkpt>
<trkpt lat="45.94302270" lon="9.06795206"><ele>1037.399902</ele><time>2008-06-01T11:45:20Z</time></trkpt>
<trkpt lat="45.94282019" lon="9.06765249"><ele>1039.32251</ele><time>2008-06-01T11:45:34Z</time></trkpt>
<trkpt lat="45.94271097" lon="9.06718595"><ele>1041.72583</ele><time>2008-06-01T11:45:50Z</time></trkpt>
<trkpt lat="45.94263528" lon="9.06682008"><ele>1043.648438</ele><time>2008-06-01T11:46:03Z</time></trkpt>
<trkpt lat="45.94255683" lon="9.06648606"><ele>1046.051758</ele><time>2008-06-01T11:46:16Z</time></trkpt>
<trkpt lat="45.94236958" lon="9.06618046"><ele>1047.974365</ele><time>2008-06-01T11:46:30Z</time></trkpt>
<trkpt lat="45.94214067" lon="9.06611030"><ele>1049.896973</ele><time>2008-06-01T11:46:41Z</time></trkpt>
<trkpt lat="45.94192224" lon="9.06612203"><ele>1051.81958</ele><time>2008-06-01T11:46:54Z</time></trkpt>
<trkpt lat="45.94168863" lon="9.06611030"><ele>1053.742432</ele><time>2008-06-01T11:47:06Z</time></trkpt>
<trkpt lat="45.94141765" lon="9.06603729"><ele>1056.626221</ele><time>2008-06-01T11:47:21Z</time></trkpt>
<trkpt lat="45.94137356" lon="9.06594685"><ele>1057.106934</ele><time>2008-06-01T11:47:25Z</time></trkpt>
<trkpt lat="45.94118278" lon="9.06588374"><ele>1058.068359</ele><time>2008-06-01T11:47:34Z</time></trkpt>
<trkpt lat="45.94087777" lon="9.06587980"><ele>1059.029541</ele><time>2008-06-01T11:47:50Z</time></trkpt>
<trkpt lat="45.94063469" lon="9.06588139"><ele>1060.952148</ele><time>2008-06-01T11:48:03Z</time></trkpt>
<trkpt lat="45.94058046" lon="9.06587896"><ele>1062.394043</ele><time>2008-06-01T11:48:06Z</time></trkpt>
<trkpt lat="45.94044643" lon="9.06586798"><ele>1064.797363</ele><time>2008-06-01T11:48:15Z</time></trkpt>
<trkpt lat="45.94031316" lon="9.06585549"><ele>1067.200684</ele><time>2008-06-01T11:48:26Z</time></trkpt>
<trkpt lat="45.94014854" lon="9.06580813"><ele>1069.123535</ele><time>2008-06-01T11:48:41Z</time></trkpt>
<trkpt lat="45.93999515" lon="9.06569389"><ele>1072.007324</ele><time>2008-06-01T11:48:56Z</time></trkpt>
<trkpt lat="45.93970656" lon="9.06572297"><ele>1074.410645</ele><time>2008-06-01T11:49:10Z</time></trkpt>
<trkpt lat="45.93956265" lon="9.06594886"><ele>1075.371826</ele><time>2008-06-01T11:49:23Z</time></trkpt>
<trkpt lat="45.93934027" lon="9.06611768"><ele>1078.255859</ele><time>2008-06-01T11:49:36Z</time></trkpt>
<trkpt lat="45.93890743" lon="9.06622874"><ele>1078.736572</ele><time>2008-06-01T11:49:50Z</time></trkpt>
<trkpt lat="45.93861549" lon="9.06641087"><ele>1079.697754</ele><time>2008-06-01T11:50:00Z</time></trkpt>
<trkpt lat="45.93831609" lon="9.06666057"><ele>1081.620361</ele><time>2008-06-01T11:50:15Z</time></trkpt>
<trkpt lat="45.93802675" lon="9.06674339"><ele>1084.504639</ele><time>2008-06-01T11:50:31Z</time></trkpt>
<trkpt lat="45.93799523" lon="9.06674129"><ele>1084.504639</ele><time>2008-06-01T11:50:33Z</time></trkpt>
<trkpt lat="45.93773020" lon="9.06682486"><ele>1087.388428</ele><time>2008-06-01T11:50:50Z</time></trkpt>
<trkpt lat="45.93754454" lon="9.06692209"><ele>1089.311035</ele><time>2008-06-01T11:51:03Z</time></trkpt>
<trkpt lat="45.93735569" lon="9.06701697"><ele>1092.195068</ele><time>2008-06-01T11:51:16Z</time></trkpt>
<trkpt lat="45.93722460" lon="9.06708428"><ele>1093.15625</ele><time>2008-06-01T11:51:27Z</time></trkpt>
<trkpt lat="45.93709376" lon="9.06716567"><ele>1096.040283</ele><time>2008-06-01T11:51:39Z</time></trkpt>
<trkpt lat="45.93706953" lon="9.06718553"><ele>1097.001465</ele><time>2008-06-01T11:51:41Z</time></trkpt>
<trkpt lat="45.93689175" lon="9.06731118"><ele>1098.924072</ele><time>2008-06-01T11:51:54Z</time></trkpt>
<trkpt lat="45.93664574" lon="9.06736574"><ele>1100.366455</ele><time>2008-06-01T11:52:06Z</time></trkpt>
<trkpt lat="45.93662789" lon="9.06736406"><ele>1099.404785</ele><time>2008-06-01T11:52:07Z</time></trkpt>
<trkpt lat="45.93623654" lon="9.06768216"><ele>1100.846924</ele><time>2008-06-01T11:52:22Z</time></trkpt>
<trkpt lat="45.93609774" lon="9.06772239"><ele>1101.80835</ele><time>2008-06-01T11:52:26Z</time></trkpt>
<trkpt lat="45.93600428" lon="9.06772608"><ele>1100.846924</ele><time>2008-06-01T11:52:28Z</time></trkpt>
<trkpt lat="45.93590864" lon="9.06771376"><ele>1100.366455</ele><time>2008-06-01T11:52:30Z</time></trkpt>
<trkpt lat="45.93578367" lon="9.06765735"><ele>1099.885498</ele><time>2008-06-01T11:52:33Z</time></trkpt>
<trkpt lat="45.93565743" lon="9.06755165"><ele>1100.366455</ele><time>2008-06-01T11:52:36Z</time></trkpt>
<trkpt lat="45.93555559" lon="9.06733858"><ele>1099.885498</ele><time>2008-06-01T11:52:40Z</time></trkpt>
<trkpt lat="45.93551838" lon="9.06722174"><ele>1100.846924</ele><time>2008-06-01T11:52:42Z</time></trkpt>
<trkpt lat="45.93549315" lon="9.06698537"><ele>1100.846924</ele><time>2008-06-01T11:52:46Z</time></trkpt>
<trkpt lat="45.93547446" lon="9.06629370"><ele>1102.769531</ele><time>2008-06-01T11:53:00Z</time></trkpt>
<trkpt lat="45.93530095" lon="9.06587946"><ele>1105.172852</ele><time>2008-06-01T11:53:17Z</time></trkpt>
<trkpt lat="45.93489409" lon="9.06561057"><ele>1105.653564</ele><time>2008-06-01T11:53:32Z</time></trkpt>
<trkpt lat="45.93481824" lon="9.06552088"><ele>1105.172852</ele><time>2008-06-01T11:53:34Z</time></trkpt>
<trkpt lat="45.93461347" lon="9.06545592"><ele>1104.21167</ele><time>2008-06-01T11:53:38Z</time></trkpt>
<trkpt lat="45.93417685" lon="9.06559372"><ele>1103.730957</ele><time>2008-06-01T11:53:48Z</time></trkpt>
<trkpt lat="45.93363756" lon="9.06535417"><ele>1105.653564</ele><time>2008-06-01T11:54:05Z</time></trkpt>
<trkpt lat="45.93339533" lon="9.06508343"><ele>1106.134033</ele><time>2008-06-01T11:54:14Z</time></trkpt>
<trkpt lat="45.93315904" lon="9.06450206"><ele>1105.172852</ele><time>2008-06-01T11:54:25Z</time></trkpt>
<trkpt lat="45.93307648" lon="9.06429922"><ele>1105.172852</ele><time>2008-06-01T11:54:29Z</time></trkpt>
<trkpt lat="45.93280004" lon="9.06388675"><ele>1105.172852</ele><time>2008-06-01T11:54:37Z</time></trkpt>
<trkpt lat="45.93234608" lon="9.06370193"><ele>1101.80835</ele><time>2008-06-01T11:54:45Z</time></trkpt>
<trkpt lat="45.93195129" lon="9.06389974"><ele>1099.885498</ele><time>2008-06-01T11:54:51Z</time></trkpt>
<trkpt lat="45.93187066" lon="9.06411147"><ele>1096.040283</ele><time>2008-06-01T11:54:53Z</time></trkpt>
<trkpt lat="45.93183956" lon="9.06423108"><ele>1096.040283</ele><time>2008-06-01T11:54:54Z</time></trkpt>
<trkpt lat="45.93160696" lon="9.06510238"><ele>1096.520996</ele><time>2008-06-01T11:55:04Z</time></trkpt>
<trkpt lat="45.93147252" lon="9.06542005"><ele>1099.885498</ele><time>2008-06-01T11:55:13Z</time></trkpt>
<trkpt lat="45.93128468" lon="9.06578575"><ele>1100.846924</ele><time>2008-06-01T11:55:25Z</time></trkpt>
<trkpt lat="45.93123388" lon="9.06584719"><ele>1101.327637</ele><time>2008-06-01T11:55:28Z</time></trkpt>
<trkpt lat="45.93116272" lon="9.06591718"><ele>1103.250244</ele><time>2008-06-01T11:55:33Z</time></trkpt>
<trkpt lat="45.93096667" lon="9.06622832"><ele>1105.172852</ele><time>2008-06-01T11:55:50Z</time></trkpt>
<trkpt lat="45.93080624" lon="9.06637366"><ele>1108.056885</ele><time>2008-06-01T11:56:03Z</time></trkpt>
<trkpt lat="45.93049024" lon="9.06638489"><ele>1109.979248</ele><time>2008-06-01T11:56:18Z</time></trkpt>
<trkpt lat="45.93014868" lon="9.06637517"><ele>1110.940674</ele><time>2008-06-01T11:56:33Z</time></trkpt>
<trkpt lat="45.92982405" lon="9.06632270"><ele>1112.863281</ele><time>2008-06-01T11:56:48Z</time></trkpt>
<trkpt lat="45.92939280" lon="9.06605079"><ele>1112.863281</ele><time>2008-06-01T11:57:03Z</time></trkpt>
<trkpt lat="45.92928719" lon="9.06598683"><ele>1112.382568</ele><time>2008-06-01T11:57:05Z</time></trkpt>
<trkpt lat="45.92905677" lon="9.06596412"><ele>1111.421387</ele><time>2008-06-01T11:57:09Z</time></trkpt>
<trkpt lat="45.92889106" lon="9.06602330"><ele>1110.940674</ele><time>2008-06-01T11:57:12Z</time></trkpt>
<trkpt lat="45.92852619" lon="9.06603863"><ele>1109.979248</ele><time>2008-06-01T11:57:18Z</time></trkpt>
<trkpt lat="45.92802278" lon="9.06612849"><ele>1105.653564</ele><time>2008-06-01T11:57:24Z</time></trkpt>
<trkpt lat="45.92775405" lon="9.06611918"><ele>1103.730957</ele><time>2008-06-01T11:57:27Z</time></trkpt>
<trkpt lat="45.92757602" lon="9.06608147"><ele>1103.250244</ele><time>2008-06-01T11:57:29Z</time></trkpt>
<trkpt lat="45.92735994" lon="9.06591349"><ele>1097.962891</ele><time>2008-06-01T11:57:32Z</time></trkpt>
<trkpt lat="45.92693112" lon="9.06578274"><ele>1094.598145</ele><time>2008-06-01T11:57:37Z</time></trkpt>
<trkpt lat="45.92684579" lon="9.06578382"><ele>1094.117676</ele><time>2008-06-01T11:57:38Z</time></trkpt>
<trkpt lat="45.92646835" lon="9.06592112"><ele>1091.714355</ele><time>2008-06-01T11:57:45Z</time></trkpt>
<trkpt lat="45.92603702" lon="9.06593956"><ele>1093.15625</ele><time>2008-06-01T11:57:58Z</time></trkpt>
<trkpt lat="45.92563243" lon="9.06612572"><ele>1095.078857</ele><time>2008-06-01T11:58:12Z</time></trkpt>
<trkpt lat="45.92540125" lon="9.06645178"><ele>1097.482178</ele><time>2008-06-01T11:58:27Z</time></trkpt>
<trkpt lat="45.92523965" lon="9.06687372"><ele>1098.924072</ele><time>2008-06-01T11:58:42Z</time></trkpt>
<trkpt lat="45.92510847" lon="9.06714655"><ele>1099.885498</ele><time>2008-06-01T11:58:54Z</time></trkpt>
<trkpt lat="45.92491795" lon="9.06743137"><ele>1102.288818</ele><time>2008-06-01T11:59:07Z</time></trkpt>
<trkpt lat="45.92475945" lon="9.06770295"><ele>1101.80835</ele><time>2008-06-01T11:59:14Z</time></trkpt>
<trkpt lat="45.92458553" lon="9.06786488"><ele>1098.443359</ele><time>2008-06-01T11:59:18Z</time></trkpt>
<trkpt lat="45.92453993" lon="9.06786924"><ele>1098.924072</ele><time>2008-06-01T11:59:19Z</time></trkpt>
<trkpt lat="45.92440833" lon="9.06788140"><ele>1097.001465</ele><time>2008-06-01T11:59:22Z</time></trkpt>
<trkpt lat="45.92423919" lon="9.06786304"><ele>1093.636963</ele><time>2008-06-01T11:59:25Z</time></trkpt>
<trkpt lat="45.92414003" lon="9.06777889"><ele>1093.15625</ele><time>2008-06-01T11:59:27Z</time></trkpt>
<trkpt lat="45.92398237" lon="9.06747974"><ele>1090.75293</ele><time>2008-06-01T11:59:31Z</time></trkpt>
<trkpt lat="45.92394548" lon="9.06739558"><ele>1090.272461</ele><time>2008-06-01T11:59:32Z</time></trkpt>
<trkpt lat="45.92389067" lon="9.06691345"><ele>1089.791748</ele><time>2008-06-01T11:59:38Z</time></trkpt>
<trkpt lat="45.92387466" lon="9.06675487"><ele>1088.830566</ele><time>2008-06-01T11:59:40Z</time></trkpt>
<trkpt lat="45.92386837" lon="9.06630426"><ele>1088.349854</ele><time>2008-06-01T11:59:45Z</time></trkpt>
<trkpt lat="45.92376108" lon="9.06599262"><ele>1087.388428</ele><time>2008-06-01T11:59:50Z</time></trkpt>
<trkpt lat="45.92359059" lon="9.06575449"><ele>1085.946533</ele><time>2008-06-01T11:59:59Z</time></trkpt>
<trkpt lat="45.92346663" lon="9.06535333"><ele>1082.101074</ele><time>2008-06-01T12:00:08Z</time></trkpt>
<trkpt lat="45.92331885" lon="9.06474556"><ele>1079.697754</ele><time>2008-06-01T12:00:20Z</time></trkpt>
<trkpt lat="45.92329119" lon="9.06445689"><ele>1076.813965</ele><time>2008-06-01T12:00:27Z</time></trkpt>
<trkpt lat="45.92330628" lon="9.06423292"><ele>1074.891357</ele><time>2008-06-01T12:00:31Z</time></trkpt>
<trkpt lat="45.92330184" lon="9.06410619"><ele>1073.929932</ele><time>2008-06-01T12:00:34Z</time></trkpt>
<trkpt lat="45.92318223" lon="9.06433694"><ele>1072.488037</ele><time>2008-06-01T12:00:40Z</time></trkpt>
<trkpt lat="45.92315205" lon="9.06458479"><ele>1070.084717</ele><time>2008-06-01T12:00:44Z</time></trkpt>
<trkpt lat="45.92311987" lon="9.06469367"><ele>1068.642822</ele><time>2008-06-01T12:00:46Z</time></trkpt>
<trkpt lat="45.92310294" lon="9.06475134"><ele>1065.758789</ele><time>2008-06-01T12:00:47Z</time></trkpt>
<trkpt lat="45.92310034" lon="9.06487598"><ele>1064.797363</ele><time>2008-06-01T12:00:49Z</time></trkpt>
<trkpt lat="45.92312967" lon="9.06500146"><ele>1064.797363</ele><time>2008-06-01T12:00:51Z</time></trkpt>
<trkpt lat="45.92318298" lon="9.06527010"><ele>1064.797363</ele><time>2008-06-01T12:00:55Z</time></trkpt>
<trkpt lat="45.92320075" lon="9.06541519"><ele>1064.31665</ele><time>2008-06-01T12:00:57Z</time></trkpt>
<trkpt lat="45.92329538" lon="9.06596320"><ele>1061.432861</ele><time>2008-06-01T12:01:06Z</time></trkpt>
<trkpt lat="45.92332640" lon="9.06618414"><ele>1060.471436</ele><time>2008-06-01T12:01:10Z</time></trkpt>
<trkpt lat="45.92337568" lon="9.06647508"><ele>1059.510254</ele><time>2008-06-01T12:01:15Z</time></trkpt>
<trkpt lat="45.92334702" lon="9.06681379"><ele>1059.510254</ele><time>2008-06-01T12:01:19Z</time></trkpt>
<trkpt lat="45.92331617" lon="9.06697858"><ele>1059.510254</ele><time>2008-06-01T12:01:21Z</time></trkpt>
<trkpt lat="45.92326915" lon="9.06724898"><ele>1057.587646</ele><time>2008-06-01T12:01:25Z</time></trkpt>
<trkpt lat="45.92325197" lon="9.06736868"><ele>1057.587646</ele><time>2008-06-01T12:01:27Z</time></trkpt>
<trkpt lat="45.92317477" lon="9.06761024"><ele>1055.184326</ele><time>2008-06-01T12:01:31Z</time></trkpt>
<trkpt lat="45.92309782" lon="9.06781417"><ele>1054.703613</ele><time>2008-06-01T12:01:34Z</time></trkpt>
<trkpt lat="45.92270589" lon="9.06801056"><ele>1054.223145</ele><time>2008-06-01T12:01:43Z</time></trkpt>
<trkpt lat="45.92247035" lon="9.06781510"><ele>1053.742432</ele><time>2008-06-01T12:01:48Z</time></trkpt>
<trkpt lat="45.92238226" lon="9.06774494"><ele>1054.223145</ele><time>2008-06-01T12:01:50Z</time></trkpt>
<trkpt lat="45.92221437" lon="9.06750983"><ele>1053.742432</ele><time>2008-06-01T12:01:55Z</time></trkpt>
<trkpt lat="45.92188496" lon="9.06729986"><ele>1049.896973</ele><time>2008-06-01T12:02:03Z</time></trkpt>
<trkpt lat="45.92175479" lon="9.06724714"><ele>1046.051758</ele><time>2008-06-01T12:02:06Z</time></trkpt>
<trkpt lat="45.92163434" lon="9.06733724"><ele>1043.167725</ele><time>2008-06-01T12:02:09Z</time></trkpt>
<trkpt lat="45.92160308" lon="9.06742115"><ele>1042.206543</ele><time>2008-06-01T12:02:10Z</time></trkpt>
<trkpt lat="45.92153426" lon="9.06763589"><ele>1040.764404</ele><time>2008-06-01T12:02:13Z</time></trkpt>
<trkpt lat="45.92139739" lon="9.06791274"><ele>1037.399902</ele><time>2008-06-01T12:02:18Z</time></trkpt>
<trkpt lat="45.92130460" lon="9.06800872"><ele>1036.438721</ele><time>2008-06-01T12:02:20Z</time></trkpt>
<trkpt lat="45.92125892" lon="9.06806328"><ele>1035.477051</ele><time>2008-06-01T12:02:21Z</time></trkpt>
<trkpt lat="45.92115079" lon="9.06823754"><ele>1035.477051</ele><time>2008-06-01T12:02:24Z</time></trkpt>
<trkpt lat="45.92105348" lon="9.06853569"><ele>1034.996582</ele><time>2008-06-01T12:02:29Z</time></trkpt>
<trkpt lat="45.92103160" lon="9.06890072"><ele>1032.112549</ele><time>2008-06-01T12:02:36Z</time></trkpt>
<trkpt lat="45.92116429" lon="9.06904816"><ele>1029.228516</ele><time>2008-06-01T12:02:41Z</time></trkpt>
<trkpt lat="45.92126478" lon="9.06912426"><ele>1027.786621</ele><time>2008-06-01T12:02:44Z</time></trkpt>
<trkpt lat="45.92135036" lon="9.06928604"><ele>1025.383301</ele><time>2008-06-01T12:02:48Z</time></trkpt>
<trkpt lat="45.92144717" lon="9.06941059"><ele>1022.499512</ele><time>2008-06-01T12:02:52Z</time></trkpt>
<trkpt lat="45.92155237" lon="9.06956130"><ele>1021.538086</ele><time>2008-06-01T12:02:56Z</time></trkpt>
<trkpt lat="45.92167994" lon="9.06970454"><ele>1020.096191</ele><time>2008-06-01T12:02:59Z</time></trkpt>
<trkpt lat="45.92176024" lon="9.06977185"><ele>1019.134766</ele><time>2008-06-01T12:03:01Z</time></trkpt>
<trkpt lat="45.92166795" lon="9.07001392"><ele>1016.731445</ele><time>2008-06-01T12:03:07Z</time></trkpt>
<trkpt lat="45.92150325" lon="9.07004552"><ele>1013.366943</ele><time>2008-06-01T12:03:10Z</time></trkpt>
<trkpt lat="45.92131910" lon="9.06999104"><ele>1010.963623</ele><time>2008-06-01T12:03:14Z</time></trkpt>
<trkpt lat="45.92105146" lon="9.07005927"><ele>1008.079834</ele><time>2008-06-01T12:03:21Z</time></trkpt>
<trkpt lat="45.92084929" lon="9.07008567"><ele>1004.715088</ele><time>2008-06-01T12:03:28Z</time></trkpt>
<trkpt lat="45.92071124" lon="9.07002565"><ele>1002.311523</ele><time>2008-06-01T12:03:32Z</time></trkpt>
<trkpt lat="45.92048904" lon="9.06995717"><ele>997.98584</ele><time>2008-06-01T12:03:37Z</time></trkpt>
<trkpt lat="45.92044730" lon="9.06994443"><ele>997.505127</ele><time>2008-06-01T12:03:38Z</time></trkpt>
<trkpt lat="45.92035753" lon="9.06995676"><ele>995.101807</ele><time>2008-06-01T12:03:40Z</time></trkpt>
<trkpt lat="45.92018494" lon="9.06997637"><ele>991.737305</ele><time>2008-06-01T12:03:44Z</time></trkpt>
<trkpt lat="45.92005067" lon="9.06995944"><ele>990.29541</ele><time>2008-06-01T12:03:47Z</time></trkpt>
<trkpt lat="45.92000767" lon="9.06993756"><ele>989.333984</ele><time>2008-06-01T12:03:48Z</time></trkpt>
<trkpt lat="45.91988705" lon="9.06991376"><ele>986.93042</ele><time>2008-06-01T12:03:51Z</time></trkpt>
<trkpt lat="45.91982469" lon="9.06993697"><ele>985.969238</ele><time>2008-06-01T12:03:53Z</time></trkpt>
<trkpt lat="45.91977884" lon="9.07013806"><ele>984.046631</ele><time>2008-06-01T12:03:57Z</time></trkpt>
<trkpt lat="45.91974238" lon="9.07035699"><ele>984.046631</ele><time>2008-06-01T12:04:01Z</time></trkpt>
<trkpt lat="45.91954029" lon="9.07035758"><ele>983.565918</ele><time>2008-06-01T12:04:07Z</time></trkpt>
<trkpt lat="45.91946117" lon="9.07028859"><ele>983.085205</ele><time>2008-06-01T12:04:09Z</time></trkpt>
<trkpt lat="45.91898558" lon="9.07015733"><ele>984.527344</ele><time>2008-06-01T12:04:23Z</time></trkpt>
<trkpt lat="45.91871132" lon="9.07003596"><ele>987.411133</ele><time>2008-06-01T12:04:38Z</time></trkpt>
<trkpt lat="45.91844503" lon="9.06973908"><ele>989.814697</ele><time>2008-06-01T12:04:56Z</time></trkpt>
<trkpt lat="45.91827714" lon="9.06934203"><ele>993.179199</ele><time>2008-06-01T12:05:16Z</time></trkpt>
<trkpt lat="45.91818427" lon="9.06897113"><ele>995.101807</ele><time>2008-06-01T12:05:35Z</time></trkpt>
<trkpt lat="45.91811453" lon="9.06872227"><ele>996.543945</ele><time>2008-06-01T12:05:51Z</time></trkpt>
<trkpt lat="45.91802518" lon="9.06846603"><ele>999.427734</ele><time>2008-06-01T12:06:09Z</time></trkpt>
<trkpt lat="45.91802023" lon="9.06845095"><ele>999.427734</ele><time>2008-06-01T12:06:10Z</time></trkpt>
<trkpt lat="45.91794027" lon="9.06827057"><ele>1000.869629</ele><time>2008-06-01T12:06:21Z</time></trkpt>
<trkpt lat="45.91785519" lon="9.06812900"><ele>1001.831055</ele><time>2008-06-01T12:06:29Z</time></trkpt>
<trkpt lat="45.91781395" lon="9.06783278"><ele>1003.753662</ele><time>2008-06-01T12:06:42Z</time></trkpt>
<trkpt lat="45.91774992" lon="9.06745358"><ele>1006.637695</ele><time>2008-06-01T12:07:01Z</time></trkpt>
<trkpt lat="45.91781144" lon="9.06714739"><ele>1009.521729</ele><time>2008-06-01T12:07:20Z</time></trkpt>
<trkpt lat="45.91784547" lon="9.06697053"><ele>1011.925049</ele><time>2008-06-01T12:07:34Z</time></trkpt>
<trkpt lat="45.91785117" lon="9.06686048"><ele>1012.88623</ele><time>2008-06-01T12:07:43Z</time></trkpt>
<trkpt lat="45.91786106" lon="9.06662797"><ele>1013.847412</ele><time>2008-06-01T12:08:00Z</time></trkpt>
<trkpt lat="45.91787816" lon="9.06646268"><ele>1015.289551</ele><time>2008-06-01T12:08:12Z</time></trkpt>
<trkpt lat="45.91787422" lon="9.06641104"><ele>1015.289551</ele><time>2008-06-01T12:08:31Z</time></trkpt>
<trkpt lat="45.91788730" lon="9.06632496"><ele>1015.289551</ele><time>2008-06-01T12:08:49Z</time></trkpt>
<trkpt lat="45.91788319" lon="9.06629722"><ele>1015.770264</ele><time>2008-06-01T12:08:51Z</time></trkpt>
<trkpt lat="45.91791102" lon="9.06600167"><ele>1018.654053</ele><time>2008-06-01T12:09:06Z</time></trkpt>
<trkpt lat="45.91787816" lon="9.06575164"><ele>1019.615479</ele><time>2008-06-01T12:09:18Z</time></trkpt>
<trkpt lat="45.91781555" lon="9.06557252"><ele>1021.538086</ele><time>2008-06-01T12:09:27Z</time></trkpt>
<trkpt lat="45.91768244" lon="9.06531083"><ele>1023.941406</ele><time>2008-06-01T12:09:45Z</time></trkpt>
<trkpt lat="45.91757859" lon="9.06517656"><ele>1024.902832</ele><time>2008-06-01T12:09:56Z</time></trkpt>
<trkpt lat="45.91745026" lon="9.06480859"><ele>1028.267334</ele><time>2008-06-01T12:10:16Z</time></trkpt>
<trkpt lat="45.91740584" lon="9.06439126"><ele>1030.189941</ele><time>2008-06-01T12:10:36Z</time></trkpt>
<trkpt lat="45.91725916" lon="9.06433510"><ele>1032.112549</ele><time>2008-06-01T12:10:49Z</time></trkpt>
<trkpt lat="45.91729696" lon="9.06467574"><ele>1033.554443</ele><time>2008-06-01T12:11:07Z</time></trkpt>
<trkpt lat="45.91738162" lon="9.06508838"><ele>1036.438721</ele><time>2008-06-01T12:11:30Z</time></trkpt>
<trkpt lat="45.91743216" lon="9.06541795"><ele>1038.842041</ele><time>2008-06-01T12:11:47Z</time></trkpt>
<trkpt lat="45.91744934" lon="9.06581375"><ele>1042.206543</ele><time>2008-06-01T12:12:06Z</time></trkpt>
<trkpt lat="45.91742923" lon="9.06611575"><ele>1044.609619</ele><time>2008-06-01T12:12:21Z</time></trkpt>
<trkpt lat="45.91735312" lon="9.06641775"><ele>1047.012939</ele><time>2008-06-01T12:12:37Z</time></trkpt>
<trkpt lat="45.91734390" lon="9.06645614"><ele>1047.493652</ele><time>2008-06-01T12:12:39Z</time></trkpt>
<trkpt lat="45.91722873" lon="9.06667113"><ele>1049.41626</ele><time>2008-06-01T12:12:53Z</time></trkpt>
<trkpt lat="45.91716218" lon="9.06654465"><ele>1050.377686</ele><time>2008-06-01T12:13:02Z</time></trkpt>
<trkpt lat="45.91721322" lon="9.06623318"><ele>1053.261719</ele><time>2008-06-01T12:13:19Z</time></trkpt>
<trkpt lat="45.91720367" lon="9.06594174"><ele>1055.184326</ele><time>2008-06-01T12:13:36Z</time></trkpt>
<trkpt lat="45.91712614" lon="9.06568266"><ele>1057.587646</ele><time>2008-06-01T12:13:51Z</time></trkpt>
<trkpt lat="45.91707844" lon="9.06546875"><ele>1059.510254</ele><time>2008-06-01T12:14:07Z</time></trkpt>
<trkpt lat="45.91704324" lon="9.06534436"><ele>1060.471436</ele><time>2008-06-01T12:14:30Z</time></trkpt>
<trkpt lat="45.91693888" lon="9.06509534"><ele>1063.355469</ele><time>2008-06-01T12:14:47Z</time></trkpt>
<trkpt lat="45.91683822" lon="9.06476257"><ele>1065.278076</ele><time>2008-06-01T12:15:03Z</time></trkpt>
<trkpt lat="45.91677208" lon="9.06447038"><ele>1065.758789</ele><time>2008-06-01T12:15:17Z</time></trkpt>
<trkpt lat="45.91680008" lon="9.06403008"><ele>1068.162109</ele><time>2008-06-01T12:15:36Z</time></trkpt>
<trkpt lat="45.91680067" lon="9.06374468"><ele>1071.526611</ele><time>2008-06-01T12:15:49Z</time></trkpt>
<trkpt lat="45.91679346" lon="9.06348517"><ele>1073.449463</ele><time>2008-06-01T12:16:02Z</time></trkpt>
<trkpt lat="45.91678784" lon="9.06304638"><ele>1076.333252</ele><time>2008-06-01T12:16:22Z</time></trkpt>
<trkpt lat="45.91678566" lon="9.06301428"><ele>1076.813965</ele><time>2008-06-01T12:16:24Z</time></trkpt>
<trkpt lat="45.91675004" lon="9.06292132"><ele>1077.294678</ele><time>2008-06-01T12:16:30Z</time></trkpt>
<trkpt lat="45.91661216" lon="9.06292434"><ele>1078.255859</ele><time>2008-06-01T12:16:40Z</time></trkpt>
<trkpt lat="45.91660470" lon="9.06316507"><ele>1080.65918</ele><time>2008-06-01T12:16:53Z</time></trkpt>
<trkpt lat="45.91660738" lon="9.06355047"><ele>1084.023926</ele><time>2008-06-01T12:17:11Z</time></trkpt>
<trkpt lat="45.91659338" lon="9.06393545"><ele>1086.427246</ele><time>2008-06-01T12:17:28Z</time></trkpt>
<trkpt lat="45.91653722" lon="9.06414047"><ele>1087.388428</ele><time>2008-06-01T12:17:38Z</time></trkpt>
<trkpt lat="45.91646329" lon="9.06416746"><ele>1087.869141</ele><time>2008-06-01T12:17:43Z</time></trkpt>
<trkpt lat="45.91640445" lon="9.06404668"><ele>1088.349854</ele><time>2008-06-01T12:17:56Z</time></trkpt>
<trkpt lat="45.91640655" lon="9.06403402"><ele>1088.830566</ele><time>2008-06-01T12:17:57Z</time></trkpt>
<trkpt lat="45.91645533" lon="9.06380972"><ele>1090.272461</ele><time>2008-06-01T12:18:13Z</time></trkpt>
<trkpt lat="45.91646757" lon="9.06354326"><ele>1093.15625</ele><time>2008-06-01T12:18:30Z</time></trkpt>
<trkpt lat="45.91647855" lon="9.06354074"><ele>1092.675781</ele><time>2008-06-01T12:18:38Z</time></trkpt>
<trkpt lat="45.91645625" lon="9.06348023"><ele>1093.15625</ele><time>2008-06-01T12:18:43Z</time></trkpt>
<trkpt lat="45.91645047" lon="9.06341678"><ele>1093.636963</ele><time>2008-06-01T12:18:47Z</time></trkpt>
<trkpt lat="45.91636992" lon="9.06313632"><ele>1097.001465</ele><time>2008-06-01T12:19:00Z</time></trkpt>
<trkpt lat="45.91623070" lon="9.06280456"><ele>1099.885498</ele><time>2008-06-01T12:19:15Z</time></trkpt>
<trkpt lat="45.91608502" lon="9.06237767"><ele>1102.288818</ele><time>2008-06-01T12:19:34Z</time></trkpt>
<trkpt lat="45.91601092" lon="9.06207567"><ele>1105.653564</ele><time>2008-06-01T12:19:48Z</time></trkpt>
<trkpt lat="45.91588989" lon="9.06170502"><ele>1107.576172</ele><time>2008-06-01T12:20:07Z</time></trkpt>
<trkpt lat="45.91580389" lon="9.06144678"><ele>1109.018066</ele><time>2008-06-01T12:20:21Z</time></trkpt>
<trkpt lat="45.91574748" lon="9.06108007"><ele>1111.9021</ele><time>2008-06-01T12:20:39Z</time></trkpt>
<trkpt lat="45.91570909" lon="9.06075703"><ele>1113.824463</ele><time>2008-06-01T12:20:55Z</time></trkpt>
<trkpt lat="45.91561136" lon="9.06067288"><ele>1112.863281</ele><time>2008-06-01T12:21:01Z</time></trkpt>
<trkpt lat="45.91549678" lon="9.06034648"><ele>1109.498779</ele><time>2008-06-01T12:21:06Z</time></trkpt>
<trkpt lat="45.91545545" lon="9.06026677"><ele>1109.498779</ele><time>2008-06-01T12:21:07Z</time></trkpt>
<trkpt lat="45.91536879" lon="9.06009603"><ele>1108.537354</ele><time>2008-06-01T12:21:09Z</time></trkpt>
<trkpt lat="45.91525437" lon="9.05955104"><ele>1106.614746</ele><time>2008-06-01T12:21:15Z</time></trkpt>
<trkpt lat="45.91518648" lon="9.05860900"><ele>1106.614746</ele><time>2008-06-01T12:21:28Z</time></trkpt>
<trkpt lat="45.91518355" lon="9.05855628"><ele>1105.653564</ele><time>2008-06-01T12:21:38Z</time></trkpt>
<trkpt lat="45.91520660" lon="9.05850733"><ele>1105.172852</ele><time>2008-06-01T12:21:51Z</time></trkpt>
<trkpt lat="45.91521439" lon="9.05851085"><ele>1105.172852</ele><time>2008-06-01T12:22:04Z</time></trkpt>
<trkpt lat="45.91522009" lon="9.05850230"><ele>1105.172852</ele><time>2008-06-01T12:22:27Z</time></trkpt>
<trkpt lat="45.91522914" lon="9.05852082"><ele>1105.653564</ele><time>2008-06-01T12:22:46Z</time></trkpt>
<trkpt lat="45.91523459" lon="9.05852216"><ele>1106.134033</ele><time>2008-06-01T12:23:25Z</time></trkpt>
<trkpt lat="45.91523560" lon="9.05842460"><ele>1105.653564</ele><time>2008-06-01T12:23:30Z</time></trkpt>
<trkpt lat="45.91523216" lon="9.05836743"><ele>1106.134033</ele><time>2008-06-01T12:23:32Z</time></trkpt>
<trkpt lat="45.91509713" lon="9.05840322"><ele>1103.730957</ele><time>2008-06-01T12:23:40Z</time></trkpt>
<trkpt lat="45.91508389" lon="9.05860825"><ele>1103.250244</ele><time>2008-06-01T12:23:43Z</time></trkpt>
<trkpt lat="45.91507140" lon="9.05893975"><ele>1101.327637</ele><time>2008-06-01T12:23:47Z</time></trkpt>
<trkpt lat="45.91503359" lon="9.05905802"><ele>1098.924072</ele><time>2008-06-01T12:23:50Z</time></trkpt>
<trkpt lat="45.91489093" lon="9.05873096"><ele>1098.443359</ele><time>2008-06-01T12:23:56Z</time></trkpt>
<trkpt lat="45.91465130" lon="9.05834204"><ele>1092.195068</ele><time>2008-06-01T12:24:01Z</time></trkpt>
<trkpt lat="45.91458759" lon="9.05827758"><ele>1091.233643</ele><time>2008-06-01T12:24:02Z</time></trkpt>
<trkpt lat="45.91430319" lon="9.05800886"><ele>1086.427246</ele><time>2008-06-01T12:24:07Z</time></trkpt>
<trkpt lat="45.91420814" lon="9.05790769"><ele>1085.46582</ele><time>2008-06-01T12:24:09Z</time></trkpt>
<trkpt lat="45.91415877" lon="9.05785052"><ele>1085.46582</ele><time>2008-06-01T12:24:10Z</time></trkpt>
<trkpt lat="45.91402500" lon="9.05764642"><ele>1083.062256</ele><time>2008-06-01T12:24:13Z</time></trkpt>
<trkpt lat="45.91378553" lon="9.05747443"><ele>1080.178467</ele><time>2008-06-01T12:24:18Z</time></trkpt>
<trkpt lat="45.91347624" lon="9.05730352"><ele>1075.371826</ele><time>2008-06-01T12:24:22Z</time></trkpt>
<trkpt lat="45.91335017" lon="9.05720520"><ele>1073.449463</ele><time>2008-06-01T12:24:24Z</time></trkpt>
<trkpt lat="45.91313467" lon="9.05698065"><ele>1069.604248</ele><time>2008-06-01T12:24:28Z</time></trkpt>
<trkpt lat="45.91298657" lon="9.05685173"><ele>1068.162109</ele><time>2008-06-01T12:24:31Z</time></trkpt>
<trkpt lat="45.91282086" lon="9.05672374"><ele>1066.239258</ele><time>2008-06-01T12:24:34Z</time></trkpt>
<trkpt lat="45.91264064" lon="9.05651327"><ele>1062.874756</ele><time>2008-06-01T12:24:37Z</time></trkpt>
<trkpt lat="45.91250695" lon="9.05642116"><ele>1061.432861</ele><time>2008-06-01T12:24:39Z</time></trkpt>
<trkpt lat="45.91233856" lon="9.05631378"><ele>1060.471436</ele><time>2008-06-01T12:24:42Z</time></trkpt>
<trkpt lat="45.91199188" lon="9.05614925"><ele>1056.145508</ele><time>2008-06-01T12:24:48Z</time></trkpt>
<trkpt lat="45.91187772" lon="9.05610717"><ele>1053.742432</ele><time>2008-06-01T12:24:50Z</time></trkpt>
<trkpt lat="45.91165200" lon="9.05609007"><ele>1052.781006</ele><time>2008-06-01T12:24:54Z</time></trkpt>
<trkpt lat="45.91163574" lon="9.05614028"><ele>1050.377686</ele><time>2008-06-01T12:24:57Z</time></trkpt>
<trkpt lat="45.91183078" lon="9.05614573"><ele>1048.935547</ele><time>2008-06-01T12:25:01Z</time></trkpt>
<trkpt lat="45.91207545" lon="9.05631395"><ele>1047.974365</ele><time>2008-06-01T12:25:05Z</time></trkpt>
<trkpt lat="45.91225089" lon="9.05645653"><ele>1044.12915</ele><time>2008-06-01T12:25:08Z</time></trkpt>
<trkpt lat="45.91235650" lon="9.05656775"><ele>1042.206543</ele><time>2008-06-01T12:25:10Z</time></trkpt>
<trkpt lat="45.91262103" lon="9.05695869"><ele>1038.842041</ele><time>2008-06-01T12:25:16Z</time></trkpt>
<trkpt lat="45.91276688" lon="9.05711928"><ele>1037.399902</ele><time>2008-06-01T12:25:19Z</time></trkpt>
<trkpt lat="45.91279663" lon="9.05716798"><ele>1035.957764</ele><time>2008-06-01T12:25:20Z</time></trkpt>
<trkpt lat="45.91282337" lon="9.05731710"><ele>1034.515869</ele><time>2008-06-01T12:25:23Z</time></trkpt>
<trkpt lat="45.91279948" lon="9.05735574"><ele>1033.554443</ele><time>2008-06-01T12:25:24Z</time></trkpt>
<trkpt lat="45.91272346" lon="9.05744819"><ele>1032.593262</ele><time>2008-06-01T12:25:26Z</time></trkpt>
<trkpt lat="45.91262287" lon="9.05757937"><ele>1031.151367</ele><time>2008-06-01T12:25:28Z</time></trkpt>
<trkpt lat="45.91251450" lon="9.05771440"><ele>1030.670654</ele><time>2008-06-01T12:25:30Z</time></trkpt>
<trkpt lat="45.91222079" lon="9.05798547"><ele>1026.344727</ele><time>2008-06-01T12:25:35Z</time></trkpt>
<trkpt lat="45.91215894" lon="9.05803752"><ele>1025.864014</ele><time>2008-06-01T12:25:36Z</time></trkpt>
<trkpt lat="45.91193816" lon="9.05827674"><ele>1023.460938</ele><time>2008-06-01T12:25:40Z</time></trkpt>
<trkpt lat="45.91189080" lon="9.05832854"><ele>1022.499512</ele><time>2008-06-01T12:25:41Z</time></trkpt>
<trkpt lat="45.91176566" lon="9.05850179"><ele>1020.576904</ele><time>2008-06-01T12:25:44Z</time></trkpt>
<trkpt lat="45.91162543" lon="9.05869206"><ele>1017.692627</ele><time>2008-06-01T12:25:47Z</time></trkpt>
<trkpt lat="45.91151286" lon="9.05890019"><ele>1015.770264</ele><time>2008-06-01T12:25:50Z</time></trkpt>
<trkpt lat="45.91149970" lon="9.05926866"><ele>1012.405518</ele><time>2008-06-01T12:25:54Z</time></trkpt>
<trkpt lat="45.91156273" lon="9.05959714"><ele>1009.041016</ele><time>2008-06-01T12:25:57Z</time></trkpt>
<trkpt lat="45.91163163" lon="9.05992496"><ele>1007.599121</ele><time>2008-06-01T12:26:00Z</time></trkpt>
<trkpt lat="45.91166365" lon="9.06004524"><ele>1006.637695</ele><time>2008-06-01T12:26:01Z</time></trkpt>
<trkpt lat="45.91177194" lon="9.06039803"><ele>1003.272949</ele><time>2008-06-01T12:26:04Z</time></trkpt>
<trkpt lat="45.91184738" lon="9.06073733"><ele>999.427734</ele><time>2008-06-01T12:26:07Z</time></trkpt>
<trkpt lat="45.91188292" lon="9.06095845"><ele>997.505127</ele><time>2008-06-01T12:26:09Z</time></trkpt>
<trkpt lat="45.91199608" lon="9.06122893"><ele>995.101807</ele><time>2008-06-01T12:26:13Z</time></trkpt>
<trkpt lat="45.91201594" lon="9.06126472"><ele>994.621094</ele><time>2008-06-01T12:26:14Z</time></trkpt>
<trkpt lat="45.91188770" lon="9.06105048"><ele>991.737305</ele><time>2008-06-01T12:26:20Z</time></trkpt>
<trkpt lat="45.91184378" lon="9.06098125"><ele>990.775879</ele><time>2008-06-01T12:26:21Z</time></trkpt>
<trkpt lat="45.91173925" lon="9.06083423"><ele>989.814697</ele><time>2008-06-01T12:26:23Z</time></trkpt>
<trkpt lat="45.91163532" lon="9.06064362"><ele>988.372803</ele><time>2008-06-01T12:26:25Z</time></trkpt>
<trkpt lat="45.91147212" lon="9.06037289"><ele>985.008057</ele><time>2008-06-01T12:26:28Z</time></trkpt>
<trkpt lat="45.91127238" lon="9.06010618"><ele>982.124023</ele><time>2008-06-01T12:26:31Z</time></trkpt>
<trkpt lat="45.91116124" lon="9.05993795"><ele>980.682129</ele><time>2008-06-01T12:26:33Z</time></trkpt>
<trkpt lat="45.91094088" lon="9.05947686"><ele>975.875488</ele><time>2008-06-01T12:26:38Z</time></trkpt>
<trkpt lat="45.91089528" lon="9.05940520"><ele>975.394775</ele><time>2008-06-01T12:26:39Z</time></trkpt>
<trkpt lat="45.91077726" lon="9.05916807"><ele>972.510986</ele><time>2008-06-01T12:26:42Z</time></trkpt>
<trkpt lat="45.91078020" lon="9.05858503"><ele>966.74292</ele><time>2008-06-01T12:26:49Z</time></trkpt>
<trkpt lat="45.91087282" lon="9.05830348"><ele>963.858887</ele><time>2008-06-01T12:26:52Z</time></trkpt>
<trkpt lat="45.91100014" lon="9.05792906"><ele>961.455811</ele><time>2008-06-01T12:26:57Z</time></trkpt>
<trkpt lat="45.91106795" lon="9.05780844"><ele>959.05249</ele><time>2008-06-01T12:27:00Z</time></trkpt>
<trkpt lat="45.91105797" lon="9.05779746"><ele>957.610596</ele><time>2008-06-01T12:27:03Z</time></trkpt>
<trkpt lat="45.91087743" lon="9.05808044"><ele>955.687744</ele><time>2008-06-01T12:27:08Z</time></trkpt>
<trkpt lat="45.91056897" lon="9.05857866"><ele>950.400635</ele><time>2008-06-01T12:27:14Z</time></trkpt>
<trkpt lat="45.91045733" lon="9.05872056"><ele>949.439209</ele><time>2008-06-01T12:27:16Z</time></trkpt>
<trkpt lat="45.91028256" lon="9.05910848"><ele>945.593994</ele><time>2008-06-01T12:27:21Z</time></trkpt>
<trkpt lat="45.91027368" lon="9.05920420"><ele>945.113281</ele><time>2008-06-01T12:27:22Z</time></trkpt>
<trkpt lat="45.91028516" lon="9.05961717"><ele>941.748779</ele><time>2008-06-01T12:27:26Z</time></trkpt>
<trkpt lat="45.91037979" lon="9.06002353"><ele>937.90332</ele><time>2008-06-01T12:27:32Z</time></trkpt>
<trkpt lat="45.91038264" lon="9.06009436"><ele>936.461426</ele><time>2008-06-01T12:27:34Z</time></trkpt>
<trkpt lat="45.91027879" lon="9.05990249"><ele>934.538818</ele><time>2008-06-01T12:27:39Z</time></trkpt>
<trkpt lat="45.91024845" lon="9.05981004"><ele>933.577393</ele><time>2008-06-01T12:27:40Z</time></trkpt>
<trkpt lat="45.91015667" lon="9.05963017"><ele>932.135498</ele><time>2008-06-01T12:27:42Z</time></trkpt>
<trkpt lat="45.91006103" lon="9.05933714"><ele>931.654785</ele><time>2008-06-01T12:27:45Z</time></trkpt>
<trkpt lat="45.90999926" lon="9.05917117"><ele>929.732178</ele><time>2008-06-01T12:27:47Z</time></trkpt>
<trkpt lat="45.90994653" lon="9.05893908"><ele>926.848389</ele><time>2008-06-01T12:27:50Z</time></trkpt>
<trkpt lat="45.91008592" lon="9.05855644"><ele>923.483643</ele><time>2008-06-01T12:27:55Z</time></trkpt>
<trkpt lat="45.91021325" lon="9.05834086"><ele>921.560791</ele><time>2008-06-01T12:27:58Z</time></trkpt>
<trkpt lat="45.91029187" lon="9.05818018"><ele>922.041504</ele><time>2008-06-01T12:28:00Z</time></trkpt>
<trkpt lat="45.91015222" lon="9.05820382"><ele>922.041504</ele><time>2008-06-01T12:28:05Z</time></trkpt>
<trkpt lat="45.90995626" lon="9.05825746"><ele>922.522217</ele><time>2008-06-01T12:28:10Z</time></trkpt>
<trkpt lat="45.90962559" lon="9.05837355"><ele>920.118896</ele><time>2008-06-01T12:28:16Z</time></trkpt>
<trkpt lat="45.90935653" lon="9.05834195"><ele>917.715576</ele><time>2008-06-01T12:28:20Z</time></trkpt>
<trkpt lat="45.90903626" lon="9.05783828"><ele>915.3125</ele><time>2008-06-01T12:28:27Z</time></trkpt>
<trkpt lat="45.90888178" lon="9.05728374"><ele>910.986572</ele><time>2008-06-01T12:28:32Z</time></trkpt>
<trkpt lat="45.90881003" lon="9.05686146"><ele>907.621826</ele><time>2008-06-01T12:28:36Z</time></trkpt>
<trkpt lat="45.90880986" lon="9.05651252"><ele>905.218506</ele><time>2008-06-01T12:28:40Z</time></trkpt>
<trkpt lat="45.90877592" lon="9.05640883"><ele>904.257324</ele><time>2008-06-01T12:28:42Z</time></trkpt>
<trkpt lat="45.90868824" lon="9.05639777"><ele>903.776611</ele><time>2008-06-01T12:28:44Z</time></trkpt>
<trkpt lat="45.90852236" lon="9.05621027"><ele>902.334473</ele><time>2008-06-01T12:28:48Z</time></trkpt>
<trkpt lat="45.90837182" lon="9.05595009"><ele>900.412109</ele><time>2008-06-01T12:28:52Z</time></trkpt>
<trkpt lat="45.90826395" lon="9.05570148"><ele>898.489258</ele><time>2008-06-01T12:28:55Z</time></trkpt>
<trkpt lat="45.90815926" lon="9.05543754"><ele>896.086182</ele><time>2008-06-01T12:28:58Z</time></trkpt>
<trkpt lat="45.90802632" lon="9.05509950"><ele>892.240967</ele><time>2008-06-01T12:29:02Z</time></trkpt>
<trkpt lat="45.90787285" lon="9.05483555"><ele>888.876221</ele><time>2008-06-01T12:29:06Z</time></trkpt>
<trkpt lat="45.90779255" lon="9.05473388"><ele>886.953369</ele><time>2008-06-01T12:29:08Z</time></trkpt>
<trkpt lat="45.90768945" lon="9.05442945"><ele>884.06958</ele><time>2008-06-01T12:29:13Z</time></trkpt>
<trkpt lat="45.90769507" lon="9.05409015"><ele>881.185791</ele><time>2008-06-01T12:29:18Z</time></trkpt>
<trkpt lat="45.90761066" lon="9.05417455"><ele>879.262939</ele><time>2008-06-01T12:29:23Z</time></trkpt>
<trkpt lat="45.90760957" lon="9.05437689"><ele>877.821045</ele><time>2008-06-01T12:29:26Z</time></trkpt>
<trkpt lat="45.90758963" lon="9.05463958"><ele>876.859863</ele><time>2008-06-01T12:29:29Z</time></trkpt>
<trkpt lat="45.90763162" lon="9.05488006"><ele>873.495117</ele><time>2008-06-01T12:29:32Z</time></trkpt>
<trkpt lat="45.90779557" lon="9.05544165"><ele>868.688477</ele><time>2008-06-01T12:29:37Z</time></trkpt>
<trkpt lat="45.90788953" lon="9.05594607"><ele>865.804688</ele><time>2008-06-01T12:29:41Z</time></trkpt>
<trkpt lat="45.90793069" lon="9.05620482"><ele>864.362549</ele><time>2008-06-01T12:29:43Z</time></trkpt>
<trkpt lat="45.90805340" lon="9.05706765"><ele>862.920654</ele><time>2008-06-01T12:29:50Z</time></trkpt>
<trkpt lat="45.90821500" lon="9.05765665"><ele>857.152588</ele><time>2008-06-01T12:29:56Z</time></trkpt>
<trkpt lat="45.90820896" lon="9.05787223"><ele>853.788086</ele><time>2008-06-01T12:29:59Z</time></trkpt>
<trkpt lat="45.90807829" lon="9.05785144"><ele>851.865479</ele><time>2008-06-01T12:30:04Z</time></trkpt>
<trkpt lat="45.90802155" lon="9.05776368"><ele>852.345947</ele><time>2008-06-01T12:30:06Z</time></trkpt>
<trkpt lat="45.90779683" lon="9.05756889"><ele>852.82666</ele><time>2008-06-01T12:30:12Z</time></trkpt>
<trkpt lat="45.90749172" lon="9.05742858"><ele>851.384766</ele><time>2008-06-01T12:30:20Z</time></trkpt>
<trkpt lat="45.90745409" lon="9.05740058"><ele>850.423584</ele><time>2008-06-01T12:30:22Z</time></trkpt>
<trkpt lat="45.90743523" lon="9.05715466"><ele>848.981445</ele><time>2008-06-01T12:30:26Z</time></trkpt>
<trkpt lat="45.90738997" lon="9.05696640"><ele>847.058838</ele><time>2008-06-01T12:30:28Z</time></trkpt>
<trkpt lat="45.90725242" lon="9.05666079"><ele>845.13623</ele><time>2008-06-01T12:30:31Z</time></trkpt>
<trkpt lat="45.90719752" lon="9.05657094"><ele>844.175049</ele><time>2008-06-01T12:30:32Z</time></trkpt>
<trkpt lat="45.90708805" lon="9.05641730"><ele>843.213379</ele><time>2008-06-01T12:30:34Z</time></trkpt>
<trkpt lat="45.90703198" lon="9.05635192"><ele>842.252197</ele><time>2008-06-01T12:30:35Z</time></trkpt>
<trkpt lat="45.90667239" lon="9.05620448"><ele>837.445557</ele><time>2008-06-01T12:30:42Z</time></trkpt>
<trkpt lat="45.90665706" lon="9.05615604"><ele>836.484375</ele><time>2008-06-01T12:30:43Z</time></trkpt>
<trkpt lat="45.90662118" lon="9.05600659"><ele>834.561768</ele><time>2008-06-01T12:30:45Z</time></trkpt>
<trkpt lat="45.90633108" lon="9.05564876"><ele>829.755127</ele><time>2008-06-01T12:30:50Z</time></trkpt>
<trkpt lat="45.90626654" lon="9.05561892"><ele>829.274414</ele><time>2008-06-01T12:30:51Z</time></trkpt>
<trkpt lat="45.90605699" lon="9.05565346"><ele>828.313232</ele><time>2008-06-01T12:30:55Z</time></trkpt>
<trkpt lat="45.90593445" lon="9.05565698"><ele>827.832275</ele><time>2008-06-01T12:30:58Z</time></trkpt>
<trkpt lat="45.90599447" lon="9.05539563"><ele>826.871094</ele><time>2008-06-01T12:31:03Z</time></trkpt>
<trkpt lat="45.90594443" lon="9.05502096"><ele>824.467773</ele><time>2008-06-01T12:31:07Z</time></trkpt>
<trkpt lat="45.90564628" lon="9.05457295"><ele>818.219238</ele><time>2008-06-01T12:31:13Z</time></trkpt>
<trkpt lat="45.90543422" lon="9.05435686"><ele>813.893311</ele><time>2008-06-01T12:31:16Z</time></trkpt>
<trkpt lat="45.90536272" lon="9.05427556"><ele>812.451416</ele><time>2008-06-01T12:31:17Z</time></trkpt>
<trkpt lat="45.90507095" lon="9.05402343"><ele>810.528564</ele><time>2008-06-01T12:31:21Z</time></trkpt>
<trkpt lat="45.90492728" lon="9.05394447"><ele>810.047852</ele><time>2008-06-01T12:31:23Z</time></trkpt>
<trkpt lat="45.90466904" lon="9.05386903"><ele>806.202637</ele><time>2008-06-01T12:31:27Z</time></trkpt>
<trkpt lat="45.90455798" lon="9.05358396"><ele>800.435059</ele><time>2008-06-01T12:31:32Z</time></trkpt>
<trkpt lat="45.90452646" lon="9.05341976"><ele>797.070313</ele><time>2008-06-01T12:31:34Z</time></trkpt>
<trkpt lat="45.90432269" lon="9.05315246"><ele>792.744385</ele><time>2008-06-01T12:31:38Z</time></trkpt>
<trkpt lat="45.90413268" lon="9.05304727"><ele>788.89917</ele><time>2008-06-01T12:31:41Z</time></trkpt>
<trkpt lat="45.90401860" lon="9.05293764"><ele>787.457031</ele><time>2008-06-01T12:31:43Z</time></trkpt>
<trkpt lat="45.90386840" lon="9.05276128"><ele>786.976318</ele><time>2008-06-01T12:31:46Z</time></trkpt>
<trkpt lat="45.90348233" lon="9.05266623"><ele>782.169922</ele><time>2008-06-01T12:31:53Z</time></trkpt>
<trkpt lat="45.90343229" lon="9.05248116"><ele>781.689209</ele><time>2008-06-01T12:31:55Z</time></trkpt>
<trkpt lat="45.90319432" lon="9.05208444"><ele>779.285645</ele><time>2008-06-01T12:32:00Z</time></trkpt>
<trkpt lat="45.90305644" lon="9.05196592"><ele>777.84375</ele><time>2008-06-01T12:32:02Z</time></trkpt>
<trkpt lat="45.90291906" lon="9.05182309"><ele>775.921143</ele><time>2008-06-01T12:32:04Z</time></trkpt>
<trkpt lat="45.90278319" lon="9.05165596"><ele>774.479248</ele><time>2008-06-01T12:32:06Z</time></trkpt>
<trkpt lat="45.90251623" lon="9.05124072"><ele>770.15332</ele><time>2008-06-01T12:32:10Z</time></trkpt>
<trkpt lat="45.90245093" lon="9.05113033"><ele>768.711426</ele><time>2008-06-01T12:32:11Z</time></trkpt>
<trkpt lat="45.90230375" lon="9.05093780"><ele>767.75</ele><time>2008-06-01T12:32:13Z</time></trkpt>
<trkpt lat="45.90223200" lon="9.05085607"><ele>766.308105</ele><time>2008-06-01T12:32:14Z</time></trkpt>
<trkpt lat="45.90177108" lon="9.05071224"><ele>763.424072</ele><time>2008-06-01T12:32:20Z</time></trkpt>
<trkpt lat="45.90170268" lon="9.05076329"><ele>761.982178</ele><time>2008-06-01T12:32:21Z</time></trkpt>
<trkpt lat="45.90145173" lon="9.05082766"><ele>760.540039</ele><time>2008-06-01T12:32:26Z</time></trkpt>
<trkpt lat="45.90141686" lon="9.05077217"><ele>760.059326</ele><time>2008-06-01T12:32:27Z</time></trkpt>
<trkpt lat="45.90122106" lon="9.05049037"><ele>760.059326</ele><time>2008-06-01T12:32:32Z</time></trkpt>
<trkpt lat="45.90093984" lon="9.05036582"><ele>754.772217</ele><time>2008-06-01T12:32:36Z</time></trkpt>
<trkpt lat="45.90074505" lon="9.05032558"><ele>751.888428</ele><time>2008-06-01T12:32:38Z</time></trkpt>
<trkpt lat="45.90040365" lon="9.05011696"><ele>748.043213</ele><time>2008-06-01T12:32:42Z</time></trkpt>
<trkpt lat="45.90024314" lon="9.05001017"><ele>743.717041</ele><time>2008-06-01T12:32:44Z</time></trkpt>
<trkpt lat="45.90001876" lon="9.04988562"><ele>739.871826</ele><time>2008-06-01T12:32:47Z</time></trkpt>
<trkpt lat="45.89988079" lon="9.04979635"><ele>736.026611</ele><time>2008-06-01T12:32:49Z</time></trkpt>
<trkpt lat="45.89960637" lon="9.04944054"><ele>732.181396</ele><time>2008-06-01T12:32:54Z</time></trkpt>
<trkpt lat="45.89945608" lon="9.04929964"><ele>730.258545</ele><time>2008-06-01T12:32:56Z</time></trkpt>
<trkpt lat="45.89919884" lon="9.04892497"><ele>724.490723</ele><time>2008-06-01T12:33:00Z</time></trkpt>
<trkpt lat="45.89911787" lon="9.04870000"><ele>721.606689</ele><time>2008-06-01T12:33:02Z</time></trkpt>
<trkpt lat="45.89899792" lon="9.04827495"><ele>716.31958</ele><time>2008-06-01T12:33:06Z</time></trkpt>
<trkpt lat="45.89895459" lon="9.04808594"><ele>712.954834</ele><time>2008-06-01T12:33:08Z</time></trkpt>
<trkpt lat="45.89893925" lon="9.04799349"><ele>711.032227</ele><time>2008-06-01T12:33:09Z</time></trkpt>
<trkpt lat="45.89889742" lon="9.04771345"><ele>706.706299</ele><time>2008-06-01T12:33:12Z</time></trkpt>
<trkpt lat="45.89872492" lon="9.04734230"><ele>702.380371</ele><time>2008-06-01T12:33:16Z</time></trkpt>
<trkpt lat="45.89861755" lon="9.04716846"><ele>701.419189</ele><time>2008-06-01T12:33:18Z</time></trkpt>
<trkpt lat="45.89852803" lon="9.04703493"><ele>700.938477</ele><time>2008-06-01T12:33:20Z</time></trkpt>
<trkpt lat="45.89840029" lon="9.04665037"><ele>698.534912</ele><time>2008-06-01T12:33:24Z</time></trkpt>
<trkpt lat="45.89830105" lon="9.04647863"><ele>695.651123</ele><time>2008-06-01T12:33:26Z</time></trkpt>
<trkpt lat="45.89807357" lon="9.04621988"><ele>693.247803</ele><time>2008-06-01T12:33:30Z</time></trkpt>
<trkpt lat="45.89794876" lon="9.04615374"><ele>691.805908</ele><time>2008-06-01T12:33:32Z</time></trkpt>
<trkpt lat="45.89772052" lon="9.04608510"><ele>689.883301</ele><time>2008-06-01T12:33:37Z</time></trkpt>
<trkpt lat="45.89739807" lon="9.04606305"><ele>687.960693</ele><time>2008-06-01T12:33:41Z</time></trkpt>
<trkpt lat="45.89728726" lon="9.04590136"><ele>683.634521</ele><time>2008-06-01T12:33:45Z</time></trkpt>
<trkpt lat="45.89756487" lon="9.04576097"><ele>681.231445</ele><time>2008-06-01T12:33:48Z</time></trkpt>
<trkpt lat="45.89778523" lon="9.04556726"><ele>676.424805</ele><time>2008-06-01T12:33:51Z</time></trkpt>
<trkpt lat="45.89796879" lon="9.04544673"><ele>673.060303</ele><time>2008-06-01T12:33:54Z</time></trkpt>
<trkpt lat="45.89815864" lon="9.04532813"><ele>669.695801</ele><time>2008-06-01T12:33:57Z</time></trkpt>
<trkpt lat="45.89822813" lon="9.04529074"><ele>668.253662</ele><time>2008-06-01T12:33:58Z</time></trkpt>
<trkpt lat="45.89855729" lon="9.04538537"><ele>666.330811</ele><time>2008-06-01T12:34:03Z</time></trkpt>
<trkpt lat="45.89878427" lon="9.04555938"><ele>664.408203</ele><time>2008-06-01T12:34:06Z</time></trkpt>
<trkpt lat="45.89899549" lon="9.04566198"><ele>661.524414</ele><time>2008-06-01T12:34:09Z</time></trkpt>
<trkpt lat="45.89903665" lon="9.04552233"><ele>658.159912</ele><time>2008-06-01T12:34:14Z</time></trkpt>
<trkpt lat="45.89870875" lon="9.04520508"><ele>653.353271</ele><time>2008-06-01T12:34:19Z</time></trkpt>
<trkpt lat="45.89853222" lon="9.04484399"><ele>646.143311</ele><time>2008-06-01T12:34:22Z</time></trkpt>
<trkpt lat="45.89849409" lon="9.04471172"><ele>644.220703</ele><time>2008-06-01T12:34:23Z</time></trkpt>
<trkpt lat="45.89829309" lon="9.04421409"><ele>637.491455</ele><time>2008-06-01T12:34:27Z</time></trkpt>
<trkpt lat="45.89807726" lon="9.04393774"><ele>630.281494</ele><time>2008-06-01T12:34:30Z</time></trkpt>
<trkpt lat="45.89793979" lon="9.04392625"><ele>626.916992</ele><time>2008-06-01T12:34:32Z</time></trkpt>
<trkpt lat="45.89783183" lon="9.04400890"><ele>623.071777</ele><time>2008-06-01T12:34:34Z</time></trkpt>
<trkpt lat="45.89789352" lon="9.04382056"><ele>621.14917</ele><time>2008-06-01T12:34:38Z</time></trkpt>
<trkpt lat="45.89800777" lon="9.04364328"><ele>619.226318</ele><time>2008-06-01T12:34:40Z</time></trkpt>
<trkpt lat="45.89831287" lon="9.04331303"><ele>611.535889</ele><time>2008-06-01T12:34:44Z</time></trkpt>
<trkpt lat="45.89865787" lon="9.04342275"><ele>606.248535</ele><time>2008-06-01T12:34:49Z</time></trkpt>
<trkpt lat="45.89877849" lon="9.04375685"><ele>602.403076</ele><time>2008-06-01T12:34:52Z</time></trkpt>
<trkpt lat="45.89881084" lon="9.04384109"><ele>601.441895</ele><time>2008-06-01T12:34:53Z</time></trkpt>
<trkpt lat="45.89884805" lon="9.04388292"><ele>599.519287</ele><time>2008-06-01T12:34:55Z</time></trkpt>
<trkpt lat="45.89870674" lon="9.04351428"><ele>595.193359</ele><time>2008-06-01T12:34:59Z</time></trkpt>
<trkpt lat="45.89859953" lon="9.04310558"><ele>591.348145</ele><time>2008-06-01T12:35:02Z</time></trkpt>
<trkpt lat="45.89848059" lon="9.04283543"><ele>587.983398</ele><time>2008-06-01T12:35:04Z</time></trkpt>
<trkpt lat="45.89846844" lon="9.04251114"><ele>584.618896</ele><time>2008-06-01T12:35:07Z</time></trkpt>
<trkpt lat="45.89847674" lon="9.04230544"><ele>582.696289</ele><time>2008-06-01T12:35:09Z</time></trkpt>
<trkpt lat="45.89844656" lon="9.04223856"><ele>579.331543</ele><time>2008-06-01T12:35:10Z</time></trkpt>
<trkpt lat="45.89833089" lon="9.04212783"><ele>575.967041</ele><time>2008-06-01T12:35:12Z</time></trkpt>
<trkpt lat="45.89808773" lon="9.04208642"><ele>572.602539</ele><time>2008-06-01T12:35:14Z</time></trkpt>
<trkpt lat="45.89783745" lon="9.04223965"><ele>571.1604</ele><time>2008-06-01T12:35:16Z</time></trkpt>
<trkpt lat="45.89765606" lon="9.04237526"><ele>570.679688</ele><time>2008-06-01T12:35:18Z</time></trkpt>
<trkpt lat="45.89741190" lon="9.04247493"><ele>571.1604</ele><time>2008-06-01T12:35:21Z</time></trkpt>
<trkpt lat="45.89729849" lon="9.04250066"><ele>572.121826</ele><time>2008-06-01T12:35:23Z</time></trkpt>
<trkpt lat="45.89718978" lon="9.04247015"><ele>573.083252</ele><time>2008-06-01T12:35:25Z</time></trkpt>
<trkpt lat="45.89717595" lon="9.04222732"><ele>574.044434</ele><time>2008-06-01T12:35:30Z</time></trkpt>
<trkpt lat="45.89716354" lon="9.04170362"><ele>574.044434</ele><time>2008-06-01T12:35:39Z</time></trkpt>
<trkpt lat="45.89695592" lon="9.04164847"><ele>575.486328</ele><time>2008-06-01T12:35:47Z</time></trkpt>
<trkpt lat="45.89676817" lon="9.04180253"><ele>578.851074</ele><time>2008-06-01T12:35:57Z</time></trkpt>
<trkpt lat="45.89662895" lon="9.04175743"><ele>581.734863</ele><time>2008-06-01T12:36:08Z</time></trkpt>
<trkpt lat="45.89660799" lon="9.04174956"><ele>582.696289</ele><time>2008-06-01T12:36:10Z</time></trkpt>
<trkpt lat="45.89644790" lon="9.04153724"><ele>584.138184</ele><time>2008-06-01T12:36:26Z</time></trkpt>
<trkpt lat="45.89633625" lon="9.04123507"><ele>587.021973</ele><time>2008-06-01T12:36:42Z</time></trkpt>
<trkpt lat="45.89612444" lon="9.04119333"><ele>590.386963</ele><time>2008-06-01T12:36:59Z</time></trkpt>
<trkpt lat="45.89594892" lon="9.04119476"><ele>593.270752</ele><time>2008-06-01T12:37:14Z</time></trkpt>
<trkpt lat="45.89581288" lon="9.04117942"><ele>596.635498</ele><time>2008-06-01T12:37:26Z</time></trkpt>
<trkpt lat="45.89563108" lon="9.04111806"><ele>598.077393</ele><time>2008-06-01T12:37:41Z</time></trkpt>
<trkpt lat="45.89547006" lon="9.04109543"><ele>601.441895</ele><time>2008-06-01T12:37:54Z</time></trkpt>
<trkpt lat="45.89520872" lon="9.04100482"><ele>603.845215</ele><time>2008-06-01T12:38:14Z</time></trkpt>
<trkpt lat="45.89511593" lon="9.04093198"><ele>605.287354</ele><time>2008-06-01T12:38:22Z</time></trkpt>
<trkpt lat="45.89515298" lon="9.04091388"><ele>605.768066</ele><time>2008-06-01T12:38:26Z</time></trkpt>
<trkpt lat="45.89539790" lon="9.04084708"><ele>606.248535</ele><time>2008-06-01T12:38:43Z</time></trkpt>
<trkpt lat="45.89555179" lon="9.04077876"><ele>608.651855</ele><time>2008-06-01T12:38:55Z</time></trkpt>
<trkpt lat="45.89575497" lon="9.04071867"><ele>612.016602</ele><time>2008-06-01T12:39:10Z</time></trkpt>
<trkpt lat="45.89577927" lon="9.04070643"><ele>612.49707</ele><time>2008-06-01T12:39:12Z</time></trkpt>
<trkpt lat="45.89591682" lon="9.04048095"><ele>614.900391</ele><time>2008-06-01T12:39:29Z</time></trkpt>
<trkpt lat="45.89594289" lon="9.04029714"><ele>615.861816</ele><time>2008-06-01T12:39:42Z</time></trkpt>
<trkpt lat="45.89595253" lon="9.04019656"><ele>616.342285</ele><time>2008-06-01T12:39:50Z</time></trkpt>
<trkpt lat="45.89600718" lon="9.04008868"><ele>617.303711</ele><time>2008-06-01T12:40:04Z</time></trkpt>
<trkpt lat="45.89607054" lon="9.04011358"><ele>618.264893</ele><time>2008-06-01T12:40:10Z</time></trkpt>
<trkpt lat="45.89616677" lon="9.04019924"><ele>620.187744</ele><time>2008-06-01T12:40:20Z</time></trkpt>
<trkpt lat="45.89620868" lon="9.04027945"><ele>620.668457</ele><time>2008-06-01T12:40:25Z</time></trkpt>
<trkpt lat="45.89628026" lon="9.04041239"><ele>621.629639</ele><time>2008-06-01T12:40:31Z</time></trkpt>
<trkpt lat="45.89644547" lon="9.04051783"><ele>624.032959</ele><time>2008-06-01T12:40:44Z</time></trkpt>
<trkpt lat="45.89646776" lon="9.04053879"><ele>624.513672</ele><time>2008-06-01T12:40:47Z</time></trkpt>
<trkpt lat="45.89651772" lon="9.04057039"><ele>624.994385</ele><time>2008-06-01T12:40:51Z</time></trkpt>
<trkpt lat="45.89658905" lon="9.04059646"><ele>625.474854</ele><time>2008-06-01T12:40:56Z</time></trkpt>
<trkpt lat="45.89674495" lon="9.04062152"><ele>628.358887</ele><time>2008-06-01T12:41:06Z</time></trkpt>
<trkpt lat="45.89689968" lon="9.04059964"><ele>629.800781</ele><time>2008-06-01T12:41:17Z</time></trkpt>
<trkpt lat="45.89697353" lon="9.04055983"><ele>630.762207</ele><time>2008-06-01T12:41:22Z</time></trkpt>
<trkpt lat="45.89704645" lon="9.04052270"><ele>632.204102</ele><time>2008-06-01T12:41:28Z</time></trkpt>
<trkpt lat="45.89715047" lon="9.04034726"><ele>632.684814</ele><time>2008-06-01T12:41:40Z</time></trkpt>
<trkpt lat="45.89720537" lon="9.04035606"><ele>634.126709</ele><time>2008-06-01T12:41:45Z</time></trkpt>
<trkpt lat="45.89729388" lon="9.04039546"><ele>634.607422</ele><time>2008-06-01T12:41:50Z</time></trkpt>
<trkpt lat="45.89741576" lon="9.04052270"><ele>635.568604</ele><time>2008-06-01T12:41:59Z</time></trkpt>
<trkpt lat="45.89748792" lon="9.04057064"><ele>636.049561</ele><time>2008-06-01T12:42:05Z</time></trkpt>
<trkpt lat="45.89750217" lon="9.04059562"><ele>637.010742</ele><time>2008-06-01T12:42:07Z</time></trkpt>
<trkpt lat="45.89769512" lon="9.04055773"><ele>638.933594</ele><time>2008-06-01T12:42:21Z</time></trkpt>
<trkpt lat="45.89790232" lon="9.04038456"><ele>641.817383</ele><time>2008-06-01T12:42:35Z</time></trkpt>
<trkpt lat="45.89801146" lon="9.04023235"><ele>643.73999</ele><time>2008-06-01T12:42:47Z</time></trkpt>
<trkpt lat="45.89803359" lon="9.04020033"><ele>644.220703</ele><time>2008-06-01T12:42:50Z</time></trkpt>
<trkpt lat="45.89803266" lon="9.04017292"><ele>644.701172</ele><time>2008-06-01T12:42:53Z</time></trkpt>
<trkpt lat="45.89793577" lon="9.04029597"><ele>645.662598</ele><time>2008-06-01T12:43:03Z</time></trkpt>
<trkpt lat="45.89783644" lon="9.04036730"><ele>647.104492</ele><time>2008-06-01T12:43:11Z</time></trkpt>
<trkpt lat="45.89773645" lon="9.04038758"><ele>649.0271</ele><time>2008-06-01T12:43:17Z</time></trkpt>
<trkpt lat="45.89754718" lon="9.04037442"><ele>650.469238</ele><time>2008-06-01T12:43:31Z</time></trkpt>
<trkpt lat="45.89752195" lon="9.04035648"><ele>650.949707</ele><time>2008-06-01T12:43:33Z</time></trkpt>
<trkpt lat="45.89747116" lon="9.04029664"><ele>651.911133</ele><time>2008-06-01T12:43:37Z</time></trkpt>
<trkpt lat="45.89742816" lon="9.04023629"><ele>652.872559</ele><time>2008-06-01T12:43:42Z</time></trkpt>
<trkpt lat="45.89737368" lon="9.04020846"><ele>653.833984</ele><time>2008-06-01T12:43:46Z</time></trkpt>
<trkpt lat="45.89730486" lon="9.04005096"><ele>655.275879</ele><time>2008-06-01T12:43:59Z</time></trkpt>
<trkpt lat="45.89723948" lon="9.03997645"><ele>657.198486</ele><time>2008-06-01T12:44:10Z</time></trkpt>
<trkpt lat="45.89722557" lon="9.03998257"><ele>657.679199</ele><time>2008-06-01T12:44:13Z</time></trkpt>
<trkpt lat="45.89709540" lon="9.04001593"><ele>659.121094</ele><time>2008-06-01T12:44:25Z</time></trkpt>
<trkpt lat="45.89697202" lon="9.03999992"><ele>661.043701</ele><time>2008-06-01T12:44:34Z</time></trkpt>
<trkpt lat="45.89683129" lon="9.03994476"><ele>663.447021</ele><time>2008-06-01T12:44:45Z</time></trkpt>
<trkpt lat="45.89665367" lon="9.03982876"><ele>666.330811</ele><time>2008-06-01T12:45:00Z</time></trkpt>
<trkpt lat="45.89659156" lon="9.03978785"><ele>666.811523</ele><time>2008-06-01T12:45:05Z</time></trkpt>
<trkpt lat="45.89657052" lon="9.03971627"><ele>667.772705</ele><time>2008-06-01T12:45:09Z</time></trkpt>
<trkpt lat="45.89653549" lon="9.03958174"><ele>668.253662</ele><time>2008-06-01T12:45:15Z</time></trkpt>
<trkpt lat="45.89646416" lon="9.03946750"><ele>669.215088</ele><time>2008-06-01T12:45:22Z</time></trkpt>
<trkpt lat="45.89641906" lon="9.03941117"><ele>669.215088</ele><time>2008-06-01T12:45:27Z</time></trkpt>
<trkpt lat="45.89636165" lon="9.03926206"><ele>671.137695</ele><time>2008-06-01T12:45:37Z</time></trkpt>
<trkpt lat="45.89629954" lon="9.03899342"><ele>674.021484</ele><time>2008-06-01T12:45:53Z</time></trkpt>
<trkpt lat="45.89628546" lon="9.03892435"><ele>674.502197</ele><time>2008-06-01T12:45:56Z</time></trkpt>
<trkpt lat="45.89625067" lon="9.03892687"><ele>674.98291</ele><time>2008-06-01T12:45:59Z</time></trkpt>
<trkpt lat="45.89605194" lon="9.03889468"><ele>676.905518</ele><time>2008-06-01T12:46:15Z</time></trkpt>
<trkpt lat="45.89604674" lon="9.03887398"><ele>676.905518</ele><time>2008-06-01T12:46:16Z</time></trkpt>
<trkpt lat="45.89592436" lon="9.03878747"><ele>678.828125</ele><time>2008-06-01T12:46:29Z</time></trkpt>
<trkpt lat="45.89587659" lon="9.03870986"><ele>679.789307</ele><time>2008-06-01T12:46:37Z</time></trkpt>
<trkpt lat="45.89581188" lon="9.03865412"><ele>682.67334</ele><time>2008-06-01T12:46:50Z</time></trkpt>
<trkpt lat="45.89581355" lon="9.03865772"><ele>682.192627</ele><time>2008-06-01T12:46:51Z</time></trkpt>
<trkpt lat="45.89585203" lon="9.03873945"><ele>683.634521</ele><time>2008-06-01T12:47:01Z</time></trkpt>
<trkpt lat="45.89585186" lon="9.03887775"><ele>684.596191</ele><time>2008-06-01T12:47:13Z</time></trkpt>
<trkpt lat="45.89578078" lon="9.03899895"><ele>685.557373</ele><time>2008-06-01T12:47:21Z</time></trkpt>
<trkpt lat="45.89566218" lon="9.03911663"><ele>687.960693</ele><time>2008-06-01T12:47:32Z</time></trkpt>
<trkpt lat="45.89557526" lon="9.03920825"><ele>688.922119</ele><time>2008-06-01T12:47:42Z</time></trkpt>
<trkpt lat="45.89550787" lon="9.03920422"><ele>689.883301</ele><time>2008-06-01T12:47:47Z</time></trkpt>
<trkpt lat="45.89540192" lon="9.03917246"><ele>690.364014</ele><time>2008-06-01T12:47:55Z</time></trkpt>
<trkpt lat="45.89536068" lon="9.03914773"><ele>690.844482</ele><time>2008-06-01T12:47:59Z</time></trkpt>
<trkpt lat="45.89512196" lon="9.03902208"><ele>693.728516</ele><time>2008-06-01T12:48:12Z</time></trkpt>
<trkpt lat="45.89494980" lon="9.03887607"><ele>696.131836</ele><time>2008-06-01T12:48:26Z</time></trkpt>
<trkpt lat="45.89485802" lon="9.03881648"><ele>697.57373</ele><time>2008-06-01T12:48:33Z</time></trkpt>
<trkpt lat="45.89481418" lon="9.03877717"><ele>699.015625</ele><time>2008-06-01T12:48:37Z</time></trkpt>
<trkpt lat="45.89461528" lon="9.03862587"><ele>700.938477</ele><time>2008-06-01T12:48:54Z</time></trkpt>
<trkpt lat="45.89445745" lon="9.03840953"><ele>702.380371</ele><time>2008-06-01T12:49:10Z</time></trkpt>
<trkpt lat="45.89439408" lon="9.03835153"><ele>703.82251</ele><time>2008-06-01T12:49:16Z</time></trkpt>
<trkpt lat="45.89434815" lon="9.03828045"><ele>704.783691</ele><time>2008-06-01T12:49:21Z</time></trkpt>
<trkpt lat="45.89429618" lon="9.03825405"><ele>705.264404</ele><time>2008-06-01T12:49:25Z</time></trkpt>
<trkpt lat="45.89425310" lon="9.03800284"><ele>706.706299</ele><time>2008-06-01T12:49:40Z</time></trkpt>
<trkpt lat="45.89419702" lon="9.03791433"><ele>707.667725</ele><time>2008-06-01T12:49:55Z</time></trkpt>
<trkpt lat="45.89417347" lon="9.03781408"><ele>708.628906</ele><time>2008-06-01T12:50:02Z</time></trkpt>
<trkpt lat="45.89414430" lon="9.03761107"><ele>710.070801</ele><time>2008-06-01T12:50:16Z</time></trkpt>
<trkpt lat="45.89413072" lon="9.03754192"><ele>711.032227</ele><time>2008-06-01T12:50:20Z</time></trkpt>
<trkpt lat="45.89400927" lon="9.03749985"><ele>712.954834</ele><time>2008-06-01T12:50:34Z</time></trkpt>
<trkpt lat="45.89384180" lon="9.03751552"><ele>714.396729</ele><time>2008-06-01T12:50:49Z</time></trkpt>
<trkpt lat="45.89381355" lon="9.03749440"><ele>715.838867</ele><time>2008-06-01T12:50:52Z</time></trkpt>
<trkpt lat="45.89365136" lon="9.03732349"><ele>716.800293</ele><time>2008-06-01T12:51:07Z</time></trkpt>
<trkpt lat="45.89360484" lon="9.03706633"><ele>719.203613</ele><time>2008-06-01T12:51:21Z</time></trkpt>
<trkpt lat="45.89356427" lon="9.03683223"><ele>720.645508</ele><time>2008-06-01T12:51:35Z</time></trkpt>
<trkpt lat="45.89355547" lon="9.03672393"><ele>721.126221</ele><time>2008-06-01T12:51:39Z</time></trkpt>
<trkpt lat="45.89338817" lon="9.03660583"><ele>722.568115</ele><time>2008-06-01T12:51:51Z</time></trkpt>
<trkpt lat="45.89334450" lon="9.03656929"><ele>723.529541</ele><time>2008-06-01T12:51:54Z</time></trkpt>
<trkpt lat="45.89325707" lon="9.03638396"><ele>724.490723</ele><time>2008-06-01T12:52:04Z</time></trkpt>
<trkpt lat="45.89320762" lon="9.03622932"><ele>726.894043</ele><time>2008-06-01T12:52:13Z</time></trkpt>
<trkpt lat="45.89308038" lon="9.03596738"><ele>729.297119</ele><time>2008-06-01T12:52:29Z</time></trkpt>
<trkpt lat="45.89287863" lon="9.03593796"><ele>730.739258</ele><time>2008-06-01T12:52:42Z</time></trkpt>
<trkpt lat="45.89273790" lon="9.03567930"><ele>733.142578</ele><time>2008-06-01T12:52:58Z</time></trkpt>
<trkpt lat="45.89273220" lon="9.03541703"><ele>734.104004</ele><time>2008-06-01T12:53:12Z</time></trkpt>
<trkpt lat="45.89280277" lon="9.03515308"><ele>736.987793</ele><time>2008-06-01T12:53:30Z</time></trkpt>
<trkpt lat="45.89286363" lon="9.03493792"><ele>739.391113</ele><time>2008-06-01T12:53:45Z</time></trkpt>
<trkpt lat="45.89293278" lon="9.03479995"><ele>739.871826</ele><time>2008-06-01T12:53:57Z</time></trkpt>
<trkpt lat="45.89292624" lon="9.03476584"><ele>741.794434</ele><time>2008-06-01T12:54:03Z</time></trkpt>
<trkpt lat="45.89291367" lon="9.03476190"><ele>743.717041</ele><time>2008-06-01T12:54:14Z</time></trkpt>
<trkpt lat="45.89283379" lon="9.03472938"><ele>744.678223</ele><time>2008-06-01T12:54:25Z</time></trkpt>
<trkpt lat="45.89264059" lon="9.03452955"><ele>747.562256</ele><time>2008-06-01T12:54:39Z</time></trkpt>
<trkpt lat="45.89260840" lon="9.03442495"><ele>748.523682</ele><time>2008-06-01T12:54:46Z</time></trkpt>
<trkpt lat="45.89252818" lon="9.03430559"><ele>749.96582</ele><time>2008-06-01T12:54:59Z</time></trkpt>
<trkpt lat="45.89248636" lon="9.03433769"><ele>749.96582</ele><time>2008-06-01T12:55:05Z</time></trkpt>
<trkpt lat="45.89239248" lon="9.03438563"><ele>750.927002</ele><time>2008-06-01T12:55:15Z</time></trkpt>
<trkpt lat="45.89224597" lon="9.03446459"><ele>753.330322</ele><time>2008-06-01T12:55:28Z</time></trkpt>
<trkpt lat="45.89205846" lon="9.03447457"><ele>755.25293</ele><time>2008-06-01T12:55:40Z</time></trkpt>
<trkpt lat="45.89190918" lon="9.03445755"><ele>756.694824</ele><time>2008-06-01T12:55:49Z</time></trkpt>
<trkpt lat="45.89181757" lon="9.03441036"><ele>757.175537</ele><time>2008-06-01T12:55:56Z</time></trkpt>
<trkpt lat="45.89173257" lon="9.03435705"><ele>758.617432</ele><time>2008-06-01T12:56:01Z</time></trkpt>
<trkpt lat="45.89167960" lon="9.03422445"><ele>759.578857</ele><time>2008-06-01T12:56:08Z</time></trkpt>
<trkpt lat="45.89168362" lon="9.03410233"><ele>760.059326</ele><time>2008-06-01T12:56:24Z</time></trkpt>
<trkpt lat="45.89169268" lon="9.03388163"><ele>761.020752</ele><time>2008-06-01T12:56:39Z</time></trkpt>
<trkpt lat="45.89170952" lon="9.03367099"><ele>763.904541</ele><time>2008-06-01T12:56:55Z</time></trkpt>
<trkpt lat="45.89173199" lon="9.03343957"><ele>765.346924</ele><time>2008-06-01T12:57:10Z</time></trkpt>
<trkpt lat="45.89172830" lon="9.03341082"><ele>765.346924</ele><time>2008-06-01T12:57:12Z</time></trkpt>
<trkpt lat="45.89171514" lon="9.03322055"><ele>767.269531</ele><time>2008-06-01T12:57:27Z</time></trkpt>
<trkpt lat="45.89170625" lon="9.03301503"><ele>768.711426</ele><time>2008-06-01T12:57:40Z</time></trkpt>
<trkpt lat="45.89170558" lon="9.03274513"><ele>770.634033</ele><time>2008-06-01T12:57:56Z</time></trkpt>
<trkpt lat="45.89169645" lon="9.03276357"><ele>771.595215</ele><time>2008-06-01T12:58:03Z</time></trkpt>
<trkpt lat="45.89168002" lon="9.03282819"><ele>773.037354</ele><time>2008-06-01T12:58:11Z</time></trkpt>
<trkpt lat="45.89166200" lon="9.03295208"><ele>774.479248</ele><time>2008-06-01T12:58:25Z</time></trkpt>
<trkpt lat="45.89166485" lon="9.03301880"><ele>774.959961</ele><time>2008-06-01T12:58:30Z</time></trkpt>
<trkpt lat="45.89177314" lon="9.03333656"><ele>778.324463</ele><time>2008-06-01T12:58:45Z</time></trkpt>
<trkpt lat="45.89191974" lon="9.03368742"><ele>780.247314</ele><time>2008-06-01T12:58:59Z</time></trkpt>
<trkpt lat="45.89210666" lon="9.03375624"><ele>782.169922</ele><time>2008-06-01T12:59:12Z</time></trkpt>
<trkpt lat="45.89218209" lon="9.03374383"><ele>782.169922</ele><time>2008-06-01T12:59:26Z</time></trkpt>
<trkpt lat="45.89220104" lon="9.03373914"><ele>783.611816</ele><time>2008-06-01T12:59:30Z</time></trkpt>
<trkpt lat="45.89231654" lon="9.03367426"><ele>786.015137</ele><time>2008-06-01T12:59:42Z</time></trkpt>
<trkpt lat="45.89246104" lon="9.03362297"><ele>786.976318</ele><time>2008-06-01T12:59:56Z</time></trkpt>
<trkpt lat="45.89264017" lon="9.03355557"><ele>788.418457</ele><time>2008-06-01T13:00:17Z</time></trkpt>
<trkpt lat="45.89273077" lon="9.03353445"><ele>790.341064</ele><time>2008-06-01T13:00:25Z</time></trkpt>
<trkpt lat="45.89287033" lon="9.03370226"><ele>792.263672</ele><time>2008-06-01T13:00:42Z</time></trkpt>
<trkpt lat="45.89299019" lon="9.03382606"><ele>793.705566</ele><time>2008-06-01T13:00:54Z</time></trkpt>
<trkpt lat="45.89313914" lon="9.03379513"><ele>795.147461</ele><time>2008-06-01T13:01:08Z</time></trkpt>
<trkpt lat="45.89324945" lon="9.03382329"><ele>796.109131</ele><time>2008-06-01T13:01:19Z</time></trkpt>
<trkpt lat="45.89333913" lon="9.03389219"><ele>797.551025</ele><time>2008-06-01T13:01:30Z</time></trkpt>
<trkpt lat="45.89346327" lon="9.03397383"><ele>799.473633</ele><time>2008-06-01T13:01:40Z</time></trkpt>
<trkpt lat="45.89361037" lon="9.03395162"><ele>800.915527</ele><time>2008-06-01T13:01:52Z</time></trkpt>
<trkpt lat="45.89371238" lon="9.03402354"><ele>803.799561</ele><time>2008-06-01T13:02:04Z</time></trkpt>
<trkpt lat="45.89375395" lon="9.03412647"><ele>806.202637</ele><time>2008-06-01T13:02:24Z</time></trkpt>
<trkpt lat="45.89374440" lon="9.03414340"><ele>806.202637</ele><time>2008-06-01T13:02:26Z</time></trkpt>
<trkpt lat="45.89378002" lon="9.03427474"><ele>806.68335</ele><time>2008-06-01T13:02:38Z</time></trkpt>
<trkpt lat="45.89383584" lon="9.03445194"><ele>809.567383</ele><time>2008-06-01T13:02:50Z</time></trkpt>
<trkpt lat="45.89385336" lon="9.03463625"><ele>811.48999</ele><time>2008-06-01T13:03:01Z</time></trkpt>
<trkpt lat="45.89389443" lon="9.03481915"><ele>812.451416</ele><time>2008-06-01T13:03:12Z</time></trkpt>
<trkpt lat="45.89405252" lon="9.03503942"><ele>813.893311</ele><time>2008-06-01T13:03:29Z</time></trkpt>
<trkpt lat="45.89420079" lon="9.03523137"><ele>815.816162</ele><time>2008-06-01T13:03:47Z</time></trkpt>
<trkpt lat="45.89423667" lon="9.03531443"><ele>817.738525</ele><time>2008-06-01T13:03:55Z</time></trkpt>
<trkpt lat="45.89436558" lon="9.03547193"><ele>819.661377</ele><time>2008-06-01T13:04:09Z</time></trkpt>
<trkpt lat="45.89446122" lon="9.03555147"><ele>820.141846</ele><time>2008-06-01T13:04:19Z</time></trkpt>
<trkpt lat="45.89463028" lon="9.03568659"><ele>822.064453</ele><time>2008-06-01T13:04:36Z</time></trkpt>
<trkpt lat="45.89475727" lon="9.03576362"><ele>824.467773</ele><time>2008-06-01T13:04:51Z</time></trkpt>
<trkpt lat="45.89485634" lon="9.03586588"><ele>825.428955</ele><time>2008-06-01T13:05:01Z</time></trkpt>
<trkpt lat="45.89499196" lon="9.03595246"><ele>827.351807</ele><time>2008-06-01T13:05:12Z</time></trkpt>
<trkpt lat="45.89513680" lon="9.03603176"><ele>829.274414</ele><time>2008-06-01T13:05:24Z</time></trkpt>
<trkpt lat="45.89525892" lon="9.03604877"><ele>830.716553</ele><time>2008-06-01T13:05:37Z</time></trkpt>
<trkpt lat="45.89533788" lon="9.03604047"><ele>832.63916</ele><time>2008-06-01T13:05:48Z</time></trkpt>
<trkpt lat="45.89545548" lon="9.03590142"><ele>833.600342</ele><time>2008-06-01T13:06:00Z</time></trkpt>
<trkpt lat="45.89555640" lon="9.03582808"><ele>835.522949</ele><time>2008-06-01T13:06:10Z</time></trkpt>
<trkpt lat="45.89571884" lon="9.03565952"><ele>837.445557</ele><time>2008-06-01T13:06:28Z</time></trkpt>
<trkpt lat="45.89582462" lon="9.03555399"><ele>838.406982</ele><time>2008-06-01T13:06:37Z</time></trkpt>
<trkpt lat="45.89597105" lon="9.03544284"><ele>839.848877</ele><time>2008-06-01T13:06:50Z</time></trkpt>
<trkpt lat="45.89605747" lon="9.03544670"><ele>840.810059</ele><time>2008-06-01T13:07:00Z</time></trkpt>
<trkpt lat="45.89613626" lon="9.03552976"><ele>841.290771</ele><time>2008-06-01T13:07:10Z</time></trkpt>
<trkpt lat="45.89615059" lon="9.03555952"><ele>841.771484</ele><time>2008-06-01T13:07:12Z</time></trkpt>
<trkpt lat="45.89618898" lon="9.03559816"><ele>843.213379</ele><time>2008-06-01T13:07:16Z</time></trkpt>
<trkpt lat="45.89620256" lon="9.03560386"><ele>842.73291</ele><time>2008-06-01T13:07:17Z</time></trkpt>
<trkpt lat="45.89629845" lon="9.03570117"><ele>844.655518</ele><time>2008-06-01T13:07:28Z</time></trkpt>
<trkpt lat="45.89638084" lon="9.03585440"><ele>846.097656</ele><time>2008-06-01T13:07:42Z</time></trkpt>
<trkpt lat="45.89646944" lon="9.03601726"><ele>848.020264</ele><time>2008-06-01T13:07:56Z</time></trkpt>
<trkpt lat="45.89656089" lon="9.03602019"><ele>848.500732</ele><time>2008-06-01T13:08:04Z</time></trkpt>
<trkpt lat="45.89673892" lon="9.03600284"><ele>850.904053</ele><time>2008-06-01T13:08:19Z</time></trkpt>
<trkpt lat="45.89684428" lon="9.03600259"><ele>852.82666</ele><time>2008-06-01T13:08:34Z</time></trkpt>
<trkpt lat="45.89682232" lon="9.03599152"><ele>854.268799</ele><time>2008-06-01T13:08:45Z</time></trkpt>
<trkpt lat="45.89679407" lon="9.03592380"><ele>856.191162</ele><time>2008-06-01T13:08:59Z</time></trkpt>
<trkpt lat="45.89676985" lon="9.03589907"><ele>855.22998</ele><time>2008-06-01T13:09:02Z</time></trkpt>
<trkpt lat="45.89670254" lon="9.03585255"><ele>857.152588</ele><time>2008-06-01T13:09:09Z</time></trkpt>
<trkpt lat="45.89664118" lon="9.03576379"><ele>857.152588</ele><time>2008-06-01T13:09:17Z</time></trkpt>
<trkpt lat="45.89659357" lon="9.03560889"><ele>859.075195</ele><time>2008-06-01T13:09:29Z</time></trkpt>
<trkpt lat="45.89655627" lon="9.03547646"><ele>860.036621</ele><time>2008-06-01T13:09:38Z</time></trkpt>
<trkpt lat="45.89652945" lon="9.03536959"><ele>861.959473</ele><time>2008-06-01T13:09:46Z</time></trkpt>
<trkpt lat="45.89646927" lon="9.03522508"><ele>861.959473</ele><time>2008-06-01T13:09:58Z</time></trkpt>
<trkpt lat="45.89639409" lon="9.03510732"><ele>863.401367</ele><time>2008-06-01T13:10:09Z</time></trkpt>
<trkpt lat="45.89634849" lon="9.03493624"><ele>864.843262</ele><time>2008-06-01T13:10:19Z</time></trkpt>
<trkpt lat="45.89628462" lon="9.03487195"><ele>865.804688</ele><time>2008-06-01T13:10:30Z</time></trkpt>
<trkpt lat="45.89627557" lon="9.03489324"><ele>865.323975</ele><time>2008-06-01T13:10:31Z</time></trkpt>
<trkpt lat="45.89614129" lon="9.03490389"><ele>866.765869</ele><time>2008-06-01T13:10:45Z</time></trkpt>
<trkpt lat="45.89596393" lon="9.03490406"><ele>868.207764</ele><time>2008-06-01T13:11:04Z</time></trkpt>
<trkpt lat="45.89582529" lon="9.03495569"><ele>870.130371</ele><time>2008-06-01T13:11:16Z</time></trkpt>
<trkpt lat="45.89554148" lon="9.03505996"><ele>872.052979</ele><time>2008-06-01T13:11:31Z</time></trkpt>
<trkpt lat="45.89536588" lon="9.03511285"><ele>873.975586</ele><time>2008-06-01T13:11:43Z</time></trkpt>
<trkpt lat="45.89525037" lon="9.03510162"><ele>875.41748</ele><time>2008-06-01T13:11:53Z</time></trkpt>
<trkpt lat="45.89510947" lon="9.03502165"><ele>876.859863</ele><time>2008-06-01T13:12:07Z</time></trkpt>
<trkpt lat="45.89507226" lon="9.03496223"><ele>877.340576</ele><time>2008-06-01T13:12:12Z</time></trkpt>
<trkpt lat="45.89496355" lon="9.03483256"><ele>877.821045</ele><time>2008-06-01T13:12:26Z</time></trkpt>
<trkpt lat="45.89495332" lon="9.03479232"><ele>877.821045</ele><time>2008-06-01T13:12:28Z</time></trkpt>
<trkpt lat="45.89490068" lon="9.03460868"><ele>879.743652</ele><time>2008-06-01T13:12:40Z</time></trkpt>
<trkpt lat="45.89487218" lon="9.03442805"><ele>880.705078</ele><time>2008-06-01T13:12:51Z</time></trkpt>
<trkpt lat="45.89485869" lon="9.03413585"><ele>882.146973</ele><time>2008-06-01T13:13:09Z</time></trkpt>
<trkpt lat="45.89485165" lon="9.03401784"><ele>884.06958</ele><time>2008-06-01T13:13:18Z</time></trkpt>
<trkpt lat="45.89489180" lon="9.03378205"><ele>885.031006</ele><time>2008-06-01T13:13:34Z</time></trkpt>
<trkpt lat="45.89489808" lon="9.03375297"><ele>885.511475</ele><time>2008-06-01T13:13:36Z</time></trkpt>
<trkpt lat="45.89490320" lon="9.03357988"><ele>886.953369</ele><time>2008-06-01T13:13:47Z</time></trkpt>
<trkpt lat="45.89488409" lon="9.03342809"><ele>888.395508</ele><time>2008-06-01T13:14:06Z</time></trkpt>
<trkpt lat="45.89483488" lon="9.03325475"><ele>890.318115</ele><time>2008-06-01T13:14:21Z</time></trkpt>
<trkpt lat="45.89482189" lon="9.03319205"><ele>890.318115</ele><time>2008-06-01T13:14:25Z</time></trkpt>
<trkpt lat="45.89475224" lon="9.03292140"><ele>893.202148</ele><time>2008-06-01T13:14:37Z</time></trkpt>
<trkpt lat="45.89466347" lon="9.03264547"><ele>895.124756</ele><time>2008-06-01T13:14:50Z</time></trkpt>
<trkpt lat="45.89446776" lon="9.03245386"><ele>897.528076</ele><time>2008-06-01T13:15:06Z</time></trkpt>
<trkpt lat="45.89439282" lon="9.03238127"><ele>898.969971</ele><time>2008-06-01T13:15:17Z</time></trkpt>
<trkpt lat="45.89430875" lon="9.03225713"><ele>900.892578</ele><time>2008-06-01T13:15:35Z</time></trkpt>
<trkpt lat="45.89420423" lon="9.03216166"><ele>901.854004</ele><time>2008-06-01T13:15:48Z</time></trkpt>
<trkpt lat="45.89409753" lon="9.03204197"><ele>901.854004</ele><time>2008-06-01T13:16:01Z</time></trkpt>
<trkpt lat="45.89400290" lon="9.03189235"><ele>903.295898</ele><time>2008-06-01T13:16:12Z</time></trkpt>
<trkpt lat="45.89399745" lon="9.03187475"><ele>903.295898</ele><time>2008-06-01T13:16:13Z</time></trkpt>
<trkpt lat="45.89390290" lon="9.03177920"><ele>904.737793</ele><time>2008-06-01T13:16:23Z</time></trkpt>
<trkpt lat="45.89381414" lon="9.03166730"><ele>906.6604</ele><time>2008-06-01T13:16:36Z</time></trkpt>
<trkpt lat="45.89367508" lon="9.03153487"><ele>908.583252</ele><time>2008-06-01T13:16:50Z</time></trkpt>
<trkpt lat="45.89360274" lon="9.03146756"><ele>909.063965</ele><time>2008-06-01T13:16:58Z</time></trkpt>
<trkpt lat="45.89351825" lon="9.03138592"><ele>910.986572</ele><time>2008-06-01T13:17:07Z</time></trkpt>
<trkpt lat="45.89341725" lon="9.03123362"><ele>911.947998</ele><time>2008-06-01T13:17:20Z</time></trkpt>
<trkpt lat="45.89328784" lon="9.03113295"><ele>914.351074</ele><time>2008-06-01T13:17:34Z</time></trkpt>
<trkpt lat="45.89321273" lon="9.03092894"><ele>915.793213</ele><time>2008-06-01T13:17:47Z</time></trkpt>
<trkpt lat="45.89314467" lon="9.03075744"><ele>916.754395</ele><time>2008-06-01T13:17:59Z</time></trkpt>
<trkpt lat="45.89312749" lon="9.03066893"><ele>917.235107</ele><time>2008-06-01T13:18:04Z</time></trkpt>
<trkpt lat="45.89313084" lon="9.03053784"><ele>918.677002</ele><time>2008-06-01T13:18:13Z</time></trkpt>
<trkpt lat="45.89313646" lon="9.03044648"><ele>919.157715</ele><time>2008-06-01T13:18:18Z</time></trkpt>
<trkpt lat="45.89315012" lon="9.03027473"><ele>921.080322</ele><time>2008-06-01T13:18:31Z</time></trkpt>
<trkpt lat="45.89313922" lon="9.03005135"><ele>922.522217</ele><time>2008-06-01T13:18:46Z</time></trkpt>
<trkpt lat="45.89315113" lon="9.02996259"><ele>923.483643</ele><time>2008-06-01T13:18:51Z</time></trkpt>
<trkpt lat="45.89316412" lon="9.02976176"><ele>924.445068</ele><time>2008-06-01T13:19:04Z</time></trkpt>
<trkpt lat="45.89312078" lon="9.02963469"><ele>925.886963</ele><time>2008-06-01T13:19:13Z</time></trkpt>
<trkpt lat="45.89306463" lon="9.02937996"><ele>927.329102</ele><time>2008-06-01T13:19:30Z</time></trkpt>
<trkpt lat="45.89300553" lon="9.02918424"><ele>929.732178</ele><time>2008-06-01T13:19:45Z</time></trkpt>
<trkpt lat="45.89297310" lon="9.02907025"><ele>931.174316</ele><time>2008-06-01T13:19:54Z</time></trkpt>
<trkpt lat="45.89296237" lon="9.02904326"><ele>931.174316</ele><time>2008-06-01T13:19:56Z</time></trkpt>
<trkpt lat="45.89295055" lon="9.02900353"><ele>932.135498</ele><time>2008-06-01T13:19:58Z</time></trkpt>
<trkpt lat="45.89288584" lon="9.02883765"><ele>933.09668</ele><time>2008-06-01T13:20:08Z</time></trkpt>
<trkpt lat="45.89279205" lon="9.02860162"><ele>934.058105</ele><time>2008-06-01T13:20:24Z</time></trkpt>
<trkpt lat="45.89274829" lon="9.02849215"><ele>935.019531</ele><time>2008-06-01T13:20:34Z</time></trkpt>
<trkpt lat="45.89268903" lon="9.02843012"><ele>936.461426</ele><time>2008-06-01T13:20:45Z</time></trkpt>
<trkpt lat="45.89254905" lon="9.02845326"><ele>937.422607</ele><time>2008-06-01T13:20:57Z</time></trkpt>
<trkpt lat="45.89241612" lon="9.02844387"><ele>939.825928</ele><time>2008-06-01T13:21:09Z</time></trkpt>
<trkpt lat="45.89233750" lon="9.02825913"><ele>941.268066</ele><time>2008-06-01T13:21:20Z</time></trkpt>
<trkpt lat="45.89228528" lon="9.02815998"><ele>941.748779</ele><time>2008-06-01T13:21:27Z</time></trkpt>
<trkpt lat="45.89219567" lon="9.02799276"><ele>943.190674</ele><time>2008-06-01T13:21:38Z</time></trkpt>
<trkpt lat="45.89212652" lon="9.02788790"><ele>944.632568</ele><time>2008-06-01T13:21:48Z</time></trkpt>
<trkpt lat="45.89199518" lon="9.02784389"><ele>945.593994</ele><time>2008-06-01T13:22:01Z</time></trkpt>
<trkpt lat="45.89202879" lon="9.02779067"><ele>947.035889</ele><time>2008-06-01T13:22:11Z</time></trkpt>
<trkpt lat="45.89210037" lon="9.02781397"><ele>947.516602</ele><time>2008-06-01T13:22:23Z</time></trkpt>
<trkpt lat="45.89216089" lon="9.02793576"><ele>948.958496</ele><time>2008-06-01T13:22:34Z</time></trkpt>
<trkpt lat="45.89223566" lon="9.02802863"><ele>948.958496</ele><time>2008-06-01T13:22:42Z</time></trkpt>
<trkpt lat="45.89230699" lon="9.02811572"><ele>950.881104</ele><time>2008-06-01T13:22:51Z</time></trkpt>
<trkpt lat="45.89241578" lon="9.02815780"><ele>952.322998</ele><time>2008-06-01T13:23:03Z</time></trkpt>
<trkpt lat="45.89265542" lon="9.02815419"><ele>955.207031</ele><time>2008-06-01T13:23:27Z</time></trkpt>
<trkpt lat="45.89274704" lon="9.02813592"><ele>956.168457</ele><time>2008-06-01T13:23:37Z</time></trkpt>
<trkpt lat="45.89290587" lon="9.02831202"><ele>958.571777</ele><time>2008-06-01T13:24:01Z</time></trkpt>
<trkpt lat="45.89295248" lon="9.02835578"><ele>959.533203</ele><time>2008-06-01T13:24:05Z</time></trkpt>
<trkpt lat="45.89306136" lon="9.02840934"><ele>960.494385</ele><time>2008-06-01T13:24:15Z</time></trkpt>
<trkpt lat="45.89317518" lon="9.02855736"><ele>962.416992</ele><time>2008-06-01T13:24:25Z</time></trkpt>
<trkpt lat="45.89325263" lon="9.02869055"><ele>963.378418</ele><time>2008-06-01T13:24:35Z</time></trkpt>
<trkpt lat="45.89332388" lon="9.02881477"><ele>965.301025</ele><time>2008-06-01T13:24:46Z</time></trkpt>
<trkpt lat="45.89333704" lon="9.02884059"><ele>965.781738</ele><time>2008-06-01T13:24:48Z</time></trkpt>
<trkpt lat="45.89340476" lon="9.02901233"><ele>967.704102</ele><time>2008-06-01T13:24:59Z</time></trkpt>
<trkpt lat="45.89344684" lon="9.02907017"><ele>968.665527</ele><time>2008-06-01T13:25:05Z</time></trkpt>
<trkpt lat="45.89352454" lon="9.02920838"><ele>971.068848</ele><time>2008-06-01T13:25:16Z</time></trkpt>
<trkpt lat="45.89362269" lon="9.02929354"><ele>971.549316</ele><time>2008-06-01T13:25:26Z</time></trkpt>
<trkpt lat="45.89365438" lon="9.02943227"><ele>973.472412</ele><time>2008-06-01T13:25:41Z</time></trkpt>
<trkpt lat="45.89372177" lon="9.02960510"><ele>974.914307</ele><time>2008-06-01T13:25:54Z</time></trkpt>
<trkpt lat="45.89372864" lon="9.02964927"><ele>975.394775</ele><time>2008-06-01T13:25:59Z</time></trkpt>
<trkpt lat="45.89378388" lon="9.02968397"><ele>975.394775</ele><time>2008-06-01T13:26:03Z</time></trkpt>
<trkpt lat="45.89387775" lon="9.02986167"><ele>977.798096</ele><time>2008-06-01T13:26:18Z</time></trkpt>
<trkpt lat="45.89394523" lon="9.02997742"><ele>978.759521</ele><time>2008-06-01T13:26:29Z</time></trkpt>
<trkpt lat="45.89407515" lon="9.03009879"><ele>980.201416</ele><time>2008-06-01T13:26:41Z</time></trkpt>
<trkpt lat="45.89413583" lon="9.03020969"><ele>981.162842</ele><time>2008-06-01T13:26:53Z</time></trkpt>
<trkpt lat="45.89422854" lon="9.03028957"><ele>981.643311</ele><time>2008-06-01T13:27:06Z</time></trkpt>
<trkpt lat="45.89431554" lon="9.03034715"><ele>984.046631</ele><time>2008-06-01T13:27:14Z</time></trkpt>
<trkpt lat="45.89444689" lon="9.03042125"><ele>986.449951</ele><time>2008-06-01T13:27:25Z</time></trkpt>
<trkpt lat="45.89459156" lon="9.03053189"><ele>987.891846</ele><time>2008-06-01T13:27:39Z</time></trkpt>
<trkpt lat="45.89468678" lon="9.03058654"><ele>988.853516</ele><time>2008-06-01T13:27:51Z</time></trkpt>
<trkpt lat="45.89469658" lon="9.03059039"><ele>988.853516</ele><time>2008-06-01T13:27:52Z</time></trkpt>
<trkpt lat="45.89484578" lon="9.03066709"><ele>991.256592</ele><time>2008-06-01T13:28:06Z</time></trkpt>
<trkpt lat="45.89496103" lon="9.03070556"><ele>992.69873</ele><time>2008-06-01T13:28:17Z</time></trkpt>
<trkpt lat="45.89493379" lon="9.03068067"><ele>993.659912</ele><time>2008-06-01T13:28:26Z</time></trkpt>
<trkpt lat="45.89483136" lon="9.03056106"><ele>996.063232</ele><time>2008-06-01T13:28:40Z</time></trkpt>
<trkpt lat="45.89474805" lon="9.03043910"><ele>997.024414</ele><time>2008-06-01T13:28:55Z</time></trkpt>
<trkpt lat="45.89462894" lon="9.03032804"><ele>998.947021</ele><time>2008-06-01T13:29:10Z</time></trkpt>
<trkpt lat="45.89454537" lon="9.03023902"><ele>999.908447</ele><time>2008-06-01T13:29:23Z</time></trkpt>
<trkpt lat="45.89445644" lon="9.03008094"><ele>1001.350342</ele><time>2008-06-01T13:29:36Z</time></trkpt>
<trkpt lat="45.89440280" lon="9.02999285"><ele>1002.311523</ele><time>2008-06-01T13:29:45Z</time></trkpt>
<trkpt lat="45.89430012" lon="9.02985999"><ele>1004.715088</ele><time>2008-06-01T13:29:58Z</time></trkpt>
<trkpt lat="45.89420138" lon="9.02968557"><ele>1005.676514</ele><time>2008-06-01T13:30:12Z</time></trkpt>
<trkpt lat="45.89416215" lon="9.02957853"><ele>1006.637695</ele><time>2008-06-01T13:30:22Z</time></trkpt>
<trkpt lat="45.89414774" lon="9.02947878"><ele>1007.599121</ele><time>2008-06-01T13:30:30Z</time></trkpt>
<trkpt lat="45.89411245" lon="9.02933847"><ele>1009.041016</ele><time>2008-06-01T13:30:43Z</time></trkpt>
<trkpt lat="45.89408655" lon="9.02917393"><ele>1011.444336</ele><time>2008-06-01T13:30:56Z</time></trkpt>
<trkpt lat="45.89404564" lon="9.02902876"><ele>1012.88623</ele><time>2008-06-01T13:31:07Z</time></trkpt>
<trkpt lat="45.89401019" lon="9.02881687"><ele>1013.847412</ele><time>2008-06-01T13:31:17Z</time></trkpt>
<trkpt lat="45.89393375" lon="9.02847304"><ele>1015.289551</ele><time>2008-06-01T13:31:32Z</time></trkpt>
<trkpt lat="45.89390055" lon="9.02833004"><ele>1015.289551</ele><time>2008-06-01T13:31:44Z</time></trkpt>
<trkpt lat="45.89381137" lon="9.02832124"><ele>1017.692627</ele><time>2008-06-01T13:32:33Z</time></trkpt>
<trkpt lat="45.89380835" lon="9.02829803"><ele>1017.692627</ele><time>2008-06-01T13:32:34Z</time></trkpt>
<trkpt lat="45.89376393" lon="9.02799753"><ele>1019.615479</ele><time>2008-06-01T13:32:51Z</time></trkpt>
<trkpt lat="45.89372202" lon="9.02787365"><ele>1021.057617</ele><time>2008-06-01T13:33:00Z</time></trkpt>
<trkpt lat="45.89366896" lon="9.02767642"><ele>1022.018799</ele><time>2008-06-01T13:33:11Z</time></trkpt>
<trkpt lat="45.89360903" lon="9.02756587"><ele>1022.980225</ele><time>2008-06-01T13:33:21Z</time></trkpt>
<trkpt lat="45.89353594" lon="9.02741776"><ele>1024.902832</ele><time>2008-06-01T13:33:34Z</time></trkpt>
<trkpt lat="45.89346067" lon="9.02728080"><ele>1025.383301</ele><time>2008-06-01T13:33:45Z</time></trkpt>
<trkpt lat="45.89338029" lon="9.02714635"><ele>1028.267334</ele><time>2008-06-01T13:33:58Z</time></trkpt>
<trkpt lat="45.89329496" lon="9.02696229"><ele>1028.748047</ele><time>2008-06-01T13:34:11Z</time></trkpt>
<trkpt lat="45.89328775" lon="9.02694678"><ele>1028.748047</ele><time>2008-06-01T13:34:12Z</time></trkpt>
<trkpt lat="45.89325129" lon="9.02689733"><ele>1029.709229</ele><time>2008-06-01T13:34:16Z</time></trkpt>
<trkpt lat="45.89317887" lon="9.02681845"><ele>1030.670654</ele><time>2008-06-01T13:34:26Z</time></trkpt>
<trkpt lat="45.89310662" lon="9.02673120"><ele>1032.593262</ele><time>2008-06-01T13:34:37Z</time></trkpt>
<trkpt lat="45.89299640" lon="9.02676397"><ele>1034.035156</ele><time>2008-06-01T13:34:48Z</time></trkpt>
<trkpt lat="45.89286497" lon="9.02675567"><ele>1035.477051</ele><time>2008-06-01T13:35:01Z</time></trkpt>
<trkpt lat="45.89283312" lon="9.02666666"><ele>1035.477051</ele><time>2008-06-01T13:35:15Z</time></trkpt>
<trkpt lat="45.89282189" lon="9.02662072"><ele>1035.957764</ele><time>2008-06-01T13:35:18Z</time></trkpt>
<trkpt lat="45.89273899" lon="9.02652115"><ele>1037.880615</ele><time>2008-06-01T13:35:28Z</time></trkpt>
<trkpt lat="45.89266623" lon="9.02646407"><ele>1038.842041</ele><time>2008-06-01T13:35:37Z</time></trkpt>
<trkpt lat="45.89257563" lon="9.02646583"><ele>1040.283936</ele><time>2008-06-01T13:35:47Z</time></trkpt>
<trkpt lat="45.89246339" lon="9.02640707"><ele>1042.206543</ele><time>2008-06-01T13:36:01Z</time></trkpt>
<trkpt lat="45.89239592" lon="9.02624563"><ele>1043.167725</ele><time>2008-06-01T13:36:11Z</time></trkpt>
<trkpt lat="45.89234227" lon="9.02613549"><ele>1044.12915</ele><time>2008-06-01T13:36:27Z</time></trkpt>
<trkpt lat="45.89227782" lon="9.02602997"><ele>1045.571045</ele><time>2008-06-01T13:36:37Z</time></trkpt>
<trkpt lat="45.89219349" lon="9.02594154"><ele>1047.493652</ele><time>2008-06-01T13:36:48Z</time></trkpt>
<trkpt lat="45.89212820" lon="9.02586199"><ele>1047.974365</ele><time>2008-06-01T13:36:57Z</time></trkpt>
<trkpt lat="45.89207204" lon="9.02582260"><ele>1049.41626</ele><time>2008-06-01T13:37:06Z</time></trkpt>
<trkpt lat="45.89206106" lon="9.02581673"><ele>1051.81958</ele><time>2008-06-01T13:37:17Z</time></trkpt>
<trkpt lat="45.89212694" lon="9.02581799"><ele>1052.781006</ele><time>2008-06-01T13:37:27Z</time></trkpt>
<trkpt lat="45.89215628" lon="9.02583886"><ele>1053.742432</ele><time>2008-06-01T13:37:31Z</time></trkpt>
<trkpt lat="45.89226114" lon="9.02593005"><ele>1055.665039</ele><time>2008-06-01T13:37:46Z</time></trkpt>
<trkpt lat="45.89232786" lon="9.02602209"><ele>1056.145508</ele><time>2008-06-01T13:37:56Z</time></trkpt>
<trkpt lat="45.89244235" lon="9.02609585"><ele>1057.106934</ele><time>2008-06-01T13:38:07Z</time></trkpt>
<trkpt lat="45.89254235" lon="9.02614295"><ele>1058.548828</ele><time>2008-06-01T13:38:17Z</time></trkpt>
<trkpt lat="45.89268224" lon="9.02617439"><ele>1060.952148</ele><time>2008-06-01T13:38:29Z</time></trkpt>
<trkpt lat="45.89276833" lon="9.02619568"><ele>1061.913574</ele><time>2008-06-01T13:38:39Z</time></trkpt>
<trkpt lat="45.89277428" lon="9.02610566"><ele>1064.31665</ele><time>2008-06-01T13:38:51Z</time></trkpt>
<trkpt lat="45.89276204" lon="9.02608554"><ele>1064.797363</ele><time>2008-06-01T13:38:53Z</time></trkpt>
<trkpt lat="45.89269632" lon="9.02598353"><ele>1066.239258</ele><time>2008-06-01T13:39:05Z</time></trkpt>
<trkpt lat="45.89259977" lon="9.02590868"><ele>1067.200684</ele><time>2008-06-01T13:39:16Z</time></trkpt>
<trkpt lat="45.89243246" lon="9.02571774"><ele>1069.604248</ele><time>2008-06-01T13:39:30Z</time></trkpt>
<trkpt lat="45.89237857" lon="9.02559838"><ele>1071.046143</ele><time>2008-06-01T13:39:41Z</time></trkpt>
<trkpt lat="45.89232693" lon="9.02552848"><ele>1072.007324</ele><time>2008-06-01T13:39:49Z</time></trkpt>
<trkpt lat="45.89223348" lon="9.02545832"><ele>1073.929932</ele><time>2008-06-01T13:40:03Z</time></trkpt>
<trkpt lat="45.89212753" lon="9.02541373"><ele>1075.371826</ele><time>2008-06-01T13:40:14Z</time></trkpt>
<trkpt lat="45.89202795" lon="9.02538599"><ele>1075.371826</ele><time>2008-06-01T13:40:22Z</time></trkpt>
<trkpt lat="45.89192729" lon="9.02503579"><ele>1077.775146</ele><time>2008-06-01T13:40:35Z</time></trkpt>
<trkpt lat="45.89183819" lon="9.02480747"><ele>1079.697754</ele><time>2008-06-01T13:40:48Z</time></trkpt>
<trkpt lat="45.89177163" lon="9.02471862"><ele>1081.139893</ele><time>2008-06-01T13:41:01Z</time></trkpt>
<trkpt lat="45.89173509" lon="9.02464452"><ele>1082.581787</ele><time>2008-06-01T13:41:12Z</time></trkpt>
<trkpt lat="45.89175168" lon="9.02466330"><ele>1084.504639</ele><time>2008-06-01T13:41:19Z</time></trkpt>
<trkpt lat="45.89183123" lon="9.02477855"><ele>1087.388428</ele><time>2008-06-01T13:41:32Z</time></trkpt>
<trkpt lat="45.89194824" lon="9.02503646"><ele>1090.75293</ele><time>2008-06-01T13:42:00Z</time></trkpt>
<trkpt lat="45.89197674" lon="9.02491853"><ele>1094.117676</ele><time>2008-06-01T13:42:13Z</time></trkpt>
<trkpt lat="45.89194589" lon="9.02480579"><ele>1094.598145</ele><time>2008-06-01T13:42:26Z</time></trkpt>
<trkpt lat="45.89190985" lon="9.02467897"><ele>1097.001465</ele><time>2008-06-01T13:42:38Z</time></trkpt>
<trkpt lat="45.89187046" lon="9.02463849"><ele>1097.482178</ele><time>2008-06-01T13:42:49Z</time></trkpt>
<trkpt lat="45.89180424" lon="9.02446917"><ele>1099.885498</ele><time>2008-06-01T13:43:00Z</time></trkpt>
<trkpt lat="45.89172545" lon="9.02429760"><ele>1100.366455</ele><time>2008-06-01T13:43:14Z</time></trkpt>
<trkpt lat="45.89166535" lon="9.02411629"><ele>1101.80835</ele><time>2008-06-01T13:43:27Z</time></trkpt>
<trkpt lat="45.89165789" lon="9.02378177"><ele>1103.730957</ele><time>2008-06-01T13:43:40Z</time></trkpt>
<trkpt lat="45.89167030" lon="9.02326226"><ele>1105.172852</ele><time>2008-06-01T13:43:54Z</time></trkpt>
<trkpt lat="45.89166694" lon="9.02276035"><ele>1106.134033</ele><time>2008-06-01T13:44:08Z</time></trkpt>
<trkpt lat="45.89179887" lon="9.02230178"><ele>1106.134033</ele><time>2008-06-01T13:44:20Z</time></trkpt>
<trkpt lat="45.89186165" lon="9.02198293"><ele>1106.134033</ele><time>2008-06-01T13:44:30Z</time></trkpt>
<trkpt lat="45.89187708" lon="9.02137659"><ele>1106.134033</ele><time>2008-06-01T13:44:42Z</time></trkpt>
<trkpt lat="45.89184707" lon="9.02102656"><ele>1105.172852</ele><time>2008-06-01T13:44:48Z</time></trkpt>
<trkpt lat="45.89181178" lon="9.02085573"><ele>1103.730957</ele><time>2008-06-01T13:44:51Z</time></trkpt>
<trkpt lat="45.89175638" lon="9.02033807"><ele>1101.80835</ele><time>2008-06-01T13:45:00Z</time></trkpt>
<trkpt lat="45.89175588" lon="9.02004546"><ele>1100.846924</ele><time>2008-06-01T13:45:04Z</time></trkpt>
<trkpt lat="45.89177406" lon="9.01974488"><ele>1100.366455</ele><time>2008-06-01T13:45:07Z</time></trkpt>
<trkpt lat="45.89176870" lon="9.01957255"><ele>1099.404785</ele><time>2008-06-01T13:45:09Z</time></trkpt>
<trkpt lat="45.89182452" lon="9.01916427"><ele>1097.962891</ele><time>2008-06-01T13:45:15Z</time></trkpt>
<trkpt lat="45.89199585" lon="9.01901817"><ele>1097.482178</ele><time>2008-06-01T13:45:22Z</time></trkpt>
<trkpt lat="45.89235007" lon="9.01911758"><ele>1097.962891</ele><time>2008-06-01T13:45:32Z</time></trkpt>
<trkpt lat="45.89239307" lon="9.01913024"><ele>1097.962891</ele><time>2008-06-01T13:45:33Z</time></trkpt>
<trkpt lat="45.89248468" lon="9.01914658"><ele>1097.962891</ele><time>2008-06-01T13:45:35Z</time></trkpt>
<trkpt lat="45.89285483" lon="9.01886730"><ele>1098.924072</ele><time>2008-06-01T13:45:45Z</time></trkpt>
<trkpt lat="45.89290093" lon="9.01870284"><ele>1099.885498</ele><time>2008-06-01T13:45:49Z</time></trkpt>
<trkpt lat="45.89302163" lon="9.01831845"><ele>1101.327637</ele><time>2008-06-01T13:46:02Z</time></trkpt>
<trkpt lat="45.89322589" lon="9.01797906"><ele>1104.692139</ele><time>2008-06-01T13:46:15Z</time></trkpt>
<trkpt lat="45.89337576" lon="9.01764924"><ele>1107.095459</ele><time>2008-06-01T13:46:30Z</time></trkpt>
<trkpt lat="45.89363770" lon="9.01733844"><ele>1108.537354</ele><time>2008-06-01T13:46:45Z</time></trkpt>
<trkpt lat="45.89369486" lon="9.01730692"><ele>1108.537354</ele><time>2008-06-01T13:46:48Z</time></trkpt>
<trkpt lat="45.89361917" lon="9.01703635"><ele>1106.614746</ele><time>2008-06-01T13:46:53Z</time></trkpt>
<trkpt lat="45.89349319" lon="9.01680820"><ele>1103.250244</ele><time>2008-06-01T13:46:56Z</time></trkpt>
<trkpt lat="45.89341650" lon="9.01662497"><ele>1099.885498</ele><time>2008-06-01T13:46:58Z</time></trkpt>
<trkpt lat="45.89333159" lon="9.01610286"><ele>1096.040283</ele><time>2008-06-01T13:47:02Z</time></trkpt>
<trkpt lat="45.89340728" lon="9.01534606"><ele>1090.272461</ele><time>2008-06-01T13:47:06Z</time></trkpt>
<trkpt lat="45.89338557" lon="9.01478154"><ele>1084.504639</ele><time>2008-06-01T13:47:09Z</time></trkpt>
<trkpt lat="45.89335782" lon="9.01452664"><ele>1082.581787</ele><time>2008-06-01T13:47:11Z</time></trkpt>
<trkpt lat="45.89311232" lon="9.01424426"><ele>1080.65918</ele><time>2008-06-01T13:47:16Z</time></trkpt>
<trkpt lat="45.89297100" lon="9.01426387"><ele>1077.775146</ele><time>2008-06-01T13:47:20Z</time></trkpt>
<trkpt lat="45.89285994" lon="9.01452136"><ele>1073.929932</ele><time>2008-06-01T13:47:24Z</time></trkpt>
<trkpt lat="45.89280663" lon="9.01467978"><ele>1072.007324</ele><time>2008-06-01T13:47:26Z</time></trkpt>
<trkpt lat="45.89269473" lon="9.01503048"><ele>1068.642822</ele><time>2008-06-01T13:47:32Z</time></trkpt>
<trkpt lat="45.89261318" lon="9.01542376"><ele>1066.239258</ele><time>2008-06-01T13:47:37Z</time></trkpt>
<trkpt lat="45.89259608" lon="9.01550942"><ele>1065.278076</ele><time>2008-06-01T13:47:38Z</time></trkpt>
<trkpt lat="45.89254562" lon="9.01566097"><ele>1064.31665</ele><time>2008-06-01T13:47:40Z</time></trkpt>
<trkpt lat="45.89228662" lon="9.01572777"><ele>1064.31665</ele><time>2008-06-01T13:47:47Z</time></trkpt>
<trkpt lat="45.89193449" lon="9.01546718"><ele>1061.913574</ele><time>2008-06-01T13:47:55Z</time></trkpt>
<trkpt lat="45.89171455" lon="9.01524439"><ele>1058.548828</ele><time>2008-06-01T13:47:59Z</time></trkpt>
<trkpt lat="45.89147986" lon="9.01503559"><ele>1054.223145</ele><time>2008-06-01T13:48:03Z</time></trkpt>
<trkpt lat="45.89128749" lon="9.01446227"><ele>1048.935547</ele><time>2008-06-01T13:48:10Z</time></trkpt>
<trkpt lat="45.89117325" lon="9.01423613"><ele>1042.687256</ele><time>2008-06-01T13:48:13Z</time></trkpt>
<trkpt lat="45.89114064" lon="9.01416195"><ele>1042.687256</ele><time>2008-06-01T13:48:14Z</time></trkpt>
<trkpt lat="45.89110745" lon="9.01409263"><ele>1041.72583</ele><time>2008-06-01T13:48:15Z</time></trkpt>
<trkpt lat="45.89109957" lon="9.01379524"><ele>1038.361328</ele><time>2008-06-01T13:48:20Z</time></trkpt>
<trkpt lat="45.89122849" lon="9.01382189"><ele>1038.361328</ele><time>2008-06-01T13:48:24Z</time></trkpt>
<trkpt lat="45.89157952" lon="9.01391585"><ele>1036.919189</ele><time>2008-06-01T13:48:35Z</time></trkpt>
<trkpt lat="45.89168253" lon="9.01367328"><ele>1036.438721</ele><time>2008-06-01T13:48:41Z</time></trkpt>
<trkpt lat="45.89167608" lon="9.01290198"><ele>1037.880615</ele><time>2008-06-01T13:48:58Z</time></trkpt>
<trkpt lat="45.89167289" lon="9.01204384"><ele>1035.957764</ele><time>2008-06-01T13:49:16Z</time></trkpt>
<trkpt lat="45.89169485" lon="9.01134940"><ele>1034.035156</ele><time>2008-06-01T13:49:27Z</time></trkpt>
<trkpt lat="45.89166258" lon="9.01110180"><ele>1029.709229</ele><time>2008-06-01T13:49:32Z</time></trkpt>
<trkpt lat="45.89164909" lon="9.01090876"><ele>1025.864014</ele><time>2008-06-01T13:49:36Z</time></trkpt>
<trkpt lat="45.89163233" lon="9.01075437"><ele>1021.538086</ele><time>2008-06-01T13:49:39Z</time></trkpt>
<trkpt lat="45.89163459" lon="9.01069159"><ele>1021.538086</ele><time>2008-06-01T13:49:40Z</time></trkpt>
<trkpt lat="45.89174666" lon="9.01008910"><ele>1018.17334</ele><time>2008-06-01T13:49:50Z</time></trkpt>
<trkpt lat="45.89175336" lon="9.01003428"><ele>1018.17334</ele><time>2008-06-01T13:49:51Z</time></trkpt>
<trkpt lat="45.89181379" lon="9.00950563"><ele>1018.17334</ele><time>2008-06-01T13:49:59Z</time></trkpt>
<trkpt lat="45.89187624" lon="9.00898193"><ele>1014.808838</ele><time>2008-06-01T13:50:06Z</time></trkpt>
<trkpt lat="45.89188395" lon="9.00868303"><ele>1012.405518</ele><time>2008-06-01T13:50:10Z</time></trkpt>
<trkpt lat="45.89185654" lon="9.00833979"><ele>1008.560303</ele><time>2008-06-01T13:50:14Z</time></trkpt>
<trkpt lat="45.89185009" lon="9.00818473"><ele>1006.637695</ele><time>2008-06-01T13:50:16Z</time></trkpt>
<trkpt lat="45.89183726" lon="9.00790117"><ele>1004.234619</ele><time>2008-06-01T13:50:20Z</time></trkpt>
<trkpt lat="45.89186903" lon="9.00751987"><ele>1000.869629</ele><time>2008-06-01T13:50:24Z</time></trkpt>
<trkpt lat="45.89187557" lon="9.00726984"><ele>999.427734</ele><time>2008-06-01T13:50:27Z</time></trkpt>
<trkpt lat="45.89196710" lon="9.00687698"><ele>998.947021</ele><time>2008-06-01T13:50:34Z</time></trkpt>
<trkpt lat="45.89199719" lon="9.00674799"><ele>998.466309</ele><time>2008-06-01T13:50:36Z</time></trkpt>
<trkpt lat="45.89201672" lon="9.00646132"><ele>998.466309</ele><time>2008-06-01T13:50:40Z</time></trkpt>
<trkpt lat="45.89207078" lon="9.00614633"><ele>997.98584</ele><time>2008-06-01T13:50:45Z</time></trkpt>
<trkpt lat="45.89230908" lon="9.00612806"><ele>994.621094</ele><time>2008-06-01T13:50:51Z</time></trkpt>
<trkpt lat="45.89234244" lon="9.00614583"><ele>993.659912</ele><time>2008-06-01T13:50:52Z</time></trkpt>
<trkpt lat="45.89249616" lon="9.00620484"><ele>988.853516</ele><time>2008-06-01T13:50:56Z</time></trkpt>
<trkpt lat="45.89263262" lon="9.00622688"><ele>985.969238</ele><time>2008-06-01T13:50:59Z</time></trkpt>
<trkpt lat="45.89278459" lon="9.00626276"><ele>981.162842</ele><time>2008-06-01T13:51:02Z</time></trkpt>
<trkpt lat="45.89300872" lon="9.00631154"><ele>978.278809</ele><time>2008-06-01T13:51:06Z</time></trkpt>
<trkpt lat="45.89322128" lon="9.00631422"><ele>976.356201</ele><time>2008-06-01T13:51:10Z</time></trkpt>
<trkpt lat="45.89339152" lon="9.00627374"><ele>972.510986</ele><time>2008-06-01T13:51:14Z</time></trkpt>
<trkpt lat="45.89345472" lon="9.00623208"><ele>971.068848</ele><time>2008-06-01T13:51:16Z</time></trkpt>
<trkpt lat="45.89369955" lon="9.00614692"><ele>965.781738</ele><time>2008-06-01T13:51:21Z</time></trkpt>
<trkpt lat="45.89392955" lon="9.00613183"><ele>961.936523</ele><time>2008-06-01T13:51:25Z</time></trkpt>
<trkpt lat="45.89406685" lon="9.00612689"><ele>960.975098</ele><time>2008-06-01T13:51:27Z</time></trkpt>
<trkpt lat="45.89437656" lon="9.00605204"><ele>958.571777</ele><time>2008-06-01T13:51:31Z</time></trkpt>
<trkpt lat="45.89480245" lon="9.00595866"><ele>959.05249</ele><time>2008-06-01T13:51:38Z</time></trkpt>
<trkpt lat="45.89505524" lon="9.00591667"><ele>957.129883</ele><time>2008-06-01T13:51:45Z</time></trkpt>
<trkpt lat="45.89507167" lon="9.00584433"><ele>956.64917</ele><time>2008-06-01T13:51:46Z</time></trkpt>
<trkpt lat="45.89510185" lon="9.00567167"><ele>955.207031</ele><time>2008-06-01T13:51:48Z</time></trkpt>
<trkpt lat="45.89517016" lon="9.00541359"><ele>953.284424</ele><time>2008-06-01T13:51:51Z</time></trkpt>
<trkpt lat="45.89519120" lon="9.00524260"><ele>952.322998</ele><time>2008-06-01T13:51:53Z</time></trkpt>
<trkpt lat="45.89506706" lon="9.00504906"><ele>949.439209</ele><time>2008-06-01T13:51:56Z</time></trkpt>
<trkpt lat="45.89487243" lon="9.00487429"><ele>945.593994</ele><time>2008-06-01T13:52:00Z</time></trkpt>
<trkpt lat="45.89483966" lon="9.00477380"><ele>944.632568</ele><time>2008-06-01T13:52:02Z</time></trkpt>
<trkpt lat="45.89482097" lon="9.00474203"><ele>944.1521</ele><time>2008-06-01T13:52:03Z</time></trkpt>
<trkpt lat="45.89468786" lon="9.00504864"><ele>940.787354</ele><time>2008-06-01T13:52:07Z</time></trkpt>
<trkpt lat="45.89446013" lon="9.00536858"><ele>936.941895</ele><time>2008-06-01T13:52:12Z</time></trkpt>
<trkpt lat="45.89417992" lon="9.00537067"><ele>933.09668</ele><time>2008-06-01T13:52:16Z</time></trkpt>
<trkpt lat="45.89411915" lon="9.00533119"><ele>932.135498</ele><time>2008-06-01T13:52:17Z</time></trkpt>
<trkpt lat="45.89387926" lon="9.00513338"><ele>928.290283</ele><time>2008-06-01T13:52:21Z</time></trkpt>
<trkpt lat="45.89367558" lon="9.00495526"><ele>924.925781</ele><time>2008-06-01T13:52:25Z</time></trkpt>
<trkpt lat="45.89344969" lon="9.00477815"><ele>921.560791</ele><time>2008-06-01T13:52:29Z</time></trkpt>
<trkpt lat="45.89329395" lon="9.00464497"><ele>918.677002</ele><time>2008-06-01T13:52:33Z</time></trkpt>
<trkpt lat="45.89340468" lon="9.00459233"><ele>915.3125</ele><time>2008-06-01T13:52:38Z</time></trkpt>
<trkpt lat="45.89360744" lon="9.00457883"><ele>912.428467</ele><time>2008-06-01T13:52:43Z</time></trkpt>
<trkpt lat="45.89346427" lon="9.00439527"><ele>910.025146</ele><time>2008-06-01T13:52:49Z</time></trkpt>
<trkpt lat="45.89334282" lon="9.00417910"><ele>907.141113</ele><time>2008-06-01T13:52:52Z</time></trkpt>
<trkpt lat="45.89329203" lon="9.00411749"><ele>906.6604</ele><time>2008-06-01T13:52:53Z</time></trkpt>
<trkpt lat="45.89306974" lon="9.00386780"><ele>901.854004</ele><time>2008-06-01T13:52:57Z</time></trkpt>
<trkpt lat="45.89295507" lon="9.00358055"><ele>899.931396</ele><time>2008-06-01T13:53:00Z</time></trkpt>
<trkpt lat="45.89281828" lon="9.00322096"><ele>896.566895</ele><time>2008-06-01T13:53:04Z</time></trkpt>
<trkpt lat="45.89275693" lon="9.00305852"><ele>895.605469</ele><time>2008-06-01T13:53:06Z</time></trkpt>
<trkpt lat="45.89271334" lon="9.00288234"><ele>894.163574</ele><time>2008-06-01T13:53:08Z</time></trkpt>
<trkpt lat="45.89268744" lon="9.00282400"><ele>893.202148</ele><time>2008-06-01T13:53:09Z</time></trkpt>
<trkpt lat="45.89252735" lon="9.00257765"><ele>890.798584</ele><time>2008-06-01T13:53:15Z</time></trkpt>
<trkpt lat="45.89244763" lon="9.00245117"><ele>886.953369</ele><time>2008-06-01T13:53:19Z</time></trkpt>
<trkpt lat="45.89252844" lon="9.00242292"><ele>885.992188</ele><time>2008-06-01T13:53:22Z</time></trkpt>
<trkpt lat="45.89261360" lon="9.00244312"><ele>885.031006</ele><time>2008-06-01T13:53:24Z</time></trkpt>
<trkpt lat="45.89274536" lon="9.00246886"><ele>883.588867</ele><time>2008-06-01T13:53:27Z</time></trkpt>
<trkpt lat="45.89262634" lon="9.00232854"><ele>880.705078</ele><time>2008-06-01T13:53:34Z</time></trkpt>
<trkpt lat="45.89248334" lon="9.00224104"><ele>878.782471</ele><time>2008-06-01T13:53:38Z</time></trkpt>
<trkpt lat="45.89234462" lon="9.00220298"><ele>877.340576</ele><time>2008-06-01T13:53:41Z</time></trkpt>
<trkpt lat="45.89229575" lon="9.00218605"><ele>876.37915</ele><time>2008-06-01T13:53:42Z</time></trkpt>
<trkpt lat="45.89216240" lon="9.00210517"><ele>873.975586</ele><time>2008-06-01T13:53:45Z</time></trkpt>
<trkpt lat="45.89212677" lon="9.00207692"><ele>873.014404</ele><time>2008-06-01T13:53:46Z</time></trkpt>
<trkpt lat="45.89200130" lon="9.00195303"><ele>870.611084</ele><time>2008-06-01T13:53:49Z</time></trkpt>
<trkpt lat="45.89187004" lon="9.00179964"><ele>869.169189</ele><time>2008-06-01T13:53:52Z</time></trkpt>
<trkpt lat="45.89182653" lon="9.00175505"><ele>867.727051</ele><time>2008-06-01T13:53:53Z</time></trkpt>
<trkpt lat="45.89162612" lon="9.00159630"><ele>864.843262</ele><time>2008-06-01T13:53:57Z</time></trkpt>
<trkpt lat="45.89141373" lon="9.00147719"><ele>860.998047</ele><time>2008-06-01T13:54:01Z</time></trkpt>
<trkpt lat="45.89116244" lon="9.00130805"><ele>857.152588</ele><time>2008-06-01T13:54:06Z</time></trkpt>
<trkpt lat="45.89111893" lon="9.00127804"><ele>856.671875</ele><time>2008-06-01T13:54:07Z</time></trkpt>
<trkpt lat="45.89098776" lon="9.00119363"><ele>855.22998</ele><time>2008-06-01T13:54:10Z</time></trkpt>
<trkpt lat="45.89083713" lon="9.00110202"><ele>853.788086</ele><time>2008-06-01T13:54:13Z</time></trkpt>
<trkpt lat="45.89062784" lon="9.00094318"><ele>849.942871</ele><time>2008-06-01T13:54:18Z</time></trkpt>
<trkpt lat="45.89059724" lon="9.00091804"><ele>849.462158</ele><time>2008-06-01T13:54:19Z</time></trkpt>
<trkpt lat="45.89044377" lon="9.00082475"><ele>848.020264</ele><time>2008-06-01T13:54:23Z</time></trkpt>
<trkpt lat="45.89036775" lon="9.00078158"><ele>846.097656</ele><time>2008-06-01T13:54:25Z</time></trkpt>
<trkpt lat="45.89011763" lon="9.00059198"><ele>842.252197</ele><time>2008-06-01T13:54:31Z</time></trkpt>
<trkpt lat="45.89002845" lon="9.00050405"><ele>840.810059</ele><time>2008-06-01T13:54:33Z</time></trkpt>
<trkpt lat="45.88995125" lon="9.00044437"><ele>840.32959</ele><time>2008-06-01T13:54:35Z</time></trkpt>
<trkpt lat="45.88975042" lon="9.00028017"><ele>836.484375</ele><time>2008-06-01T13:54:41Z</time></trkpt>
<trkpt lat="45.88971396" lon="9.00024522"><ele>836.484375</ele><time>2008-06-01T13:54:42Z</time></trkpt>
<trkpt lat="45.88967700" lon="9.00020784"><ele>835.522949</ele><time>2008-06-01T13:54:43Z</time></trkpt>
<trkpt lat="45.88936192" lon="8.99996778"><ele>831.677734</ele><time>2008-06-01T13:54:53Z</time></trkpt>
<trkpt lat="45.88930065" lon="8.99993735"><ele>830.23584</ele><time>2008-06-01T13:54:55Z</time></trkpt>
<trkpt lat="45.88901835" lon="8.99978036"><ele>826.871094</ele><time>2008-06-01T13:55:03Z</time></trkpt>
<trkpt lat="45.88898247" lon="8.99975169"><ele>826.871094</ele><time>2008-06-01T13:55:04Z</time></trkpt>
<trkpt lat="45.88891977" lon="8.99968414"><ele>825.428955</ele><time>2008-06-01T13:55:06Z</time></trkpt>
<trkpt lat="45.88885004" lon="8.99959277"><ele>823.506592</ele><time>2008-06-01T13:55:09Z</time></trkpt>
<trkpt lat="45.88873194" lon="8.99937199"><ele>820.622559</ele><time>2008-06-01T13:55:15Z</time></trkpt>
<trkpt lat="45.88874233" lon="8.99932623"><ele>820.141846</ele><time>2008-06-01T13:55:26Z</time></trkpt>
<trkpt lat="45.88874987" lon="8.99931516"><ele>820.141846</ele><time>2008-06-01T13:55:30Z</time></trkpt>
<trkpt lat="45.88871199" lon="8.99942815"><ele>819.661377</ele><time>2008-06-01T13:55:35Z</time></trkpt>
<trkpt lat="45.88883629" lon="8.99972605"><ele>817.258057</ele><time>2008-06-01T13:55:42Z</time></trkpt>
<trkpt lat="45.88877234" lon="8.99970870"><ele>814.854736</ele><time>2008-06-01T13:55:47Z</time></trkpt>
<trkpt lat="45.88872724" lon="8.99963535"><ele>814.854736</ele><time>2008-06-01T13:55:49Z</time></trkpt>
<trkpt lat="45.88858726" lon="8.99943570"><ele>813.412842</ele><time>2008-06-01T13:55:54Z</time></trkpt>
<trkpt lat="45.88848132" lon="8.99914837"><ele>809.567383</ele><time>2008-06-01T13:56:00Z</time></trkpt>
<trkpt lat="45.88850588" lon="8.99868594"><ele>806.68335</ele><time>2008-06-01T13:56:06Z</time></trkpt>
<trkpt lat="45.88848232" lon="8.99841512"><ele>803.799561</ele><time>2008-06-01T13:56:10Z</time></trkpt>
<trkpt lat="45.88837814" lon="8.99814706"><ele>801.39624</ele><time>2008-06-01T13:56:14Z</time></trkpt>
<trkpt lat="45.88820036" lon="8.99780986"><ele>798.512207</ele><time>2008-06-01T13:56:20Z</time></trkpt>
<trkpt lat="45.88811075" lon="8.99762437"><ele>796.589844</ele><time>2008-06-01T13:56:23Z</time></trkpt>
<trkpt lat="45.88807982" lon="8.99757165"><ele>795.628174</ele><time>2008-06-01T13:56:24Z</time></trkpt>
<trkpt lat="45.88803255" lon="8.99746947"><ele>794.186279</ele><time>2008-06-01T13:56:26Z</time></trkpt>
<trkpt lat="45.88788436" lon="8.99725498"><ele>792.263672</ele><time>2008-06-01T13:56:31Z</time></trkpt>
<trkpt lat="45.88779786" lon="8.99712506"><ele>789.379639</ele><time>2008-06-01T13:56:34Z</time></trkpt>
<trkpt lat="45.88761857" lon="8.99684753"><ele>786.015137</ele><time>2008-06-01T13:56:42Z</time></trkpt>
<trkpt lat="45.88764120" lon="8.99696915"><ele>786.015137</ele><time>2008-06-01T13:56:50Z</time></trkpt>
<trkpt lat="45.88769736" lon="8.99713562"><ele>783.611816</ele><time>2008-06-01T13:57:16Z</time></trkpt>
<trkpt lat="45.88774522" lon="8.99723377"><ele>782.650635</ele><time>2008-06-01T13:57:18Z</time></trkpt>
<trkpt lat="45.88785100" lon="8.99752102"><ele>780.247314</ele><time>2008-06-01T13:57:22Z</time></trkpt>
<trkpt lat="45.88793180" lon="8.99770970"><ele>779.766357</ele><time>2008-06-01T13:57:24Z</time></trkpt>
<trkpt lat="45.88802794" lon="8.99811655"><ele>776.401855</ele><time>2008-06-01T13:57:29Z</time></trkpt>
<trkpt lat="45.88804303" lon="8.99843079"><ele>773.998535</ele><time>2008-06-01T13:57:33Z</time></trkpt>
<trkpt lat="45.88803682" lon="8.99851712"><ele>773.518066</ele><time>2008-06-01T13:57:34Z</time></trkpt>
<trkpt lat="45.88798536" lon="8.99877093"><ele>769.672852</ele><time>2008-06-01T13:57:37Z</time></trkpt>
<trkpt lat="45.88793423" lon="8.99904988"><ele>766.308105</ele><time>2008-06-01T13:57:41Z</time></trkpt>
<trkpt lat="45.88791939" lon="8.99929019"><ele>763.904541</ele><time>2008-06-01T13:57:46Z</time></trkpt>
<trkpt lat="45.88780498" lon="8.99904996"><ele>761.501465</ele><time>2008-06-01T13:57:53Z</time></trkpt>
<trkpt lat="45.88778134" lon="8.99891275"><ele>760.540039</ele><time>2008-06-01T13:57:55Z</time></trkpt>
<trkpt lat="45.88774933" lon="8.99854872"><ele>756.694824</ele><time>2008-06-01T13:58:00Z</time></trkpt>
<trkpt lat="45.88764908" lon="8.99820565"><ele>751.888428</ele><time>2008-06-01T13:58:05Z</time></trkpt>
<trkpt lat="45.88762259" lon="8.99814354"><ele>751.407715</ele><time>2008-06-01T13:58:06Z</time></trkpt>
<trkpt lat="45.88757414" lon="8.99804204"><ele>750.927002</ele><time>2008-06-01T13:58:08Z</time></trkpt>
<trkpt lat="45.88752829" lon="8.99794229"><ele>749.96582</ele><time>2008-06-01T13:58:10Z</time></trkpt>
<trkpt lat="45.88743626" lon="8.99776024"><ele>748.043213</ele><time>2008-06-01T13:58:14Z</time></trkpt>
<trkpt lat="45.88733928" lon="8.99761490"><ele>746.120361</ele><time>2008-06-01T13:58:18Z</time></trkpt>
<trkpt lat="45.88717173" lon="8.99739588"><ele>742.755859</ele><time>2008-06-01T13:58:25Z</time></trkpt>
<trkpt lat="45.88711834" lon="8.99733234"><ele>741.794434</ele><time>2008-06-01T13:58:27Z</time></trkpt>
<trkpt lat="45.88700250" lon="8.99717518"><ele>739.391113</ele><time>2008-06-01T13:58:32Z</time></trkpt>
<trkpt lat="45.88693175" lon="8.99690336"><ele>736.987793</ele><time>2008-06-01T13:58:38Z</time></trkpt>
<trkpt lat="45.88689228" lon="8.99689883"><ele>736.026611</ele><time>2008-06-01T13:58:42Z</time></trkpt>
<trkpt lat="45.88706519" lon="8.99741465"><ele>732.662109</ele><time>2008-06-01T13:58:54Z</time></trkpt>
<trkpt lat="45.88713828" lon="8.99755513"><ele>729.777832</ele><time>2008-06-01T13:58:57Z</time></trkpt>
<trkpt lat="45.88718883" lon="8.99765898"><ele>729.297119</ele><time>2008-06-01T13:58:59Z</time></trkpt>
<trkpt lat="45.88724029" lon="8.99777189"><ele>728.335938</ele><time>2008-06-01T13:59:01Z</time></trkpt>
<trkpt lat="45.88728874" lon="8.99796383"><ele>726.41333</ele><time>2008-06-01T13:59:04Z</time></trkpt>
<trkpt lat="45.88735202" lon="8.99816408"><ele>724.01001</ele><time>2008-06-01T13:59:07Z</time></trkpt>
<trkpt lat="45.88735973" lon="8.99862072"><ele>720.645508</ele><time>2008-06-01T13:59:14Z</time></trkpt>
<trkpt lat="45.88732420" lon="8.99863405"><ele>719.684326</ele><time>2008-06-01T13:59:16Z</time></trkpt>
<trkpt lat="45.88730073" lon="8.99858636"><ele>719.203613</ele><time>2008-06-01T13:59:18Z</time></trkpt>
<trkpt lat="45.88724985" lon="8.99843129"><ele>717.761475</ele><time>2008-06-01T13:59:21Z</time></trkpt>
<trkpt lat="45.88716905" lon="8.99820532"><ele>714.396729</ele><time>2008-06-01T13:59:25Z</time></trkpt>
<trkpt lat="45.88707894" lon="8.99804187"><ele>712.954834</ele><time>2008-06-01T13:59:28Z</time></trkpt>
<trkpt lat="45.88693142" lon="8.99781866"><ele>709.590332</ele><time>2008-06-01T13:59:33Z</time></trkpt>
<trkpt lat="45.88676043" lon="8.99765379"><ele>706.225586</ele><time>2008-06-01T13:59:38Z</time></trkpt>
<trkpt lat="45.88657477" lon="8.99727317"><ele>703.82251</ele><time>2008-06-01T13:59:47Z</time></trkpt>
<trkpt lat="45.88653646" lon="8.99712724"><ele>702.861084</ele><time>2008-06-01T13:59:50Z</time></trkpt>
<trkpt lat="45.88654694" lon="8.99733544"><ele>700.458008</ele><time>2008-06-01T13:59:57Z</time></trkpt>
<trkpt lat="45.88670452" lon="8.99783903"><ele>697.093018</ele><time>2008-06-01T14:00:04Z</time></trkpt>
<trkpt lat="45.88687342" lon="8.99816969"><ele>696.131836</ele><time>2008-06-01T14:00:08Z</time></trkpt>
<trkpt lat="45.88700292" lon="8.99866096"><ele>691.325195</ele><time>2008-06-01T14:00:14Z</time></trkpt>
<trkpt lat="45.88703058" lon="8.99891837"><ele>688.441406</ele><time>2008-06-01T14:00:18Z</time></trkpt>
<trkpt lat="45.88702748" lon="8.99920695"><ele>686.518799</ele><time>2008-06-01T14:00:21Z</time></trkpt>
<trkpt lat="45.88702714" lon="8.99942639"><ele>684.596191</ele><time>2008-06-01T14:00:23Z</time></trkpt>
<trkpt lat="45.88704147" lon="8.99966477"><ele>684.115479</ele><time>2008-06-01T14:00:26Z</time></trkpt>
<trkpt lat="45.88695154" lon="8.99960308"><ele>681.711914</ele><time>2008-06-01T14:00:31Z</time></trkpt>
<trkpt lat="45.88691524" lon="8.99938507"><ele>679.789307</ele><time>2008-06-01T14:00:35Z</time></trkpt>
<trkpt lat="45.88681147" lon="8.99894938"><ele>675.944092</ele><time>2008-06-01T14:00:44Z</time></trkpt>
<trkpt lat="45.88667938" lon="8.99868099"><ele>673.060303</ele><time>2008-06-01T14:00:50Z</time></trkpt>
<trkpt lat="45.88668725" lon="8.99876758"><ele>672.098877</ele><time>2008-06-01T14:00:54Z</time></trkpt>
<trkpt lat="45.88672958" lon="8.99887579"><ele>670.656982</ele><time>2008-06-01T14:00:56Z</time></trkpt>
<trkpt lat="45.88675314" lon="8.99899682"><ele>669.695801</ele><time>2008-06-01T14:00:58Z</time></trkpt>
<trkpt lat="45.88676856" lon="8.99919463"><ele>667.292236</ele><time>2008-06-01T14:01:01Z</time></trkpt>
<trkpt lat="45.88677283" lon="8.99926404"><ele>665.850342</ele><time>2008-06-01T14:01:02Z</time></trkpt>
<trkpt lat="45.88679857" lon="8.99946805"><ele>664.408203</ele><time>2008-06-01T14:01:05Z</time></trkpt>
<trkpt lat="45.88680603" lon="8.99964332"><ele>662.485596</ele><time>2008-06-01T14:01:08Z</time></trkpt>
<trkpt lat="45.88672967" lon="8.99969093"><ele>661.524414</ele><time>2008-06-01T14:01:11Z</time></trkpt>
<trkpt lat="45.88665155" lon="8.99954718"><ele>659.601807</ele><time>2008-06-01T14:01:14Z</time></trkpt>
<trkpt lat="45.88653998" lon="8.99929572"><ele>656.237061</ele><time>2008-06-01T14:01:19Z</time></trkpt>
<trkpt lat="45.88650914" lon="8.99923847"><ele>656.237061</ele><time>2008-06-01T14:01:20Z</time></trkpt>
<trkpt lat="45.88647544" lon="8.99917787"><ele>655.756592</ele><time>2008-06-01T14:01:21Z</time></trkpt>
<trkpt lat="45.88642063" lon="8.99904594"><ele>655.275879</ele><time>2008-06-01T14:01:23Z</time></trkpt>
<trkpt lat="45.88635055" lon="8.99890680"><ele>654.795166</ele><time>2008-06-01T14:01:25Z</time></trkpt>
<trkpt lat="45.88603196" lon="8.99857596"><ele>652.391846</ele><time>2008-06-01T14:01:31Z</time></trkpt>
<trkpt lat="45.88572216" lon="8.99840196"><ele>649.0271</ele><time>2008-06-01T14:01:37Z</time></trkpt>
<trkpt lat="45.88555972" lon="8.99836223"><ele>645.662598</ele><time>2008-06-01T14:01:41Z</time></trkpt>
<trkpt lat="45.88546174" lon="8.99831864"><ele>642.778809</ele><time>2008-06-01T14:01:44Z</time></trkpt>
<trkpt lat="45.88525646" lon="8.99813239"><ele>640.375488</ele><time>2008-06-01T14:01:50Z</time></trkpt>
<trkpt lat="45.88498564" lon="8.99796308"><ele>636.049561</ele><time>2008-06-01T14:01:55Z</time></trkpt>
<trkpt lat="45.88486494" lon="8.99788915"><ele>635.568604</ele><time>2008-06-01T14:01:57Z</time></trkpt>
<trkpt lat="45.88480879" lon="8.99785018"><ele>634.126709</ele><time>2008-06-01T14:01:58Z</time></trkpt>
<trkpt lat="45.88457325" lon="8.99773107"><ele>631.24292</ele><time>2008-06-01T14:02:03Z</time></trkpt>
<trkpt lat="45.88444510" lon="8.99772093"><ele>630.281494</ele><time>2008-06-01T14:02:06Z</time></trkpt>
<trkpt lat="45.88402223" lon="8.99778044"><ele>626.436279</ele><time>2008-06-01T14:02:13Z</time></trkpt>
<trkpt lat="45.88372777" lon="8.99782637"><ele>624.513672</ele><time>2008-06-01T14:02:17Z</time></trkpt>
<trkpt lat="45.88365720" lon="8.99783090"><ele>623.071777</ele><time>2008-06-01T14:02:18Z</time></trkpt>
<trkpt lat="45.88322243" lon="8.99793626"><ele>619.707031</ele><time>2008-06-01T14:02:24Z</time></trkpt>
<trkpt lat="45.88275438" lon="8.99778672"><ele>616.342285</ele><time>2008-06-01T14:02:30Z</time></trkpt>
<trkpt lat="45.88192206" lon="8.99760207"><ele>613.458496</ele><time>2008-06-01T14:02:40Z</time></trkpt>
<trkpt lat="45.88159089" lon="8.99752060"><ele>611.535889</ele><time>2008-06-01T14:02:44Z</time></trkpt>
<trkpt lat="45.88126978" lon="8.99748548"><ele>610.09375</ele><time>2008-06-01T14:02:48Z</time></trkpt>
<trkpt lat="45.88087692" lon="8.99731105"><ele>609.132568</ele><time>2008-06-01T14:02:54Z</time></trkpt>
<trkpt lat="45.88053519" lon="8.99716177"><ele>607.209961</ele><time>2008-06-01T14:03:00Z</time></trkpt>
<trkpt lat="45.88025984" lon="8.99707485"><ele>605.768066</ele><time>2008-06-01T14:03:04Z</time></trkpt>
<trkpt lat="45.88005063" lon="8.99698776"><ele>605.287354</ele><time>2008-06-01T14:03:07Z</time></trkpt>
<trkpt lat="45.87933767" lon="8.99691886"><ele>601.922607</ele><time>2008-06-01T14:03:17Z</time></trkpt>
<trkpt lat="45.87920364" lon="8.99690746"><ele>601.441895</ele><time>2008-06-01T14:03:19Z</time></trkpt>
<trkpt lat="45.87889829" lon="8.99698642"><ele>600.480713</ele><time>2008-06-01T14:03:24Z</time></trkpt>
<trkpt lat="45.87834223" lon="8.99666565"><ele>601.441895</ele><time>2008-06-01T14:03:35Z</time></trkpt>
<trkpt lat="45.87821583" lon="8.99656305"><ele>601.441895</ele><time>2008-06-01T14:03:38Z</time></trkpt>
<trkpt lat="45.87787989" lon="8.99614932"><ele>601.441895</ele><time>2008-06-01T14:03:48Z</time></trkpt>
<trkpt lat="45.87779506" lon="8.99604907"><ele>601.922607</ele><time>2008-06-01T14:03:50Z</time></trkpt>
<trkpt lat="45.87761535" lon="8.99585553"><ele>600</ele><time>2008-06-01T14:03:54Z</time></trkpt>
<trkpt lat="45.87751234" lon="8.99575403"><ele>599.038574</ele><time>2008-06-01T14:03:56Z</time></trkpt>
<trkpt lat="45.87708285" lon="8.99555764"><ele>594.712646</ele><time>2008-06-01T14:04:02Z</time></trkpt>
<trkpt lat="45.87680859" lon="8.99546309"><ele>591.348145</ele><time>2008-06-01T14:04:06Z</time></trkpt>
<trkpt lat="45.87642479" lon="8.99551355"><ele>588.945068</ele><time>2008-06-01T14:04:12Z</time></trkpt>
<trkpt lat="45.87620904" lon="8.99542890"><ele>587.502686</ele><time>2008-06-01T14:04:16Z</time></trkpt>
<trkpt lat="45.87591190" lon="8.99538774"><ele>586.541504</ele><time>2008-06-01T14:04:21Z</time></trkpt>
<trkpt lat="45.87568223" lon="8.99551188"><ele>585.099609</ele><time>2008-06-01T14:04:25Z</time></trkpt>
<trkpt lat="45.87556363" lon="8.99559729"><ele>584.138184</ele><time>2008-06-01T14:04:27Z</time></trkpt>
<trkpt lat="45.87511646" lon="8.99577264"><ele>580.773682</ele><time>2008-06-01T14:04:33Z</time></trkpt>
<trkpt lat="45.87480582" lon="8.99582176"><ele>577.889648</ele><time>2008-06-01T14:04:36Z</time></trkpt>
<trkpt lat="45.87457708" lon="8.99584933"><ele>573.563965</ele><time>2008-06-01T14:04:38Z</time></trkpt>
<trkpt lat="45.87434658" lon="8.99585118"><ele>569.237793</ele><time>2008-06-01T14:04:40Z</time></trkpt>
<trkpt lat="45.87413452" lon="8.99584254"><ele>566.35376</ele><time>2008-06-01T14:04:42Z</time></trkpt>
<trkpt lat="45.87395548" lon="8.99584883"><ele>562.508545</ele><time>2008-06-01T14:04:44Z</time></trkpt>
<trkpt lat="45.87381793" lon="8.99586216"><ele>561.06665</ele><time>2008-06-01T14:04:46Z</time></trkpt>
<trkpt lat="45.87342608" lon="8.99586978"><ele>556.26001</ele><time>2008-06-01T14:04:51Z</time></trkpt>
<trkpt lat="45.87321888" lon="8.99588713"><ele>552.895264</ele><time>2008-06-01T14:04:53Z</time></trkpt>
<trkpt lat="45.87298913" lon="8.99592670"><ele>549.050049</ele><time>2008-06-01T14:04:55Z</time></trkpt>
<trkpt lat="45.87268143" lon="8.99596743"><ele>543.762817</ele><time>2008-06-01T14:04:58Z</time></trkpt>
<trkpt lat="45.87252636" lon="8.99598436"><ele>539.917603</ele><time>2008-06-01T14:05:00Z</time></trkpt>
<trkpt lat="45.87223099" lon="8.99598034"><ele>535.591553</ele><time>2008-06-01T14:05:05Z</time></trkpt>
<trkpt lat="45.87224239" lon="8.99586283"><ele>532.227051</ele><time>2008-06-01T14:05:07Z</time></trkpt>
<trkpt lat="45.87231900" lon="8.99570533"><ele>529.34314</ele><time>2008-06-01T14:05:11Z</time></trkpt>
<trkpt lat="45.87222093" lon="8.99577188"><ele>527.901001</ele><time>2008-06-01T14:05:13Z</time></trkpt>
<trkpt lat="45.87204885" lon="8.99594983"><ele>526.459106</ele><time>2008-06-01T14:05:16Z</time></trkpt>
<trkpt lat="45.87172514" lon="8.99610238"><ele>522.133179</ele><time>2008-06-01T14:05:20Z</time></trkpt>
<trkpt lat="45.87164132" lon="8.99610322"><ele>521.652588</ele><time>2008-06-01T14:05:21Z</time></trkpt>
<trkpt lat="45.87143663" lon="8.99590784"><ele>515.404053</ele><time>2008-06-01T14:05:25Z</time></trkpt>
<trkpt lat="45.87154258" lon="8.99562587"><ele>514.442627</ele><time>2008-06-01T14:05:28Z</time></trkpt>
<trkpt lat="45.87165507" lon="8.99535195"><ele>508.674683</ele><time>2008-06-01T14:05:32Z</time></trkpt>
<trkpt lat="45.87157854" lon="8.99534608"><ele>507.713501</ele><time>2008-06-01T14:05:34Z</time></trkpt>
<trkpt lat="45.87149464" lon="8.99542764"><ele>507.713501</ele><time>2008-06-01T14:05:36Z</time></trkpt>
<trkpt lat="45.87125190" lon="8.99562218"><ele>506.752075</ele><time>2008-06-01T14:05:41Z</time></trkpt>
<trkpt lat="45.87110505" lon="8.99569259"><ele>506.752075</ele><time>2008-06-01T14:05:44Z</time></trkpt>
<trkpt lat="45.87088603" lon="8.99632199"><ele>502.426147</ele><time>2008-06-01T14:05:51Z</time></trkpt>
<trkpt lat="45.87086348" lon="8.99652835"><ele>498.580933</ele><time>2008-06-01T14:05:53Z</time></trkpt>
<trkpt lat="45.87083724" lon="8.99659717"><ele>498.100342</ele><time>2008-06-01T14:05:54Z</time></trkpt>
<trkpt lat="45.87065527" lon="8.99689900"><ele>493.293579</ele><time>2008-06-01T14:05:58Z</time></trkpt>
<trkpt lat="45.87048763" lon="8.99713285"><ele>489.929077</ele><time>2008-06-01T14:06:01Z</time></trkpt>
<trkpt lat="45.87044279" lon="8.99718096"><ele>487.525635</ele><time>2008-06-01T14:06:02Z</time></trkpt>
<trkpt lat="45.87032553" lon="8.99729923"><ele>485.122437</ele><time>2008-06-01T14:06:05Z</time></trkpt>
<trkpt lat="45.86995304" lon="8.99787029"><ele>481.757813</ele><time>2008-06-01T14:06:12Z</time></trkpt>
<trkpt lat="45.86984089" lon="8.99810172"><ele>479.835083</ele><time>2008-06-01T14:06:14Z</time></trkpt>
<trkpt lat="45.86971449" lon="8.99831227"><ele>478.393188</ele><time>2008-06-01T14:06:16Z</time></trkpt>
<trkpt lat="45.86959882" lon="8.99872994"><ele>482.238525</ele><time>2008-06-01T14:06:21Z</time></trkpt>
<trkpt lat="45.86960066" lon="8.99878903"><ele>482.719238</ele><time>2008-06-01T14:06:22Z</time></trkpt>
<trkpt lat="45.86945289" lon="8.99944617"><ele>484.161133</ele><time>2008-06-01T14:06:35Z</time></trkpt>
<trkpt lat="45.86940075" lon="8.99955086"><ele>483.68042</ele><time>2008-06-01T14:06:37Z</time></trkpt>
<trkpt lat="45.86928123" lon="8.99975572"><ele>483.199829</ele><time>2008-06-01T14:06:41Z</time></trkpt>
<trkpt lat="45.86922163" lon="9.00002302"><ele>483.68042</ele><time>2008-06-01T14:06:45Z</time></trkpt>
<trkpt lat="45.86921526" lon="9.00098853"><ele>484.161133</ele><time>2008-06-01T14:07:00Z</time></trkpt>
<trkpt lat="45.86924544" lon="9.00123219"><ele>484.641846</ele><time>2008-06-01T14:07:04Z</time></trkpt>
<trkpt lat="45.86924125" lon="9.00151164"><ele>482.719238</ele><time>2008-06-01T14:07:09Z</time></trkpt>
<trkpt lat="45.86913899" lon="9.00123579"><ele>478.393188</ele><time>2008-06-01T14:07:15Z</time></trkpt>
<trkpt lat="45.86911426" lon="9.00110118"><ele>476.951294</ele><time>2008-06-01T14:07:17Z</time></trkpt>
<trkpt lat="45.86909859" lon="9.00103865"><ele>476.951294</ele><time>2008-06-01T14:07:18Z</time></trkpt>
<trkpt lat="45.86898752" lon="9.00079818"><ele>473.106079</ele><time>2008-06-01T14:07:23Z</time></trkpt>
<trkpt lat="45.86899892" lon="9.00108375"><ele>471.66394</ele><time>2008-06-01T14:07:31Z</time></trkpt>
<trkpt lat="45.86901359" lon="9.00220818"><ele>471.66394</ele><time>2008-06-01T14:07:47Z</time></trkpt>
<trkpt lat="45.86898308" lon="9.00237397"><ele>470.702637</ele><time>2008-06-01T14:07:50Z</time></trkpt>
<trkpt lat="45.86886498" lon="9.00231086"><ele>465.896118</ele><time>2008-06-01T14:07:55Z</time></trkpt>
<trkpt lat="45.86869416" lon="9.00235444"><ele>462.531372</ele><time>2008-06-01T14:07:58Z</time></trkpt>
<trkpt lat="45.86858058" lon="9.00232779"><ele>459.647583</ele><time>2008-06-01T14:08:00Z</time></trkpt>
<trkpt lat="45.86853616" lon="9.00233584"><ele>459.647583</ele><time>2008-06-01T14:08:01Z</time></trkpt>
<trkpt lat="45.86848394" lon="9.00241655"><ele>459.16687</ele><time>2008-06-01T14:08:03Z</time></trkpt>
<trkpt lat="45.86830046" lon="9.00250968"><ele>458.686157</ele><time>2008-06-01T14:08:09Z</time></trkpt>
<trkpt lat="45.86802419" lon="9.00230004"><ele>457.244263</ele><time>2008-06-01T14:08:15Z</time></trkpt>
<trkpt lat="45.86787474" lon="9.00224447"><ele>457.244263</ele><time>2008-06-01T14:08:18Z</time></trkpt>
<trkpt lat="45.86757383" lon="9.00245260"><ele>458.205566</ele><time>2008-06-01T14:08:27Z</time></trkpt>
<trkpt lat="45.86724702" lon="9.00272316"><ele>461.089478</ele><time>2008-06-01T14:08:39Z</time></trkpt>
<trkpt lat="45.86719329" lon="9.00273942"><ele>461.089478</ele><time>2008-06-01T14:08:41Z</time></trkpt>
<trkpt lat="45.86692935" lon="9.00246324"><ele>461.089478</ele><time>2008-06-01T14:08:49Z</time></trkpt>
<trkpt lat="45.86668049" lon="9.00234472"><ele>460.608765</ele><time>2008-06-01T14:08:54Z</time></trkpt>
<trkpt lat="45.86644077" lon="9.00235645"><ele>460.608765</ele><time>2008-06-01T14:08:59Z</time></trkpt>
<trkpt lat="45.86629182" lon="9.00219929"><ele>458.686157</ele><time>2008-06-01T14:09:04Z</time></trkpt>
<trkpt lat="45.86617389" lon="9.00183854"><ele>458.686157</ele><time>2008-06-01T14:09:11Z</time></trkpt>
<trkpt lat="45.86603709" lon="9.00187986"><ele>458.205566</ele><time>2008-06-01T14:09:15Z</time></trkpt>
<trkpt lat="45.86531214" lon="9.00229376"><ele>458.686157</ele><time>2008-06-01T14:09:31Z</time></trkpt>
<trkpt lat="45.86437706" lon="9.00249836"><ele>458.686157</ele><time>2008-06-01T14:09:48Z</time></trkpt>
<trkpt lat="45.86359310" lon="9.00266063"><ele>456.76355</ele><time>2008-06-01T14:10:02Z</time></trkpt>
<trkpt lat="45.86245794" lon="9.00291285"><ele>454.84082</ele><time>2008-06-01T14:10:17Z</time></trkpt>
<trkpt lat="45.86216248" lon="9.00301360"><ele>452.918213</ele><time>2008-06-01T14:10:21Z</time></trkpt>
<trkpt lat="45.86153635" lon="9.00316657"><ele>451.476318</ele><time>2008-06-01T14:10:30Z</time></trkpt>
<trkpt lat="45.86115162" lon="9.00360326"><ele>449.072998</ele><time>2008-06-01T14:10:37Z</time></trkpt>
<trkpt lat="45.86112572" lon="9.00364920"><ele>447.630981</ele><time>2008-06-01T14:10:38Z</time></trkpt>
<trkpt lat="45.86109848" lon="9.00362673"><ele>446.189087</ele><time>2008-06-01T14:10:42Z</time></trkpt>
<trkpt lat="45.86113578" lon="9.00355607"><ele>445.708374</ele><time>2008-06-01T14:10:44Z</time></trkpt>
<trkpt lat="45.86108607" lon="9.00343328"><ele>441.382446</ele><time>2008-06-01T14:10:47Z</time></trkpt>
<trkpt lat="45.86101558" lon="9.00342523"><ele>440.421265</ele><time>2008-06-01T14:10:48Z</time></trkpt>
<trkpt lat="45.86061208" lon="9.00341844"><ele>435.133911</ele><time>2008-06-01T14:10:52Z</time></trkpt>
<trkpt lat="45.86025476" lon="9.00326245"><ele>429.846558</ele><time>2008-06-01T14:10:56Z</time></trkpt>
<trkpt lat="45.86017446" lon="9.00321258"><ele>428.404663</ele><time>2008-06-01T14:10:57Z</time></trkpt>
<trkpt lat="45.85999852" lon="9.00265963"><ele>425.520752</ele><time>2008-06-01T14:11:02Z</time></trkpt>
<trkpt lat="45.86004705" lon="9.00213408"><ele>424.559448</ele><time>2008-06-01T14:11:06Z</time></trkpt>
<trkpt lat="45.85994479" lon="9.00177777"><ele>425.040161</ele><time>2008-06-01T14:11:10Z</time></trkpt>
<trkpt lat="45.85982275" lon="9.00163553"><ele>426.482056</ele><time>2008-06-01T14:11:13Z</time></trkpt>
<trkpt lat="45.85968118" lon="9.00112088"><ele>425.520752</ele><time>2008-06-01T14:11:20Z</time></trkpt>
<trkpt lat="45.85968529" lon="9.00056566"><ele>423.598022</ele><time>2008-06-01T14:11:25Z</time></trkpt>
<trkpt lat="45.85961463" lon="9.00020733"><ele>421.194824</ele><time>2008-06-01T14:11:28Z</time></trkpt>
<trkpt lat="45.85952586" lon="8.99952656"><ele>417.349609</ele><time>2008-06-01T14:11:33Z</time></trkpt>
<trkpt lat="45.85947507" lon="8.99861603"><ele>414.465454</ele><time>2008-06-01T14:11:39Z</time></trkpt>
<trkpt lat="45.85938907" lon="8.99814924"><ele>413.02356</ele><time>2008-06-01T14:11:42Z</time></trkpt>
<trkpt lat="45.85929385" lon="8.99767105"><ele>410.620239</ele><time>2008-06-01T14:11:45Z</time></trkpt>
<trkpt lat="45.85923602" lon="8.99716873"><ele>407.736328</ele><time>2008-06-01T14:11:48Z</time></trkpt>
<trkpt lat="45.85924448" lon="8.99665467"><ele>406.294312</ele><time>2008-06-01T14:11:51Z</time></trkpt>
<trkpt lat="45.85909587" lon="8.99583357"><ele>401.00708</ele><time>2008-06-01T14:11:56Z</time></trkpt>
<trkpt lat="45.85901599" lon="8.99570106"><ele>400.526489</ele><time>2008-06-01T14:11:57Z</time></trkpt>
<trkpt lat="45.85856186" lon="8.99509412"><ele>396.681152</ele><time>2008-06-01T14:12:02Z</time></trkpt>
<trkpt lat="45.85825936" lon="8.99452382"><ele>393.797241</ele><time>2008-06-01T14:12:06Z</time></trkpt>
<trkpt lat="45.85819272" lon="8.99436984"><ele>392.355347</ele><time>2008-06-01T14:12:07Z</time></trkpt>
<trkpt lat="45.85783440" lon="8.99385528"><ele>388.990601</ele><time>2008-06-01T14:12:11Z</time></trkpt>
<trkpt lat="45.85772904" lon="8.99375075"><ele>388.029297</ele><time>2008-06-01T14:12:12Z</time></trkpt>
<trkpt lat="45.85751362" lon="8.99359125"><ele>386.106689</ele><time>2008-06-01T14:12:14Z</time></trkpt>
<trkpt lat="45.85733056" lon="8.99316905"><ele>382.742065</ele><time>2008-06-01T14:12:18Z</time></trkpt>
<trkpt lat="45.85714825" lon="8.99199575"><ele>382.261353</ele><time>2008-06-01T14:12:28Z</time></trkpt>
<trkpt lat="45.85713509" lon="8.99151698"><ele>382.261353</ele><time>2008-06-01T14:12:32Z</time></trkpt>
<trkpt lat="45.85733936" lon="8.98974647"><ele>382.261353</ele><time>2008-06-01T14:12:48Z</time></trkpt>
<trkpt lat="45.85734984" lon="8.98954916"><ele>381.300049</ele><time>2008-06-01T14:12:50Z</time></trkpt>
<trkpt lat="45.85695907" lon="8.98916200"><ele>379.858032</ele><time>2008-06-01T14:12:57Z</time></trkpt>
<trkpt lat="45.85689487" lon="8.98911389"><ele>379.858032</ele><time>2008-06-01T14:12:58Z</time></trkpt>
<trkpt lat="45.85677794" lon="8.98900165"><ele>379.377441</ele><time>2008-06-01T14:13:00Z</time></trkpt>
<trkpt lat="45.85661056" lon="8.98890375"><ele>378.896851</ele><time>2008-06-01T14:13:03Z</time></trkpt>
<trkpt lat="45.85657124" lon="8.98880837"><ele>377.935425</ele><time>2008-06-01T14:13:05Z</time></trkpt>
<trkpt lat="45.85657778" lon="8.98866990"><ele>376.974243</ele><time>2008-06-01T14:13:14Z</time></trkpt>
<trkpt lat="45.85657745" lon="8.98868440"><ele>375.532104</ele><time>2008-06-01T14:13:17Z</time></trkpt>
<trkpt lat="45.85660033" lon="8.98870326"><ele>374.090088</ele><time>2008-06-01T14:13:19Z</time></trkpt>
<trkpt lat="45.85669303" lon="8.98881683"><ele>375.532104</ele><time>2008-06-01T14:13:31Z</time></trkpt>
<trkpt lat="45.85670074" lon="8.98882630"><ele>376.012817</ele><time>2008-06-01T14:13:32Z</time></trkpt>
<trkpt lat="45.85641123" lon="8.98859697"><ele>376.974243</ele><time>2008-06-01T14:13:42Z</time></trkpt>
<trkpt lat="45.85639154" lon="8.98856973"><ele>376.974243</ele><time>2008-06-01T14:13:43Z</time></trkpt>
<trkpt lat="45.85646127" lon="8.98779248"><ele>376.012817</ele><time>2008-06-01T14:13:53Z</time></trkpt>
<trkpt lat="45.85667895" lon="8.98633126"><ele>373.128906</ele><time>2008-06-01T14:14:07Z</time></trkpt>
<trkpt lat="45.85688498" lon="8.98495344"><ele>369.283691</ele><time>2008-06-01T14:14:19Z</time></trkpt>
<trkpt lat="45.85702462" lon="8.98401467"><ele>368.322266</ele><time>2008-06-01T14:14:27Z</time></trkpt>
<trkpt lat="45.85731707" lon="8.98350572"><ele>367.841553</ele><time>2008-06-01T14:14:33Z</time></trkpt>
<trkpt lat="45.85772367" lon="8.98316089"><ele>368.802979</ele><time>2008-06-01T14:14:40Z</time></trkpt>
<trkpt lat="45.85817554" lon="8.98300205"><ele>368.802979</ele><time>2008-06-01T14:14:47Z</time></trkpt>
<trkpt lat="45.85835139" lon="8.98268765"><ele>367.841553</ele><time>2008-06-01T14:14:51Z</time></trkpt>
<trkpt lat="45.85883570" lon="8.98170420"><ele>366.880249</ele><time>2008-06-01T14:15:02Z</time></trkpt>
<trkpt lat="45.85942067" lon="8.98118880"><ele>367.360962</ele><time>2008-06-01T14:15:12Z</time></trkpt>
<trkpt lat="45.85954850" lon="8.98092787"><ele>368.802979</ele><time>2008-06-01T14:15:18Z</time></trkpt>
<trkpt lat="45.85955160" lon="8.98083642"><ele>370.244873</ele><time>2008-06-01T14:15:20Z</time></trkpt>
<trkpt lat="45.85970155" lon="8.98039428"><ele>370.725586</ele><time>2008-06-01T14:15:30Z</time></trkpt>
<trkpt lat="45.85987925" lon="8.98047709"><ele>371.206299</ele><time>2008-06-01T14:15:35Z</time></trkpt>
<trkpt lat="45.86010179" lon="8.98003436"><ele>371.68689</ele><time>2008-06-01T14:15:44Z</time></trkpt>
<trkpt lat="45.86048886" lon="8.97913934"><ele>370.725586</ele><time>2008-06-01T14:15:57Z</time></trkpt>
<trkpt lat="45.86055173" lon="8.97898427"><ele>370.725586</ele><time>2008-06-01T14:15:59Z</time></trkpt>
<trkpt lat="45.86062037" lon="8.97868345"><ele>370.725586</ele><time>2008-06-01T14:16:03Z</time></trkpt>
<trkpt lat="45.86062063" lon="8.97838195"><ele>370.725586</ele><time>2008-06-01T14:16:07Z</time></trkpt>
<trkpt lat="45.86053169" lon="8.97815078"><ele>369.283691</ele><time>2008-06-01T14:16:10Z</time></trkpt>
<trkpt lat="45.86037545" lon="8.97791508"><ele>369.283691</ele><time>2008-06-01T14:16:14Z</time></trkpt>
<trkpt lat="45.86016297" lon="8.97799764"><ele>369.283691</ele><time>2008-06-01T14:16:19Z</time></trkpt>
<trkpt lat="45.85984815" lon="8.97898603"><ele>367.841553</ele><time>2008-06-01T14:16:36Z</time></trkpt>
<trkpt lat="45.85985217" lon="8.97899450"><ele>367.841553</ele><time>2008-06-01T14:16:48Z</time></trkpt>
<trkpt lat="45.85977917" lon="8.97909215"><ele>367.841553</ele><time>2008-06-01T14:16:59Z</time></trkpt>
<trkpt lat="45.85975653" lon="8.97904194"><ele>368.322266</ele><time>2008-06-01T14:17:03Z</time></trkpt>
<trkpt lat="45.85965453" lon="8.97892099"><ele>367.360962</ele><time>2008-06-01T14:17:10Z</time></trkpt>
<trkpt lat="45.85959770" lon="8.97878227"><ele>366.399536</ele><time>2008-06-01T14:17:22Z</time></trkpt>
<trkpt lat="45.85948689" lon="8.97852788"><ele>366.880249</ele><time>2008-06-01T14:17:31Z</time></trkpt>
<trkpt lat="45.85940835" lon="8.97803418"><ele>366.880249</ele><time>2008-06-01T14:17:42Z</time></trkpt>
<trkpt lat="45.85941858" lon="8.97789622"><ele>366.880249</ele><time>2008-06-01T14:17:45Z</time></trkpt>
<trkpt lat="45.85931749" lon="8.97780058"><ele>366.399536</ele><time>2008-06-01T14:17:49Z</time></trkpt>
<trkpt lat="45.85915849" lon="8.97760780"><ele>365.918945</ele><time>2008-06-01T14:17:54Z</time></trkpt>
<trkpt lat="45.85906587" lon="8.97728886"><ele>365.918945</ele><time>2008-06-01T14:17:59Z</time></trkpt>
<trkpt lat="45.85916318" lon="8.97657515"><ele>366.399536</ele><time>2008-06-01T14:18:09Z</time></trkpt>
<trkpt lat="45.85914508" lon="8.97623048"><ele>365.438354</ele><time>2008-06-01T14:18:16Z</time></trkpt>
<trkpt lat="45.85909864" lon="8.97618639"><ele>364.476929</ele><time>2008-06-01T14:18:26Z</time></trkpt>
<trkpt lat="45.85909948" lon="8.97620232"><ele>364.957642</ele><time>2008-06-01T14:18:38Z</time></trkpt>
<trkpt lat="45.85910836" lon="8.97616644"><ele>364.476929</ele><time>2008-06-01T14:18:47Z</time></trkpt>
<trkpt lat="45.85904047" lon="8.97614138"><ele>363.996338</ele><time>2008-06-01T14:19:02Z</time></trkpt>
<trkpt lat="45.85903016" lon="8.97611045"><ele>363.515747</ele><time>2008-06-01T14:19:15Z</time></trkpt>
<trkpt lat="45.85902404" lon="8.97615672"><ele>363.515747</ele><time>2008-06-01T14:19:26Z</time></trkpt>
<trkpt lat="45.85903049" lon="8.97615412"><ele>363.035034</ele><time>2008-06-01T14:19:38Z</time></trkpt>
<trkpt lat="45.85901524" lon="8.97616058"><ele>363.035034</ele><time>2008-06-01T14:19:52Z</time></trkpt>
<trkpt lat="45.85903368" lon="8.97616619"><ele>362.554321</ele><time>2008-06-01T14:20:11Z</time></trkpt>
<trkpt lat="45.85905430" lon="8.97616737"><ele>362.07373</ele><time>2008-06-01T14:20:30Z</time></trkpt>
<trkpt lat="45.85904424" lon="8.97616167"><ele>362.07373</ele><time>2008-06-01T14:21:02Z</time></trkpt>
<trkpt lat="45.85903133" lon="8.97615236"><ele>361.59314</ele><time>2008-06-01T14:21:23Z</time></trkpt>
<trkpt lat="45.85903586" lon="8.97614465"><ele>362.07373</ele><time>2008-06-01T14:21:38Z</time></trkpt>
<trkpt lat="45.85904516" lon="8.97615287"><ele>362.07373</ele><time>2008-06-01T14:22:00Z</time></trkpt>
<trkpt lat="45.85902136" lon="8.97613996"><ele>361.59314</ele><time>2008-06-01T14:22:18Z</time></trkpt>
<trkpt lat="45.85902806" lon="8.97612252"><ele>361.59314</ele><time>2008-06-01T14:22:33Z</time></trkpt>
<trkpt lat="45.85903896" lon="8.97604893"><ele>361.112427</ele><time>2008-06-01T14:22:50Z</time></trkpt>
<trkpt lat="45.85901926" lon="8.97605195"><ele>360.631714</ele><time>2008-06-01T14:23:43Z</time></trkpt>
<trkpt lat="45.85901222" lon="8.97606125"><ele>358.228394</ele><time>2008-06-01T14:23:57Z</time></trkpt>
</trkseg></trk></gpx>